<?xml version="1.0" encoding="UTF-8" standalone="no" ?>
<gpx xmlns="http://www.topografix.com/GPX/1/1" xmlns:xsi="http://www.w3.org/2001/XMLSchema-instance" xsi:schemaLocation="http://www.topografix.com/GPX/1/1 http://www.topografix.com/GPX/1/1/gpx.xsd" version="1.1" creator="VisuGPX - https://www.visugpx.com">
  <metadata>
    <name>Fontainebleau Trois-Pignons 13-05-2026</name>
    <desc><![CDATA[[url=https://randoris.fr][img]https://randoris.fr/wp-content/uploads/2019/02/Logo-Rando-Ris.jpg[/img][/url] [url=https://www.visugpx.com/recherche/?activite=rp&search=Rando-Ris-Genevieve*&id_mbr=35164&afft=on&go=Rechercher]Rando-Ris-Genevieve*[/url] [url=https://randoris.fr/avertissement/][img]https://randoris.fr/wp-content/uploads/2019/03/Rando-Ris-Avertissement.jpg[/img][/url] Rando Isabelle sous tutorat Geneviève 
[b]Distance[/b] : 17.9 km [b]Dénivelé cumulé[/b] : 256 m [b]Cotation[/b] : R3+
[url=https://www.visugpx.com/recherche/?activite=rp&search=Fontainebleau*&id_mbr=35164&afft=on&go=Rechercher]Fontainebleau*[/url] [url=https://www.visugpx.com/recherche/?activite=rp&search=Trois-Pignons*&id_mbr=35164&afft=on&go=Rechercher]Trois-Pignons*[/url]


Fait le  13-05-2026 Tutorat Isabelle
]]></desc>
  </metadata>
  <trk>
    <name><![CDATA[SityTrail - Reconnaissance Fontainebleau avec Ris Orangis]]></name>
    <desc><![CDATA[Tutorat 1 avec Geneviève]]></desc>
    <extensions>
      <line xmlns="http://www.topografix.com/GPX/gpx_style/0/2">
        <color>ff0000</color>
        <opacity>1</opacity>
        <width>7</width>
      </line>
    </extensions>
    <trkseg>
      <trkpt lat="48.38759" lon="2.56239">
        <ele>78</ele>
        <time>2026-04-17T07:08:51.771Z</time>
      </trkpt>
      <trkpt lat="48.3876" lon="2.5624">
        <ele>78</ele>
        <time>2026-04-17T07:09:34.770Z</time>
      </trkpt>
      <trkpt lat="48.38761" lon="2.56239">
        <ele>78</ele>
        <time>2026-04-17T07:09:39.770Z</time>
      </trkpt>
      <trkpt lat="48.38761" lon="2.5624">
        <ele>78</ele>
        <time>2026-04-17T07:09:44.771Z</time>
      </trkpt>
      <trkpt lat="48.38761" lon="2.5624">
        <ele>78</ele>
        <time>2026-04-17T07:09:57.771Z</time>
      </trkpt>
      <trkpt lat="48.38759" lon="2.56241">
        <ele>78</ele>
        <time>2026-04-17T07:10:02.770Z</time>
      </trkpt>
      <trkpt lat="48.38756" lon="2.56244">
        <ele>78</ele>
        <time>2026-04-17T07:11:10.770Z</time>
      </trkpt>
      <trkpt lat="48.38757" lon="2.56239">
        <ele>78</ele>
        <time>2026-04-17T07:11:14.771Z</time>
      </trkpt>
      <trkpt lat="48.38757" lon="2.56239">
        <ele>78</ele>
        <time>2026-04-17T07:11:19.770Z</time>
      </trkpt>
      <trkpt lat="48.38757" lon="2.56239">
        <ele>78</ele>
        <time>2026-04-17T07:11:23.771Z</time>
      </trkpt>
      <trkpt lat="48.38757" lon="2.56233">
        <ele>78</ele>
        <time>2026-04-17T07:11:27.770Z</time>
      </trkpt>
      <trkpt lat="48.38756" lon="2.56229">
        <ele>78</ele>
        <time>2026-04-17T07:22:29.768Z</time>
      </trkpt>
      <trkpt lat="48.38759" lon="2.56221">
        <ele>78</ele>
        <time>2026-04-17T07:22:36.768Z</time>
      </trkpt>
      <trkpt lat="48.38761" lon="2.56215">
        <ele>78</ele>
        <time>2026-04-17T07:22:45.768Z</time>
      </trkpt>
      <trkpt lat="48.38763" lon="2.56207">
        <ele>79</ele>
        <time>2026-04-17T07:22:49.768Z</time>
      </trkpt>
      <trkpt lat="48.38764" lon="2.56201">
        <ele>77</ele>
        <time>2026-04-17T07:22:54.768Z</time>
      </trkpt>
      <trkpt lat="48.38765" lon="2.56193">
        <ele>77</ele>
        <time>2026-04-17T07:22:59.768Z</time>
      </trkpt>
      <trkpt lat="48.38765" lon="2.56185">
        <ele>77</ele>
        <time>2026-04-17T07:23:04.241Z</time>
      </trkpt>
      <trkpt lat="48.38765" lon="2.56178">
        <ele>76</ele>
        <time>2026-04-17T07:23:08.772Z</time>
      </trkpt>
      <trkpt lat="48.38767" lon="2.56171">
        <ele>76</ele>
        <time>2026-04-17T07:23:12.770Z</time>
      </trkpt>
      <trkpt lat="48.38769" lon="2.56164">
        <ele>76</ele>
        <time>2026-04-17T07:23:17.483Z</time>
      </trkpt>
      <trkpt lat="48.3877" lon="2.56158">
        <ele>76</ele>
        <time>2026-04-17T07:23:21.761Z</time>
      </trkpt>
      <trkpt lat="48.38771" lon="2.56151">
        <ele>77</ele>
        <time>2026-04-17T07:23:26.203Z</time>
      </trkpt>
      <trkpt lat="48.3877" lon="2.56148">
        <ele>77</ele>
        <time>2026-04-17T07:23:30.237Z</time>
      </trkpt>
      <trkpt lat="48.38772" lon="2.56139">
        <ele>77</ele>
        <time>2026-04-17T07:23:34.299Z</time>
      </trkpt>
      <trkpt lat="48.38773" lon="2.56131">
        <ele>77</ele>
        <time>2026-04-17T07:23:38.420Z</time>
      </trkpt>
      <trkpt lat="48.38772" lon="2.56124">
        <ele>77</ele>
        <time>2026-04-17T07:23:42.600Z</time>
      </trkpt>
      <trkpt lat="48.38772" lon="2.5612">
        <ele>77</ele>
        <time>2026-04-17T07:23:46.636Z</time>
      </trkpt>
      <trkpt lat="48.38772" lon="2.56114">
        <ele>77</ele>
        <time>2026-04-17T07:23:50.767Z</time>
      </trkpt>
      <trkpt lat="48.38774" lon="2.56106">
        <ele>77</ele>
        <time>2026-04-17T07:23:55.099Z</time>
      </trkpt>
      <trkpt lat="48.38775" lon="2.56099">
        <ele>77</ele>
        <time>2026-04-17T07:23:59.639Z</time>
      </trkpt>
      <trkpt lat="48.38775" lon="2.56091">
        <ele>78</ele>
        <time>2026-04-17T07:24:03.778Z</time>
      </trkpt>
      <trkpt lat="48.38775" lon="2.56085">
        <ele>78</ele>
        <time>2026-04-17T07:24:08.179Z</time>
      </trkpt>
      <trkpt lat="48.38774" lon="2.56078">
        <ele>78</ele>
        <time>2026-04-17T07:24:12.781Z</time>
      </trkpt>
      <trkpt lat="48.38774" lon="2.56072">
        <ele>78</ele>
        <time>2026-04-17T07:24:17.239Z</time>
      </trkpt>
      <trkpt lat="48.38774" lon="2.56064">
        <ele>78</ele>
        <time>2026-04-17T07:24:21.318Z</time>
      </trkpt>
      <trkpt lat="48.38771" lon="2.56065">
        <ele>78</ele>
        <time>2026-04-17T07:24:25.439Z</time>
      </trkpt>
      <trkpt lat="48.38772" lon="2.56057">
        <ele>78</ele>
        <time>2026-04-17T07:24:29.781Z</time>
      </trkpt>
      <trkpt lat="48.38774" lon="2.5605">
        <ele>78</ele>
        <time>2026-04-17T07:24:34.022Z</time>
      </trkpt>
      <trkpt lat="48.38775" lon="2.56043">
        <ele>78</ele>
        <time>2026-04-17T07:24:38.603Z</time>
      </trkpt>
      <trkpt lat="48.38776" lon="2.56037">
        <ele>78</ele>
        <time>2026-04-17T07:25:33.766Z</time>
      </trkpt>
      <trkpt lat="48.38776" lon="2.56031">
        <ele>78</ele>
        <time>2026-04-17T07:25:38.227Z</time>
      </trkpt>
      <trkpt lat="48.38774" lon="2.56025">
        <ele>78</ele>
        <time>2026-04-17T07:25:42.766Z</time>
      </trkpt>
      <trkpt lat="48.38771" lon="2.56019">
        <ele>78</ele>
        <time>2026-04-17T07:25:46.980Z</time>
      </trkpt>
      <trkpt lat="48.38767" lon="2.56014">
        <ele>78</ele>
        <time>2026-04-17T07:25:51.246Z</time>
      </trkpt>
      <trkpt lat="48.38763" lon="2.56009">
        <ele>79</ele>
        <time>2026-04-17T07:25:55.248Z</time>
      </trkpt>
      <trkpt lat="48.38759" lon="2.56004">
        <ele>79</ele>
        <time>2026-04-17T07:25:59.403Z</time>
      </trkpt>
      <trkpt lat="48.38756" lon="2.55999">
        <ele>79</ele>
        <time>2026-04-17T07:26:03.562Z</time>
      </trkpt>
      <trkpt lat="48.38753" lon="2.55993">
        <ele>79</ele>
        <time>2026-04-17T07:26:07.767Z</time>
      </trkpt>
      <trkpt lat="48.38749" lon="2.55988">
        <ele>79</ele>
        <time>2026-04-17T07:26:12.460Z</time>
      </trkpt>
      <trkpt lat="48.38746" lon="2.55982">
        <ele>80</ele>
        <time>2026-04-17T07:26:16.501Z</time>
      </trkpt>
      <trkpt lat="48.38743" lon="2.55976">
        <ele>80</ele>
        <time>2026-04-17T07:26:20.676Z</time>
      </trkpt>
      <trkpt lat="48.3874" lon="2.5597">
        <ele>80</ele>
        <time>2026-04-17T07:26:25.018Z</time>
      </trkpt>
      <trkpt lat="48.38734" lon="2.55951">
        <ele>82</ele>
        <time>2026-04-17T07:26:29.479Z</time>
      </trkpt>
      <trkpt lat="48.38732" lon="2.55942">
        <ele>82</ele>
        <time>2026-04-17T07:26:33.781Z</time>
      </trkpt>
      <trkpt lat="48.38727" lon="2.55937">
        <ele>82</ele>
        <time>2026-04-17T07:26:38.336Z</time>
      </trkpt>
      <trkpt lat="48.38723" lon="2.55933">
        <ele>82</ele>
        <time>2026-04-17T07:26:42.721Z</time>
      </trkpt>
      <trkpt lat="48.3872" lon="2.55928">
        <ele>83</ele>
        <time>2026-04-17T07:27:00.779Z</time>
      </trkpt>
      <trkpt lat="48.38716" lon="2.55923">
        <ele>83</ele>
        <time>2026-04-17T07:27:05.504Z</time>
      </trkpt>
      <trkpt lat="48.38712" lon="2.55918">
        <ele>83</ele>
        <time>2026-04-17T07:27:10.026Z</time>
      </trkpt>
      <trkpt lat="48.38709" lon="2.55911">
        <ele>83</ele>
        <time>2026-04-17T07:27:14.565Z</time>
      </trkpt>
      <trkpt lat="48.38707" lon="2.55905">
        <ele>84</ele>
        <time>2026-04-17T07:27:18.600Z</time>
      </trkpt>
      <trkpt lat="48.38704" lon="2.559">
        <ele>85</ele>
        <time>2026-04-17T07:27:23.267Z</time>
      </trkpt>
      <trkpt lat="48.38702" lon="2.55895">
        <ele>85</ele>
        <time>2026-04-17T07:27:27.781Z</time>
      </trkpt>
      <trkpt lat="48.387" lon="2.55888">
        <ele>85</ele>
        <time>2026-04-17T07:27:32.330Z</time>
      </trkpt>
      <trkpt lat="48.387" lon="2.55881">
        <ele>85</ele>
        <time>2026-04-17T07:27:36.901Z</time>
      </trkpt>
      <trkpt lat="48.38699" lon="2.55874">
        <ele>87</ele>
        <time>2026-04-17T07:27:41.105Z</time>
      </trkpt>
      <trkpt lat="48.38697" lon="2.55868">
        <ele>87</ele>
        <time>2026-04-17T07:27:45.184Z</time>
      </trkpt>
      <trkpt lat="48.38695" lon="2.55861">
        <ele>87</ele>
        <time>2026-04-17T07:27:49.586Z</time>
      </trkpt>
      <trkpt lat="48.38693" lon="2.55855">
        <ele>87</ele>
        <time>2026-04-17T07:27:53.949Z</time>
      </trkpt>
      <trkpt lat="48.38691" lon="2.55849">
        <ele>87</ele>
        <time>2026-04-17T07:27:58.400Z</time>
      </trkpt>
      <trkpt lat="48.38687" lon="2.55844">
        <ele>89</ele>
        <time>2026-04-17T07:28:02.904Z</time>
      </trkpt>
      <trkpt lat="48.38684" lon="2.55839">
        <ele>89</ele>
        <time>2026-04-17T07:28:07.324Z</time>
      </trkpt>
      <trkpt lat="48.38682" lon="2.55833">
        <ele>89</ele>
        <time>2026-04-17T07:28:11.769Z</time>
      </trkpt>
      <trkpt lat="48.3868" lon="2.55827">
        <ele>92</ele>
        <time>2026-04-17T07:28:15.769Z</time>
      </trkpt>
      <trkpt lat="48.38678" lon="2.55822">
        <ele>92</ele>
        <time>2026-04-17T07:28:20.205Z</time>
      </trkpt>
      <trkpt lat="48.38674" lon="2.55815">
        <ele>93</ele>
        <time>2026-04-17T07:28:24.240Z</time>
      </trkpt>
      <trkpt lat="48.38672" lon="2.55809">
        <ele>93</ele>
        <time>2026-04-17T07:28:28.769Z</time>
      </trkpt>
      <trkpt lat="48.38671" lon="2.55802">
        <ele>93</ele>
        <time>2026-04-17T07:28:32.948Z</time>
      </trkpt>
      <trkpt lat="48.38669" lon="2.55795">
        <ele>93</ele>
        <time>2026-04-17T07:28:37.558Z</time>
      </trkpt>
      <trkpt lat="48.38668" lon="2.55789">
        <ele>93</ele>
        <time>2026-04-17T07:28:41.583Z</time>
      </trkpt>
      <trkpt lat="48.38664" lon="2.55783">
        <ele>93</ele>
        <time>2026-04-17T07:28:45.769Z</time>
      </trkpt>
      <trkpt lat="48.38659" lon="2.55779">
        <ele>93</ele>
        <time>2026-04-17T07:28:50.465Z</time>
      </trkpt>
      <trkpt lat="48.38652" lon="2.55778">
        <ele>96</ele>
        <time>2026-04-17T07:28:54.824Z</time>
      </trkpt>
      <trkpt lat="48.38646" lon="2.5578">
        <ele>96</ele>
        <time>2026-04-17T07:28:58.846Z</time>
      </trkpt>
      <trkpt lat="48.38641" lon="2.55778">
        <ele>96</ele>
        <time>2026-04-17T07:29:03.305Z</time>
      </trkpt>
      <trkpt lat="48.38636" lon="2.5578">
        <ele>96</ele>
        <time>2026-04-17T07:29:07.785Z</time>
      </trkpt>
      <trkpt lat="48.38634" lon="2.55787">
        <ele>96</ele>
        <time>2026-04-17T07:29:12.280Z</time>
      </trkpt>
      <trkpt lat="48.38629" lon="2.55786">
        <ele>96</ele>
        <time>2026-04-17T07:29:16.785Z</time>
      </trkpt>
      <trkpt lat="48.38624" lon="2.55786">
        <ele>99</ele>
        <time>2026-04-17T07:29:21.787Z</time>
      </trkpt>
      <trkpt lat="48.3862" lon="2.55784">
        <ele>99</ele>
        <time>2026-04-17T07:29:25.845Z</time>
      </trkpt>
      <trkpt lat="48.38616" lon="2.5579">
        <ele>99</ele>
        <time>2026-04-17T07:29:30.324Z</time>
      </trkpt>
      <trkpt lat="48.38613" lon="2.55796">
        <ele>100</ele>
        <time>2026-04-17T07:29:34.581Z</time>
      </trkpt>
      <trkpt lat="48.38609" lon="2.55801">
        <ele>100</ele>
        <time>2026-04-17T07:29:38.658Z</time>
      </trkpt>
      <trkpt lat="48.38606" lon="2.55803">
        <ele>100</ele>
        <time>2026-04-17T07:30:06.504Z</time>
      </trkpt>
      <trkpt lat="48.38601" lon="2.558">
        <ele>100</ele>
        <time>2026-04-17T07:30:11.537Z</time>
      </trkpt>
      <trkpt lat="48.38598" lon="2.55799">
        <ele>100</ele>
        <time>2026-04-17T07:30:15.769Z</time>
      </trkpt>
      <trkpt lat="48.38597" lon="2.55793">
        <ele>103</ele>
        <time>2026-04-17T07:30:20.104Z</time>
      </trkpt>
      <trkpt lat="48.38593" lon="2.55792">
        <ele>103</ele>
        <time>2026-04-17T07:30:24.769Z</time>
      </trkpt>
      <trkpt lat="48.38589" lon="2.55796">
        <ele>103</ele>
        <time>2026-04-17T07:30:29.325Z</time>
      </trkpt>
      <trkpt lat="48.38585" lon="2.55797">
        <ele>103</ele>
        <time>2026-04-17T07:30:33.769Z</time>
      </trkpt>
      <trkpt lat="48.38582" lon="2.55796">
        <ele>103</ele>
        <time>2026-04-17T07:30:37.769Z</time>
      </trkpt>
      <trkpt lat="48.38579" lon="2.55794">
        <ele>103</ele>
        <time>2026-04-17T07:30:42.318Z</time>
      </trkpt>
      <trkpt lat="48.38575" lon="2.55793">
        <ele>103</ele>
        <time>2026-04-17T07:30:46.769Z</time>
      </trkpt>
      <trkpt lat="48.38575" lon="2.55802">
        <ele>103</ele>
        <time>2026-04-17T07:30:51.284Z</time>
      </trkpt>
      <trkpt lat="48.38571" lon="2.55806">
        <ele>103</ele>
        <time>2026-04-17T07:30:55.601Z</time>
      </trkpt>
      <trkpt lat="48.38567" lon="2.55807">
        <ele>105</ele>
        <time>2026-04-17T07:30:59.769Z</time>
      </trkpt>
      <trkpt lat="48.38562" lon="2.55808">
        <ele>105</ele>
        <time>2026-04-17T07:31:04.243Z</time>
      </trkpt>
      <trkpt lat="48.38557" lon="2.55811">
        <ele>105</ele>
        <time>2026-04-17T07:31:08.485Z</time>
      </trkpt>
      <trkpt lat="48.38552" lon="2.5581">
        <ele>105</ele>
        <time>2026-04-17T07:31:12.950Z</time>
      </trkpt>
      <trkpt lat="48.38548" lon="2.55806">
        <ele>105</ele>
        <time>2026-04-17T07:31:17.769Z</time>
      </trkpt>
      <trkpt lat="48.38547" lon="2.55807">
        <ele>105</ele>
        <time>2026-04-17T07:31:22.141Z</time>
      </trkpt>
      <trkpt lat="48.38542" lon="2.55809">
        <ele>105</ele>
        <time>2026-04-17T07:31:26.664Z</time>
      </trkpt>
      <trkpt lat="48.38538" lon="2.55812">
        <ele>105</ele>
        <time>2026-04-17T07:31:30.769Z</time>
      </trkpt>
      <trkpt lat="48.38535" lon="2.55814">
        <ele>105</ele>
        <time>2026-04-17T07:31:35.620Z</time>
      </trkpt>
      <trkpt lat="48.38531" lon="2.55816">
        <ele>105</ele>
        <time>2026-04-17T07:31:39.879Z</time>
      </trkpt>
      <trkpt lat="48.38526" lon="2.55819">
        <ele>105</ele>
        <time>2026-04-17T07:31:44.052Z</time>
      </trkpt>
      <trkpt lat="48.38523" lon="2.55824">
        <ele>106</ele>
        <time>2026-04-17T07:31:48.199Z</time>
      </trkpt>
      <trkpt lat="48.3852" lon="2.5583">
        <ele>106</ele>
        <time>2026-04-17T07:31:52.277Z</time>
      </trkpt>
      <trkpt lat="48.38519" lon="2.55835">
        <ele>106</ele>
        <time>2026-04-17T07:31:56.440Z</time>
      </trkpt>
      <trkpt lat="48.38516" lon="2.55839">
        <ele>106</ele>
        <time>2026-04-17T07:32:00.714Z</time>
      </trkpt>
      <trkpt lat="48.38512" lon="2.55841">
        <ele>105</ele>
        <time>2026-04-17T07:32:05.403Z</time>
      </trkpt>
      <trkpt lat="48.38508" lon="2.55847">
        <ele>105</ele>
        <time>2026-04-17T07:32:09.600Z</time>
      </trkpt>
      <trkpt lat="48.38504" lon="2.5585">
        <ele>107</ele>
        <time>2026-04-17T07:32:13.769Z</time>
      </trkpt>
      <trkpt lat="48.385" lon="2.55849">
        <ele>107</ele>
        <time>2026-04-17T07:32:18.165Z</time>
      </trkpt>
      <trkpt lat="48.38495" lon="2.55846">
        <ele>105</ele>
        <time>2026-04-17T07:32:22.336Z</time>
      </trkpt>
      <trkpt lat="48.38491" lon="2.55849">
        <ele>107</ele>
        <time>2026-04-17T07:32:27.045Z</time>
      </trkpt>
      <trkpt lat="48.38487" lon="2.55852">
        <ele>107</ele>
        <time>2026-04-17T07:32:31.124Z</time>
      </trkpt>
      <trkpt lat="48.38482" lon="2.55853">
        <ele>106</ele>
        <time>2026-04-17T07:32:35.235Z</time>
      </trkpt>
      <trkpt lat="48.38477" lon="2.55849">
        <ele>106</ele>
        <time>2026-04-17T07:32:39.786Z</time>
      </trkpt>
      <trkpt lat="48.38477" lon="2.5584">
        <ele>105</ele>
        <time>2026-04-17T07:32:44.261Z</time>
      </trkpt>
      <trkpt lat="48.38472" lon="2.55836">
        <ele>105</ele>
        <time>2026-04-17T07:32:48.304Z</time>
      </trkpt>
      <trkpt lat="48.38466" lon="2.5584">
        <ele>105</ele>
        <time>2026-04-17T07:32:52.769Z</time>
      </trkpt>
      <trkpt lat="48.38462" lon="2.55846">
        <ele>105</ele>
        <time>2026-04-17T07:32:57.304Z</time>
      </trkpt>
      <trkpt lat="48.38458" lon="2.5585">
        <ele>104</ele>
        <time>2026-04-17T07:33:01.541Z</time>
      </trkpt>
      <trkpt lat="48.38454" lon="2.5585">
        <ele>104</ele>
        <time>2026-04-17T07:33:05.618Z</time>
      </trkpt>
      <trkpt lat="48.3845" lon="2.55849">
        <ele>104</ele>
        <time>2026-04-17T07:33:10.096Z</time>
      </trkpt>
      <trkpt lat="48.38447" lon="2.55845">
        <ele>104</ele>
        <time>2026-04-17T07:33:14.456Z</time>
      </trkpt>
      <trkpt lat="48.38444" lon="2.55846">
        <ele>104</ele>
        <time>2026-04-17T07:33:18.769Z</time>
      </trkpt>
      <trkpt lat="48.38441" lon="2.55844">
        <ele>104</ele>
        <time>2026-04-17T07:33:22.978Z</time>
      </trkpt>
      <trkpt lat="48.38437" lon="2.55846">
        <ele>104</ele>
        <time>2026-04-17T07:33:27.769Z</time>
      </trkpt>
      <trkpt lat="48.38432" lon="2.55846">
        <ele>104</ele>
        <time>2026-04-17T07:33:32.038Z</time>
      </trkpt>
      <trkpt lat="48.38427" lon="2.55845">
        <ele>103</ele>
        <time>2026-04-17T07:33:36.284Z</time>
      </trkpt>
      <trkpt lat="48.38424" lon="2.5584">
        <ele>103</ele>
        <time>2026-04-17T07:33:40.415Z</time>
      </trkpt>
      <trkpt lat="48.38423" lon="2.55833">
        <ele>103</ele>
        <time>2026-04-17T07:33:44.622Z</time>
      </trkpt>
      <trkpt lat="48.38422" lon="2.55827">
        <ele>103</ele>
        <time>2026-04-17T07:33:49.134Z</time>
      </trkpt>
      <trkpt lat="48.3842" lon="2.55821">
        <ele>103</ele>
        <time>2026-04-17T07:33:53.769Z</time>
      </trkpt>
      <trkpt lat="48.38419" lon="2.55813">
        <ele>105</ele>
        <time>2026-04-17T07:33:58.220Z</time>
      </trkpt>
      <trkpt lat="48.38416" lon="2.55806">
        <ele>105</ele>
        <time>2026-04-17T07:34:02.638Z</time>
      </trkpt>
      <trkpt lat="48.38415" lon="2.55797">
        <ele>105</ele>
        <time>2026-04-17T07:34:06.775Z</time>
      </trkpt>
      <trkpt lat="48.38416" lon="2.55789">
        <ele>107</ele>
        <time>2026-04-17T07:34:10.769Z</time>
      </trkpt>
      <trkpt lat="48.38418" lon="2.55779">
        <ele>107</ele>
        <time>2026-04-17T07:34:14.769Z</time>
      </trkpt>
      <trkpt lat="48.38419" lon="2.55768">
        <ele>107</ele>
        <time>2026-04-17T07:34:19.435Z</time>
      </trkpt>
      <trkpt lat="48.38421" lon="2.5576">
        <ele>108</ele>
        <time>2026-04-17T07:34:23.642Z</time>
      </trkpt>
      <trkpt lat="48.38423" lon="2.55752">
        <ele>108</ele>
        <time>2026-04-17T07:34:27.769Z</time>
      </trkpt>
      <trkpt lat="48.38426" lon="2.55746">
        <ele>108</ele>
        <time>2026-04-17T07:34:32.240Z</time>
      </trkpt>
      <trkpt lat="48.38431" lon="2.55742">
        <ele>107</ele>
        <time>2026-04-17T07:34:36.615Z</time>
      </trkpt>
      <trkpt lat="48.38435" lon="2.55736">
        <ele>107</ele>
        <time>2026-04-17T07:34:40.915Z</time>
      </trkpt>
      <trkpt lat="48.38438" lon="2.55731">
        <ele>107</ele>
        <time>2026-04-17T07:34:45.277Z</time>
      </trkpt>
      <trkpt lat="48.3844" lon="2.55723">
        <ele>107</ele>
        <time>2026-04-17T07:34:49.769Z</time>
      </trkpt>
      <trkpt lat="48.38441" lon="2.55716">
        <ele>107</ele>
        <time>2026-04-17T07:34:54.036Z</time>
      </trkpt>
      <trkpt lat="48.38443" lon="2.55709">
        <ele>107</ele>
        <time>2026-04-17T07:34:58.601Z</time>
      </trkpt>
      <trkpt lat="48.38445" lon="2.55701">
        <ele>107</ele>
        <time>2026-04-17T07:35:03.160Z</time>
      </trkpt>
      <trkpt lat="48.38447" lon="2.55694">
        <ele>107</ele>
        <time>2026-04-17T07:35:07.366Z</time>
      </trkpt>
      <trkpt lat="48.38448" lon="2.55686">
        <ele>107</ele>
        <time>2026-04-17T07:35:11.664Z</time>
      </trkpt>
      <trkpt lat="48.3845" lon="2.55682">
        <ele>107</ele>
        <time>2026-04-17T07:35:15.769Z</time>
      </trkpt>
      <trkpt lat="48.38452" lon="2.55673">
        <ele>107</ele>
        <time>2026-04-17T07:35:20.163Z</time>
      </trkpt>
      <trkpt lat="48.38454" lon="2.55667">
        <ele>107</ele>
        <time>2026-04-17T07:35:24.623Z</time>
      </trkpt>
      <trkpt lat="48.38456" lon="2.5566">
        <ele>107</ele>
        <time>2026-04-17T07:35:29.204Z</time>
      </trkpt>
      <trkpt lat="48.38458" lon="2.5565">
        <ele>107</ele>
        <time>2026-04-17T07:35:33.503Z</time>
      </trkpt>
      <trkpt lat="48.38459" lon="2.55642">
        <ele>106</ele>
        <time>2026-04-17T07:35:37.769Z</time>
      </trkpt>
      <trkpt lat="48.3846" lon="2.55634">
        <ele>106</ele>
        <time>2026-04-17T07:35:42.026Z</time>
      </trkpt>
      <trkpt lat="48.38462" lon="2.55627">
        <ele>106</ele>
        <time>2026-04-17T07:35:46.146Z</time>
      </trkpt>
      <trkpt lat="48.38464" lon="2.5562">
        <ele>106</ele>
        <time>2026-04-17T07:35:50.404Z</time>
      </trkpt>
      <trkpt lat="48.38465" lon="2.55612">
        <ele>106</ele>
        <time>2026-04-17T07:35:54.660Z</time>
      </trkpt>
      <trkpt lat="48.38468" lon="2.55605">
        <ele>106</ele>
        <time>2026-04-17T07:35:59.104Z</time>
      </trkpt>
      <trkpt lat="48.3847" lon="2.55597">
        <ele>107</ele>
        <time>2026-04-17T07:36:03.314Z</time>
      </trkpt>
      <trkpt lat="48.38471" lon="2.5559">
        <ele>107</ele>
        <time>2026-04-17T07:36:07.497Z</time>
      </trkpt>
      <trkpt lat="48.38472" lon="2.55582">
        <ele>107</ele>
        <time>2026-04-17T07:36:11.615Z</time>
      </trkpt>
      <trkpt lat="48.38473" lon="2.55574">
        <ele>107</ele>
        <time>2026-04-17T07:36:15.718Z</time>
      </trkpt>
      <trkpt lat="48.38474" lon="2.55565">
        <ele>109</ele>
        <time>2026-04-17T07:36:19.961Z</time>
      </trkpt>
      <trkpt lat="48.38476" lon="2.55558">
        <ele>109</ele>
        <time>2026-04-17T07:36:24.120Z</time>
      </trkpt>
      <trkpt lat="48.38479" lon="2.55552">
        <ele>109</ele>
        <time>2026-04-17T07:36:28.437Z</time>
      </trkpt>
      <trkpt lat="48.3848" lon="2.55543">
        <ele>109</ele>
        <time>2026-04-17T07:36:32.783Z</time>
      </trkpt>
      <trkpt lat="48.38482" lon="2.55536">
        <ele>110</ele>
        <time>2026-04-17T07:36:37.301Z</time>
      </trkpt>
      <trkpt lat="48.38483" lon="2.55528">
        <ele>110</ele>
        <time>2026-04-17T07:36:41.660Z</time>
      </trkpt>
      <trkpt lat="48.38485" lon="2.5552">
        <ele>110</ele>
        <time>2026-04-17T07:36:45.900Z</time>
      </trkpt>
      <trkpt lat="48.38487" lon="2.55513">
        <ele>112</ele>
        <time>2026-04-17T07:36:50.336Z</time>
      </trkpt>
      <trkpt lat="48.38489" lon="2.55505">
        <ele>112</ele>
        <time>2026-04-17T07:36:54.575Z</time>
      </trkpt>
      <trkpt lat="48.38491" lon="2.55497">
        <ele>112</ele>
        <time>2026-04-17T07:36:58.769Z</time>
      </trkpt>
      <trkpt lat="48.38493" lon="2.5549">
        <ele>112</ele>
        <time>2026-04-17T07:37:03.180Z</time>
      </trkpt>
      <trkpt lat="48.38495" lon="2.55484">
        <ele>113</ele>
        <time>2026-04-17T07:37:07.623Z</time>
      </trkpt>
      <trkpt lat="48.38496" lon="2.55475">
        <ele>113</ele>
        <time>2026-04-17T07:37:12.024Z</time>
      </trkpt>
      <trkpt lat="48.38497" lon="2.55467">
        <ele>113</ele>
        <time>2026-04-17T07:37:16.546Z</time>
      </trkpt>
      <trkpt lat="48.38499" lon="2.55457">
        <ele>114</ele>
        <time>2026-04-17T07:37:20.769Z</time>
      </trkpt>
      <trkpt lat="48.385" lon="2.55448">
        <ele>114</ele>
        <time>2026-04-17T07:37:24.820Z</time>
      </trkpt>
      <trkpt lat="48.38501" lon="2.5544">
        <ele>114</ele>
        <time>2026-04-17T07:37:29.343Z</time>
      </trkpt>
      <trkpt lat="48.38502" lon="2.55432">
        <ele>114</ele>
        <time>2026-04-17T07:37:33.769Z</time>
      </trkpt>
      <trkpt lat="48.38503" lon="2.55425">
        <ele>115</ele>
        <time>2026-04-17T07:37:38.265Z</time>
      </trkpt>
      <trkpt lat="48.38505" lon="2.55417">
        <ele>115</ele>
        <time>2026-04-17T07:37:42.744Z</time>
      </trkpt>
      <trkpt lat="48.38506" lon="2.5541">
        <ele>115</ele>
        <time>2026-04-17T07:37:47.298Z</time>
      </trkpt>
      <trkpt lat="48.38506" lon="2.55401">
        <ele>116</ele>
        <time>2026-04-17T07:37:51.683Z</time>
      </trkpt>
      <trkpt lat="48.38506" lon="2.55393">
        <ele>116</ele>
        <time>2026-04-17T07:37:56.119Z</time>
      </trkpt>
      <trkpt lat="48.38507" lon="2.55384">
        <ele>116</ele>
        <time>2026-04-17T07:38:00.521Z</time>
      </trkpt>
      <trkpt lat="48.38508" lon="2.55376">
        <ele>116</ele>
        <time>2026-04-17T07:38:05.080Z</time>
      </trkpt>
      <trkpt lat="48.38509" lon="2.55368">
        <ele>116</ele>
        <time>2026-04-17T07:38:09.544Z</time>
      </trkpt>
      <trkpt lat="48.38509" lon="2.5536">
        <ele>116</ele>
        <time>2026-04-17T07:38:13.917Z</time>
      </trkpt>
      <trkpt lat="48.38509" lon="2.55352">
        <ele>116</ele>
        <time>2026-04-17T07:38:18.423Z</time>
      </trkpt>
      <trkpt lat="48.38511" lon="2.55343">
        <ele>117</ele>
        <time>2026-04-17T07:38:22.769Z</time>
      </trkpt>
      <trkpt lat="48.38512" lon="2.55335">
        <ele>117</ele>
        <time>2026-04-17T07:38:26.769Z</time>
      </trkpt>
      <trkpt lat="48.38513" lon="2.55327">
        <ele>117</ele>
        <time>2026-04-17T07:38:31.235Z</time>
      </trkpt>
      <trkpt lat="48.38513" lon="2.55319">
        <ele>117</ele>
        <time>2026-04-17T07:38:35.739Z</time>
      </trkpt>
      <trkpt lat="48.38514" lon="2.5531">
        <ele>119</ele>
        <time>2026-04-17T07:38:40.321Z</time>
      </trkpt>
      <trkpt lat="48.38515" lon="2.55302">
        <ele>119</ele>
        <time>2026-04-17T07:38:44.769Z</time>
      </trkpt>
      <trkpt lat="48.38515" lon="2.55294">
        <ele>119</ele>
        <time>2026-04-17T07:38:49.439Z</time>
      </trkpt>
      <trkpt lat="48.38517" lon="2.55287">
        <ele>119</ele>
        <time>2026-04-17T07:38:53.978Z</time>
      </trkpt>
      <trkpt lat="48.38517" lon="2.55278">
        <ele>119</ele>
        <time>2026-04-17T07:38:58.462Z</time>
      </trkpt>
      <trkpt lat="48.38519" lon="2.5527">
        <ele>119</ele>
        <time>2026-04-17T07:39:02.934Z</time>
      </trkpt>
      <trkpt lat="48.38519" lon="2.55261">
        <ele>119</ele>
        <time>2026-04-17T07:39:07.425Z</time>
      </trkpt>
      <trkpt lat="48.3852" lon="2.55253">
        <ele>119</ele>
        <time>2026-04-17T07:39:11.665Z</time>
      </trkpt>
      <trkpt lat="48.38521" lon="2.55245">
        <ele>119</ele>
        <time>2026-04-17T07:39:15.984Z</time>
      </trkpt>
      <trkpt lat="48.38521" lon="2.55238">
        <ele>119</ele>
        <time>2026-04-17T07:39:20.401Z</time>
      </trkpt>
      <trkpt lat="48.38521" lon="2.55231">
        <ele>119</ele>
        <time>2026-04-17T07:39:24.563Z</time>
      </trkpt>
      <trkpt lat="48.3852" lon="2.55224">
        <ele>119</ele>
        <time>2026-04-17T07:39:29.103Z</time>
      </trkpt>
      <trkpt lat="48.38519" lon="2.55216">
        <ele>119</ele>
        <time>2026-04-17T07:39:33.225Z</time>
      </trkpt>
      <trkpt lat="48.38518" lon="2.55209">
        <ele>119</ele>
        <time>2026-04-17T07:39:37.626Z</time>
      </trkpt>
      <trkpt lat="48.38518" lon="2.55201">
        <ele>119</ele>
        <time>2026-04-17T07:39:41.966Z</time>
      </trkpt>
      <trkpt lat="48.38519" lon="2.55194">
        <ele>119</ele>
        <time>2026-04-17T07:39:46.001Z</time>
      </trkpt>
      <trkpt lat="48.38519" lon="2.55186">
        <ele>119</ele>
        <time>2026-04-17T07:39:50.644Z</time>
      </trkpt>
      <trkpt lat="48.3852" lon="2.55178">
        <ele>119</ele>
        <time>2026-04-17T07:39:54.705Z</time>
      </trkpt>
      <trkpt lat="48.38519" lon="2.55169">
        <ele>119</ele>
        <time>2026-04-17T07:39:59.104Z</time>
      </trkpt>
      <trkpt lat="48.38521" lon="2.55159">
        <ele>119</ele>
        <time>2026-04-17T07:40:03.177Z</time>
      </trkpt>
      <trkpt lat="48.38521" lon="2.55159">
        <ele>119</ele>
        <time>2026-04-17T07:40:07.520Z</time>
      </trkpt>
      <trkpt lat="48.38521" lon="2.55158">
        <ele>119</ele>
        <time>2026-04-17T07:40:11.769Z</time>
      </trkpt>
      <trkpt lat="48.38522" lon="2.55153">
        <ele>119</ele>
        <time>2026-04-17T07:40:16.417Z</time>
      </trkpt>
      <trkpt lat="48.38524" lon="2.55145">
        <ele>118</ele>
        <time>2026-04-17T07:40:34.769Z</time>
      </trkpt>
      <trkpt lat="48.38526" lon="2.55137">
        <ele>118</ele>
        <time>2026-04-17T07:40:41.769Z</time>
      </trkpt>
      <trkpt lat="48.38528" lon="2.5513">
        <ele>118</ele>
        <time>2026-04-17T07:40:51.281Z</time>
      </trkpt>
      <trkpt lat="48.3853" lon="2.55123">
        <ele>118</ele>
        <time>2026-04-17T07:40:55.299Z</time>
      </trkpt>
      <trkpt lat="48.38532" lon="2.55116">
        <ele>118</ele>
        <time>2026-04-17T07:40:59.769Z</time>
      </trkpt>
      <trkpt lat="48.38534" lon="2.55109">
        <ele>118</ele>
        <time>2026-04-17T07:41:04.341Z</time>
      </trkpt>
      <trkpt lat="48.38537" lon="2.55103">
        <ele>118</ele>
        <time>2026-04-17T07:41:08.699Z</time>
      </trkpt>
      <trkpt lat="48.38538" lon="2.55095">
        <ele>117</ele>
        <time>2026-04-17T07:41:13.103Z</time>
      </trkpt>
      <trkpt lat="48.3854" lon="2.55088">
        <ele>117</ele>
        <time>2026-04-17T07:41:17.120Z</time>
      </trkpt>
      <trkpt lat="48.38542" lon="2.5508">
        <ele>117</ele>
        <time>2026-04-17T07:41:21.299Z</time>
      </trkpt>
      <trkpt lat="48.38544" lon="2.55073">
        <ele>117</ele>
        <time>2026-04-17T07:41:25.419Z</time>
      </trkpt>
      <trkpt lat="48.38546" lon="2.55065">
        <ele>117</ele>
        <time>2026-04-17T07:41:29.540Z</time>
      </trkpt>
      <trkpt lat="48.38548" lon="2.55057">
        <ele>117</ele>
        <time>2026-04-17T07:41:33.769Z</time>
      </trkpt>
      <trkpt lat="48.38549" lon="2.5505">
        <ele>117</ele>
        <time>2026-04-17T07:41:37.840Z</time>
      </trkpt>
      <trkpt lat="48.38551" lon="2.55043">
        <ele>117</ele>
        <time>2026-04-17T07:41:42.054Z</time>
      </trkpt>
      <trkpt lat="48.38553" lon="2.55036">
        <ele>116</ele>
        <time>2026-04-17T07:41:46.114Z</time>
      </trkpt>
      <trkpt lat="48.38556" lon="2.55029">
        <ele>116</ele>
        <time>2026-04-17T07:41:50.218Z</time>
      </trkpt>
      <trkpt lat="48.38558" lon="2.55023">
        <ele>116</ele>
        <time>2026-04-17T07:41:54.326Z</time>
      </trkpt>
      <trkpt lat="48.3856" lon="2.55015">
        <ele>116</ele>
        <time>2026-04-17T07:41:58.404Z</time>
      </trkpt>
      <trkpt lat="48.38562" lon="2.55007">
        <ele>116</ele>
        <time>2026-04-17T07:42:02.566Z</time>
      </trkpt>
      <trkpt lat="48.38563" lon="2.54999">
        <ele>116</ele>
        <time>2026-04-17T07:42:06.704Z</time>
      </trkpt>
      <trkpt lat="48.38563" lon="2.54992">
        <ele>116</ele>
        <time>2026-04-17T07:42:10.769Z</time>
      </trkpt>
      <trkpt lat="48.38564" lon="2.54983">
        <ele>116</ele>
        <time>2026-04-17T07:42:15.021Z</time>
      </trkpt>
      <trkpt lat="48.38565" lon="2.54975">
        <ele>116</ele>
        <time>2026-04-17T07:42:19.225Z</time>
      </trkpt>
      <trkpt lat="48.38567" lon="2.54967">
        <ele>116</ele>
        <time>2026-04-17T07:42:23.644Z</time>
      </trkpt>
      <trkpt lat="48.38568" lon="2.54959">
        <ele>116</ele>
        <time>2026-04-17T07:42:27.960Z</time>
      </trkpt>
      <trkpt lat="48.38569" lon="2.54951">
        <ele>117</ele>
        <time>2026-04-17T07:42:32.245Z</time>
      </trkpt>
      <trkpt lat="48.38571" lon="2.54943">
        <ele>118</ele>
        <time>2026-04-17T07:42:36.304Z</time>
      </trkpt>
      <trkpt lat="48.38572" lon="2.54934">
        <ele>118</ele>
        <time>2026-04-17T07:42:40.338Z</time>
      </trkpt>
      <trkpt lat="48.38573" lon="2.54926">
        <ele>118</ele>
        <time>2026-04-17T07:42:44.769Z</time>
      </trkpt>
      <trkpt lat="48.38576" lon="2.54918">
        <ele>118</ele>
        <time>2026-04-17T07:42:48.769Z</time>
      </trkpt>
      <trkpt lat="48.38578" lon="2.5491">
        <ele>118</ele>
        <time>2026-04-17T07:42:52.886Z</time>
      </trkpt>
      <trkpt lat="48.38579" lon="2.54902">
        <ele>118</ele>
        <time>2026-04-17T07:42:57.438Z</time>
      </trkpt>
      <trkpt lat="48.38579" lon="2.54892">
        <ele>118</ele>
        <time>2026-04-17T07:43:01.644Z</time>
      </trkpt>
      <trkpt lat="48.38581" lon="2.54884">
        <ele>118</ele>
        <time>2026-04-17T07:43:05.769Z</time>
      </trkpt>
      <trkpt lat="48.38582" lon="2.54876">
        <ele>118</ele>
        <time>2026-04-17T07:43:10.438Z</time>
      </trkpt>
      <trkpt lat="48.38583" lon="2.54868">
        <ele>118</ele>
        <time>2026-04-17T07:43:14.721Z</time>
      </trkpt>
      <trkpt lat="48.38584" lon="2.5486">
        <ele>118</ele>
        <time>2026-04-17T07:43:19.242Z</time>
      </trkpt>
      <trkpt lat="48.38586" lon="2.54852">
        <ele>118</ele>
        <time>2026-04-17T07:43:23.304Z</time>
      </trkpt>
      <trkpt lat="48.38588" lon="2.54845">
        <ele>118</ele>
        <time>2026-04-17T07:43:27.364Z</time>
      </trkpt>
      <trkpt lat="48.38591" lon="2.54837">
        <ele>118</ele>
        <time>2026-04-17T07:43:31.380Z</time>
      </trkpt>
      <trkpt lat="48.38592" lon="2.54829">
        <ele>118</ele>
        <time>2026-04-17T07:43:35.501Z</time>
      </trkpt>
      <trkpt lat="48.38592" lon="2.54821">
        <ele>118</ele>
        <time>2026-04-17T07:43:39.517Z</time>
      </trkpt>
      <trkpt lat="48.38592" lon="2.54813">
        <ele>117</ele>
        <time>2026-04-17T07:43:43.578Z</time>
      </trkpt>
      <trkpt lat="48.38594" lon="2.54807">
        <ele>117</ele>
        <time>2026-04-17T07:43:47.741Z</time>
      </trkpt>
      <trkpt lat="48.38597" lon="2.54792">
        <ele>117</ele>
        <time>2026-04-17T07:43:51.769Z</time>
      </trkpt>
      <trkpt lat="48.38597" lon="2.54792">
        <ele>117</ele>
        <time>2026-04-17T07:43:56.162Z</time>
      </trkpt>
      <trkpt lat="48.38597" lon="2.54791">
        <ele>116</ele>
        <time>2026-04-17T07:44:00.417Z</time>
      </trkpt>
      <trkpt lat="48.38596" lon="2.54788">
        <ele>116</ele>
        <time>2026-04-17T07:44:04.717Z</time>
      </trkpt>
      <trkpt lat="48.38591" lon="2.54784">
        <ele>116</ele>
        <time>2026-04-17T07:44:21.769Z</time>
      </trkpt>
      <trkpt lat="48.38586" lon="2.54785">
        <ele>116</ele>
        <time>2026-04-17T07:44:27.769Z</time>
      </trkpt>
      <trkpt lat="48.38581" lon="2.5478">
        <ele>116</ele>
        <time>2026-04-17T07:44:32.559Z</time>
      </trkpt>
      <trkpt lat="48.38577" lon="2.54778">
        <ele>116</ele>
        <time>2026-04-17T07:44:36.724Z</time>
      </trkpt>
      <trkpt lat="48.38573" lon="2.54776">
        <ele>116</ele>
        <time>2026-04-17T07:44:40.769Z</time>
      </trkpt>
      <trkpt lat="48.38568" lon="2.54775">
        <ele>116</ele>
        <time>2026-04-17T07:47:35.769Z</time>
      </trkpt>
      <trkpt lat="48.38566" lon="2.5477">
        <ele>116</ele>
        <time>2026-04-17T07:47:40.583Z</time>
      </trkpt>
      <trkpt lat="48.3856" lon="2.54765">
        <ele>116</ele>
        <time>2026-04-17T07:47:44.824Z</time>
      </trkpt>
      <trkpt lat="48.38556" lon="2.5476">
        <ele>114</ele>
        <time>2026-04-17T07:47:48.978Z</time>
      </trkpt>
      <trkpt lat="48.38553" lon="2.54753">
        <ele>114</ele>
        <time>2026-04-17T07:47:53.392Z</time>
      </trkpt>
      <trkpt lat="48.38551" lon="2.54747">
        <ele>114</ele>
        <time>2026-04-17T07:51:36.901Z</time>
      </trkpt>
      <trkpt lat="48.38549" lon="2.5474">
        <ele>114</ele>
        <time>2026-04-17T07:51:40.963Z</time>
      </trkpt>
      <trkpt lat="48.38544" lon="2.54735">
        <ele>114</ele>
        <time>2026-04-17T07:51:45.243Z</time>
      </trkpt>
      <trkpt lat="48.3854" lon="2.5473">
        <ele>115</ele>
        <time>2026-04-17T07:51:49.287Z</time>
      </trkpt>
      <trkpt lat="48.38536" lon="2.54726">
        <ele>115</ele>
        <time>2026-04-17T07:51:53.377Z</time>
      </trkpt>
      <trkpt lat="48.38533" lon="2.54719">
        <ele>115</ele>
        <time>2026-04-17T07:51:57.524Z</time>
      </trkpt>
      <trkpt lat="48.38531" lon="2.5471">
        <ele>115</ele>
        <time>2026-04-17T07:52:01.643Z</time>
      </trkpt>
      <trkpt lat="48.3853" lon="2.54701">
        <ele>116</ele>
        <time>2026-04-17T07:52:05.720Z</time>
      </trkpt>
      <trkpt lat="48.38529" lon="2.54694">
        <ele>116</ele>
        <time>2026-04-17T07:52:09.769Z</time>
      </trkpt>
      <trkpt lat="48.38527" lon="2.54685">
        <ele>116</ele>
        <time>2026-04-17T07:52:14.303Z</time>
      </trkpt>
      <trkpt lat="48.38524" lon="2.54678">
        <ele>116</ele>
        <time>2026-04-17T07:52:18.769Z</time>
      </trkpt>
      <trkpt lat="48.38522" lon="2.54672">
        <ele>116</ele>
        <time>2026-04-17T07:52:22.960Z</time>
      </trkpt>
      <trkpt lat="48.38518" lon="2.54667">
        <ele>116</ele>
        <time>2026-04-17T07:52:27.063Z</time>
      </trkpt>
      <trkpt lat="48.38514" lon="2.54663">
        <ele>116</ele>
        <time>2026-04-17T07:52:31.768Z</time>
      </trkpt>
      <trkpt lat="48.38509" lon="2.54658">
        <ele>117</ele>
        <time>2026-04-17T07:52:36.644Z</time>
      </trkpt>
      <trkpt lat="48.38507" lon="2.54651">
        <ele>118</ele>
        <time>2026-04-17T07:52:41.124Z</time>
      </trkpt>
      <trkpt lat="48.38504" lon="2.54644">
        <ele>118</ele>
        <time>2026-04-17T07:52:45.557Z</time>
      </trkpt>
      <trkpt lat="48.38502" lon="2.54637">
        <ele>118</ele>
        <time>2026-04-17T07:52:49.767Z</time>
      </trkpt>
      <trkpt lat="48.38499" lon="2.5463">
        <ele>118</ele>
        <time>2026-04-17T07:52:54.617Z</time>
      </trkpt>
      <trkpt lat="48.38497" lon="2.54623">
        <ele>119</ele>
        <time>2026-04-17T07:52:58.644Z</time>
      </trkpt>
      <trkpt lat="48.38495" lon="2.54617">
        <ele>119</ele>
        <time>2026-04-17T07:53:03.181Z</time>
      </trkpt>
      <trkpt lat="48.38493" lon="2.5461">
        <ele>119</ele>
        <time>2026-04-17T07:53:07.422Z</time>
      </trkpt>
      <trkpt lat="48.3849" lon="2.54605">
        <ele>119</ele>
        <time>2026-04-17T07:53:11.540Z</time>
      </trkpt>
      <trkpt lat="48.38488" lon="2.54599">
        <ele>119</ele>
        <time>2026-04-17T07:53:15.737Z</time>
      </trkpt>
      <trkpt lat="48.38487" lon="2.54593">
        <ele>120</ele>
        <time>2026-04-17T07:53:20.097Z</time>
      </trkpt>
      <trkpt lat="48.38484" lon="2.54588">
        <ele>121</ele>
        <time>2026-04-17T07:53:24.379Z</time>
      </trkpt>
      <trkpt lat="48.3848" lon="2.54583">
        <ele>121</ele>
        <time>2026-04-17T07:53:28.769Z</time>
      </trkpt>
      <trkpt lat="48.38476" lon="2.54577">
        <ele>121</ele>
        <time>2026-04-17T07:53:32.769Z</time>
      </trkpt>
      <trkpt lat="48.38473" lon="2.5457">
        <ele>121</ele>
        <time>2026-04-17T07:53:36.963Z</time>
      </trkpt>
      <trkpt lat="48.38471" lon="2.54562">
        <ele>122</ele>
        <time>2026-04-17T07:53:40.979Z</time>
      </trkpt>
      <trkpt lat="48.38469" lon="2.54554">
        <ele>122</ele>
        <time>2026-04-17T07:53:45.769Z</time>
      </trkpt>
      <trkpt lat="48.38465" lon="2.54549">
        <ele>122</ele>
        <time>2026-04-17T07:53:50.426Z</time>
      </trkpt>
      <trkpt lat="48.38462" lon="2.54542">
        <ele>122</ele>
        <time>2026-04-17T07:53:54.769Z</time>
      </trkpt>
      <trkpt lat="48.38461" lon="2.54534">
        <ele>121</ele>
        <time>2026-04-17T07:53:59.564Z</time>
      </trkpt>
      <trkpt lat="48.38459" lon="2.54528">
        <ele>121</ele>
        <time>2026-04-17T07:54:03.980Z</time>
      </trkpt>
      <trkpt lat="48.38458" lon="2.54522">
        <ele>121</ele>
        <time>2026-04-17T07:54:08.384Z</time>
      </trkpt>
      <trkpt lat="48.38456" lon="2.54517">
        <ele>121</ele>
        <time>2026-04-17T07:54:12.769Z</time>
      </trkpt>
      <trkpt lat="48.38455" lon="2.5451">
        <ele>120</ele>
        <time>2026-04-17T07:54:17.502Z</time>
      </trkpt>
      <trkpt lat="48.38454" lon="2.54503">
        <ele>120</ele>
        <time>2026-04-17T07:54:21.706Z</time>
      </trkpt>
      <trkpt lat="48.38451" lon="2.54496">
        <ele>120</ele>
        <time>2026-04-17T07:54:25.769Z</time>
      </trkpt>
      <trkpt lat="48.3845" lon="2.5449">
        <ele>120</ele>
        <time>2026-04-17T07:54:29.946Z</time>
      </trkpt>
      <trkpt lat="48.38448" lon="2.54483">
        <ele>119</ele>
        <time>2026-04-17T07:54:34.023Z</time>
      </trkpt>
      <trkpt lat="48.38447" lon="2.54477">
        <ele>119</ele>
        <time>2026-04-17T07:54:38.127Z</time>
      </trkpt>
      <trkpt lat="48.38447" lon="2.54469">
        <ele>119</ele>
        <time>2026-04-17T07:54:42.590Z</time>
      </trkpt>
      <trkpt lat="48.38446" lon="2.54461">
        <ele>119</ele>
        <time>2026-04-17T07:54:46.529Z</time>
      </trkpt>
      <trkpt lat="48.38444" lon="2.54453">
        <ele>118</ele>
        <time>2026-04-17T07:54:51.305Z</time>
      </trkpt>
      <trkpt lat="48.38441" lon="2.54446">
        <ele>118</ele>
        <time>2026-04-17T07:54:55.504Z</time>
      </trkpt>
      <trkpt lat="48.38439" lon="2.54438">
        <ele>118</ele>
        <time>2026-04-17T07:54:59.769Z</time>
      </trkpt>
      <trkpt lat="48.38437" lon="2.54432">
        <ele>118</ele>
        <time>2026-04-17T07:55:04.024Z</time>
      </trkpt>
      <trkpt lat="48.38434" lon="2.54427">
        <ele>118</ele>
        <time>2026-04-17T07:55:08.384Z</time>
      </trkpt>
      <trkpt lat="48.3843" lon="2.54421">
        <ele>118</ele>
        <time>2026-04-17T07:55:12.546Z</time>
      </trkpt>
      <trkpt lat="48.38428" lon="2.54414">
        <ele>118</ele>
        <time>2026-04-17T07:55:16.667Z</time>
      </trkpt>
      <trkpt lat="48.38424" lon="2.54407">
        <ele>118</ele>
        <time>2026-04-17T07:55:20.702Z</time>
      </trkpt>
      <trkpt lat="48.38422" lon="2.54401">
        <ele>117</ele>
        <time>2026-04-17T07:55:25Z</time>
      </trkpt>
      <trkpt lat="48.38421" lon="2.54394">
        <ele>117</ele>
        <time>2026-04-17T07:55:29.205Z</time>
      </trkpt>
      <trkpt lat="48.3842" lon="2.5439">
        <ele>117</ele>
        <time>2026-04-17T07:55:33.465Z</time>
      </trkpt>
      <trkpt lat="48.3842" lon="2.54388">
        <ele>117</ele>
        <time>2026-04-17T07:55:37.745Z</time>
      </trkpt>
      <trkpt lat="48.3842" lon="2.5438">
        <ele>117</ele>
        <time>2026-04-17T07:55:42.043Z</time>
      </trkpt>
      <trkpt lat="48.38422" lon="2.54375">
        <ele>114</ele>
        <time>2026-04-17T07:55:46.369Z</time>
      </trkpt>
      <trkpt lat="48.3842" lon="2.5437">
        <ele>114</ele>
        <time>2026-04-17T07:55:50.769Z</time>
      </trkpt>
      <trkpt lat="48.38419" lon="2.54363">
        <ele>114</ele>
        <time>2026-04-17T07:55:55.179Z</time>
      </trkpt>
      <trkpt lat="48.38421" lon="2.54358">
        <ele>114</ele>
        <time>2026-04-17T07:55:59.504Z</time>
      </trkpt>
      <trkpt lat="48.38423" lon="2.54354">
        <ele>114</ele>
        <time>2026-04-17T07:56:03.624Z</time>
      </trkpt>
      <trkpt lat="48.38423" lon="2.54347">
        <ele>112</ele>
        <time>2026-04-17T07:56:07.907Z</time>
      </trkpt>
      <trkpt lat="48.38423" lon="2.54339">
        <ele>112</ele>
        <time>2026-04-17T07:56:12.121Z</time>
      </trkpt>
      <trkpt lat="48.38425" lon="2.54332">
        <ele>112</ele>
        <time>2026-04-17T07:56:16.283Z</time>
      </trkpt>
      <trkpt lat="48.38427" lon="2.54324">
        <ele>112</ele>
        <time>2026-04-17T07:56:20.523Z</time>
      </trkpt>
      <trkpt lat="48.38427" lon="2.54317">
        <ele>111</ele>
        <time>2026-04-17T07:56:24.883Z</time>
      </trkpt>
      <trkpt lat="48.38426" lon="2.54312">
        <ele>111</ele>
        <time>2026-04-17T07:56:29.360Z</time>
      </trkpt>
      <trkpt lat="48.38425" lon="2.54305">
        <ele>111</ele>
        <time>2026-04-17T07:56:33.627Z</time>
      </trkpt>
      <trkpt lat="48.38424" lon="2.54299">
        <ele>111</ele>
        <time>2026-04-17T07:56:38.121Z</time>
      </trkpt>
      <trkpt lat="48.38421" lon="2.54293">
        <ele>111</ele>
        <time>2026-04-17T07:56:42.505Z</time>
      </trkpt>
      <trkpt lat="48.38418" lon="2.54285">
        <ele>110</ele>
        <time>2026-04-17T07:56:46.769Z</time>
      </trkpt>
      <trkpt lat="48.38417" lon="2.54279">
        <ele>110</ele>
        <time>2026-04-17T07:56:51.296Z</time>
      </trkpt>
      <trkpt lat="48.38418" lon="2.54275">
        <ele>110</ele>
        <time>2026-04-17T07:56:55.297Z</time>
      </trkpt>
      <trkpt lat="48.38419" lon="2.54269">
        <ele>110</ele>
        <time>2026-04-17T07:56:59.769Z</time>
      </trkpt>
      <trkpt lat="48.38418" lon="2.54263">
        <ele>108</ele>
        <time>2026-04-17T07:57:04.329Z</time>
      </trkpt>
      <trkpt lat="48.38418" lon="2.54257">
        <ele>108</ele>
        <time>2026-04-17T07:57:08.769Z</time>
      </trkpt>
      <trkpt lat="48.38416" lon="2.5425">
        <ele>108</ele>
        <time>2026-04-17T07:57:13.297Z</time>
      </trkpt>
      <trkpt lat="48.38416" lon="2.54243">
        <ele>108</ele>
        <time>2026-04-17T07:57:17.681Z</time>
      </trkpt>
      <trkpt lat="48.38415" lon="2.54236">
        <ele>108</ele>
        <time>2026-04-17T07:57:22.024Z</time>
      </trkpt>
      <trkpt lat="48.38412" lon="2.5423">
        <ele>106</ele>
        <time>2026-04-17T07:57:26.423Z</time>
      </trkpt>
      <trkpt lat="48.38409" lon="2.54223">
        <ele>106</ele>
        <time>2026-04-17T07:57:30.860Z</time>
      </trkpt>
      <trkpt lat="48.38406" lon="2.54216">
        <ele>106</ele>
        <time>2026-04-17T07:57:35.322Z</time>
      </trkpt>
      <trkpt lat="48.38404" lon="2.54214">
        <ele>106</ele>
        <time>2026-04-17T07:57:39.843Z</time>
      </trkpt>
      <trkpt lat="48.38404" lon="2.54214">
        <ele>106</ele>
        <time>2026-04-17T07:57:44.366Z</time>
      </trkpt>
      <trkpt lat="48.38401" lon="2.5421">
        <ele>103</ele>
        <time>2026-04-17T07:57:48.918Z</time>
      </trkpt>
      <trkpt lat="48.38401" lon="2.54209">
        <ele>103</ele>
        <time>2026-04-17T07:57:53.424Z</time>
      </trkpt>
      <trkpt lat="48.38401" lon="2.54201">
        <ele>99</ele>
        <time>2026-04-17T07:57:57.769Z</time>
      </trkpt>
      <trkpt lat="48.38397" lon="2.54194">
        <ele>99</ele>
        <time>2026-04-17T07:58:02.517Z</time>
      </trkpt>
      <trkpt lat="48.38395" lon="2.54188">
        <ele>99</ele>
        <time>2026-04-17T07:58:06.769Z</time>
      </trkpt>
      <trkpt lat="48.38392" lon="2.54184">
        <ele>99</ele>
        <time>2026-04-17T07:58:10.963Z</time>
      </trkpt>
      <trkpt lat="48.3839" lon="2.54177">
        <ele>96</ele>
        <time>2026-04-17T07:58:15.114Z</time>
      </trkpt>
      <trkpt lat="48.38388" lon="2.54171">
        <ele>96</ele>
        <time>2026-04-17T07:58:19.414Z</time>
      </trkpt>
      <trkpt lat="48.38386" lon="2.54165">
        <ele>96</ele>
        <time>2026-04-17T07:58:23.450Z</time>
      </trkpt>
      <trkpt lat="48.38385" lon="2.54158">
        <ele>96</ele>
        <time>2026-04-17T07:58:28.148Z</time>
      </trkpt>
      <trkpt lat="48.38384" lon="2.5415">
        <ele>95</ele>
        <time>2026-04-17T07:58:32.713Z</time>
      </trkpt>
      <trkpt lat="48.38384" lon="2.54144">
        <ele>95</ele>
        <time>2026-04-17T07:58:36.769Z</time>
      </trkpt>
      <trkpt lat="48.38383" lon="2.54137">
        <ele>95</ele>
        <time>2026-04-17T07:58:41.695Z</time>
      </trkpt>
      <trkpt lat="48.3838" lon="2.5413">
        <ele>95</ele>
        <time>2026-04-17T07:58:46.294Z</time>
      </trkpt>
      <trkpt lat="48.38375" lon="2.54126">
        <ele>95</ele>
        <time>2026-04-17T07:58:50.788Z</time>
      </trkpt>
      <trkpt lat="48.3837" lon="2.54122">
        <ele>90</ele>
        <time>2026-04-17T07:58:55.352Z</time>
      </trkpt>
      <trkpt lat="48.38365" lon="2.54118">
        <ele>90</ele>
        <time>2026-04-17T07:58:59.873Z</time>
      </trkpt>
      <trkpt lat="48.38362" lon="2.54111">
        <ele>90</ele>
        <time>2026-04-17T07:59:04.334Z</time>
      </trkpt>
      <trkpt lat="48.38359" lon="2.54104">
        <ele>90</ele>
        <time>2026-04-17T07:59:08.769Z</time>
      </trkpt>
      <trkpt lat="48.38355" lon="2.54098">
        <ele>90</ele>
        <time>2026-04-17T07:59:13.231Z</time>
      </trkpt>
      <trkpt lat="48.38352" lon="2.54091">
        <ele>91</ele>
        <time>2026-04-17T07:59:17.675Z</time>
      </trkpt>
      <trkpt lat="48.38349" lon="2.54083">
        <ele>91</ele>
        <time>2026-04-17T07:59:22.094Z</time>
      </trkpt>
      <trkpt lat="48.38345" lon="2.54078">
        <ele>86</ele>
        <time>2026-04-17T07:59:26.769Z</time>
      </trkpt>
      <trkpt lat="48.38339" lon="2.54075">
        <ele>86</ele>
        <time>2026-04-17T07:59:31.511Z</time>
      </trkpt>
      <trkpt lat="48.38333" lon="2.54073">
        <ele>86</ele>
        <time>2026-04-17T07:59:35.769Z</time>
      </trkpt>
      <trkpt lat="48.38328" lon="2.54069">
        <ele>86</ele>
        <time>2026-04-17T07:59:40.319Z</time>
      </trkpt>
      <trkpt lat="48.38323" lon="2.54064">
        <ele>86</ele>
        <time>2026-04-17T07:59:44.661Z</time>
      </trkpt>
      <trkpt lat="48.38317" lon="2.54061">
        <ele>83</ele>
        <time>2026-04-17T07:59:49.020Z</time>
      </trkpt>
      <trkpt lat="48.38312" lon="2.54058">
        <ele>83</ele>
        <time>2026-04-17T07:59:53.293Z</time>
      </trkpt>
      <trkpt lat="48.38308" lon="2.54056">
        <ele>83</ele>
        <time>2026-04-17T07:59:57.786Z</time>
      </trkpt>
      <trkpt lat="48.38304" lon="2.54052">
        <ele>83</ele>
        <time>2026-04-17T08:00:02.617Z</time>
      </trkpt>
      <trkpt lat="48.38299" lon="2.54042">
        <ele>83</ele>
        <time>2026-04-17T08:00:07.598Z</time>
      </trkpt>
      <trkpt lat="48.38299" lon="2.54042">
        <ele>83</ele>
        <time>2026-04-17T08:00:11.962Z</time>
      </trkpt>
      <trkpt lat="48.38299" lon="2.54041">
        <ele>83</ele>
        <time>2026-04-17T08:00:16.034Z</time>
      </trkpt>
      <trkpt lat="48.38302" lon="2.54036">
        <ele>83</ele>
        <time>2026-04-17T08:00:20.538Z</time>
      </trkpt>
      <trkpt lat="48.38306" lon="2.54029">
        <ele>83</ele>
        <time>2026-04-17T08:01:01.769Z</time>
      </trkpt>
      <trkpt lat="48.3831" lon="2.54023">
        <ele>83</ele>
        <time>2026-04-17T08:01:06.769Z</time>
      </trkpt>
      <trkpt lat="48.38313" lon="2.54017">
        <ele>83</ele>
        <time>2026-04-17T08:01:11.769Z</time>
      </trkpt>
      <trkpt lat="48.38318" lon="2.54014">
        <ele>84</ele>
        <time>2026-04-17T08:01:16.018Z</time>
      </trkpt>
      <trkpt lat="48.38322" lon="2.54007">
        <ele>86</ele>
        <time>2026-04-17T08:01:20.658Z</time>
      </trkpt>
      <trkpt lat="48.38325" lon="2.54001">
        <ele>86</ele>
        <time>2026-04-17T08:01:24.782Z</time>
      </trkpt>
      <trkpt lat="48.38329" lon="2.53993">
        <ele>86</ele>
        <time>2026-04-17T08:01:29.078Z</time>
      </trkpt>
      <trkpt lat="48.38332" lon="2.53986">
        <ele>86</ele>
        <time>2026-04-17T08:01:33.181Z</time>
      </trkpt>
      <trkpt lat="48.38335" lon="2.53979">
        <ele>86</ele>
        <time>2026-04-17T08:01:37.781Z</time>
      </trkpt>
      <trkpt lat="48.38337" lon="2.53971">
        <ele>86</ele>
        <time>2026-04-17T08:01:42.198Z</time>
      </trkpt>
      <trkpt lat="48.38338" lon="2.53962">
        <ele>86</ele>
        <time>2026-04-17T08:01:46.616Z</time>
      </trkpt>
      <trkpt lat="48.38341" lon="2.53954">
        <ele>86</ele>
        <time>2026-04-17T08:01:50.659Z</time>
      </trkpt>
      <trkpt lat="48.38342" lon="2.53947">
        <ele>86</ele>
        <time>2026-04-17T08:01:55.239Z</time>
      </trkpt>
      <trkpt lat="48.38345" lon="2.53941">
        <ele>86</ele>
        <time>2026-04-17T08:01:59.735Z</time>
      </trkpt>
      <trkpt lat="48.38346" lon="2.53934">
        <ele>86</ele>
        <time>2026-04-17T08:02:04.238Z</time>
      </trkpt>
      <trkpt lat="48.38349" lon="2.53927">
        <ele>90</ele>
        <time>2026-04-17T08:02:08.769Z</time>
      </trkpt>
      <trkpt lat="48.38352" lon="2.53921">
        <ele>90</ele>
        <time>2026-04-17T08:02:12.913Z</time>
      </trkpt>
      <trkpt lat="48.38355" lon="2.53916">
        <ele>90</ele>
        <time>2026-04-17T08:02:17.093Z</time>
      </trkpt>
      <trkpt lat="48.38358" lon="2.5391">
        <ele>90</ele>
        <time>2026-04-17T08:02:21.136Z</time>
      </trkpt>
      <trkpt lat="48.38361" lon="2.53903">
        <ele>90</ele>
        <time>2026-04-17T08:02:25.598Z</time>
      </trkpt>
      <trkpt lat="48.38363" lon="2.53895">
        <ele>88</ele>
        <time>2026-04-17T08:02:29.658Z</time>
      </trkpt>
      <trkpt lat="48.38365" lon="2.53888">
        <ele>88</ele>
        <time>2026-04-17T08:02:33.753Z</time>
      </trkpt>
      <trkpt lat="48.38367" lon="2.53881">
        <ele>88</ele>
        <time>2026-04-17T08:02:38.214Z</time>
      </trkpt>
      <trkpt lat="48.38371" lon="2.53875">
        <ele>88</ele>
        <time>2026-04-17T08:02:42.615Z</time>
      </trkpt>
      <trkpt lat="48.38374" lon="2.53869">
        <ele>86</ele>
        <time>2026-04-17T08:02:47.017Z</time>
      </trkpt>
      <trkpt lat="48.38377" lon="2.53862">
        <ele>92</ele>
        <time>2026-04-17T08:02:51.769Z</time>
      </trkpt>
      <trkpt lat="48.38381" lon="2.53855">
        <ele>92</ele>
        <time>2026-04-17T08:02:55.950Z</time>
      </trkpt>
      <trkpt lat="48.38385" lon="2.53848">
        <ele>92</ele>
        <time>2026-04-17T08:03:00.520Z</time>
      </trkpt>
      <trkpt lat="48.38389" lon="2.53842">
        <ele>91</ele>
        <time>2026-04-17T08:03:05.015Z</time>
      </trkpt>
      <trkpt lat="48.38392" lon="2.53834">
        <ele>91</ele>
        <time>2026-04-17T08:03:09.341Z</time>
      </trkpt>
      <trkpt lat="48.38393" lon="2.53825">
        <ele>91</ele>
        <time>2026-04-17T08:03:13.769Z</time>
      </trkpt>
      <trkpt lat="48.38396" lon="2.53818">
        <ele>90</ele>
        <time>2026-04-17T08:03:18.417Z</time>
      </trkpt>
      <trkpt lat="48.38397" lon="2.53811">
        <ele>90</ele>
        <time>2026-04-17T08:03:22.959Z</time>
      </trkpt>
      <trkpt lat="48.38398" lon="2.53803">
        <ele>90</ele>
        <time>2026-04-17T08:03:27.682Z</time>
      </trkpt>
      <trkpt lat="48.38399" lon="2.53797">
        <ele>90</ele>
        <time>2026-04-17T08:03:32.158Z</time>
      </trkpt>
      <trkpt lat="48.38401" lon="2.5379">
        <ele>89</ele>
        <time>2026-04-17T08:03:36.440Z</time>
      </trkpt>
      <trkpt lat="48.38402" lon="2.53784">
        <ele>89</ele>
        <time>2026-04-17T08:03:40.637Z</time>
      </trkpt>
      <trkpt lat="48.38401" lon="2.53782">
        <ele>89</ele>
        <time>2026-04-17T08:03:44.769Z</time>
      </trkpt>
      <trkpt lat="48.384" lon="2.53783">
        <ele>89</ele>
        <time>2026-04-17T08:03:48.954Z</time>
      </trkpt>
      <trkpt lat="48.38396" lon="2.53779">
        <ele>89</ele>
        <time>2026-04-17T08:03:53.074Z</time>
      </trkpt>
      <trkpt lat="48.38394" lon="2.53775">
        <ele>89</ele>
        <time>2026-04-17T08:03:57.493Z</time>
      </trkpt>
      <trkpt lat="48.3839" lon="2.53772">
        <ele>89</ele>
        <time>2026-04-17T08:08:26.769Z</time>
      </trkpt>
      <trkpt lat="48.38385" lon="2.5377">
        <ele>89</ele>
        <time>2026-04-17T08:08:45.540Z</time>
      </trkpt>
      <trkpt lat="48.38382" lon="2.53769">
        <ele>89</ele>
        <time>2026-04-17T08:08:49.889Z</time>
      </trkpt>
      <trkpt lat="48.38379" lon="2.53766">
        <ele>89</ele>
        <time>2026-04-17T08:08:54.317Z</time>
      </trkpt>
      <trkpt lat="48.38377" lon="2.53763">
        <ele>88</ele>
        <time>2026-04-17T08:08:58.464Z</time>
      </trkpt>
      <trkpt lat="48.38372" lon="2.5376">
        <ele>83</ele>
        <time>2026-04-17T08:09:02.703Z</time>
      </trkpt>
      <trkpt lat="48.38369" lon="2.53758">
        <ele>83</ele>
        <time>2026-04-17T08:09:07.018Z</time>
      </trkpt>
      <trkpt lat="48.38364" lon="2.53756">
        <ele>83</ele>
        <time>2026-04-17T08:09:11.079Z</time>
      </trkpt>
      <trkpt lat="48.3836" lon="2.53753">
        <ele>83</ele>
        <time>2026-04-17T08:09:15.243Z</time>
      </trkpt>
      <trkpt lat="48.38355" lon="2.53749">
        <ele>83</ele>
        <time>2026-04-17T08:09:19.558Z</time>
      </trkpt>
      <trkpt lat="48.3835" lon="2.53745">
        <ele>83</ele>
        <time>2026-04-17T08:09:23.956Z</time>
      </trkpt>
      <trkpt lat="48.38346" lon="2.53742">
        <ele>79</ele>
        <time>2026-04-17T08:09:28.224Z</time>
      </trkpt>
      <trkpt lat="48.38341" lon="2.53739">
        <ele>79</ele>
        <time>2026-04-17T08:09:32.263Z</time>
      </trkpt>
      <trkpt lat="48.38337" lon="2.53736">
        <ele>79</ele>
        <time>2026-04-17T08:09:36.784Z</time>
      </trkpt>
      <trkpt lat="48.38333" lon="2.53734">
        <ele>77</ele>
        <time>2026-04-17T08:09:41.242Z</time>
      </trkpt>
      <trkpt lat="48.38329" lon="2.53728">
        <ele>77</ele>
        <time>2026-04-17T08:09:45.769Z</time>
      </trkpt>
      <trkpt lat="48.38326" lon="2.53722">
        <ele>77</ele>
        <time>2026-04-17T08:09:50.505Z</time>
      </trkpt>
      <trkpt lat="48.38318" lon="2.53711">
        <ele>75</ele>
        <time>2026-04-17T08:09:55.180Z</time>
      </trkpt>
      <trkpt lat="48.38314" lon="2.53709">
        <ele>75</ele>
        <time>2026-04-17T08:09:59.761Z</time>
      </trkpt>
      <trkpt lat="48.38308" lon="2.53707">
        <ele>74</ele>
        <time>2026-04-17T08:10:04.264Z</time>
      </trkpt>
      <trkpt lat="48.38304" lon="2.53702">
        <ele>74</ele>
        <time>2026-04-17T08:10:08.683Z</time>
      </trkpt>
      <trkpt lat="48.38302" lon="2.53693">
        <ele>74</ele>
        <time>2026-04-17T08:10:28.769Z</time>
      </trkpt>
      <trkpt lat="48.383" lon="2.53685">
        <ele>74</ele>
        <time>2026-04-17T08:10:32.964Z</time>
      </trkpt>
      <trkpt lat="48.38298" lon="2.53677">
        <ele>75</ele>
        <time>2026-04-17T08:10:37.208Z</time>
      </trkpt>
      <trkpt lat="48.38296" lon="2.5367">
        <ele>75</ele>
        <time>2026-04-17T08:10:41.490Z</time>
      </trkpt>
      <trkpt lat="48.38293" lon="2.53665">
        <ele>75</ele>
        <time>2026-04-17T08:10:45.669Z</time>
      </trkpt>
      <trkpt lat="48.3829" lon="2.53659">
        <ele>75</ele>
        <time>2026-04-17T08:10:49.954Z</time>
      </trkpt>
      <trkpt lat="48.38285" lon="2.53655">
        <ele>75</ele>
        <time>2026-04-17T08:10:54.327Z</time>
      </trkpt>
      <trkpt lat="48.3828" lon="2.53651">
        <ele>74</ele>
        <time>2026-04-17T08:10:58.627Z</time>
      </trkpt>
      <trkpt lat="48.38275" lon="2.53644">
        <ele>74</ele>
        <time>2026-04-17T08:11:02.951Z</time>
      </trkpt>
      <trkpt lat="48.38271" lon="2.53639">
        <ele>74</ele>
        <time>2026-04-17T08:11:07.268Z</time>
      </trkpt>
      <trkpt lat="48.38266" lon="2.53635">
        <ele>74</ele>
        <time>2026-04-17T08:11:11.328Z</time>
      </trkpt>
      <trkpt lat="48.38261" lon="2.5363">
        <ele>74</ele>
        <time>2026-04-17T08:11:15.768Z</time>
      </trkpt>
      <trkpt lat="48.38258" lon="2.53625">
        <ele>73</ele>
        <time>2026-04-17T08:11:20.566Z</time>
      </trkpt>
      <trkpt lat="48.38253" lon="2.53621">
        <ele>73</ele>
        <time>2026-04-17T08:11:24.670Z</time>
      </trkpt>
      <trkpt lat="48.38248" lon="2.53616">
        <ele>73</ele>
        <time>2026-04-17T08:11:29.006Z</time>
      </trkpt>
      <trkpt lat="48.38243" lon="2.53611">
        <ele>73</ele>
        <time>2026-04-17T08:11:33.147Z</time>
      </trkpt>
      <trkpt lat="48.38237" lon="2.53608">
        <ele>73</ele>
        <time>2026-04-17T08:11:37.063Z</time>
      </trkpt>
      <trkpt lat="48.38231" lon="2.53604">
        <ele>74</ele>
        <time>2026-04-17T08:11:41.285Z</time>
      </trkpt>
      <trkpt lat="48.38226" lon="2.536">
        <ele>74</ele>
        <time>2026-04-17T08:11:45.488Z</time>
      </trkpt>
      <trkpt lat="48.38221" lon="2.53597">
        <ele>73</ele>
        <time>2026-04-17T08:11:49.786Z</time>
      </trkpt>
      <trkpt lat="48.38215" lon="2.53595">
        <ele>73</ele>
        <time>2026-04-17T08:11:54.030Z</time>
      </trkpt>
      <trkpt lat="48.38209" lon="2.53592">
        <ele>73</ele>
        <time>2026-04-17T08:11:58.465Z</time>
      </trkpt>
      <trkpt lat="48.38204" lon="2.53589">
        <ele>74</ele>
        <time>2026-04-17T08:12:02.645Z</time>
      </trkpt>
      <trkpt lat="48.38199" lon="2.53585">
        <ele>74</ele>
        <time>2026-04-17T08:12:06.769Z</time>
      </trkpt>
      <trkpt lat="48.38194" lon="2.53582">
        <ele>74</ele>
        <time>2026-04-17T08:12:11.286Z</time>
      </trkpt>
      <trkpt lat="48.3819" lon="2.53578">
        <ele>74</ele>
        <time>2026-04-17T08:12:15.664Z</time>
      </trkpt>
      <trkpt lat="48.38185" lon="2.53575">
        <ele>74</ele>
        <time>2026-04-17T08:12:20.003Z</time>
      </trkpt>
      <trkpt lat="48.3818" lon="2.53572">
        <ele>73</ele>
        <time>2026-04-17T08:12:24.346Z</time>
      </trkpt>
      <trkpt lat="48.38174" lon="2.53569">
        <ele>72</ele>
        <time>2026-04-17T08:12:28.706Z</time>
      </trkpt>
      <trkpt lat="48.38169" lon="2.53565">
        <ele>72</ele>
        <time>2026-04-17T08:12:33.103Z</time>
      </trkpt>
      <trkpt lat="48.38163" lon="2.5356">
        <ele>72</ele>
        <time>2026-04-17T08:12:37.539Z</time>
      </trkpt>
      <trkpt lat="48.38158" lon="2.53555">
        <ele>72</ele>
        <time>2026-04-17T08:12:41.768Z</time>
      </trkpt>
      <trkpt lat="48.38154" lon="2.53549">
        <ele>72</ele>
        <time>2026-04-17T08:12:46.503Z</time>
      </trkpt>
      <trkpt lat="48.38151" lon="2.53543">
        <ele>71</ele>
        <time>2026-04-17T08:12:50.762Z</time>
      </trkpt>
      <trkpt lat="48.38148" lon="2.53551">
        <ele>71</ele>
        <time>2026-04-17T08:12:55.358Z</time>
      </trkpt>
      <trkpt lat="48.38144" lon="2.53547">
        <ele>71</ele>
        <time>2026-04-17T08:12:59.581Z</time>
      </trkpt>
      <trkpt lat="48.38143" lon="2.5354">
        <ele>72</ele>
        <time>2026-04-17T08:13:03.924Z</time>
      </trkpt>
      <trkpt lat="48.38138" lon="2.53534">
        <ele>72</ele>
        <time>2026-04-17T08:13:08.522Z</time>
      </trkpt>
      <trkpt lat="48.38133" lon="2.53526">
        <ele>72</ele>
        <time>2026-04-17T08:13:12.769Z</time>
      </trkpt>
      <trkpt lat="48.38133" lon="2.53526">
        <ele>72</ele>
        <time>2026-04-17T08:13:17.247Z</time>
      </trkpt>
      <trkpt lat="48.38133" lon="2.53526">
        <ele>72</ele>
        <time>2026-04-17T08:13:21.325Z</time>
      </trkpt>
      <trkpt lat="48.38134" lon="2.53519">
        <ele>72</ele>
        <time>2026-04-17T08:13:25.768Z</time>
      </trkpt>
      <trkpt lat="48.38136" lon="2.53511">
        <ele>71</ele>
        <time>2026-04-17T08:14:10.769Z</time>
      </trkpt>
      <trkpt lat="48.38142" lon="2.53509">
        <ele>71</ele>
        <time>2026-04-17T08:14:16.769Z</time>
      </trkpt>
      <trkpt lat="48.38147" lon="2.53503">
        <ele>71</ele>
        <time>2026-04-17T08:14:21.769Z</time>
      </trkpt>
      <trkpt lat="48.3815" lon="2.53496">
        <ele>71</ele>
        <time>2026-04-17T08:14:25.769Z</time>
      </trkpt>
      <trkpt lat="48.38153" lon="2.53489">
        <ele>72</ele>
        <time>2026-04-17T08:14:30.420Z</time>
      </trkpt>
      <trkpt lat="48.38155" lon="2.53481">
        <ele>72</ele>
        <time>2026-04-17T08:14:34.724Z</time>
      </trkpt>
      <trkpt lat="48.38157" lon="2.53475">
        <ele>72</ele>
        <time>2026-04-17T08:14:39.125Z</time>
      </trkpt>
      <trkpt lat="48.3816" lon="2.53468">
        <ele>72</ele>
        <time>2026-04-17T08:14:43.768Z</time>
      </trkpt>
      <trkpt lat="48.38162" lon="2.53462">
        <ele>72</ele>
        <time>2026-04-17T08:14:48.150Z</time>
      </trkpt>
      <trkpt lat="48.38165" lon="2.53456">
        <ele>72</ele>
        <time>2026-04-17T08:14:52.364Z</time>
      </trkpt>
      <trkpt lat="48.38168" lon="2.5345">
        <ele>72</ele>
        <time>2026-04-17T08:14:56.689Z</time>
      </trkpt>
      <trkpt lat="48.3817" lon="2.53442">
        <ele>72</ele>
        <time>2026-04-17T08:15:00.769Z</time>
      </trkpt>
      <trkpt lat="48.38173" lon="2.53436">
        <ele>72</ele>
        <time>2026-04-17T08:15:04.843Z</time>
      </trkpt>
      <trkpt lat="48.38175" lon="2.53429">
        <ele>73</ele>
        <time>2026-04-17T08:15:09.109Z</time>
      </trkpt>
      <trkpt lat="48.38178" lon="2.53422">
        <ele>73</ele>
        <time>2026-04-17T08:15:13.530Z</time>
      </trkpt>
      <trkpt lat="48.3818" lon="2.53415">
        <ele>73</ele>
        <time>2026-04-17T08:15:18.006Z</time>
      </trkpt>
      <trkpt lat="48.38182" lon="2.53407">
        <ele>73</ele>
        <time>2026-04-17T08:15:22.291Z</time>
      </trkpt>
      <trkpt lat="48.38184" lon="2.534">
        <ele>73</ele>
        <time>2026-04-17T08:15:26.664Z</time>
      </trkpt>
      <trkpt lat="48.38186" lon="2.53393">
        <ele>73</ele>
        <time>2026-04-17T08:15:30.890Z</time>
      </trkpt>
      <trkpt lat="48.38188" lon="2.53385">
        <ele>73</ele>
        <time>2026-04-17T08:15:35.305Z</time>
      </trkpt>
      <trkpt lat="48.3819" lon="2.53377">
        <ele>73</ele>
        <time>2026-04-17T08:15:39.528Z</time>
      </trkpt>
      <trkpt lat="48.38193" lon="2.5337">
        <ele>74</ele>
        <time>2026-04-17T08:15:43.786Z</time>
      </trkpt>
      <trkpt lat="48.38195" lon="2.53362">
        <ele>74</ele>
        <time>2026-04-17T08:15:47.769Z</time>
      </trkpt>
      <trkpt lat="48.38197" lon="2.53355">
        <ele>74</ele>
        <time>2026-04-17T08:15:52.128Z</time>
      </trkpt>
      <trkpt lat="48.382" lon="2.53348">
        <ele>74</ele>
        <time>2026-04-17T08:15:56.469Z</time>
      </trkpt>
      <trkpt lat="48.38201" lon="2.53339">
        <ele>74</ele>
        <time>2026-04-17T08:16:00.666Z</time>
      </trkpt>
      <trkpt lat="48.38201" lon="2.5333">
        <ele>74</ele>
        <time>2026-04-17T08:16:04.726Z</time>
      </trkpt>
      <trkpt lat="48.382" lon="2.53323">
        <ele>74</ele>
        <time>2026-04-17T08:16:08.889Z</time>
      </trkpt>
      <trkpt lat="48.38199" lon="2.53314">
        <ele>73</ele>
        <time>2026-04-17T08:16:13.027Z</time>
      </trkpt>
      <trkpt lat="48.38198" lon="2.53305">
        <ele>73</ele>
        <time>2026-04-17T08:16:17.684Z</time>
      </trkpt>
      <trkpt lat="48.38197" lon="2.53297">
        <ele>73</ele>
        <time>2026-04-17T08:16:21.769Z</time>
      </trkpt>
      <trkpt lat="48.38197" lon="2.53288">
        <ele>73</ele>
        <time>2026-04-17T08:16:26.009Z</time>
      </trkpt>
      <trkpt lat="48.38196" lon="2.53281">
        <ele>73</ele>
        <time>2026-04-17T08:16:30.625Z</time>
      </trkpt>
      <trkpt lat="48.38195" lon="2.53273">
        <ele>73</ele>
        <time>2026-04-17T08:16:35.320Z</time>
      </trkpt>
      <trkpt lat="48.38195" lon="2.53266">
        <ele>73</ele>
        <time>2026-04-17T08:16:39.500Z</time>
      </trkpt>
      <trkpt lat="48.38195" lon="2.53259">
        <ele>72</ele>
        <time>2026-04-17T08:16:43.622Z</time>
      </trkpt>
      <trkpt lat="48.38195" lon="2.5325">
        <ele>72</ele>
        <time>2026-04-17T08:16:47.768Z</time>
      </trkpt>
      <trkpt lat="48.38196" lon="2.53243">
        <ele>72</ele>
        <time>2026-04-17T08:16:52.100Z</time>
      </trkpt>
      <trkpt lat="48.38197" lon="2.53236">
        <ele>72</ele>
        <time>2026-04-17T08:16:56.383Z</time>
      </trkpt>
      <trkpt lat="48.38199" lon="2.53228">
        <ele>72</ele>
        <time>2026-04-17T08:17:00.769Z</time>
      </trkpt>
      <trkpt lat="48.38199" lon="2.53221">
        <ele>72</ele>
        <time>2026-04-17T08:17:05.204Z</time>
      </trkpt>
      <trkpt lat="48.382" lon="2.53213">
        <ele>72</ele>
        <time>2026-04-17T08:17:09.561Z</time>
      </trkpt>
      <trkpt lat="48.38202" lon="2.53205">
        <ele>71</ele>
        <time>2026-04-17T08:17:14.065Z</time>
      </trkpt>
      <trkpt lat="48.38203" lon="2.53196">
        <ele>71</ele>
        <time>2026-04-17T08:17:18.347Z</time>
      </trkpt>
      <trkpt lat="48.38205" lon="2.53188">
        <ele>71</ele>
        <time>2026-04-17T08:17:22.544Z</time>
      </trkpt>
      <trkpt lat="48.38206" lon="2.53179">
        <ele>70</ele>
        <time>2026-04-17T08:17:26.708Z</time>
      </trkpt>
      <trkpt lat="48.38207" lon="2.53169">
        <ele>70</ele>
        <time>2026-04-17T08:17:31.159Z</time>
      </trkpt>
      <trkpt lat="48.38208" lon="2.5316">
        <ele>70</ele>
        <time>2026-04-17T08:17:35.266Z</time>
      </trkpt>
      <trkpt lat="48.38209" lon="2.53152">
        <ele>72</ele>
        <time>2026-04-17T08:17:39.444Z</time>
      </trkpt>
      <trkpt lat="48.3821" lon="2.53144">
        <ele>72</ele>
        <time>2026-04-17T08:17:44.006Z</time>
      </trkpt>
      <trkpt lat="48.38211" lon="2.53137">
        <ele>72</ele>
        <time>2026-04-17T08:17:48.543Z</time>
      </trkpt>
      <trkpt lat="48.38213" lon="2.53129">
        <ele>72</ele>
        <time>2026-04-17T08:17:52.769Z</time>
      </trkpt>
      <trkpt lat="48.38214" lon="2.53129">
        <ele>72</ele>
        <time>2026-04-17T08:17:57.102Z</time>
      </trkpt>
      <trkpt lat="48.38215" lon="2.53121">
        <ele>72</ele>
        <time>2026-04-17T08:18:01.485Z</time>
      </trkpt>
      <trkpt lat="48.38218" lon="2.53113">
        <ele>72</ele>
        <time>2026-04-17T08:18:05.769Z</time>
      </trkpt>
      <trkpt lat="48.38222" lon="2.53108">
        <ele>72</ele>
        <time>2026-04-17T08:18:10.241Z</time>
      </trkpt>
      <trkpt lat="48.38225" lon="2.53104">
        <ele>72</ele>
        <time>2026-04-17T08:18:14.769Z</time>
      </trkpt>
      <trkpt lat="48.3823" lon="2.53096">
        <ele>72</ele>
        <time>2026-04-17T08:18:41.352Z</time>
      </trkpt>
      <trkpt lat="48.38234" lon="2.5309">
        <ele>72</ele>
        <time>2026-04-17T08:18:45.429Z</time>
      </trkpt>
      <trkpt lat="48.38237" lon="2.53084">
        <ele>73</ele>
        <time>2026-04-17T08:18:49.769Z</time>
      </trkpt>
      <trkpt lat="48.38241" lon="2.53076">
        <ele>73</ele>
        <time>2026-04-17T08:18:54.608Z</time>
      </trkpt>
      <trkpt lat="48.38242" lon="2.53067">
        <ele>72</ele>
        <time>2026-04-17T08:18:58.769Z</time>
      </trkpt>
      <trkpt lat="48.38244" lon="2.5306">
        <ele>72</ele>
        <time>2026-04-17T08:19:03.470Z</time>
      </trkpt>
      <trkpt lat="48.38247" lon="2.53053">
        <ele>72</ele>
        <time>2026-04-17T08:19:07.769Z</time>
      </trkpt>
      <trkpt lat="48.38251" lon="2.53048">
        <ele>72</ele>
        <time>2026-04-17T08:19:12.666Z</time>
      </trkpt>
      <trkpt lat="48.38254" lon="2.53042">
        <ele>72</ele>
        <time>2026-04-17T08:19:17.204Z</time>
      </trkpt>
      <trkpt lat="48.38258" lon="2.53036">
        <ele>71</ele>
        <time>2026-04-17T08:19:21.588Z</time>
      </trkpt>
      <trkpt lat="48.38261" lon="2.5303">
        <ele>71</ele>
        <time>2026-04-17T08:19:26.093Z</time>
      </trkpt>
      <trkpt lat="48.38264" lon="2.53022">
        <ele>71</ele>
        <time>2026-04-17T08:19:30.589Z</time>
      </trkpt>
      <trkpt lat="48.38266" lon="2.53015">
        <ele>72</ele>
        <time>2026-04-17T08:19:34.965Z</time>
      </trkpt>
      <trkpt lat="48.3827" lon="2.53009">
        <ele>72</ele>
        <time>2026-04-17T08:19:39.306Z</time>
      </trkpt>
      <trkpt lat="48.38273" lon="2.53002">
        <ele>72</ele>
        <time>2026-04-17T08:19:43.486Z</time>
      </trkpt>
      <trkpt lat="48.38276" lon="2.52995">
        <ele>72</ele>
        <time>2026-04-17T08:19:47.665Z</time>
      </trkpt>
      <trkpt lat="48.38279" lon="2.52988">
        <ele>72</ele>
        <time>2026-04-17T08:19:51.866Z</time>
      </trkpt>
      <trkpt lat="48.38281" lon="2.52981">
        <ele>73</ele>
        <time>2026-04-17T08:19:56.204Z</time>
      </trkpt>
      <trkpt lat="48.38284" lon="2.52974">
        <ele>73</ele>
        <time>2026-04-17T08:20:00.769Z</time>
      </trkpt>
      <trkpt lat="48.38287" lon="2.52967">
        <ele>73</ele>
        <time>2026-04-17T08:20:05.281Z</time>
      </trkpt>
      <trkpt lat="48.38289" lon="2.5296">
        <ele>73</ele>
        <time>2026-04-17T08:20:09.486Z</time>
      </trkpt>
      <trkpt lat="48.38292" lon="2.52954">
        <ele>74</ele>
        <time>2026-04-17T08:20:13.606Z</time>
      </trkpt>
      <trkpt lat="48.38294" lon="2.52948">
        <ele>74</ele>
        <time>2026-04-17T08:20:17.761Z</time>
      </trkpt>
      <trkpt lat="48.38297" lon="2.5294">
        <ele>74</ele>
        <time>2026-04-17T08:20:21.966Z</time>
      </trkpt>
      <trkpt lat="48.38299" lon="2.52935">
        <ele>74</ele>
        <time>2026-04-17T08:20:26.165Z</time>
      </trkpt>
      <trkpt lat="48.38301" lon="2.52929">
        <ele>74</ele>
        <time>2026-04-17T08:20:30.584Z</time>
      </trkpt>
      <trkpt lat="48.38305" lon="2.52928">
        <ele>74</ele>
        <time>2026-04-17T08:20:34.964Z</time>
      </trkpt>
      <trkpt lat="48.38308" lon="2.52926">
        <ele>74</ele>
        <time>2026-04-17T08:20:39.269Z</time>
      </trkpt>
      <trkpt lat="48.38309" lon="2.52917">
        <ele>74</ele>
        <time>2026-04-17T08:20:43.768Z</time>
      </trkpt>
      <trkpt lat="48.38311" lon="2.5291">
        <ele>74</ele>
        <time>2026-04-17T08:20:48.305Z</time>
      </trkpt>
      <trkpt lat="48.38312" lon="2.52902">
        <ele>73</ele>
        <time>2026-04-17T08:20:52.769Z</time>
      </trkpt>
      <trkpt lat="48.38314" lon="2.52894">
        <ele>73</ele>
        <time>2026-04-17T08:20:57.184Z</time>
      </trkpt>
      <trkpt lat="48.38316" lon="2.52887">
        <ele>73</ele>
        <time>2026-04-17T08:21:01.209Z</time>
      </trkpt>
      <trkpt lat="48.38318" lon="2.52879">
        <ele>73</ele>
        <time>2026-04-17T08:21:05.688Z</time>
      </trkpt>
      <trkpt lat="48.38319" lon="2.52872">
        <ele>73</ele>
        <time>2026-04-17T08:21:10.184Z</time>
      </trkpt>
      <trkpt lat="48.38321" lon="2.52865">
        <ele>74</ele>
        <time>2026-04-17T08:21:14.632Z</time>
      </trkpt>
      <trkpt lat="48.38323" lon="2.52857">
        <ele>74</ele>
        <time>2026-04-17T08:21:19.047Z</time>
      </trkpt>
      <trkpt lat="48.38325" lon="2.52851">
        <ele>74</ele>
        <time>2026-04-17T08:21:23.491Z</time>
      </trkpt>
      <trkpt lat="48.38327" lon="2.52845">
        <ele>74</ele>
        <time>2026-04-17T08:21:28.046Z</time>
      </trkpt>
      <trkpt lat="48.38328" lon="2.52839">
        <ele>74</ele>
        <time>2026-04-17T08:21:32.401Z</time>
      </trkpt>
      <trkpt lat="48.38331" lon="2.52833">
        <ele>74</ele>
        <time>2026-04-17T08:21:36.769Z</time>
      </trkpt>
      <trkpt lat="48.38333" lon="2.52827">
        <ele>74</ele>
        <time>2026-04-17T08:21:41.131Z</time>
      </trkpt>
      <trkpt lat="48.38334" lon="2.52821">
        <ele>74</ele>
        <time>2026-04-17T08:21:45.447Z</time>
      </trkpt>
      <trkpt lat="48.38335" lon="2.52812">
        <ele>74</ele>
        <time>2026-04-17T08:21:49.449Z</time>
      </trkpt>
      <trkpt lat="48.38336" lon="2.52805">
        <ele>74</ele>
        <time>2026-04-17T08:21:53.969Z</time>
      </trkpt>
      <trkpt lat="48.38336" lon="2.52798">
        <ele>74</ele>
        <time>2026-04-17T08:21:58.149Z</time>
      </trkpt>
      <trkpt lat="48.38336" lon="2.5279">
        <ele>73</ele>
        <time>2026-04-17T08:22:02.389Z</time>
      </trkpt>
      <trkpt lat="48.38335" lon="2.52783">
        <ele>73</ele>
        <time>2026-04-17T08:22:06.670Z</time>
      </trkpt>
      <trkpt lat="48.38335" lon="2.52777">
        <ele>73</ele>
        <time>2026-04-17T08:22:10.970Z</time>
      </trkpt>
      <trkpt lat="48.38334" lon="2.52777">
        <ele>73</ele>
        <time>2026-04-17T08:22:15.245Z</time>
      </trkpt>
      <trkpt lat="48.38334" lon="2.52772">
        <ele>73</ele>
        <time>2026-04-17T08:22:19.645Z</time>
      </trkpt>
      <trkpt lat="48.38335" lon="2.52764">
        <ele>73</ele>
        <time>2026-04-17T08:22:23.706Z</time>
      </trkpt>
      <trkpt lat="48.38337" lon="2.52756">
        <ele>72</ele>
        <time>2026-04-17T08:22:27.769Z</time>
      </trkpt>
      <trkpt lat="48.38344" lon="2.5274">
        <ele>72</ele>
        <time>2026-04-17T08:22:34.323Z</time>
      </trkpt>
      <trkpt lat="48.38343" lon="2.52739">
        <ele>72</ele>
        <time>2026-04-17T08:22:38.424Z</time>
      </trkpt>
      <trkpt lat="48.38343" lon="2.52739">
        <ele>72</ele>
        <time>2026-04-17T08:22:42.769Z</time>
      </trkpt>
      <trkpt lat="48.38342" lon="2.52738">
        <ele>72</ele>
        <time>2026-04-17T08:22:47.288Z</time>
      </trkpt>
      <trkpt lat="48.38341" lon="2.52735">
        <ele>73</ele>
        <time>2026-04-17T08:23:04.769Z</time>
      </trkpt>
      <trkpt lat="48.38337" lon="2.52735">
        <ele>73</ele>
        <time>2026-04-17T08:23:09.406Z</time>
      </trkpt>
      <trkpt lat="48.38337" lon="2.52736">
        <ele>73</ele>
        <time>2026-04-17T08:23:13.769Z</time>
      </trkpt>
      <trkpt lat="48.38335" lon="2.52735">
        <ele>73</ele>
        <time>2026-04-17T08:23:17.964Z</time>
      </trkpt>
      <trkpt lat="48.38331" lon="2.52732">
        <ele>73</ele>
        <time>2026-04-17T08:23:22.769Z</time>
      </trkpt>
      <trkpt lat="48.38326" lon="2.5274">
        <ele>72</ele>
        <time>2026-04-17T08:23:45.769Z</time>
      </trkpt>
      <trkpt lat="48.38335" lon="2.52741">
        <ele>72</ele>
        <time>2026-04-17T08:23:49.768Z</time>
      </trkpt>
      <trkpt lat="48.38335" lon="2.52741">
        <ele>72</ele>
        <time>2026-04-17T08:23:54.084Z</time>
      </trkpt>
      <trkpt lat="48.38335" lon="2.52742">
        <ele>72</ele>
        <time>2026-04-17T08:23:58.769Z</time>
      </trkpt>
      <trkpt lat="48.38335" lon="2.52741">
        <ele>72</ele>
        <time>2026-04-17T08:24:03.769Z</time>
      </trkpt>
      <trkpt lat="48.38337" lon="2.52741">
        <ele>72</ele>
        <time>2026-04-17T08:24:48.769Z</time>
      </trkpt>
      <trkpt lat="48.38339" lon="2.52744">
        <ele>72</ele>
        <time>2026-04-17T08:24:53.769Z</time>
      </trkpt>
      <trkpt lat="48.38339" lon="2.5274">
        <ele>72</ele>
        <time>2026-04-17T08:24:59.768Z</time>
      </trkpt>
      <trkpt lat="48.3834" lon="2.52735">
        <ele>73</ele>
        <time>2026-04-17T08:25:03.769Z</time>
      </trkpt>
      <trkpt lat="48.3834" lon="2.52732">
        <ele>73</ele>
        <time>2026-04-17T08:25:08.768Z</time>
      </trkpt>
      <trkpt lat="48.38339" lon="2.52725">
        <ele>73</ele>
        <time>2026-04-17T08:26:32.768Z</time>
      </trkpt>
      <trkpt lat="48.38339" lon="2.52718">
        <ele>73</ele>
        <time>2026-04-17T08:26:37.769Z</time>
      </trkpt>
      <trkpt lat="48.3834" lon="2.52709">
        <ele>73</ele>
        <time>2026-04-17T08:26:42.768Z</time>
      </trkpt>
      <trkpt lat="48.3834" lon="2.52701">
        <ele>74</ele>
        <time>2026-04-17T08:26:47.768Z</time>
      </trkpt>
      <trkpt lat="48.3834" lon="2.52692">
        <ele>74</ele>
        <time>2026-04-17T08:26:52.768Z</time>
      </trkpt>
      <trkpt lat="48.3834" lon="2.52685">
        <ele>74</ele>
        <time>2026-04-17T08:26:57.230Z</time>
      </trkpt>
      <trkpt lat="48.3834" lon="2.52678">
        <ele>74</ele>
        <time>2026-04-17T08:27:01.588Z</time>
      </trkpt>
      <trkpt lat="48.38339" lon="2.52672">
        <ele>74</ele>
        <time>2026-04-17T08:27:06.067Z</time>
      </trkpt>
      <trkpt lat="48.38339" lon="2.52664">
        <ele>74</ele>
        <time>2026-04-17T08:27:10.545Z</time>
      </trkpt>
      <trkpt lat="48.38337" lon="2.52657">
        <ele>74</ele>
        <time>2026-04-17T08:27:14.810Z</time>
      </trkpt>
      <trkpt lat="48.38337" lon="2.52649">
        <ele>74</ele>
        <time>2026-04-17T08:27:19.263Z</time>
      </trkpt>
      <trkpt lat="48.38337" lon="2.52643">
        <ele>74</ele>
        <time>2026-04-17T08:27:23.410Z</time>
      </trkpt>
      <trkpt lat="48.38335" lon="2.52636">
        <ele>74</ele>
        <time>2026-04-17T08:27:27.769Z</time>
      </trkpt>
      <trkpt lat="48.38334" lon="2.52628">
        <ele>74</ele>
        <time>2026-04-17T08:27:32.290Z</time>
      </trkpt>
      <trkpt lat="48.38331" lon="2.52622">
        <ele>73</ele>
        <time>2026-04-17T08:27:36.769Z</time>
      </trkpt>
      <trkpt lat="48.38329" lon="2.52614">
        <ele>73</ele>
        <time>2026-04-17T08:27:40.769Z</time>
      </trkpt>
      <trkpt lat="48.38328" lon="2.52607">
        <ele>73</ele>
        <time>2026-04-17T08:27:45.231Z</time>
      </trkpt>
      <trkpt lat="48.38324" lon="2.52601">
        <ele>73</ele>
        <time>2026-04-17T08:27:49.470Z</time>
      </trkpt>
      <trkpt lat="48.38321" lon="2.52595">
        <ele>72</ele>
        <time>2026-04-17T08:27:53.684Z</time>
      </trkpt>
      <trkpt lat="48.38319" lon="2.52589">
        <ele>72</ele>
        <time>2026-04-17T08:27:57.940Z</time>
      </trkpt>
      <trkpt lat="48.38316" lon="2.52583">
        <ele>72</ele>
        <time>2026-04-17T08:28:02.240Z</time>
      </trkpt>
      <trkpt lat="48.38313" lon="2.52577">
        <ele>72</ele>
        <time>2026-04-17T08:28:06.481Z</time>
      </trkpt>
      <trkpt lat="48.38311" lon="2.52569">
        <ele>71</ele>
        <time>2026-04-17T08:28:10.705Z</time>
      </trkpt>
      <trkpt lat="48.38309" lon="2.52562">
        <ele>71</ele>
        <time>2026-04-17T08:28:15.036Z</time>
      </trkpt>
      <trkpt lat="48.38305" lon="2.52553">
        <ele>71</ele>
        <time>2026-04-17T08:28:19.304Z</time>
      </trkpt>
      <trkpt lat="48.38302" lon="2.52547">
        <ele>71</ele>
        <time>2026-04-17T08:28:23.635Z</time>
      </trkpt>
      <trkpt lat="48.383" lon="2.52541">
        <ele>71</ele>
        <time>2026-04-17T08:28:27.783Z</time>
      </trkpt>
      <trkpt lat="48.38298" lon="2.52534">
        <ele>71</ele>
        <time>2026-04-17T08:28:32.184Z</time>
      </trkpt>
      <trkpt lat="48.38296" lon="2.52526">
        <ele>71</ele>
        <time>2026-04-17T08:28:36.363Z</time>
      </trkpt>
      <trkpt lat="48.38295" lon="2.52518">
        <ele>71</ele>
        <time>2026-04-17T08:28:40.440Z</time>
      </trkpt>
      <trkpt lat="48.38294" lon="2.5251">
        <ele>70</ele>
        <time>2026-04-17T08:28:44.620Z</time>
      </trkpt>
      <trkpt lat="48.38294" lon="2.52501">
        <ele>70</ele>
        <time>2026-04-17T08:28:48.769Z</time>
      </trkpt>
      <trkpt lat="48.38294" lon="2.52494">
        <ele>70</ele>
        <time>2026-04-17T08:28:53.041Z</time>
      </trkpt>
      <trkpt lat="48.38294" lon="2.52488">
        <ele>70</ele>
        <time>2026-04-17T08:28:57.238Z</time>
      </trkpt>
      <trkpt lat="48.38294" lon="2.52481">
        <ele>69</ele>
        <time>2026-04-17T08:29:01.323Z</time>
      </trkpt>
      <trkpt lat="48.38294" lon="2.52474">
        <ele>69</ele>
        <time>2026-04-17T08:29:05.678Z</time>
      </trkpt>
      <trkpt lat="48.38294" lon="2.52467">
        <ele>69</ele>
        <time>2026-04-17T08:29:10.178Z</time>
      </trkpt>
      <trkpt lat="48.38293" lon="2.52462">
        <ele>69</ele>
        <time>2026-04-17T08:29:14.656Z</time>
      </trkpt>
      <trkpt lat="48.38293" lon="2.52457">
        <ele>70</ele>
        <time>2026-04-17T08:29:19.093Z</time>
      </trkpt>
      <trkpt lat="48.38292" lon="2.5245">
        <ele>70</ele>
        <time>2026-04-17T08:29:23.196Z</time>
      </trkpt>
      <trkpt lat="48.3829" lon="2.52443">
        <ele>67</ele>
        <time>2026-04-17T08:29:27.768Z</time>
      </trkpt>
      <trkpt lat="48.38289" lon="2.52436">
        <ele>67</ele>
        <time>2026-04-17T08:29:32.358Z</time>
      </trkpt>
      <trkpt lat="48.38287" lon="2.52429">
        <ele>69</ele>
        <time>2026-04-17T08:29:36.768Z</time>
      </trkpt>
      <trkpt lat="48.38286" lon="2.52421">
        <ele>69</ele>
        <time>2026-04-17T08:29:41.153Z</time>
      </trkpt>
      <trkpt lat="48.38286" lon="2.52413">
        <ele>69</ele>
        <time>2026-04-17T08:29:45.674Z</time>
      </trkpt>
      <trkpt lat="48.38284" lon="2.52407">
        <ele>69</ele>
        <time>2026-04-17T08:29:50.076Z</time>
      </trkpt>
      <trkpt lat="48.38283" lon="2.52399">
        <ele>71</ele>
        <time>2026-04-17T08:29:54.437Z</time>
      </trkpt>
      <trkpt lat="48.3828" lon="2.52392">
        <ele>71</ele>
        <time>2026-04-17T08:29:58.769Z</time>
      </trkpt>
      <trkpt lat="48.38277" lon="2.52387">
        <ele>71</ele>
        <time>2026-04-17T08:30:03.196Z</time>
      </trkpt>
      <trkpt lat="48.38272" lon="2.52376">
        <ele>71</ele>
        <time>2026-04-17T08:30:07.751Z</time>
      </trkpt>
      <trkpt lat="48.38271" lon="2.52375">
        <ele>73</ele>
        <time>2026-04-17T08:30:12.034Z</time>
      </trkpt>
      <trkpt lat="48.38268" lon="2.52369">
        <ele>73</ele>
        <time>2026-04-17T08:30:16.299Z</time>
      </trkpt>
      <trkpt lat="48.38264" lon="2.52364">
        <ele>70</ele>
        <time>2026-04-17T08:30:20.437Z</time>
      </trkpt>
      <trkpt lat="48.3826" lon="2.52359">
        <ele>70</ele>
        <time>2026-04-17T08:30:43.769Z</time>
      </trkpt>
      <trkpt lat="48.38257" lon="2.52355">
        <ele>70</ele>
        <time>2026-04-17T08:30:47.769Z</time>
      </trkpt>
      <trkpt lat="48.38254" lon="2.52351">
        <ele>70</ele>
        <time>2026-04-17T08:30:51.961Z</time>
      </trkpt>
      <trkpt lat="48.38251" lon="2.52346">
        <ele>71</ele>
        <time>2026-04-17T08:30:56.112Z</time>
      </trkpt>
      <trkpt lat="48.38248" lon="2.52341">
        <ele>71</ele>
        <time>2026-04-17T08:31:00.436Z</time>
      </trkpt>
      <trkpt lat="48.38244" lon="2.52336">
        <ele>71</ele>
        <time>2026-04-17T08:31:04.769Z</time>
      </trkpt>
      <trkpt lat="48.3824" lon="2.52331">
        <ele>71</ele>
        <time>2026-04-17T08:31:09.203Z</time>
      </trkpt>
      <trkpt lat="48.38235" lon="2.52325">
        <ele>69</ele>
        <time>2026-04-17T08:31:13.357Z</time>
      </trkpt>
      <trkpt lat="48.38231" lon="2.52319">
        <ele>70</ele>
        <time>2026-04-17T08:31:17.769Z</time>
      </trkpt>
      <trkpt lat="48.38227" lon="2.52313">
        <ele>70</ele>
        <time>2026-04-17T08:31:21.769Z</time>
      </trkpt>
      <trkpt lat="48.38223" lon="2.52307">
        <ele>70</ele>
        <time>2026-04-17T08:31:26.445Z</time>
      </trkpt>
      <trkpt lat="48.38221" lon="2.523">
        <ele>70</ele>
        <time>2026-04-17T08:31:30.769Z</time>
      </trkpt>
      <trkpt lat="48.38218" lon="2.52295">
        <ele>70</ele>
        <time>2026-04-17T08:31:35.357Z</time>
      </trkpt>
      <trkpt lat="48.38214" lon="2.52291">
        <ele>72</ele>
        <time>2026-04-17T08:31:39.759Z</time>
      </trkpt>
      <trkpt lat="48.3821" lon="2.52286">
        <ele>72</ele>
        <time>2026-04-17T08:31:44.220Z</time>
      </trkpt>
      <trkpt lat="48.38207" lon="2.52281">
        <ele>71</ele>
        <time>2026-04-17T08:31:48.768Z</time>
      </trkpt>
      <trkpt lat="48.38204" lon="2.52276">
        <ele>71</ele>
        <time>2026-04-17T08:31:53.161Z</time>
      </trkpt>
      <trkpt lat="48.382" lon="2.52269">
        <ele>71</ele>
        <time>2026-04-17T08:31:57.358Z</time>
      </trkpt>
      <trkpt lat="48.38197" lon="2.52263">
        <ele>72</ele>
        <time>2026-04-17T08:32:01.640Z</time>
      </trkpt>
      <trkpt lat="48.38193" lon="2.52256">
        <ele>72</ele>
        <time>2026-04-17T08:32:05.978Z</time>
      </trkpt>
      <trkpt lat="48.3819" lon="2.5225">
        <ele>72</ele>
        <time>2026-04-17T08:32:10.295Z</time>
      </trkpt>
      <trkpt lat="48.38185" lon="2.52245">
        <ele>72</ele>
        <time>2026-04-17T08:32:14.535Z</time>
      </trkpt>
      <trkpt lat="48.38181" lon="2.52239">
        <ele>72</ele>
        <time>2026-04-17T08:32:18.877Z</time>
      </trkpt>
      <trkpt lat="48.38178" lon="2.52232">
        <ele>73</ele>
        <time>2026-04-17T08:32:23.099Z</time>
      </trkpt>
      <trkpt lat="48.38175" lon="2.52226">
        <ele>73</ele>
        <time>2026-04-17T08:32:27.357Z</time>
      </trkpt>
      <trkpt lat="48.3817" lon="2.5222">
        <ele>73</ele>
        <time>2026-04-17T08:32:31.612Z</time>
      </trkpt>
      <trkpt lat="48.38166" lon="2.52214">
        <ele>73</ele>
        <time>2026-04-17T08:32:35.998Z</time>
      </trkpt>
      <trkpt lat="48.38163" lon="2.52207">
        <ele>73</ele>
        <time>2026-04-17T08:32:40.314Z</time>
      </trkpt>
      <trkpt lat="48.38158" lon="2.52201">
        <ele>73</ele>
        <time>2026-04-17T08:32:44.596Z</time>
      </trkpt>
      <trkpt lat="48.38155" lon="2.52195">
        <ele>73</ele>
        <time>2026-04-17T08:32:48.777Z</time>
      </trkpt>
      <trkpt lat="48.38151" lon="2.52187">
        <ele>73</ele>
        <time>2026-04-17T08:32:53.154Z</time>
      </trkpt>
      <trkpt lat="48.38148" lon="2.52181">
        <ele>73</ele>
        <time>2026-04-17T08:32:57.375Z</time>
      </trkpt>
      <trkpt lat="48.38144" lon="2.52174">
        <ele>72</ele>
        <time>2026-04-17T08:33:01.599Z</time>
      </trkpt>
      <trkpt lat="48.3814" lon="2.52168">
        <ele>72</ele>
        <time>2026-04-17T08:33:05.768Z</time>
      </trkpt>
      <trkpt lat="48.38136" lon="2.52162">
        <ele>72</ele>
        <time>2026-04-17T08:33:10.203Z</time>
      </trkpt>
      <trkpt lat="48.38132" lon="2.52156">
        <ele>72</ele>
        <time>2026-04-17T08:33:14.561Z</time>
      </trkpt>
      <trkpt lat="48.38129" lon="2.52149">
        <ele>71</ele>
        <time>2026-04-17T08:33:18.920Z</time>
      </trkpt>
      <trkpt lat="48.38125" lon="2.52143">
        <ele>71</ele>
        <time>2026-04-17T08:33:23.264Z</time>
      </trkpt>
      <trkpt lat="48.3812" lon="2.52139">
        <ele>71</ele>
        <time>2026-04-17T08:33:27.623Z</time>
      </trkpt>
      <trkpt lat="48.38116" lon="2.52133">
        <ele>71</ele>
        <time>2026-04-17T08:33:32.041Z</time>
      </trkpt>
      <trkpt lat="48.38113" lon="2.52126">
        <ele>71</ele>
        <time>2026-04-17T08:33:36.386Z</time>
      </trkpt>
      <trkpt lat="48.38108" lon="2.5212">
        <ele>70</ele>
        <time>2026-04-17T08:33:40.769Z</time>
      </trkpt>
      <trkpt lat="48.38104" lon="2.52113">
        <ele>70</ele>
        <time>2026-04-17T08:33:45.297Z</time>
      </trkpt>
      <trkpt lat="48.381" lon="2.52108">
        <ele>70</ele>
        <time>2026-04-17T08:33:49.769Z</time>
      </trkpt>
      <trkpt lat="48.381" lon="2.52107">
        <ele>70</ele>
        <time>2026-04-17T08:33:54.178Z</time>
      </trkpt>
      <trkpt lat="48.38099" lon="2.52106">
        <ele>70</ele>
        <time>2026-04-17T08:33:58.685Z</time>
      </trkpt>
      <trkpt lat="48.38094" lon="2.521">
        <ele>70</ele>
        <time>2026-04-17T08:34:03.221Z</time>
      </trkpt>
      <trkpt lat="48.38093" lon="2.52094">
        <ele>70</ele>
        <time>2026-04-17T08:34:07.768Z</time>
      </trkpt>
      <trkpt lat="48.38094" lon="2.52091">
        <ele>70</ele>
        <time>2026-04-17T08:34:12.768Z</time>
      </trkpt>
      <trkpt lat="48.38096" lon="2.52093">
        <ele>70</ele>
        <time>2026-04-17T08:34:17.182Z</time>
      </trkpt>
      <trkpt lat="48.381" lon="2.52085">
        <ele>70</ele>
        <time>2026-04-17T08:34:21.539Z</time>
      </trkpt>
      <trkpt lat="48.38105" lon="2.52079">
        <ele>70</ele>
        <time>2026-04-17T08:34:25.704Z</time>
      </trkpt>
      <trkpt lat="48.38108" lon="2.52072">
        <ele>70</ele>
        <time>2026-04-17T08:34:29.769Z</time>
      </trkpt>
      <trkpt lat="48.3811" lon="2.52066">
        <ele>70</ele>
        <time>2026-04-17T08:34:53.138Z</time>
      </trkpt>
      <trkpt lat="48.38113" lon="2.52058">
        <ele>70</ele>
        <time>2026-04-17T08:34:57.438Z</time>
      </trkpt>
      <trkpt lat="48.38114" lon="2.52051">
        <ele>70</ele>
        <time>2026-04-17T08:35:01.720Z</time>
      </trkpt>
      <trkpt lat="48.38116" lon="2.52044">
        <ele>70</ele>
        <time>2026-04-17T08:35:06.216Z</time>
      </trkpt>
      <trkpt lat="48.38119" lon="2.52037">
        <ele>70</ele>
        <time>2026-04-17T08:35:10.763Z</time>
      </trkpt>
      <trkpt lat="48.38122" lon="2.5203">
        <ele>70</ele>
        <time>2026-04-17T08:35:15.259Z</time>
      </trkpt>
      <trkpt lat="48.38126" lon="2.52024">
        <ele>70</ele>
        <time>2026-04-17T08:35:19.482Z</time>
      </trkpt>
      <trkpt lat="48.38129" lon="2.52017">
        <ele>70</ele>
        <time>2026-04-17T08:35:23.516Z</time>
      </trkpt>
      <trkpt lat="48.38132" lon="2.52009">
        <ele>70</ele>
        <time>2026-04-17T08:35:27.903Z</time>
      </trkpt>
      <trkpt lat="48.38135" lon="2.52003">
        <ele>70</ele>
        <time>2026-04-17T08:35:32.243Z</time>
      </trkpt>
      <trkpt lat="48.38135" lon="2.51995">
        <ele>70</ele>
        <time>2026-04-17T08:35:36.560Z</time>
      </trkpt>
      <trkpt lat="48.38134" lon="2.51988">
        <ele>70</ele>
        <time>2026-04-17T08:35:40.996Z</time>
      </trkpt>
      <trkpt lat="48.38132" lon="2.51982">
        <ele>71</ele>
        <time>2026-04-17T08:35:45.442Z</time>
      </trkpt>
      <trkpt lat="48.3813" lon="2.51975">
        <ele>71</ele>
        <time>2026-04-17T08:35:49.595Z</time>
      </trkpt>
      <trkpt lat="48.38131" lon="2.51973">
        <ele>71</ele>
        <time>2026-04-17T08:35:53.979Z</time>
      </trkpt>
      <trkpt lat="48.3813" lon="2.51972">
        <ele>71</ele>
        <time>2026-04-17T08:35:58.263Z</time>
      </trkpt>
      <trkpt lat="48.38128" lon="2.51965">
        <ele>71</ele>
        <time>2026-04-17T08:36:02.341Z</time>
      </trkpt>
      <trkpt lat="48.38128" lon="2.51957">
        <ele>71</ele>
        <time>2026-04-17T08:36:06.769Z</time>
      </trkpt>
      <trkpt lat="48.38126" lon="2.5195">
        <ele>71</ele>
        <time>2026-04-17T08:36:11.769Z</time>
      </trkpt>
      <trkpt lat="48.38123" lon="2.51944">
        <ele>71</ele>
        <time>2026-04-17T08:36:16.259Z</time>
      </trkpt>
      <trkpt lat="48.38119" lon="2.5194">
        <ele>71</ele>
        <time>2026-04-17T08:36:20.460Z</time>
      </trkpt>
      <trkpt lat="48.38117" lon="2.51934">
        <ele>71</ele>
        <time>2026-04-17T08:36:24.713Z</time>
      </trkpt>
      <trkpt lat="48.38115" lon="2.51928">
        <ele>71</ele>
        <time>2026-04-17T08:36:29.194Z</time>
      </trkpt>
      <trkpt lat="48.38114" lon="2.5192">
        <ele>71</ele>
        <time>2026-04-17T08:36:33.252Z</time>
      </trkpt>
      <trkpt lat="48.38113" lon="2.51913">
        <ele>71</ele>
        <time>2026-04-17T08:36:37.577Z</time>
      </trkpt>
      <trkpt lat="48.38112" lon="2.51906">
        <ele>71</ele>
        <time>2026-04-17T08:36:41.774Z</time>
      </trkpt>
      <trkpt lat="48.38112" lon="2.51898">
        <ele>71</ele>
        <time>2026-04-17T08:36:45.960Z</time>
      </trkpt>
      <trkpt lat="48.38111" lon="2.51891">
        <ele>71</ele>
        <time>2026-04-17T08:36:50.493Z</time>
      </trkpt>
      <trkpt lat="48.38109" lon="2.51883">
        <ele>71</ele>
        <time>2026-04-17T08:36:54.582Z</time>
      </trkpt>
      <trkpt lat="48.3811" lon="2.51876">
        <ele>71</ele>
        <time>2026-04-17T08:36:58.768Z</time>
      </trkpt>
      <trkpt lat="48.3811" lon="2.51869">
        <ele>71</ele>
        <time>2026-04-17T08:37:03.181Z</time>
      </trkpt>
      <trkpt lat="48.3811" lon="2.51861">
        <ele>71</ele>
        <time>2026-04-17T08:37:07.755Z</time>
      </trkpt>
      <trkpt lat="48.38111" lon="2.51854">
        <ele>71</ele>
        <time>2026-04-17T08:37:12.217Z</time>
      </trkpt>
      <trkpt lat="48.38111" lon="2.51846">
        <ele>71</ele>
        <time>2026-04-17T08:37:16.337Z</time>
      </trkpt>
      <trkpt lat="48.38111" lon="2.51839">
        <ele>71</ele>
        <time>2026-04-17T08:37:20.545Z</time>
      </trkpt>
      <trkpt lat="48.38111" lon="2.51831">
        <ele>71</ele>
        <time>2026-04-17T08:37:25.056Z</time>
      </trkpt>
      <trkpt lat="48.3811" lon="2.51824">
        <ele>71</ele>
        <time>2026-04-17T08:37:29.218Z</time>
      </trkpt>
      <trkpt lat="48.38111" lon="2.51816">
        <ele>70</ele>
        <time>2026-04-17T08:37:33.237Z</time>
      </trkpt>
      <trkpt lat="48.38112" lon="2.51807">
        <ele>70</ele>
        <time>2026-04-17T08:37:37.324Z</time>
      </trkpt>
      <trkpt lat="48.38114" lon="2.51799">
        <ele>70</ele>
        <time>2026-04-17T08:37:41.341Z</time>
      </trkpt>
      <trkpt lat="48.38115" lon="2.51789">
        <ele>71</ele>
        <time>2026-04-17T08:37:45.377Z</time>
      </trkpt>
      <trkpt lat="48.38117" lon="2.51781">
        <ele>71</ele>
        <time>2026-04-17T08:37:49.768Z</time>
      </trkpt>
      <trkpt lat="48.38117" lon="2.51772">
        <ele>71</ele>
        <time>2026-04-17T08:37:54.104Z</time>
      </trkpt>
      <trkpt lat="48.38117" lon="2.51763">
        <ele>70</ele>
        <time>2026-04-17T08:37:58.420Z</time>
      </trkpt>
      <trkpt lat="48.38117" lon="2.51754">
        <ele>70</ele>
        <time>2026-04-17T08:38:02.705Z</time>
      </trkpt>
      <trkpt lat="48.38118" lon="2.51745">
        <ele>70</ele>
        <time>2026-04-17T08:38:07.020Z</time>
      </trkpt>
      <trkpt lat="48.38118" lon="2.51736">
        <ele>70</ele>
        <time>2026-04-17T08:38:11.259Z</time>
      </trkpt>
      <trkpt lat="48.3812" lon="2.51727">
        <ele>70</ele>
        <time>2026-04-17T08:38:15.619Z</time>
      </trkpt>
      <trkpt lat="48.38121" lon="2.51718">
        <ele>70</ele>
        <time>2026-04-17T08:38:19.900Z</time>
      </trkpt>
      <trkpt lat="48.38122" lon="2.51709">
        <ele>70</ele>
        <time>2026-04-17T08:38:24.115Z</time>
      </trkpt>
      <trkpt lat="48.38122" lon="2.517">
        <ele>70</ele>
        <time>2026-04-17T08:38:28.338Z</time>
      </trkpt>
      <trkpt lat="48.38122" lon="2.51691">
        <ele>70</ele>
        <time>2026-04-17T08:38:32.578Z</time>
      </trkpt>
      <trkpt lat="48.38125" lon="2.51682">
        <ele>70</ele>
        <time>2026-04-17T08:38:36.768Z</time>
      </trkpt>
      <trkpt lat="48.38127" lon="2.51673">
        <ele>71</ele>
        <time>2026-04-17T08:38:41.159Z</time>
      </trkpt>
      <trkpt lat="48.38128" lon="2.51664">
        <ele>71</ele>
        <time>2026-04-17T08:38:45.537Z</time>
      </trkpt>
      <trkpt lat="48.3813" lon="2.51656">
        <ele>71</ele>
        <time>2026-04-17T08:38:49.768Z</time>
      </trkpt>
      <trkpt lat="48.38131" lon="2.51646">
        <ele>72</ele>
        <time>2026-04-17T08:38:54.075Z</time>
      </trkpt>
      <trkpt lat="48.38132" lon="2.51637">
        <ele>72</ele>
        <time>2026-04-17T08:38:58.315Z</time>
      </trkpt>
      <trkpt lat="48.38133" lon="2.51629">
        <ele>72</ele>
        <time>2026-04-17T08:39:02.545Z</time>
      </trkpt>
      <trkpt lat="48.38133" lon="2.5162">
        <ele>72</ele>
        <time>2026-04-17T08:39:06.768Z</time>
      </trkpt>
      <trkpt lat="48.38134" lon="2.51611">
        <ele>72</ele>
        <time>2026-04-17T08:39:11.159Z</time>
      </trkpt>
      <trkpt lat="48.38135" lon="2.51603">
        <ele>72</ele>
        <time>2026-04-17T08:39:15.518Z</time>
      </trkpt>
      <trkpt lat="48.38136" lon="2.51595">
        <ele>73</ele>
        <time>2026-04-17T08:39:19.914Z</time>
      </trkpt>
      <trkpt lat="48.38136" lon="2.51587">
        <ele>73</ele>
        <time>2026-04-17T08:39:24.257Z</time>
      </trkpt>
      <trkpt lat="48.38137" lon="2.51579">
        <ele>73</ele>
        <time>2026-04-17T08:39:28.557Z</time>
      </trkpt>
      <trkpt lat="48.38137" lon="2.51571">
        <ele>73</ele>
        <time>2026-04-17T08:39:32.916Z</time>
      </trkpt>
      <trkpt lat="48.38138" lon="2.51564">
        <ele>73</ele>
        <time>2026-04-17T08:39:37.221Z</time>
      </trkpt>
      <trkpt lat="48.38138" lon="2.51555">
        <ele>73</ele>
        <time>2026-04-17T08:39:41.413Z</time>
      </trkpt>
      <trkpt lat="48.38137" lon="2.51546">
        <ele>73</ele>
        <time>2026-04-17T08:39:45.717Z</time>
      </trkpt>
      <trkpt lat="48.38136" lon="2.51538">
        <ele>73</ele>
        <time>2026-04-17T08:39:49.737Z</time>
      </trkpt>
      <trkpt lat="48.38134" lon="2.5153">
        <ele>73</ele>
        <time>2026-04-17T08:39:53.768Z</time>
      </trkpt>
      <trkpt lat="48.38132" lon="2.51521">
        <ele>73</ele>
        <time>2026-04-17T08:39:58.319Z</time>
      </trkpt>
      <trkpt lat="48.38132" lon="2.51513">
        <ele>73</ele>
        <time>2026-04-17T08:40:02.768Z</time>
      </trkpt>
      <trkpt lat="48.38132" lon="2.51505">
        <ele>73</ele>
        <time>2026-04-17T08:40:07.216Z</time>
      </trkpt>
      <trkpt lat="48.38133" lon="2.51489">
        <ele>73</ele>
        <time>2026-04-17T08:40:11.781Z</time>
      </trkpt>
      <trkpt lat="48.38133" lon="2.51489">
        <ele>73</ele>
        <time>2026-04-17T08:40:16.243Z</time>
      </trkpt>
      <trkpt lat="48.38133" lon="2.51488">
        <ele>73</ele>
        <time>2026-04-17T08:40:20.695Z</time>
      </trkpt>
      <trkpt lat="48.38133" lon="2.51484">
        <ele>73</ele>
        <time>2026-04-17T08:40:25.080Z</time>
      </trkpt>
      <trkpt lat="48.3813" lon="2.5148">
        <ele>73</ele>
        <time>2026-04-17T08:40:37.768Z</time>
      </trkpt>
      <trkpt lat="48.38127" lon="2.51475">
        <ele>73</ele>
        <time>2026-04-17T08:40:42.768Z</time>
      </trkpt>
      <trkpt lat="48.38123" lon="2.51469">
        <ele>71</ele>
        <time>2026-04-17T08:40:57.768Z</time>
      </trkpt>
      <trkpt lat="48.3812" lon="2.51463">
        <ele>71</ele>
        <time>2026-04-17T08:41:01.768Z</time>
      </trkpt>
      <trkpt lat="48.38117" lon="2.51458">
        <ele>71</ele>
        <time>2026-04-17T08:41:06.768Z</time>
      </trkpt>
      <trkpt lat="48.38112" lon="2.51452">
        <ele>71</ele>
        <time>2026-04-17T08:41:10.768Z</time>
      </trkpt>
      <trkpt lat="48.38108" lon="2.51446">
        <ele>71</ele>
        <time>2026-04-17T08:41:14.997Z</time>
      </trkpt>
      <trkpt lat="48.38105" lon="2.51442">
        <ele>71</ele>
        <time>2026-04-17T08:41:19.556Z</time>
      </trkpt>
      <trkpt lat="48.38101" lon="2.51436">
        <ele>71</ele>
        <time>2026-04-17T08:41:23.717Z</time>
      </trkpt>
      <trkpt lat="48.38097" lon="2.5143">
        <ele>70</ele>
        <time>2026-04-17T08:41:28.237Z</time>
      </trkpt>
      <trkpt lat="48.38093" lon="2.51424">
        <ele>70</ele>
        <time>2026-04-17T08:41:32.742Z</time>
      </trkpt>
      <trkpt lat="48.38089" lon="2.51418">
        <ele>70</ele>
        <time>2026-04-17T08:41:36.759Z</time>
      </trkpt>
      <trkpt lat="48.38084" lon="2.51413">
        <ele>70</ele>
        <time>2026-04-17T08:41:41.280Z</time>
      </trkpt>
      <trkpt lat="48.3808" lon="2.51409">
        <ele>70</ele>
        <time>2026-04-17T08:41:45.745Z</time>
      </trkpt>
      <trkpt lat="48.38075" lon="2.51403">
        <ele>70</ele>
        <time>2026-04-17T08:41:50.163Z</time>
      </trkpt>
      <trkpt lat="48.3807" lon="2.51399">
        <ele>71</ele>
        <time>2026-04-17T08:41:54.717Z</time>
      </trkpt>
      <trkpt lat="48.38066" lon="2.51394">
        <ele>72</ele>
        <time>2026-04-17T08:41:59.224Z</time>
      </trkpt>
      <trkpt lat="48.38062" lon="2.51389">
        <ele>72</ele>
        <time>2026-04-17T08:42:03.257Z</time>
      </trkpt>
      <trkpt lat="48.38058" lon="2.51383">
        <ele>72</ele>
        <time>2026-04-17T08:42:07.762Z</time>
      </trkpt>
      <trkpt lat="48.38053" lon="2.51376">
        <ele>72</ele>
        <time>2026-04-17T08:42:12.164Z</time>
      </trkpt>
      <trkpt lat="48.38049" lon="2.5137">
        <ele>73</ele>
        <time>2026-04-17T08:42:16.678Z</time>
      </trkpt>
      <trkpt lat="48.38045" lon="2.51364">
        <ele>73</ele>
        <time>2026-04-17T08:42:21.255Z</time>
      </trkpt>
      <trkpt lat="48.3804" lon="2.51358">
        <ele>73</ele>
        <time>2026-04-17T08:42:25.613Z</time>
      </trkpt>
      <trkpt lat="48.38036" lon="2.51352">
        <ele>73</ele>
        <time>2026-04-17T08:42:30.058Z</time>
      </trkpt>
      <trkpt lat="48.38032" lon="2.51346">
        <ele>73</ele>
        <time>2026-04-17T08:42:34.462Z</time>
      </trkpt>
      <trkpt lat="48.3803" lon="2.51342">
        <ele>73</ele>
        <time>2026-04-17T08:42:38.768Z</time>
      </trkpt>
      <trkpt lat="48.38029" lon="2.51341">
        <ele>73</ele>
        <time>2026-04-17T08:42:43.391Z</time>
      </trkpt>
      <trkpt lat="48.38025" lon="2.51336">
        <ele>73</ele>
        <time>2026-04-17T08:42:47.768Z</time>
      </trkpt>
      <trkpt lat="48.3802" lon="2.5133">
        <ele>73</ele>
        <time>2026-04-17T08:42:52.417Z</time>
      </trkpt>
      <trkpt lat="48.38016" lon="2.51325">
        <ele>73</ele>
        <time>2026-04-17T08:42:56.768Z</time>
      </trkpt>
      <trkpt lat="48.38012" lon="2.51321">
        <ele>72</ele>
        <time>2026-04-17T08:43:00.897Z</time>
      </trkpt>
      <trkpt lat="48.38008" lon="2.51316">
        <ele>71</ele>
        <time>2026-04-17T08:43:05.104Z</time>
      </trkpt>
      <trkpt lat="48.38004" lon="2.5131">
        <ele>71</ele>
        <time>2026-04-17T08:43:09.557Z</time>
      </trkpt>
      <trkpt lat="48.38" lon="2.51304">
        <ele>71</ele>
        <time>2026-04-17T08:43:14.095Z</time>
      </trkpt>
      <trkpt lat="48.37996" lon="2.513">
        <ele>71</ele>
        <time>2026-04-17T08:43:18.139Z</time>
      </trkpt>
      <trkpt lat="48.37992" lon="2.51293">
        <ele>71</ele>
        <time>2026-04-17T08:43:22.319Z</time>
      </trkpt>
      <trkpt lat="48.37989" lon="2.51285">
        <ele>72</ele>
        <time>2026-04-17T08:43:26.768Z</time>
      </trkpt>
      <trkpt lat="48.37985" lon="2.51281">
        <ele>71</ele>
        <time>2026-04-17T08:43:31.282Z</time>
      </trkpt>
      <trkpt lat="48.37981" lon="2.51276">
        <ele>71</ele>
        <time>2026-04-17T08:43:35.295Z</time>
      </trkpt>
      <trkpt lat="48.37977" lon="2.51268">
        <ele>67.3</ele>
        <time>2026-04-17T08:43:44.354Z</time>
      </trkpt>
      <trkpt lat="48.37975" lon="2.51262">
        <ele>72</ele>
        <time>2026-04-17T08:43:48.356Z</time>
      </trkpt>
      <trkpt lat="48.37971" lon="2.51258">
        <ele>72</ele>
        <time>2026-04-17T08:43:52.768Z</time>
      </trkpt>
      <trkpt lat="48.37967" lon="2.51254">
        <ele>72</ele>
        <time>2026-04-17T08:43:56.768Z</time>
      </trkpt>
      <trkpt lat="48.37963" lon="2.51249">
        <ele>72</ele>
        <time>2026-04-17T08:44:01.280Z</time>
      </trkpt>
      <trkpt lat="48.3796" lon="2.51244">
        <ele>72</ele>
        <time>2026-04-17T08:44:05.494Z</time>
      </trkpt>
      <trkpt lat="48.37956" lon="2.51238">
        <ele>72</ele>
        <time>2026-04-17T08:44:09.582Z</time>
      </trkpt>
      <trkpt lat="48.37951" lon="2.51233">
        <ele>73</ele>
        <time>2026-04-17T08:44:13.600Z</time>
      </trkpt>
      <trkpt lat="48.37947" lon="2.51227">
        <ele>73</ele>
        <time>2026-04-17T08:44:17.619Z</time>
      </trkpt>
      <trkpt lat="48.37944" lon="2.51221">
        <ele>73</ele>
        <time>2026-04-17T08:44:21.703Z</time>
      </trkpt>
      <trkpt lat="48.37939" lon="2.51213">
        <ele>73</ele>
        <time>2026-04-17T08:44:26.244Z</time>
      </trkpt>
      <trkpt lat="48.37935" lon="2.51208">
        <ele>74</ele>
        <time>2026-04-17T08:44:30.763Z</time>
      </trkpt>
      <trkpt lat="48.37931" lon="2.51201">
        <ele>74</ele>
        <time>2026-04-17T08:44:35.167Z</time>
      </trkpt>
      <trkpt lat="48.37927" lon="2.51195">
        <ele>72</ele>
        <time>2026-04-17T08:44:49.404Z</time>
      </trkpt>
      <trkpt lat="48.37924" lon="2.51189">
        <ele>72</ele>
        <time>2026-04-17T08:44:53.985Z</time>
      </trkpt>
      <trkpt lat="48.37921" lon="2.51181">
        <ele>72</ele>
        <time>2026-04-17T08:44:58.541Z</time>
      </trkpt>
      <trkpt lat="48.37918" lon="2.51173">
        <ele>72</ele>
        <time>2026-04-17T08:45:03.004Z</time>
      </trkpt>
      <trkpt lat="48.37915" lon="2.51166">
        <ele>72</ele>
        <time>2026-04-17T08:45:07.379Z</time>
      </trkpt>
      <trkpt lat="48.37911" lon="2.5116">
        <ele>72</ele>
        <time>2026-04-17T08:45:11.768Z</time>
      </trkpt>
      <trkpt lat="48.37907" lon="2.51154">
        <ele>72</ele>
        <time>2026-04-17T08:45:16.226Z</time>
      </trkpt>
      <trkpt lat="48.37903" lon="2.51147">
        <ele>73</ele>
        <time>2026-04-17T08:45:20.705Z</time>
      </trkpt>
      <trkpt lat="48.379" lon="2.51139">
        <ele>72</ele>
        <time>2026-04-17T08:45:25.167Z</time>
      </trkpt>
      <trkpt lat="48.37896" lon="2.51131">
        <ele>72</ele>
        <time>2026-04-17T08:45:29.603Z</time>
      </trkpt>
      <trkpt lat="48.37893" lon="2.51123">
        <ele>72</ele>
        <time>2026-04-17T08:45:34.005Z</time>
      </trkpt>
      <trkpt lat="48.37891" lon="2.51114">
        <ele>72</ele>
        <time>2026-04-17T08:45:38.339Z</time>
      </trkpt>
      <trkpt lat="48.3789" lon="2.51104">
        <ele>72</ele>
        <time>2026-04-17T08:45:42.626Z</time>
      </trkpt>
      <trkpt lat="48.37888" lon="2.51089">
        <ele>73</ele>
        <time>2026-04-17T08:45:46.903Z</time>
      </trkpt>
      <trkpt lat="48.37885" lon="2.51089">
        <ele>73</ele>
        <time>2026-04-17T08:45:51.161Z</time>
      </trkpt>
      <trkpt lat="48.3788" lon="2.51093">
        <ele>73</ele>
        <time>2026-04-17T08:45:55.486Z</time>
      </trkpt>
      <trkpt lat="48.37878" lon="2.51098">
        <ele>72</ele>
        <time>2026-04-17T08:45:59.936Z</time>
      </trkpt>
      <trkpt lat="48.37876" lon="2.51104">
        <ele>72</ele>
        <time>2026-04-17T08:46:19.768Z</time>
      </trkpt>
      <trkpt lat="48.37875" lon="2.51111">
        <ele>73</ele>
        <time>2026-04-17T08:46:24.325Z</time>
      </trkpt>
      <trkpt lat="48.37873" lon="2.51118">
        <ele>73</ele>
        <time>2026-04-17T08:46:28.665Z</time>
      </trkpt>
      <trkpt lat="48.37872" lon="2.51124">
        <ele>73</ele>
        <time>2026-04-17T08:46:33.099Z</time>
      </trkpt>
      <trkpt lat="48.3787" lon="2.51131">
        <ele>72</ele>
        <time>2026-04-17T08:46:37.340Z</time>
      </trkpt>
      <trkpt lat="48.37868" lon="2.51139">
        <ele>72</ele>
        <time>2026-04-17T08:46:41.606Z</time>
      </trkpt>
      <trkpt lat="48.37866" lon="2.51146">
        <ele>72</ele>
        <time>2026-04-17T08:46:45.726Z</time>
      </trkpt>
      <trkpt lat="48.37863" lon="2.51153">
        <ele>71</ele>
        <time>2026-04-17T08:46:49.768Z</time>
      </trkpt>
      <trkpt lat="48.37859" lon="2.5116">
        <ele>71</ele>
        <time>2026-04-17T08:46:54.061Z</time>
      </trkpt>
      <trkpt lat="48.37856" lon="2.51166">
        <ele>71</ele>
        <time>2026-04-17T08:46:58.566Z</time>
      </trkpt>
      <trkpt lat="48.37852" lon="2.51172">
        <ele>71</ele>
        <time>2026-04-17T08:47:03.043Z</time>
      </trkpt>
      <trkpt lat="48.37847" lon="2.51178">
        <ele>73</ele>
        <time>2026-04-17T08:47:07.463Z</time>
      </trkpt>
      <trkpt lat="48.37843" lon="2.51183">
        <ele>72</ele>
        <time>2026-04-17T08:47:11.959Z</time>
      </trkpt>
      <trkpt lat="48.37838" lon="2.51188">
        <ele>72</ele>
        <time>2026-04-17T08:47:15.991Z</time>
      </trkpt>
      <trkpt lat="48.37833" lon="2.51193">
        <ele>72</ele>
        <time>2026-04-17T08:47:20.405Z</time>
      </trkpt>
      <trkpt lat="48.37828" lon="2.51197">
        <ele>72</ele>
        <time>2026-04-17T08:47:24.739Z</time>
      </trkpt>
      <trkpt lat="48.37823" lon="2.51201">
        <ele>72</ele>
        <time>2026-04-17T08:47:29.063Z</time>
      </trkpt>
      <trkpt lat="48.37817" lon="2.51204">
        <ele>72</ele>
        <time>2026-04-17T08:47:33.465Z</time>
      </trkpt>
      <trkpt lat="48.37813" lon="2.51208">
        <ele>72</ele>
        <time>2026-04-17T08:47:37.768Z</time>
      </trkpt>
      <trkpt lat="48.37808" lon="2.51214">
        <ele>72</ele>
        <time>2026-04-17T08:47:42.304Z</time>
      </trkpt>
      <trkpt lat="48.37803" lon="2.5122">
        <ele>72</ele>
        <time>2026-04-17T08:47:46.663Z</time>
      </trkpt>
      <trkpt lat="48.37798" lon="2.51225">
        <ele>72</ele>
        <time>2026-04-17T08:47:51.306Z</time>
      </trkpt>
      <trkpt lat="48.37793" lon="2.51229">
        <ele>72</ele>
        <time>2026-04-17T08:47:55.785Z</time>
      </trkpt>
      <trkpt lat="48.3779" lon="2.51234">
        <ele>74</ele>
        <time>2026-04-17T08:48:00.185Z</time>
      </trkpt>
      <trkpt lat="48.37788" lon="2.51237">
        <ele>73</ele>
        <time>2026-04-17T08:48:04.664Z</time>
      </trkpt>
      <trkpt lat="48.37786" lon="2.51241">
        <ele>73</ele>
        <time>2026-04-17T08:48:08.990Z</time>
      </trkpt>
      <trkpt lat="48.37786" lon="2.51242">
        <ele>73</ele>
        <time>2026-04-17T08:48:13.485Z</time>
      </trkpt>
      <trkpt lat="48.37785" lon="2.51242">
        <ele>73</ele>
        <time>2026-04-17T08:48:17.725Z</time>
      </trkpt>
      <trkpt lat="48.37782" lon="2.51249">
        <ele>73</ele>
        <time>2026-04-17T08:48:21.768Z</time>
      </trkpt>
      <trkpt lat="48.37779" lon="2.51256">
        <ele>73</ele>
        <time>2026-04-17T08:48:34.768Z</time>
      </trkpt>
      <trkpt lat="48.37777" lon="2.51264">
        <ele>73</ele>
        <time>2026-04-17T08:48:42.768Z</time>
      </trkpt>
      <trkpt lat="48.37774" lon="2.51268">
        <ele>73</ele>
        <time>2026-04-17T08:48:47.001Z</time>
      </trkpt>
      <trkpt lat="48.3777" lon="2.51273">
        <ele>73</ele>
        <time>2026-04-17T08:48:51.198Z</time>
      </trkpt>
      <trkpt lat="48.37767" lon="2.51279">
        <ele>73</ele>
        <time>2026-04-17T08:48:55.419Z</time>
      </trkpt>
      <trkpt lat="48.37762" lon="2.51284">
        <ele>74</ele>
        <time>2026-04-17T08:48:59.768Z</time>
      </trkpt>
      <trkpt lat="48.37758" lon="2.5129">
        <ele>74</ele>
        <time>2026-04-17T08:49:04.079Z</time>
      </trkpt>
      <trkpt lat="48.37754" lon="2.51296">
        <ele>74</ele>
        <time>2026-04-17T08:49:08.438Z</time>
      </trkpt>
      <trkpt lat="48.3775" lon="2.513">
        <ele>74</ele>
        <time>2026-04-17T08:49:12.959Z</time>
      </trkpt>
      <trkpt lat="48.37735" lon="2.51302">
        <ele>74</ele>
        <time>2026-04-17T08:49:17.439Z</time>
      </trkpt>
      <trkpt lat="48.37735" lon="2.51302">
        <ele>74</ele>
        <time>2026-04-17T08:49:21.768Z</time>
      </trkpt>
      <trkpt lat="48.37735" lon="2.51302">
        <ele>74</ele>
        <time>2026-04-17T08:49:26.336Z</time>
      </trkpt>
      <trkpt lat="48.37735" lon="2.51302">
        <ele>74</ele>
        <time>2026-04-17T08:49:30.768Z</time>
      </trkpt>
      <trkpt lat="48.37733" lon="2.51302">
        <ele>74</ele>
        <time>2026-04-17T08:50:07.768Z</time>
      </trkpt>
      <trkpt lat="48.37727" lon="2.513">
        <ele>74</ele>
        <time>2026-04-17T08:50:15.768Z</time>
      </trkpt>
      <trkpt lat="48.37724" lon="2.51295">
        <ele>74</ele>
        <time>2026-04-17T08:50:21.768Z</time>
      </trkpt>
      <trkpt lat="48.3772" lon="2.5129">
        <ele>74</ele>
        <time>2026-04-17T08:50:27.768Z</time>
      </trkpt>
      <trkpt lat="48.37718" lon="2.51285">
        <ele>74</ele>
        <time>2026-04-17T08:50:32.179Z</time>
      </trkpt>
      <trkpt lat="48.37717" lon="2.51282">
        <ele>74</ele>
        <time>2026-04-17T08:50:36.198Z</time>
      </trkpt>
      <trkpt lat="48.37715" lon="2.51279">
        <ele>74</ele>
        <time>2026-04-17T08:50:40.659Z</time>
      </trkpt>
      <trkpt lat="48.37711" lon="2.51275">
        <ele>74</ele>
        <time>2026-04-17T08:50:44.720Z</time>
      </trkpt>
      <trkpt lat="48.37708" lon="2.51271">
        <ele>74</ele>
        <time>2026-04-17T08:50:49.243Z</time>
      </trkpt>
      <trkpt lat="48.37704" lon="2.51266">
        <ele>74</ele>
        <time>2026-04-17T08:50:53.575Z</time>
      </trkpt>
      <trkpt lat="48.37702" lon="2.51262">
        <ele>75</ele>
        <time>2026-04-17T08:50:57.723Z</time>
      </trkpt>
      <trkpt lat="48.37697" lon="2.51258">
        <ele>75</ele>
        <time>2026-04-17T08:51:02.098Z</time>
      </trkpt>
      <trkpt lat="48.37693" lon="2.51255">
        <ele>75</ele>
        <time>2026-04-17T08:51:06.484Z</time>
      </trkpt>
      <trkpt lat="48.37688" lon="2.51253">
        <ele>75</ele>
        <time>2026-04-17T08:51:10.561Z</time>
      </trkpt>
      <trkpt lat="48.37683" lon="2.51252">
        <ele>75</ele>
        <time>2026-04-17T08:51:14.579Z</time>
      </trkpt>
      <trkpt lat="48.37679" lon="2.51254">
        <ele>75</ele>
        <time>2026-04-17T08:51:19.139Z</time>
      </trkpt>
      <trkpt lat="48.37674" lon="2.51259">
        <ele>75</ele>
        <time>2026-04-17T08:51:23.597Z</time>
      </trkpt>
      <trkpt lat="48.3767" lon="2.51263">
        <ele>75</ele>
        <time>2026-04-17T08:51:28.041Z</time>
      </trkpt>
      <trkpt lat="48.37664" lon="2.51266">
        <ele>75</ele>
        <time>2026-04-17T08:51:32.105Z</time>
      </trkpt>
      <trkpt lat="48.37659" lon="2.5127">
        <ele>75</ele>
        <time>2026-04-17T08:51:36.257Z</time>
      </trkpt>
      <trkpt lat="48.37653" lon="2.51273">
        <ele>75</ele>
        <time>2026-04-17T08:51:40.598Z</time>
      </trkpt>
      <trkpt lat="48.37648" lon="2.51276">
        <ele>74</ele>
        <time>2026-04-17T08:51:45.018Z</time>
      </trkpt>
      <trkpt lat="48.37644" lon="2.51277">
        <ele>74</ele>
        <time>2026-04-17T08:51:49.584Z</time>
      </trkpt>
      <trkpt lat="48.37639" lon="2.51278">
        <ele>74</ele>
        <time>2026-04-17T08:51:54.120Z</time>
      </trkpt>
      <trkpt lat="48.37633" lon="2.51276">
        <ele>74</ele>
        <time>2026-04-17T08:51:58.505Z</time>
      </trkpt>
      <trkpt lat="48.37628" lon="2.51275">
        <ele>74</ele>
        <time>2026-04-17T08:52:02.591Z</time>
      </trkpt>
      <trkpt lat="48.37623" lon="2.51275">
        <ele>73</ele>
        <time>2026-04-17T08:52:06.687Z</time>
      </trkpt>
      <trkpt lat="48.37618" lon="2.51274">
        <ele>73</ele>
        <time>2026-04-17T08:52:11.165Z</time>
      </trkpt>
      <trkpt lat="48.37615" lon="2.51273">
        <ele>73</ele>
        <time>2026-04-17T08:52:15.643Z</time>
      </trkpt>
      <trkpt lat="48.37606" lon="2.51271">
        <ele>73</ele>
        <time>2026-04-17T08:52:20.208Z</time>
      </trkpt>
      <trkpt lat="48.37606" lon="2.51271">
        <ele>73</ele>
        <time>2026-04-17T08:52:24.312Z</time>
      </trkpt>
      <trkpt lat="48.37606" lon="2.51271">
        <ele>73</ele>
        <time>2026-04-17T08:52:28.768Z</time>
      </trkpt>
      <trkpt lat="48.37603" lon="2.51278">
        <ele>73</ele>
        <time>2026-04-17T08:52:33.091Z</time>
      </trkpt>
      <trkpt lat="48.376" lon="2.5128">
        <ele>73</ele>
        <time>2026-04-17T08:53:16.768Z</time>
      </trkpt>
      <trkpt lat="48.376" lon="2.51279">
        <ele>73</ele>
        <time>2026-04-17T08:53:20.768Z</time>
      </trkpt>
      <trkpt lat="48.376" lon="2.51279">
        <ele>73</ele>
        <time>2026-04-17T08:53:25.768Z</time>
      </trkpt>
      <trkpt lat="48.37599" lon="2.5128">
        <ele>73</ele>
        <time>2026-04-17T08:53:29.985Z</time>
      </trkpt>
      <trkpt lat="48.37595" lon="2.51288">
        <ele>73</ele>
        <time>2026-04-17T08:53:34.537Z</time>
      </trkpt>
      <trkpt lat="48.37594" lon="2.51295">
        <ele>73</ele>
        <time>2026-04-17T08:53:38.768Z</time>
      </trkpt>
      <trkpt lat="48.37589" lon="2.51309">
        <ele>73</ele>
        <time>2026-04-17T08:53:43.768Z</time>
      </trkpt>
      <trkpt lat="48.37588" lon="2.51309">
        <ele>73</ele>
        <time>2026-04-17T08:53:48.267Z</time>
      </trkpt>
      <trkpt lat="48.37588" lon="2.51309">
        <ele>73</ele>
        <time>2026-04-17T08:53:52.371Z</time>
      </trkpt>
      <trkpt lat="48.37591" lon="2.51315">
        <ele>73</ele>
        <time>2026-04-17T08:53:56.748Z</time>
      </trkpt>
      <trkpt lat="48.37595" lon="2.5132">
        <ele>74</ele>
        <time>2026-04-17T08:54:46.768Z</time>
      </trkpt>
      <trkpt lat="48.376" lon="2.51325">
        <ele>74</ele>
        <time>2026-04-17T08:54:54.768Z</time>
      </trkpt>
      <trkpt lat="48.37604" lon="2.51332">
        <ele>74</ele>
        <time>2026-04-17T08:54:59.768Z</time>
      </trkpt>
      <trkpt lat="48.37607" lon="2.51339">
        <ele>74</ele>
        <time>2026-04-17T08:55:04.768Z</time>
      </trkpt>
      <trkpt lat="48.37611" lon="2.51346">
        <ele>74</ele>
        <time>2026-04-17T08:55:09.768Z</time>
      </trkpt>
      <trkpt lat="48.37615" lon="2.51354">
        <ele>74</ele>
        <time>2026-04-17T08:55:14.053Z</time>
      </trkpt>
      <trkpt lat="48.37618" lon="2.5136">
        <ele>74</ele>
        <time>2026-04-17T08:55:18.353Z</time>
      </trkpt>
      <trkpt lat="48.37622" lon="2.51365">
        <ele>74</ele>
        <time>2026-04-17T08:55:22.671Z</time>
      </trkpt>
      <trkpt lat="48.37626" lon="2.51371">
        <ele>74</ele>
        <time>2026-04-17T08:55:26.950Z</time>
      </trkpt>
      <trkpt lat="48.3763" lon="2.51378">
        <ele>74</ele>
        <time>2026-04-17T08:55:31.235Z</time>
      </trkpt>
      <trkpt lat="48.37634" lon="2.51385">
        <ele>74</ele>
        <time>2026-04-17T08:55:35.697Z</time>
      </trkpt>
      <trkpt lat="48.37637" lon="2.51391">
        <ele>74</ele>
        <time>2026-04-17T08:55:40.132Z</time>
      </trkpt>
      <trkpt lat="48.37642" lon="2.51397">
        <ele>74</ele>
        <time>2026-04-17T08:55:44.655Z</time>
      </trkpt>
      <trkpt lat="48.37646" lon="2.51404">
        <ele>74</ele>
        <time>2026-04-17T08:55:49.073Z</time>
      </trkpt>
      <trkpt lat="48.37649" lon="2.51412">
        <ele>74</ele>
        <time>2026-04-17T08:55:53.535Z</time>
      </trkpt>
      <trkpt lat="48.37653" lon="2.51419">
        <ele>73</ele>
        <time>2026-04-17T08:55:57.893Z</time>
      </trkpt>
      <trkpt lat="48.37658" lon="2.51426">
        <ele>73</ele>
        <time>2026-04-17T08:56:02.092Z</time>
      </trkpt>
      <trkpt lat="48.37661" lon="2.51432">
        <ele>74</ele>
        <time>2026-04-17T08:56:06.212Z</time>
      </trkpt>
      <trkpt lat="48.37665" lon="2.51439">
        <ele>74</ele>
        <time>2026-04-17T08:56:10.393Z</time>
      </trkpt>
      <trkpt lat="48.37668" lon="2.51446">
        <ele>74</ele>
        <time>2026-04-17T08:56:14.512Z</time>
      </trkpt>
      <trkpt lat="48.37672" lon="2.51454">
        <ele>74</ele>
        <time>2026-04-17T08:56:18.736Z</time>
      </trkpt>
      <trkpt lat="48.37676" lon="2.51461">
        <ele>74</ele>
        <time>2026-04-17T08:56:22.873Z</time>
      </trkpt>
      <trkpt lat="48.37679" lon="2.51468">
        <ele>74</ele>
        <time>2026-04-17T08:56:27.011Z</time>
      </trkpt>
      <trkpt lat="48.37683" lon="2.51476">
        <ele>73</ele>
        <time>2026-04-17T08:56:31.174Z</time>
      </trkpt>
      <trkpt lat="48.37687" lon="2.51482">
        <ele>73</ele>
        <time>2026-04-17T08:56:35.491Z</time>
      </trkpt>
      <trkpt lat="48.3769" lon="2.51489">
        <ele>74</ele>
        <time>2026-04-17T08:56:39.768Z</time>
      </trkpt>
      <trkpt lat="48.37693" lon="2.51496">
        <ele>74</ele>
        <time>2026-04-17T08:56:44.252Z</time>
      </trkpt>
      <trkpt lat="48.37695" lon="2.51504">
        <ele>74</ele>
        <time>2026-04-17T08:56:48.731Z</time>
      </trkpt>
      <trkpt lat="48.37694" lon="2.51513">
        <ele>74</ele>
        <time>2026-04-17T08:56:53.134Z</time>
      </trkpt>
      <trkpt lat="48.37692" lon="2.51522">
        <ele>74</ele>
        <time>2026-04-17T08:56:57.571Z</time>
      </trkpt>
      <trkpt lat="48.37689" lon="2.51529">
        <ele>74</ele>
        <time>2026-04-17T08:57:02.031Z</time>
      </trkpt>
      <trkpt lat="48.37686" lon="2.51536">
        <ele>74</ele>
        <time>2026-04-17T08:57:06.417Z</time>
      </trkpt>
      <trkpt lat="48.37684" lon="2.51544">
        <ele>74</ele>
        <time>2026-04-17T08:57:10.768Z</time>
      </trkpt>
      <trkpt lat="48.37681" lon="2.51551">
        <ele>74</ele>
        <time>2026-04-17T08:57:15.272Z</time>
      </trkpt>
      <trkpt lat="48.37678" lon="2.51559">
        <ele>73</ele>
        <time>2026-04-17T08:57:19.674Z</time>
      </trkpt>
      <trkpt lat="48.37674" lon="2.51566">
        <ele>73</ele>
        <time>2026-04-17T08:57:24.092Z</time>
      </trkpt>
      <trkpt lat="48.3767" lon="2.51573">
        <ele>73</ele>
        <time>2026-04-17T08:57:28.470Z</time>
      </trkpt>
      <trkpt lat="48.37667" lon="2.5158">
        <ele>73</ele>
        <time>2026-04-17T08:57:32.768Z</time>
      </trkpt>
      <trkpt lat="48.37664" lon="2.51587">
        <ele>73</ele>
        <time>2026-04-17T08:57:37.052Z</time>
      </trkpt>
      <trkpt lat="48.37662" lon="2.51595">
        <ele>73</ele>
        <time>2026-04-17T08:57:41.513Z</time>
      </trkpt>
      <trkpt lat="48.3766" lon="2.51601">
        <ele>73</ele>
        <time>2026-04-17T08:57:45.934Z</time>
      </trkpt>
      <trkpt lat="48.37657" lon="2.51606">
        <ele>73</ele>
        <time>2026-04-17T08:57:50.249Z</time>
      </trkpt>
      <trkpt lat="48.37654" lon="2.51612">
        <ele>73</ele>
        <time>2026-04-17T08:57:54.609Z</time>
      </trkpt>
      <trkpt lat="48.37651" lon="2.51617">
        <ele>72</ele>
        <time>2026-04-17T08:57:59.045Z</time>
      </trkpt>
      <trkpt lat="48.37648" lon="2.51622">
        <ele>72</ele>
        <time>2026-04-17T08:58:03.184Z</time>
      </trkpt>
      <trkpt lat="48.37637" lon="2.51632">
        <ele>73</ele>
        <time>2026-04-17T08:58:07.424Z</time>
      </trkpt>
      <trkpt lat="48.37637" lon="2.51636">
        <ele>73</ele>
        <time>2026-04-17T08:58:11.962Z</time>
      </trkpt>
      <trkpt lat="48.37637" lon="2.51643">
        <ele>73</ele>
        <time>2026-04-17T08:58:16.024Z</time>
      </trkpt>
      <trkpt lat="48.37637" lon="2.5165">
        <ele>73</ele>
        <time>2026-04-17T08:58:20.058Z</time>
      </trkpt>
      <trkpt lat="48.37635" lon="2.51656">
        <ele>73</ele>
        <time>2026-04-17T08:58:48.768Z</time>
      </trkpt>
      <trkpt lat="48.37635" lon="2.51662">
        <ele>73</ele>
        <time>2026-04-17T08:58:53.768Z</time>
      </trkpt>
      <trkpt lat="48.37634" lon="2.51669">
        <ele>73</ele>
        <time>2026-04-17T08:58:58.768Z</time>
      </trkpt>
      <trkpt lat="48.37632" lon="2.51676">
        <ele>73</ele>
        <time>2026-04-17T08:59:03.003Z</time>
      </trkpt>
      <trkpt lat="48.3763" lon="2.51682">
        <ele>74</ele>
        <time>2026-04-17T08:59:07.517Z</time>
      </trkpt>
      <trkpt lat="48.37628" lon="2.51689">
        <ele>74</ele>
        <time>2026-04-17T08:59:11.637Z</time>
      </trkpt>
      <trkpt lat="48.37625" lon="2.51695">
        <ele>74</ele>
        <time>2026-04-17T08:59:15.768Z</time>
      </trkpt>
      <trkpt lat="48.37624" lon="2.51702">
        <ele>74</ele>
        <time>2026-04-17T08:59:20.144Z</time>
      </trkpt>
      <trkpt lat="48.37623" lon="2.5171">
        <ele>75</ele>
        <time>2026-04-17T08:59:24.178Z</time>
      </trkpt>
      <trkpt lat="48.37624" lon="2.51716">
        <ele>75</ele>
        <time>2026-04-17T08:59:28.343Z</time>
      </trkpt>
      <trkpt lat="48.37621" lon="2.51724">
        <ele>75</ele>
        <time>2026-04-17T08:59:32.404Z</time>
      </trkpt>
      <trkpt lat="48.37619" lon="2.51732">
        <ele>75</ele>
        <time>2026-04-17T08:59:36.465Z</time>
      </trkpt>
      <trkpt lat="48.37617" lon="2.5174">
        <ele>76</ele>
        <time>2026-04-17T08:59:41.079Z</time>
      </trkpt>
      <trkpt lat="48.37615" lon="2.51747">
        <ele>76</ele>
        <time>2026-04-17T08:59:45.225Z</time>
      </trkpt>
      <trkpt lat="48.37614" lon="2.51755">
        <ele>76</ele>
        <time>2026-04-17T08:59:49.618Z</time>
      </trkpt>
      <trkpt lat="48.3761" lon="2.51758">
        <ele>76</ele>
        <time>2026-04-17T08:59:54.066Z</time>
      </trkpt>
      <trkpt lat="48.37608" lon="2.51764">
        <ele>76</ele>
        <time>2026-04-17T08:59:58.321Z</time>
      </trkpt>
      <trkpt lat="48.37609" lon="2.51772">
        <ele>78</ele>
        <time>2026-04-17T09:00:02.723Z</time>
      </trkpt>
      <trkpt lat="48.37608" lon="2.51778">
        <ele>78</ele>
        <time>2026-04-17T09:00:07.261Z</time>
      </trkpt>
      <trkpt lat="48.37606" lon="2.51785">
        <ele>78</ele>
        <time>2026-04-17T09:00:11.425Z</time>
      </trkpt>
      <trkpt lat="48.37605" lon="2.51793">
        <ele>78</ele>
        <time>2026-04-17T09:00:15.566Z</time>
      </trkpt>
      <trkpt lat="48.37605" lon="2.518">
        <ele>78</ele>
        <time>2026-04-17T09:00:20.084Z</time>
      </trkpt>
      <trkpt lat="48.37604" lon="2.51808">
        <ele>78</ele>
        <time>2026-04-17T09:00:24.103Z</time>
      </trkpt>
      <trkpt lat="48.37602" lon="2.51814">
        <ele>78</ele>
        <time>2026-04-17T09:00:28.164Z</time>
      </trkpt>
      <trkpt lat="48.37602" lon="2.51822">
        <ele>78</ele>
        <time>2026-04-17T09:00:32.241Z</time>
      </trkpt>
      <trkpt lat="48.376" lon="2.5183">
        <ele>78</ele>
        <time>2026-04-17T09:00:36.283Z</time>
      </trkpt>
      <trkpt lat="48.376" lon="2.51839">
        <ele>78</ele>
        <time>2026-04-17T09:00:40.768Z</time>
      </trkpt>
      <trkpt lat="48.37599" lon="2.51847">
        <ele>78</ele>
        <time>2026-04-17T09:00:44.947Z</time>
      </trkpt>
      <trkpt lat="48.37597" lon="2.51855">
        <ele>83</ele>
        <time>2026-04-17T09:00:49.305Z</time>
      </trkpt>
      <trkpt lat="48.37594" lon="2.51863">
        <ele>83</ele>
        <time>2026-04-17T09:00:53.768Z</time>
      </trkpt>
      <trkpt lat="48.37593" lon="2.5187">
        <ele>83</ele>
        <time>2026-04-17T09:00:58.304Z</time>
      </trkpt>
      <trkpt lat="48.37593" lon="2.51876">
        <ele>83</ele>
        <time>2026-04-17T09:01:02.725Z</time>
      </trkpt>
      <trkpt lat="48.37594" lon="2.51884">
        <ele>83</ele>
        <time>2026-04-17T09:01:07.203Z</time>
      </trkpt>
      <trkpt lat="48.37592" lon="2.51892">
        <ele>83</ele>
        <time>2026-04-17T09:01:11.620Z</time>
      </trkpt>
      <trkpt lat="48.37589" lon="2.519">
        <ele>83</ele>
        <time>2026-04-17T09:01:15.665Z</time>
      </trkpt>
      <trkpt lat="48.37588" lon="2.51906">
        <ele>83</ele>
        <time>2026-04-17T09:01:19.759Z</time>
      </trkpt>
      <trkpt lat="48.37586" lon="2.51908">
        <ele>83</ele>
        <time>2026-04-17T09:01:23.768Z</time>
      </trkpt>
      <trkpt lat="48.37585" lon="2.51915">
        <ele>83</ele>
        <time>2026-04-17T09:01:49.768Z</time>
      </trkpt>
      <trkpt lat="48.37585" lon="2.51924">
        <ele>83</ele>
        <time>2026-04-17T09:01:58.768Z</time>
      </trkpt>
      <trkpt lat="48.37585" lon="2.51934">
        <ele>83</ele>
        <time>2026-04-17T09:02:07.768Z</time>
      </trkpt>
      <trkpt lat="48.37585" lon="2.51942">
        <ele>83</ele>
        <time>2026-04-17T09:02:12.768Z</time>
      </trkpt>
      <trkpt lat="48.37586" lon="2.5195">
        <ele>83</ele>
        <time>2026-04-17T09:02:17.768Z</time>
      </trkpt>
      <trkpt lat="48.37585" lon="2.51959">
        <ele>81</ele>
        <time>2026-04-17T09:02:22.768Z</time>
      </trkpt>
      <trkpt lat="48.37585" lon="2.51967">
        <ele>81</ele>
        <time>2026-04-17T09:02:27.768Z</time>
      </trkpt>
      <trkpt lat="48.37583" lon="2.51974">
        <ele>81</ele>
        <time>2026-04-17T09:02:32.064Z</time>
      </trkpt>
      <trkpt lat="48.37582" lon="2.51978">
        <ele>81</ele>
        <time>2026-04-17T09:02:36.541Z</time>
      </trkpt>
      <trkpt lat="48.37579" lon="2.51984">
        <ele>81</ele>
        <time>2026-04-17T09:02:40.901Z</time>
      </trkpt>
      <trkpt lat="48.37578" lon="2.51984">
        <ele>81</ele>
        <time>2026-04-17T09:02:45.524Z</time>
      </trkpt>
      <trkpt lat="48.37575" lon="2.51986">
        <ele>81</ele>
        <time>2026-04-17T09:02:49.645Z</time>
      </trkpt>
      <trkpt lat="48.37572" lon="2.51987">
        <ele>79</ele>
        <time>2026-04-17T09:02:53.768Z</time>
      </trkpt>
      <trkpt lat="48.37569" lon="2.51988">
        <ele>78</ele>
        <time>2026-04-17T09:04:28.768Z</time>
      </trkpt>
      <trkpt lat="48.37564" lon="2.51991">
        <ele>78</ele>
        <time>2026-04-17T09:04:32.768Z</time>
      </trkpt>
      <trkpt lat="48.37562" lon="2.51994">
        <ele>78</ele>
        <time>2026-04-17T09:04:37.768Z</time>
      </trkpt>
      <trkpt lat="48.37559" lon="2.51999">
        <ele>78</ele>
        <time>2026-04-17T09:04:41.768Z</time>
      </trkpt>
      <trkpt lat="48.37556" lon="2.52004">
        <ele>78</ele>
        <time>2026-04-17T09:04:45.768Z</time>
      </trkpt>
      <trkpt lat="48.37554" lon="2.52009">
        <ele>78</ele>
        <time>2026-04-17T09:05:23.768Z</time>
      </trkpt>
      <trkpt lat="48.37553" lon="2.52011">
        <ele>78</ele>
        <time>2026-04-17T09:05:28.768Z</time>
      </trkpt>
      <trkpt lat="48.37551" lon="2.52015">
        <ele>76</ele>
        <time>2026-04-17T09:05:32.959Z</time>
      </trkpt>
      <trkpt lat="48.37548" lon="2.52022">
        <ele>76</ele>
        <time>2026-04-17T09:05:37.421Z</time>
      </trkpt>
      <trkpt lat="48.37546" lon="2.52028">
        <ele>76</ele>
        <time>2026-04-17T09:05:41.426Z</time>
      </trkpt>
      <trkpt lat="48.37547" lon="2.52033">
        <ele>76</ele>
        <time>2026-04-17T09:05:45.768Z</time>
      </trkpt>
      <trkpt lat="48.37547" lon="2.52033">
        <ele>76</ele>
        <time>2026-04-17T09:05:50.098Z</time>
      </trkpt>
      <trkpt lat="48.37542" lon="2.52038">
        <ele>77</ele>
        <time>2026-04-17T09:05:54.697Z</time>
      </trkpt>
      <trkpt lat="48.37538" lon="2.52043">
        <ele>76</ele>
        <time>2026-04-17T09:05:58.740Z</time>
      </trkpt>
      <trkpt lat="48.37535" lon="2.52048">
        <ele>76</ele>
        <time>2026-04-17T09:06:02.768Z</time>
      </trkpt>
      <trkpt lat="48.37532" lon="2.52053">
        <ele>76</ele>
        <time>2026-04-17T09:06:07.605Z</time>
      </trkpt>
      <trkpt lat="48.3753" lon="2.52059">
        <ele>76</ele>
        <time>2026-04-17T09:06:11.998Z</time>
      </trkpt>
      <trkpt lat="48.37528" lon="2.52065">
        <ele>76</ele>
        <time>2026-04-17T09:06:16.645Z</time>
      </trkpt>
      <trkpt lat="48.37526" lon="2.52071">
        <ele>75</ele>
        <time>2026-04-17T09:06:20.717Z</time>
      </trkpt>
      <trkpt lat="48.37523" lon="2.52075">
        <ele>75</ele>
        <time>2026-04-17T09:06:24.768Z</time>
      </trkpt>
      <trkpt lat="48.3752" lon="2.5208">
        <ele>75</ele>
        <time>2026-04-17T09:06:29.523Z</time>
      </trkpt>
      <trkpt lat="48.37517" lon="2.52084">
        <ele>75</ele>
        <time>2026-04-17T09:06:33.779Z</time>
      </trkpt>
      <trkpt lat="48.37513" lon="2.52089">
        <ele>74</ele>
        <time>2026-04-17T09:06:38.044Z</time>
      </trkpt>
      <trkpt lat="48.37511" lon="2.52095">
        <ele>74</ele>
        <time>2026-04-17T09:06:42.584Z</time>
      </trkpt>
      <trkpt lat="48.37509" lon="2.52101">
        <ele>73</ele>
        <time>2026-04-17T09:06:46.768Z</time>
      </trkpt>
      <trkpt lat="48.37508" lon="2.52107">
        <ele>73</ele>
        <time>2026-04-17T09:06:51.258Z</time>
      </trkpt>
      <trkpt lat="48.37508" lon="2.52114">
        <ele>73</ele>
        <time>2026-04-17T09:06:55.483Z</time>
      </trkpt>
      <trkpt lat="48.37508" lon="2.52116">
        <ele>73</ele>
        <time>2026-04-17T09:06:59.500Z</time>
      </trkpt>
      <trkpt lat="48.37509" lon="2.52117">
        <ele>73</ele>
        <time>2026-04-17T09:07:03.768Z</time>
      </trkpt>
      <trkpt lat="48.37515" lon="2.52121">
        <ele>73</ele>
        <time>2026-04-17T09:07:08.145Z</time>
      </trkpt>
      <trkpt lat="48.37517" lon="2.52125">
        <ele>73</ele>
        <time>2026-04-17T09:07:16.768Z</time>
      </trkpt>
      <trkpt lat="48.37521" lon="2.5213">
        <ele>72</ele>
        <time>2026-04-17T09:07:21.768Z</time>
      </trkpt>
      <trkpt lat="48.37525" lon="2.52132">
        <ele>72</ele>
        <time>2026-04-17T09:07:26.237Z</time>
      </trkpt>
      <trkpt lat="48.37528" lon="2.52132">
        <ele>72</ele>
        <time>2026-04-17T09:07:30.717Z</time>
      </trkpt>
      <trkpt lat="48.37532" lon="2.52132">
        <ele>72</ele>
        <time>2026-04-17T09:07:34.768Z</time>
      </trkpt>
      <trkpt lat="48.37538" lon="2.52139">
        <ele>72</ele>
        <time>2026-04-17T09:07:39.256Z</time>
      </trkpt>
      <trkpt lat="48.37538" lon="2.5214">
        <ele>72</ele>
        <time>2026-04-17T09:07:43.768Z</time>
      </trkpt>
      <trkpt lat="48.37538" lon="2.5214">
        <ele>72</ele>
        <time>2026-04-17T09:07:48.317Z</time>
      </trkpt>
      <trkpt lat="48.37541" lon="2.52142">
        <ele>72</ele>
        <time>2026-04-17T09:07:52.735Z</time>
      </trkpt>
      <trkpt lat="48.37546" lon="2.52145">
        <ele>73</ele>
        <time>2026-04-17T09:08:06.768Z</time>
      </trkpt>
      <trkpt lat="48.3755" lon="2.52147">
        <ele>73</ele>
        <time>2026-04-17T09:08:11.768Z</time>
      </trkpt>
      <trkpt lat="48.37554" lon="2.52148">
        <ele>73</ele>
        <time>2026-04-17T09:08:19.199Z</time>
      </trkpt>
      <trkpt lat="48.37558" lon="2.52149">
        <ele>73</ele>
        <time>2026-04-17T09:08:23.440Z</time>
      </trkpt>
      <trkpt lat="48.37561" lon="2.52152">
        <ele>73</ele>
        <time>2026-04-17T09:08:27.702Z</time>
      </trkpt>
      <trkpt lat="48.37564" lon="2.52155">
        <ele>73</ele>
        <time>2026-04-17T09:08:32.105Z</time>
      </trkpt>
      <trkpt lat="48.37567" lon="2.52159">
        <ele>73</ele>
        <time>2026-04-17T09:08:36.421Z</time>
      </trkpt>
      <trkpt lat="48.37568" lon="2.52161">
        <ele>73</ele>
        <time>2026-04-17T09:08:40.768Z</time>
      </trkpt>
      <trkpt lat="48.37569" lon="2.52163">
        <ele>73</ele>
        <time>2026-04-17T09:08:45.362Z</time>
      </trkpt>
      <trkpt lat="48.37573" lon="2.52167">
        <ele>74</ele>
        <time>2026-04-17T09:08:49.768Z</time>
      </trkpt>
      <trkpt lat="48.37576" lon="2.52171">
        <ele>74</ele>
        <time>2026-04-17T09:08:54.259Z</time>
      </trkpt>
      <trkpt lat="48.37579" lon="2.52177">
        <ele>74</ele>
        <time>2026-04-17T09:08:58.768Z</time>
      </trkpt>
      <trkpt lat="48.3758" lon="2.52184">
        <ele>75</ele>
        <time>2026-04-17T09:09:03.364Z</time>
      </trkpt>
      <trkpt lat="48.37582" lon="2.52189">
        <ele>75</ele>
        <time>2026-04-17T09:09:07.663Z</time>
      </trkpt>
      <trkpt lat="48.37583" lon="2.52195">
        <ele>75</ele>
        <time>2026-04-17T09:09:12.004Z</time>
      </trkpt>
      <trkpt lat="48.37585" lon="2.52201">
        <ele>75</ele>
        <time>2026-04-17T09:09:16.424Z</time>
      </trkpt>
      <trkpt lat="48.37586" lon="2.52206">
        <ele>75</ele>
        <time>2026-04-17T09:09:20.544Z</time>
      </trkpt>
      <trkpt lat="48.37584" lon="2.52209">
        <ele>76</ele>
        <time>2026-04-17T09:09:24.963Z</time>
      </trkpt>
      <trkpt lat="48.37584" lon="2.52212">
        <ele>76</ele>
        <time>2026-04-17T09:09:28.982Z</time>
      </trkpt>
      <trkpt lat="48.37586" lon="2.52222">
        <ele>76</ele>
        <time>2026-04-17T09:09:33.208Z</time>
      </trkpt>
      <trkpt lat="48.3759" lon="2.52227">
        <ele>76</ele>
        <time>2026-04-17T09:09:37.623Z</time>
      </trkpt>
      <trkpt lat="48.37592" lon="2.52232">
        <ele>76</ele>
        <time>2026-04-17T09:09:41.768Z</time>
      </trkpt>
      <trkpt lat="48.37591" lon="2.52239">
        <ele>78</ele>
        <time>2026-04-17T09:09:46.404Z</time>
      </trkpt>
      <trkpt lat="48.37591" lon="2.5224">
        <ele>78</ele>
        <time>2026-04-17T09:09:51.001Z</time>
      </trkpt>
      <trkpt lat="48.3759" lon="2.5224">
        <ele>78</ele>
        <time>2026-04-17T09:09:55.703Z</time>
      </trkpt>
      <trkpt lat="48.37589" lon="2.52242">
        <ele>78</ele>
        <time>2026-04-17T09:16:53.437Z</time>
      </trkpt>
      <trkpt lat="48.37586" lon="2.5224">
        <ele>78</ele>
        <time>2026-04-17T09:16:57.676Z</time>
      </trkpt>
      <trkpt lat="48.37579" lon="2.52241">
        <ele>78</ele>
        <time>2026-04-17T09:17:01.768Z</time>
      </trkpt>
      <trkpt lat="48.37573" lon="2.52245">
        <ele>78</ele>
        <time>2026-04-17T09:17:07.646Z</time>
      </trkpt>
      <trkpt lat="48.3757" lon="2.5225">
        <ele>78</ele>
        <time>2026-04-17T09:17:11.768Z</time>
      </trkpt>
      <trkpt lat="48.37567" lon="2.52256">
        <ele>77</ele>
        <time>2026-04-17T09:17:16.437Z</time>
      </trkpt>
      <trkpt lat="48.37565" lon="2.52261">
        <ele>77</ele>
        <time>2026-04-17T09:17:21.010Z</time>
      </trkpt>
      <trkpt lat="48.37561" lon="2.52264">
        <ele>77</ele>
        <time>2026-04-17T09:17:25.515Z</time>
      </trkpt>
      <trkpt lat="48.37558" lon="2.52269">
        <ele>77</ele>
        <time>2026-04-17T09:17:29.536Z</time>
      </trkpt>
      <trkpt lat="48.37554" lon="2.5227">
        <ele>77</ele>
        <time>2026-04-17T09:17:33.714Z</time>
      </trkpt>
      <trkpt lat="48.37553" lon="2.52278">
        <ele>77</ele>
        <time>2026-04-17T09:17:38.074Z</time>
      </trkpt>
      <trkpt lat="48.37553" lon="2.52281">
        <ele>77</ele>
        <time>2026-04-17T09:17:42.452Z</time>
      </trkpt>
      <trkpt lat="48.37549" lon="2.52278">
        <ele>77</ele>
        <time>2026-04-17T09:17:46.990Z</time>
      </trkpt>
      <trkpt lat="48.37544" lon="2.52278">
        <ele>77</ele>
        <time>2026-04-17T09:17:51.231Z</time>
      </trkpt>
      <trkpt lat="48.37539" lon="2.52277">
        <ele>76</ele>
        <time>2026-04-17T09:17:55.650Z</time>
      </trkpt>
      <trkpt lat="48.37535" lon="2.52274">
        <ele>76</ele>
        <time>2026-04-17T09:18:45.015Z</time>
      </trkpt>
      <trkpt lat="48.37529" lon="2.52268">
        <ele>76</ele>
        <time>2026-04-17T09:18:49.051Z</time>
      </trkpt>
      <trkpt lat="48.37527" lon="2.52266">
        <ele>76</ele>
        <time>2026-04-17T09:18:53.590Z</time>
      </trkpt>
      <trkpt lat="48.37525" lon="2.52264">
        <ele>76</ele>
        <time>2026-04-17T09:18:57.768Z</time>
      </trkpt>
      <trkpt lat="48.37522" lon="2.52266">
        <ele>76</ele>
        <time>2026-04-17T09:19:02.011Z</time>
      </trkpt>
      <trkpt lat="48.37518" lon="2.52265">
        <ele>76</ele>
        <time>2026-04-17T09:19:15.768Z</time>
      </trkpt>
      <trkpt lat="48.37514" lon="2.52266">
        <ele>75</ele>
        <time>2026-04-17T09:19:20.334Z</time>
      </trkpt>
      <trkpt lat="48.37508" lon="2.52267">
        <ele>75</ele>
        <time>2026-04-17T09:19:25.432Z</time>
      </trkpt>
      <trkpt lat="48.37505" lon="2.52272">
        <ele>75</ele>
        <time>2026-04-17T09:19:29.768Z</time>
      </trkpt>
      <trkpt lat="48.375" lon="2.52275">
        <ele>75</ele>
        <time>2026-04-17T09:19:33.894Z</time>
      </trkpt>
      <trkpt lat="48.37503" lon="2.52281">
        <ele>75</ele>
        <time>2026-04-17T09:19:38.238Z</time>
      </trkpt>
      <trkpt lat="48.37504" lon="2.52285">
        <ele>75</ele>
        <time>2026-04-17T09:19:42.614Z</time>
      </trkpt>
      <trkpt lat="48.37505" lon="2.52285">
        <ele>75</ele>
        <time>2026-04-17T09:19:47.154Z</time>
      </trkpt>
      <trkpt lat="48.37505" lon="2.52285">
        <ele>75</ele>
        <time>2026-04-17T09:19:51.777Z</time>
      </trkpt>
      <trkpt lat="48.37506" lon="2.5229">
        <ele>75</ele>
        <time>2026-04-17T09:23:04.768Z</time>
      </trkpt>
      <trkpt lat="48.37504" lon="2.5229">
        <ele>75</ele>
        <time>2026-04-17T09:23:09.768Z</time>
      </trkpt>
      <trkpt lat="48.37501" lon="2.52293">
        <ele>74</ele>
        <time>2026-04-17T09:23:14.768Z</time>
      </trkpt>
      <trkpt lat="48.37501" lon="2.52294">
        <ele>74</ele>
        <time>2026-04-17T09:23:22.768Z</time>
      </trkpt>
      <trkpt lat="48.375" lon="2.52295">
        <ele>74</ele>
        <time>2026-04-17T09:23:26.768Z</time>
      </trkpt>
      <trkpt lat="48.37499" lon="2.52296">
        <ele>74</ele>
        <time>2026-04-17T09:23:40.768Z</time>
      </trkpt>
      <trkpt lat="48.37498" lon="2.52296">
        <ele>74</ele>
        <time>2026-04-17T09:23:45.768Z</time>
      </trkpt>
      <trkpt lat="48.37498" lon="2.52297">
        <ele>74</ele>
        <time>2026-04-17T09:23:49.768Z</time>
      </trkpt>
      <trkpt lat="48.37495" lon="2.52298">
        <ele>74</ele>
        <time>2026-04-17T09:23:54.768Z</time>
      </trkpt>
      <trkpt lat="48.37492" lon="2.52303">
        <ele>74</ele>
        <time>2026-04-17T09:23:58.768Z</time>
      </trkpt>
      <trkpt lat="48.37488" lon="2.5231">
        <ele>74</ele>
        <time>2026-04-17T09:24:32.768Z</time>
      </trkpt>
      <trkpt lat="48.37486" lon="2.52314">
        <ele>72</ele>
        <time>2026-04-17T09:24:49.768Z</time>
      </trkpt>
      <trkpt lat="48.37481" lon="2.52318">
        <ele>72</ele>
        <time>2026-04-17T09:24:53.768Z</time>
      </trkpt>
      <trkpt lat="48.37475" lon="2.52316">
        <ele>72</ele>
        <time>2026-04-17T09:24:58.768Z</time>
      </trkpt>
      <trkpt lat="48.3747" lon="2.52318">
        <ele>72</ele>
        <time>2026-04-17T09:25:03.768Z</time>
      </trkpt>
      <trkpt lat="48.37461" lon="2.52321">
        <ele>71</ele>
        <time>2026-04-17T09:25:07.768Z</time>
      </trkpt>
      <trkpt lat="48.37461" lon="2.52321">
        <ele>71</ele>
        <time>2026-04-17T09:25:12.768Z</time>
      </trkpt>
      <trkpt lat="48.37461" lon="2.52321">
        <ele>71</ele>
        <time>2026-04-17T09:25:17.768Z</time>
      </trkpt>
      <trkpt lat="48.37462" lon="2.52329">
        <ele>71</ele>
        <time>2026-04-17T09:25:22.768Z</time>
      </trkpt>
      <trkpt lat="48.37462" lon="2.52337">
        <ele>71</ele>
        <time>2026-04-17T09:25:58.768Z</time>
      </trkpt>
      <trkpt lat="48.37461" lon="2.52343">
        <ele>71</ele>
        <time>2026-04-17T09:26:03.768Z</time>
      </trkpt>
      <trkpt lat="48.3746" lon="2.52348">
        <ele>70</ele>
        <time>2026-04-17T09:26:08.767Z</time>
      </trkpt>
      <trkpt lat="48.3746" lon="2.52354">
        <ele>70</ele>
        <time>2026-04-17T09:26:13.333Z</time>
      </trkpt>
      <trkpt lat="48.3746" lon="2.52361">
        <ele>70</ele>
        <time>2026-04-17T09:26:17.650Z</time>
      </trkpt>
      <trkpt lat="48.37461" lon="2.52369">
        <ele>70</ele>
        <time>2026-04-17T09:26:22.257Z</time>
      </trkpt>
      <trkpt lat="48.37461" lon="2.52377">
        <ele>70</ele>
        <time>2026-04-17T09:26:26.412Z</time>
      </trkpt>
      <trkpt lat="48.37462" lon="2.52386">
        <ele>70</ele>
        <time>2026-04-17T09:26:30.610Z</time>
      </trkpt>
      <trkpt lat="48.37463" lon="2.52392">
        <ele>70</ele>
        <time>2026-04-17T09:26:34.774Z</time>
      </trkpt>
      <trkpt lat="48.37465" lon="2.52399">
        <ele>70</ele>
        <time>2026-04-17T09:26:39.271Z</time>
      </trkpt>
      <trkpt lat="48.37468" lon="2.52407">
        <ele>70</ele>
        <time>2026-04-17T09:26:43.768Z</time>
      </trkpt>
      <trkpt lat="48.3747" lon="2.52414">
        <ele>70</ele>
        <time>2026-04-17T09:26:48.313Z</time>
      </trkpt>
      <trkpt lat="48.37472" lon="2.52421">
        <ele>70</ele>
        <time>2026-04-17T09:26:52.333Z</time>
      </trkpt>
      <trkpt lat="48.37475" lon="2.52427">
        <ele>70</ele>
        <time>2026-04-17T09:26:56.657Z</time>
      </trkpt>
      <trkpt lat="48.37477" lon="2.52435">
        <ele>71</ele>
        <time>2026-04-17T09:27:01.094Z</time>
      </trkpt>
      <trkpt lat="48.37478" lon="2.52441">
        <ele>71</ele>
        <time>2026-04-17T09:27:05.113Z</time>
      </trkpt>
      <trkpt lat="48.37481" lon="2.52449">
        <ele>71</ele>
        <time>2026-04-17T09:27:09.294Z</time>
      </trkpt>
      <trkpt lat="48.37483" lon="2.52455">
        <ele>71</ele>
        <time>2026-04-17T09:27:13.338Z</time>
      </trkpt>
      <trkpt lat="48.37485" lon="2.52462">
        <ele>71</ele>
        <time>2026-04-17T09:27:17.374Z</time>
      </trkpt>
      <trkpt lat="48.37487" lon="2.52469">
        <ele>71</ele>
        <time>2026-04-17T09:27:21.768Z</time>
      </trkpt>
      <trkpt lat="48.37489" lon="2.52476">
        <ele>71</ele>
        <time>2026-04-17T09:27:25.973Z</time>
      </trkpt>
      <trkpt lat="48.3749" lon="2.52483">
        <ele>71</ele>
        <time>2026-04-17T09:27:30.052Z</time>
      </trkpt>
      <trkpt lat="48.37491" lon="2.5249">
        <ele>70</ele>
        <time>2026-04-17T09:27:34.130Z</time>
      </trkpt>
      <trkpt lat="48.37492" lon="2.52499">
        <ele>70</ele>
        <time>2026-04-17T09:27:38.174Z</time>
      </trkpt>
      <trkpt lat="48.37493" lon="2.52507">
        <ele>70</ele>
        <time>2026-04-17T09:27:42.773Z</time>
      </trkpt>
      <trkpt lat="48.37493" lon="2.52516">
        <ele>69</ele>
        <time>2026-04-17T09:27:47.235Z</time>
      </trkpt>
      <trkpt lat="48.37495" lon="2.52525">
        <ele>69</ele>
        <time>2026-04-17T09:27:51.253Z</time>
      </trkpt>
      <trkpt lat="48.37498" lon="2.52533">
        <ele>69</ele>
        <time>2026-04-17T09:27:55.733Z</time>
      </trkpt>
      <trkpt lat="48.37501" lon="2.52539">
        <ele>69</ele>
        <time>2026-04-17T09:28:00.272Z</time>
      </trkpt>
      <trkpt lat="48.37505" lon="2.52545">
        <ele>69</ele>
        <time>2026-04-17T09:28:04.768Z</time>
      </trkpt>
      <trkpt lat="48.37508" lon="2.52552">
        <ele>69</ele>
        <time>2026-04-17T09:28:09.275Z</time>
      </trkpt>
      <trkpt lat="48.3751" lon="2.5256">
        <ele>69</ele>
        <time>2026-04-17T09:28:13.734Z</time>
      </trkpt>
      <trkpt lat="48.37513" lon="2.52567">
        <ele>69</ele>
        <time>2026-04-17T09:28:17.771Z</time>
      </trkpt>
      <trkpt lat="48.37515" lon="2.52574">
        <ele>70</ele>
        <time>2026-04-17T09:28:22.277Z</time>
      </trkpt>
      <trkpt lat="48.37518" lon="2.5258">
        <ele>70</ele>
        <time>2026-04-17T09:28:26.768Z</time>
      </trkpt>
      <trkpt lat="48.37521" lon="2.52586">
        <ele>70</ele>
        <time>2026-04-17T09:28:31.328Z</time>
      </trkpt>
      <trkpt lat="48.37524" lon="2.52591">
        <ele>70</ele>
        <time>2026-04-17T09:28:35.768Z</time>
      </trkpt>
      <trkpt lat="48.37529" lon="2.52607">
        <ele>71</ele>
        <time>2026-04-17T09:28:40.329Z</time>
      </trkpt>
      <trkpt lat="48.37529" lon="2.52608">
        <ele>71</ele>
        <time>2026-04-17T09:28:44.774Z</time>
      </trkpt>
      <trkpt lat="48.37524" lon="2.52611">
        <ele>71</ele>
        <time>2026-04-17T09:28:48.990Z</time>
      </trkpt>
      <trkpt lat="48.3752" lon="2.52614">
        <ele>71</ele>
        <time>2026-04-17T09:28:53.153Z</time>
      </trkpt>
      <trkpt lat="48.37517" lon="2.52617">
        <ele>71</ele>
        <time>2026-04-17T09:29:15.768Z</time>
      </trkpt>
      <trkpt lat="48.37512" lon="2.52624">
        <ele>71</ele>
        <time>2026-04-17T09:29:20.768Z</time>
      </trkpt>
      <trkpt lat="48.37512" lon="2.52624">
        <ele>71</ele>
        <time>2026-04-17T09:29:25.608Z</time>
      </trkpt>
      <trkpt lat="48.37512" lon="2.52624">
        <ele>71</ele>
        <time>2026-04-17T09:29:29.694Z</time>
      </trkpt>
      <trkpt lat="48.37506" lon="2.52627">
        <ele>73</ele>
        <time>2026-04-17T09:29:33.996Z</time>
      </trkpt>
      <trkpt lat="48.37502" lon="2.52628">
        <ele>73</ele>
        <time>2026-04-17T09:31:54.768Z</time>
      </trkpt>
      <trkpt lat="48.37502" lon="2.52629">
        <ele>73</ele>
        <time>2026-04-17T09:32:03.768Z</time>
      </trkpt>
      <trkpt lat="48.37498" lon="2.52631">
        <ele>73</ele>
        <time>2026-04-17T09:32:08.731Z</time>
      </trkpt>
      <trkpt lat="48.37496" lon="2.52634">
        <ele>73</ele>
        <time>2026-04-17T09:32:13.250Z</time>
      </trkpt>
      <trkpt lat="48.37495" lon="2.52633">
        <ele>73</ele>
        <time>2026-04-17T09:32:17.732Z</time>
      </trkpt>
      <trkpt lat="48.37492" lon="2.52634">
        <ele>73</ele>
        <time>2026-04-17T09:32:27.768Z</time>
      </trkpt>
      <trkpt lat="48.37483" lon="2.52637">
        <ele>76</ele>
        <time>2026-04-17T09:32:31.768Z</time>
      </trkpt>
      <trkpt lat="48.37483" lon="2.52636">
        <ele>76</ele>
        <time>2026-04-17T09:32:37.768Z</time>
      </trkpt>
      <trkpt lat="48.37482" lon="2.52636">
        <ele>76</ele>
        <time>2026-04-17T09:32:42.768Z</time>
      </trkpt>
      <trkpt lat="48.37481" lon="2.52636">
        <ele>76</ele>
        <time>2026-04-17T09:32:46.954Z</time>
      </trkpt>
      <trkpt lat="48.37475" lon="2.52636">
        <ele>76</ele>
        <time>2026-04-17T09:32:55.768Z</time>
      </trkpt>
      <trkpt lat="48.37471" lon="2.5264">
        <ele>76</ele>
        <time>2026-04-17T09:32:59.768Z</time>
      </trkpt>
      <trkpt lat="48.37466" lon="2.52645">
        <ele>76</ele>
        <time>2026-04-17T09:33:03.768Z</time>
      </trkpt>
      <trkpt lat="48.37462" lon="2.52648">
        <ele>76</ele>
        <time>2026-04-17T09:33:08.113Z</time>
      </trkpt>
      <trkpt lat="48.37458" lon="2.5265">
        <ele>77</ele>
        <time>2026-04-17T09:33:12.593Z</time>
      </trkpt>
      <trkpt lat="48.37454" lon="2.52653">
        <ele>76</ele>
        <time>2026-04-17T09:33:16.952Z</time>
      </trkpt>
      <trkpt lat="48.3745" lon="2.52655">
        <ele>76</ele>
        <time>2026-04-17T09:33:21.116Z</time>
      </trkpt>
      <trkpt lat="48.37445" lon="2.52655">
        <ele>76</ele>
        <time>2026-04-17T09:33:25.476Z</time>
      </trkpt>
      <trkpt lat="48.37441" lon="2.52659">
        <ele>76</ele>
        <time>2026-04-17T09:33:29.494Z</time>
      </trkpt>
      <trkpt lat="48.37436" lon="2.52662">
        <ele>76</ele>
        <time>2026-04-17T09:33:33.632Z</time>
      </trkpt>
      <trkpt lat="48.37432" lon="2.52664">
        <ele>76</ele>
        <time>2026-04-17T09:33:37.770Z</time>
      </trkpt>
      <trkpt lat="48.37427" lon="2.52667">
        <ele>76</ele>
        <time>2026-04-17T09:33:41.768Z</time>
      </trkpt>
      <trkpt lat="48.37423" lon="2.52669">
        <ele>76</ele>
        <time>2026-04-17T09:33:46.353Z</time>
      </trkpt>
      <trkpt lat="48.37418" lon="2.52671">
        <ele>76</ele>
        <time>2026-04-17T09:33:50.593Z</time>
      </trkpt>
      <trkpt lat="48.37414" lon="2.52674">
        <ele>76</ele>
        <time>2026-04-17T09:33:54.731Z</time>
      </trkpt>
      <trkpt lat="48.3741" lon="2.52675">
        <ele>76</ele>
        <time>2026-04-17T09:33:58.768Z</time>
      </trkpt>
      <trkpt lat="48.37405" lon="2.52674">
        <ele>76</ele>
        <time>2026-04-17T09:34:03.229Z</time>
      </trkpt>
      <trkpt lat="48.37401" lon="2.52677">
        <ele>77</ele>
        <time>2026-04-17T09:34:07.708Z</time>
      </trkpt>
      <trkpt lat="48.374" lon="2.52679">
        <ele>77</ele>
        <time>2026-04-17T09:34:12.093Z</time>
      </trkpt>
      <trkpt lat="48.37395" lon="2.52681">
        <ele>77</ele>
        <time>2026-04-17T09:34:16.155Z</time>
      </trkpt>
      <trkpt lat="48.37391" lon="2.52686">
        <ele>77</ele>
        <time>2026-04-17T09:34:20.532Z</time>
      </trkpt>
      <trkpt lat="48.37387" lon="2.52687">
        <ele>77</ele>
        <time>2026-04-17T09:34:24.768Z</time>
      </trkpt>
      <trkpt lat="48.37385" lon="2.52693">
        <ele>77</ele>
        <time>2026-04-17T09:34:29.150Z</time>
      </trkpt>
      <trkpt lat="48.37382" lon="2.52697">
        <ele>77</ele>
        <time>2026-04-17T09:34:33.590Z</time>
      </trkpt>
      <trkpt lat="48.37379" lon="2.52701">
        <ele>77</ele>
        <time>2026-04-17T09:34:38.116Z</time>
      </trkpt>
      <trkpt lat="48.37375" lon="2.52703">
        <ele>77</ele>
        <time>2026-04-17T09:34:42.434Z</time>
      </trkpt>
      <trkpt lat="48.37371" lon="2.52706">
        <ele>78</ele>
        <time>2026-04-17T09:34:46.613Z</time>
      </trkpt>
      <trkpt lat="48.37366" lon="2.52706">
        <ele>78</ele>
        <time>2026-04-17T09:34:51.034Z</time>
      </trkpt>
      <trkpt lat="48.37361" lon="2.52708">
        <ele>78</ele>
        <time>2026-04-17T09:34:55.512Z</time>
      </trkpt>
      <trkpt lat="48.37355" lon="2.52708">
        <ele>78</ele>
        <time>2026-04-17T09:34:59.533Z</time>
      </trkpt>
      <trkpt lat="48.37355" lon="2.52708">
        <ele>78</ele>
        <time>2026-04-17T09:35:03.768Z</time>
      </trkpt>
      <trkpt lat="48.37355" lon="2.52706">
        <ele>78</ele>
        <time>2026-04-17T09:35:08.071Z</time>
      </trkpt>
      <trkpt lat="48.37351" lon="2.52699">
        <ele>78</ele>
        <time>2026-04-17T09:35:12.270Z</time>
      </trkpt>
      <trkpt lat="48.37347" lon="2.52692">
        <ele>79</ele>
        <time>2026-04-17T09:36:12.768Z</time>
      </trkpt>
      <trkpt lat="48.37344" lon="2.52687">
        <ele>79</ele>
        <time>2026-04-17T09:36:16.768Z</time>
      </trkpt>
      <trkpt lat="48.3734" lon="2.52681">
        <ele>79</ele>
        <time>2026-04-17T09:36:20.768Z</time>
      </trkpt>
      <trkpt lat="48.37336" lon="2.52677">
        <ele>77</ele>
        <time>2026-04-17T09:36:25.012Z</time>
      </trkpt>
      <trkpt lat="48.37333" lon="2.52675">
        <ele>77</ele>
        <time>2026-04-17T09:36:29.552Z</time>
      </trkpt>
      <trkpt lat="48.37328" lon="2.5267">
        <ele>77</ele>
        <time>2026-04-17T09:36:33.768Z</time>
      </trkpt>
      <trkpt lat="48.37324" lon="2.52666">
        <ele>77</ele>
        <time>2026-04-17T09:36:38.655Z</time>
      </trkpt>
      <trkpt lat="48.37321" lon="2.52662">
        <ele>77</ele>
        <time>2026-04-17T09:36:42.768Z</time>
      </trkpt>
      <trkpt lat="48.37318" lon="2.52656">
        <ele>77</ele>
        <time>2026-04-17T09:36:47.587Z</time>
      </trkpt>
      <trkpt lat="48.37315" lon="2.5265">
        <ele>76</ele>
        <time>2026-04-17T09:36:51.675Z</time>
      </trkpt>
      <trkpt lat="48.37313" lon="2.52642">
        <ele>76</ele>
        <time>2026-04-17T09:36:56.009Z</time>
      </trkpt>
      <trkpt lat="48.37311" lon="2.52636">
        <ele>76</ele>
        <time>2026-04-17T09:37:00.573Z</time>
      </trkpt>
      <trkpt lat="48.37307" lon="2.52628">
        <ele>76</ele>
        <time>2026-04-17T09:37:04.635Z</time>
      </trkpt>
      <trkpt lat="48.37305" lon="2.5262">
        <ele>75</ele>
        <time>2026-04-17T09:37:08.653Z</time>
      </trkpt>
      <trkpt lat="48.37303" lon="2.52611">
        <ele>75</ele>
        <time>2026-04-17T09:37:13.175Z</time>
      </trkpt>
      <trkpt lat="48.373" lon="2.52603">
        <ele>75</ele>
        <time>2026-04-17T09:37:17.595Z</time>
      </trkpt>
      <trkpt lat="48.37296" lon="2.52597">
        <ele>75</ele>
        <time>2026-04-17T09:37:22.091Z</time>
      </trkpt>
      <trkpt lat="48.37293" lon="2.5259">
        <ele>75</ele>
        <time>2026-04-17T09:37:26.690Z</time>
      </trkpt>
      <trkpt lat="48.37289" lon="2.52583">
        <ele>77</ele>
        <time>2026-04-17T09:37:31.255Z</time>
      </trkpt>
      <trkpt lat="48.37286" lon="2.52576">
        <ele>77</ele>
        <time>2026-04-17T09:37:35.768Z</time>
      </trkpt>
      <trkpt lat="48.37283" lon="2.52569">
        <ele>77</ele>
        <time>2026-04-17T09:37:40.255Z</time>
      </trkpt>
      <trkpt lat="48.37279" lon="2.52562">
        <ele>77</ele>
        <time>2026-04-17T09:37:44.650Z</time>
      </trkpt>
      <trkpt lat="48.37276" lon="2.52555">
        <ele>77</ele>
        <time>2026-04-17T09:37:49.172Z</time>
      </trkpt>
      <trkpt lat="48.37274" lon="2.52547">
        <ele>77</ele>
        <time>2026-04-17T09:37:53.634Z</time>
      </trkpt>
      <trkpt lat="48.37272" lon="2.52539">
        <ele>77</ele>
        <time>2026-04-17T09:37:58.174Z</time>
      </trkpt>
      <trkpt lat="48.3727" lon="2.52532">
        <ele>77</ele>
        <time>2026-04-17T09:38:02.713Z</time>
      </trkpt>
      <trkpt lat="48.37268" lon="2.52524">
        <ele>77</ele>
        <time>2026-04-17T09:38:07.191Z</time>
      </trkpt>
      <trkpt lat="48.37266" lon="2.52515">
        <ele>77</ele>
        <time>2026-04-17T09:38:11.756Z</time>
      </trkpt>
      <trkpt lat="48.37263" lon="2.52507">
        <ele>75</ele>
        <time>2026-04-17T09:38:16.313Z</time>
      </trkpt>
      <trkpt lat="48.3726" lon="2.52499">
        <ele>75</ele>
        <time>2026-04-17T09:38:20.392Z</time>
      </trkpt>
      <trkpt lat="48.37256" lon="2.52492">
        <ele>75</ele>
        <time>2026-04-17T09:38:24.913Z</time>
      </trkpt>
      <trkpt lat="48.37253" lon="2.52485">
        <ele>75</ele>
        <time>2026-04-17T09:38:29.273Z</time>
      </trkpt>
      <trkpt lat="48.3725" lon="2.52479">
        <ele>75</ele>
        <time>2026-04-17T09:38:33.768Z</time>
      </trkpt>
      <trkpt lat="48.37245" lon="2.52469">
        <ele>75</ele>
        <time>2026-04-17T09:38:38.351Z</time>
      </trkpt>
      <trkpt lat="48.37245" lon="2.52469">
        <ele>75</ele>
        <time>2026-04-17T09:38:42.768Z</time>
      </trkpt>
      <trkpt lat="48.37245" lon="2.52468">
        <ele>75</ele>
        <time>2026-04-17T09:38:47.319Z</time>
      </trkpt>
      <trkpt lat="48.37243" lon="2.52464">
        <ele>75</ele>
        <time>2026-04-17T09:38:51.768Z</time>
      </trkpt>
      <trkpt lat="48.37241" lon="2.52456">
        <ele>74</ele>
        <time>2026-04-17T09:39:08.768Z</time>
      </trkpt>
      <trkpt lat="48.37239" lon="2.52449">
        <ele>74</ele>
        <time>2026-04-17T09:39:13.231Z</time>
      </trkpt>
      <trkpt lat="48.37236" lon="2.52443">
        <ele>74</ele>
        <time>2026-04-17T09:39:17.398Z</time>
      </trkpt>
      <trkpt lat="48.37233" lon="2.52436">
        <ele>74</ele>
        <time>2026-04-17T09:39:21.677Z</time>
      </trkpt>
      <trkpt lat="48.37229" lon="2.52429">
        <ele>74</ele>
        <time>2026-04-17T09:39:25.918Z</time>
      </trkpt>
      <trkpt lat="48.37228" lon="2.52425">
        <ele>74</ele>
        <time>2026-04-17T09:39:29.997Z</time>
      </trkpt>
      <trkpt lat="48.37224" lon="2.52419">
        <ele>74</ele>
        <time>2026-04-17T09:39:34.117Z</time>
      </trkpt>
      <trkpt lat="48.37221" lon="2.5241">
        <ele>74</ele>
        <time>2026-04-17T09:39:38.673Z</time>
      </trkpt>
      <trkpt lat="48.37218" lon="2.52402">
        <ele>74</ele>
        <time>2026-04-17T09:39:43.135Z</time>
      </trkpt>
      <trkpt lat="48.37216" lon="2.52393">
        <ele>74</ele>
        <time>2026-04-17T09:40:01.292Z</time>
      </trkpt>
      <trkpt lat="48.37214" lon="2.52384">
        <ele>74</ele>
        <time>2026-04-17T09:40:05.617Z</time>
      </trkpt>
      <trkpt lat="48.37211" lon="2.52376">
        <ele>74</ele>
        <time>2026-04-17T09:40:09.768Z</time>
      </trkpt>
      <trkpt lat="48.37208" lon="2.52367">
        <ele>76</ele>
        <time>2026-04-17T09:40:13.877Z</time>
      </trkpt>
      <trkpt lat="48.37206" lon="2.52359">
        <ele>76</ele>
        <time>2026-04-17T09:40:17.895Z</time>
      </trkpt>
      <trkpt lat="48.37203" lon="2.52352">
        <ele>76</ele>
        <time>2026-04-17T09:40:22.375Z</time>
      </trkpt>
      <trkpt lat="48.372" lon="2.52343">
        <ele>77</ele>
        <time>2026-04-17T09:40:26.768Z</time>
      </trkpt>
      <trkpt lat="48.37198" lon="2.52335">
        <ele>77</ele>
        <time>2026-04-17T09:40:31.351Z</time>
      </trkpt>
      <trkpt lat="48.37195" lon="2.52328">
        <ele>77</ele>
        <time>2026-04-17T09:40:35.676Z</time>
      </trkpt>
      <trkpt lat="48.37193" lon="2.5232">
        <ele>77</ele>
        <time>2026-04-17T09:40:39.713Z</time>
      </trkpt>
      <trkpt lat="48.3719" lon="2.52313">
        <ele>78</ele>
        <time>2026-04-17T09:40:44.192Z</time>
      </trkpt>
      <trkpt lat="48.37187" lon="2.52306">
        <ele>78</ele>
        <time>2026-04-17T09:40:48.218Z</time>
      </trkpt>
      <trkpt lat="48.37185" lon="2.52298">
        <ele>78</ele>
        <time>2026-04-17T09:40:52.297Z</time>
      </trkpt>
      <trkpt lat="48.37183" lon="2.5229">
        <ele>79</ele>
        <time>2026-04-17T09:40:56.657Z</time>
      </trkpt>
      <trkpt lat="48.37182" lon="2.52282">
        <ele>79</ele>
        <time>2026-04-17T09:41:00.777Z</time>
      </trkpt>
      <trkpt lat="48.37181" lon="2.52272">
        <ele>78</ele>
        <time>2026-04-17T09:41:05.111Z</time>
      </trkpt>
      <trkpt lat="48.37179" lon="2.52264">
        <ele>78</ele>
        <time>2026-04-17T09:41:09.574Z</time>
      </trkpt>
      <trkpt lat="48.37178" lon="2.52256">
        <ele>78</ele>
        <time>2026-04-17T09:41:14.096Z</time>
      </trkpt>
      <trkpt lat="48.37177" lon="2.52247">
        <ele>78</ele>
        <time>2026-04-17T09:41:18.175Z</time>
      </trkpt>
      <trkpt lat="48.37176" lon="2.52239">
        <ele>78</ele>
        <time>2026-04-17T09:41:22.637Z</time>
      </trkpt>
      <trkpt lat="48.37176" lon="2.5223">
        <ele>78</ele>
        <time>2026-04-17T09:41:26.768Z</time>
      </trkpt>
      <trkpt lat="48.37176" lon="2.52222">
        <ele>78</ele>
        <time>2026-04-17T09:41:31.118Z</time>
      </trkpt>
      <trkpt lat="48.37177" lon="2.52213">
        <ele>78</ele>
        <time>2026-04-17T09:41:35.316Z</time>
      </trkpt>
      <trkpt lat="48.37177" lon="2.52204">
        <ele>77</ele>
        <time>2026-04-17T09:41:39.616Z</time>
      </trkpt>
      <trkpt lat="48.37176" lon="2.52194">
        <ele>77</ele>
        <time>2026-04-17T09:41:43.856Z</time>
      </trkpt>
      <trkpt lat="48.37175" lon="2.52186">
        <ele>77</ele>
        <time>2026-04-17T09:41:48.115Z</time>
      </trkpt>
      <trkpt lat="48.37172" lon="2.52177">
        <ele>77</ele>
        <time>2026-04-17T09:41:52.398Z</time>
      </trkpt>
      <trkpt lat="48.3717" lon="2.5217">
        <ele>77</ele>
        <time>2026-04-17T09:41:56.655Z</time>
      </trkpt>
      <trkpt lat="48.37167" lon="2.52169">
        <ele>77</ele>
        <time>2026-04-17T09:42:00.895Z</time>
      </trkpt>
      <trkpt lat="48.37168" lon="2.5217">
        <ele>77</ele>
        <time>2026-04-17T09:42:05.004Z</time>
      </trkpt>
      <trkpt lat="48.37164" lon="2.52174">
        <ele>77</ele>
        <time>2026-04-17T09:42:09.530Z</time>
      </trkpt>
      <trkpt lat="48.37162" lon="2.52177">
        <ele>77</ele>
        <time>2026-04-17T09:42:13.651Z</time>
      </trkpt>
      <trkpt lat="48.37159" lon="2.52183">
        <ele>77</ele>
        <time>2026-04-17T09:42:17.768Z</time>
      </trkpt>
      <trkpt lat="48.37156" lon="2.52188">
        <ele>77</ele>
        <time>2026-04-17T09:42:22.772Z</time>
      </trkpt>
      <trkpt lat="48.37152" lon="2.52192">
        <ele>76</ele>
        <time>2026-04-17T09:42:27.768Z</time>
      </trkpt>
      <trkpt lat="48.37148" lon="2.52195">
        <ele>76</ele>
        <time>2026-04-17T09:42:32.337Z</time>
      </trkpt>
      <trkpt lat="48.37143" lon="2.52198">
        <ele>76</ele>
        <time>2026-04-17T09:42:36.518Z</time>
      </trkpt>
      <trkpt lat="48.37137" lon="2.522">
        <ele>76</ele>
        <time>2026-04-17T09:42:41.014Z</time>
      </trkpt>
      <trkpt lat="48.37132" lon="2.52203">
        <ele>76</ele>
        <time>2026-04-17T09:42:45.092Z</time>
      </trkpt>
      <trkpt lat="48.37126" lon="2.52205">
        <ele>76</ele>
        <time>2026-04-17T09:42:49.538Z</time>
      </trkpt>
      <trkpt lat="48.3712" lon="2.52209">
        <ele>76</ele>
        <time>2026-04-17T09:42:54.052Z</time>
      </trkpt>
      <trkpt lat="48.37115" lon="2.52212">
        <ele>76</ele>
        <time>2026-04-17T09:42:58.411Z</time>
      </trkpt>
      <trkpt lat="48.3711" lon="2.52215">
        <ele>76</ele>
        <time>2026-04-17T09:43:02.926Z</time>
      </trkpt>
      <trkpt lat="48.37105" lon="2.52218">
        <ele>76</ele>
        <time>2026-04-17T09:43:07.328Z</time>
      </trkpt>
      <trkpt lat="48.371" lon="2.52222">
        <ele>76</ele>
        <time>2026-04-17T09:43:11.766Z</time>
      </trkpt>
      <trkpt lat="48.37096" lon="2.52226">
        <ele>76</ele>
        <time>2026-04-17T09:43:16.210Z</time>
      </trkpt>
      <trkpt lat="48.37092" lon="2.52231">
        <ele>76</ele>
        <time>2026-04-17T09:43:20.673Z</time>
      </trkpt>
      <trkpt lat="48.37087" lon="2.52236">
        <ele>76</ele>
        <time>2026-04-17T09:43:24.990Z</time>
      </trkpt>
      <trkpt lat="48.37081" lon="2.52239">
        <ele>76</ele>
        <time>2026-04-17T09:43:29.025Z</time>
      </trkpt>
      <trkpt lat="48.37076" lon="2.52243">
        <ele>76</ele>
        <time>2026-04-17T09:43:33.488Z</time>
      </trkpt>
      <trkpt lat="48.3707" lon="2.52247">
        <ele>76</ele>
        <time>2026-04-17T09:43:37.768Z</time>
      </trkpt>
      <trkpt lat="48.37065" lon="2.52251">
        <ele>75</ele>
        <time>2026-04-17T09:43:42.371Z</time>
      </trkpt>
      <trkpt lat="48.3706" lon="2.52255">
        <ele>75</ele>
        <time>2026-04-17T09:43:46.765Z</time>
      </trkpt>
      <trkpt lat="48.37055" lon="2.52259">
        <ele>75</ele>
        <time>2026-04-17T09:43:51.184Z</time>
      </trkpt>
      <trkpt lat="48.37049" lon="2.52262">
        <ele>75</ele>
        <time>2026-04-17T09:43:55.689Z</time>
      </trkpt>
      <trkpt lat="48.37044" lon="2.52265">
        <ele>75</ele>
        <time>2026-04-17T09:44:00.169Z</time>
      </trkpt>
      <trkpt lat="48.37038" lon="2.5227">
        <ele>75</ele>
        <time>2026-04-17T09:44:04.606Z</time>
      </trkpt>
      <trkpt lat="48.37033" lon="2.52273">
        <ele>75</ele>
        <time>2026-04-17T09:44:08.906Z</time>
      </trkpt>
      <trkpt lat="48.37029" lon="2.52277">
        <ele>75</ele>
        <time>2026-04-17T09:44:13.308Z</time>
      </trkpt>
      <trkpt lat="48.37024" lon="2.5228">
        <ele>75</ele>
        <time>2026-04-17T09:44:17.775Z</time>
      </trkpt>
      <trkpt lat="48.37019" lon="2.52282">
        <ele>75</ele>
        <time>2026-04-17T09:44:22.130Z</time>
      </trkpt>
      <trkpt lat="48.37014" lon="2.52286">
        <ele>75</ele>
        <time>2026-04-17T09:44:26.525Z</time>
      </trkpt>
      <trkpt lat="48.37009" lon="2.52289">
        <ele>75</ele>
        <time>2026-04-17T09:44:31.064Z</time>
      </trkpt>
      <trkpt lat="48.37004" lon="2.52292">
        <ele>76</ele>
        <time>2026-04-17T09:44:35.650Z</time>
      </trkpt>
      <trkpt lat="48.36999" lon="2.52295">
        <ele>76</ele>
        <time>2026-04-17T09:44:39.691Z</time>
      </trkpt>
      <trkpt lat="48.36995" lon="2.52299">
        <ele>76</ele>
        <time>2026-04-17T09:44:43.769Z</time>
      </trkpt>
      <trkpt lat="48.3699" lon="2.52303">
        <ele>76</ele>
        <time>2026-04-17T09:44:48.753Z</time>
      </trkpt>
      <trkpt lat="48.36986" lon="2.52308">
        <ele>76</ele>
        <time>2026-04-17T09:44:53.368Z</time>
      </trkpt>
      <trkpt lat="48.36981" lon="2.52312">
        <ele>76</ele>
        <time>2026-04-17T09:44:57.768Z</time>
      </trkpt>
      <trkpt lat="48.36976" lon="2.52316">
        <ele>76</ele>
        <time>2026-04-17T09:45:02.011Z</time>
      </trkpt>
      <trkpt lat="48.36971" lon="2.5232">
        <ele>77</ele>
        <time>2026-04-17T09:45:06.507Z</time>
      </trkpt>
      <trkpt lat="48.36967" lon="2.52323">
        <ele>77</ele>
        <time>2026-04-17T09:45:11.012Z</time>
      </trkpt>
      <trkpt lat="48.36962" lon="2.52326">
        <ele>77</ele>
        <time>2026-04-17T09:45:15.526Z</time>
      </trkpt>
      <trkpt lat="48.36953" lon="2.52321">
        <ele>77</ele>
        <time>2026-04-17T09:45:20.065Z</time>
      </trkpt>
      <trkpt lat="48.36949" lon="2.52314">
        <ele>76</ele>
        <time>2026-04-17T09:45:24.690Z</time>
      </trkpt>
      <trkpt lat="48.36944" lon="2.52308">
        <ele>76</ele>
        <time>2026-04-17T09:45:29.008Z</time>
      </trkpt>
      <trkpt lat="48.3694" lon="2.52305">
        <ele>76</ele>
        <time>2026-04-17T09:45:33.351Z</time>
      </trkpt>
      <trkpt lat="48.36936" lon="2.523">
        <ele>76</ele>
        <time>2026-04-17T09:48:02.768Z</time>
      </trkpt>
      <trkpt lat="48.36934" lon="2.52293">
        <ele>76</ele>
        <time>2026-04-17T09:48:07.111Z</time>
      </trkpt>
      <trkpt lat="48.36933" lon="2.52285">
        <ele>76</ele>
        <time>2026-04-17T09:48:11.292Z</time>
      </trkpt>
      <trkpt lat="48.3693" lon="2.52278">
        <ele>75</ele>
        <time>2026-04-17T09:48:15.310Z</time>
      </trkpt>
      <trkpt lat="48.36926" lon="2.52273">
        <ele>75</ele>
        <time>2026-04-17T09:48:19.768Z</time>
      </trkpt>
      <trkpt lat="48.36922" lon="2.52266">
        <ele>75</ele>
        <time>2026-04-17T09:48:24.270Z</time>
      </trkpt>
      <trkpt lat="48.36918" lon="2.52259">
        <ele>74</ele>
        <time>2026-04-17T09:48:28.749Z</time>
      </trkpt>
      <trkpt lat="48.36915" lon="2.52252">
        <ele>74</ele>
        <time>2026-04-17T09:48:33.049Z</time>
      </trkpt>
      <trkpt lat="48.36913" lon="2.52245">
        <ele>74</ele>
        <time>2026-04-17T09:48:37.451Z</time>
      </trkpt>
      <trkpt lat="48.3691" lon="2.52238">
        <ele>74</ele>
        <time>2026-04-17T09:48:41.872Z</time>
      </trkpt>
      <trkpt lat="48.36905" lon="2.52233">
        <ele>74</ele>
        <time>2026-04-17T09:48:46.410Z</time>
      </trkpt>
      <trkpt lat="48.36904" lon="2.52225">
        <ele>74</ele>
        <time>2026-04-17T09:48:50.768Z</time>
      </trkpt>
      <trkpt lat="48.36903" lon="2.52217">
        <ele>73</ele>
        <time>2026-04-17T09:48:54.866Z</time>
      </trkpt>
      <trkpt lat="48.369" lon="2.52209">
        <ele>73</ele>
        <time>2026-04-17T09:48:59.389Z</time>
      </trkpt>
      <trkpt lat="48.36898" lon="2.52201">
        <ele>74</ele>
        <time>2026-04-17T09:49:03.768Z</time>
      </trkpt>
      <trkpt lat="48.36895" lon="2.52193">
        <ele>74</ele>
        <time>2026-04-17T09:49:08.433Z</time>
      </trkpt>
      <trkpt lat="48.36891" lon="2.52188">
        <ele>74</ele>
        <time>2026-04-17T09:49:13.006Z</time>
      </trkpt>
      <trkpt lat="48.36886" lon="2.52183">
        <ele>74</ele>
        <time>2026-04-17T09:49:17.452Z</time>
      </trkpt>
      <trkpt lat="48.36881" lon="2.52179">
        <ele>74</ele>
        <time>2026-04-17T09:49:21.872Z</time>
      </trkpt>
      <trkpt lat="48.36876" lon="2.52175">
        <ele>74</ele>
        <time>2026-04-17T09:49:26.350Z</time>
      </trkpt>
      <trkpt lat="48.36872" lon="2.52171">
        <ele>75</ele>
        <time>2026-04-17T09:49:30.768Z</time>
      </trkpt>
      <trkpt lat="48.36866" lon="2.52167">
        <ele>75</ele>
        <time>2026-04-17T09:49:35.386Z</time>
      </trkpt>
      <trkpt lat="48.36861" lon="2.52165">
        <ele>75</ele>
        <time>2026-04-17T09:49:39.865Z</time>
      </trkpt>
      <trkpt lat="48.36855" lon="2.52163">
        <ele>75</ele>
        <time>2026-04-17T09:49:44.447Z</time>
      </trkpt>
      <trkpt lat="48.36851" lon="2.52159">
        <ele>75</ele>
        <time>2026-04-17T09:49:48.851Z</time>
      </trkpt>
      <trkpt lat="48.36846" lon="2.52155">
        <ele>77</ele>
        <time>2026-04-17T09:49:53.227Z</time>
      </trkpt>
      <trkpt lat="48.36841" lon="2.52151">
        <ele>76</ele>
        <time>2026-04-17T09:49:57.706Z</time>
      </trkpt>
      <trkpt lat="48.36835" lon="2.52151">
        <ele>76</ele>
        <time>2026-04-17T09:50:02.169Z</time>
      </trkpt>
      <trkpt lat="48.36829" lon="2.52151">
        <ele>76</ele>
        <time>2026-04-17T09:50:06.187Z</time>
      </trkpt>
      <trkpt lat="48.36823" lon="2.52152">
        <ele>76</ele>
        <time>2026-04-17T09:50:10.744Z</time>
      </trkpt>
      <trkpt lat="48.36818" lon="2.52153">
        <ele>77</ele>
        <time>2026-04-17T09:50:15.104Z</time>
      </trkpt>
      <trkpt lat="48.36812" lon="2.52154">
        <ele>77</ele>
        <time>2026-04-17T09:50:19.490Z</time>
      </trkpt>
      <trkpt lat="48.36806" lon="2.52155">
        <ele>77</ele>
        <time>2026-04-17T09:50:23.867Z</time>
      </trkpt>
      <trkpt lat="48.36801" lon="2.52156">
        <ele>77</ele>
        <time>2026-04-17T09:50:28.347Z</time>
      </trkpt>
      <trkpt lat="48.36796" lon="2.52157">
        <ele>77</ele>
        <time>2026-04-17T09:50:32.911Z</time>
      </trkpt>
      <trkpt lat="48.36789" lon="2.52158">
        <ele>77</ele>
        <time>2026-04-17T09:50:37.425Z</time>
      </trkpt>
      <trkpt lat="48.36785" lon="2.52158">
        <ele>77</ele>
        <time>2026-04-17T09:50:41.888Z</time>
      </trkpt>
      <trkpt lat="48.36779" lon="2.52157">
        <ele>77</ele>
        <time>2026-04-17T09:50:46.453Z</time>
      </trkpt>
      <trkpt lat="48.36773" lon="2.52155">
        <ele>77</ele>
        <time>2026-04-17T09:50:50.768Z</time>
      </trkpt>
      <trkpt lat="48.36768" lon="2.52152">
        <ele>76</ele>
        <time>2026-04-17T09:50:55.768Z</time>
      </trkpt>
      <trkpt lat="48.36762" lon="2.5215">
        <ele>76</ele>
        <time>2026-04-17T09:50:59.955Z</time>
      </trkpt>
      <trkpt lat="48.36755" lon="2.5215">
        <ele>76</ele>
        <time>2026-04-17T09:51:04.447Z</time>
      </trkpt>
      <trkpt lat="48.36749" lon="2.52154">
        <ele>77</ele>
        <time>2026-04-17T09:51:08.928Z</time>
      </trkpt>
      <trkpt lat="48.36745" lon="2.52158">
        <ele>77</ele>
        <time>2026-04-17T09:51:13.270Z</time>
      </trkpt>
      <trkpt lat="48.36741" lon="2.52163">
        <ele>77</ele>
        <time>2026-04-17T09:51:17.768Z</time>
      </trkpt>
      <trkpt lat="48.36737" lon="2.52167">
        <ele>77</ele>
        <time>2026-04-17T09:51:22.630Z</time>
      </trkpt>
      <trkpt lat="48.36732" lon="2.52172">
        <ele>77</ele>
        <time>2026-04-17T09:51:27.272Z</time>
      </trkpt>
      <trkpt lat="48.36727" lon="2.52176">
        <ele>77</ele>
        <time>2026-04-17T09:51:31.291Z</time>
      </trkpt>
      <trkpt lat="48.36725" lon="2.52183">
        <ele>78</ele>
        <time>2026-04-17T09:51:35.411Z</time>
      </trkpt>
      <trkpt lat="48.36723" lon="2.52189">
        <ele>78</ele>
        <time>2026-04-17T09:51:39.768Z</time>
      </trkpt>
      <trkpt lat="48.36718" lon="2.52193">
        <ele>78</ele>
        <time>2026-04-17T09:51:44.285Z</time>
      </trkpt>
      <trkpt lat="48.36716" lon="2.52199">
        <ele>78</ele>
        <time>2026-04-17T09:51:48.768Z</time>
      </trkpt>
      <trkpt lat="48.36712" lon="2.52204">
        <ele>78</ele>
        <time>2026-04-17T09:51:52.768Z</time>
      </trkpt>
      <trkpt lat="48.3671" lon="2.52212">
        <ele>79</ele>
        <time>2026-04-17T09:51:57.033Z</time>
      </trkpt>
      <trkpt lat="48.36707" lon="2.52219">
        <ele>80</ele>
        <time>2026-04-17T09:52:01.513Z</time>
      </trkpt>
      <trkpt lat="48.36705" lon="2.52226">
        <ele>80</ele>
        <time>2026-04-17T09:52:05.768Z</time>
      </trkpt>
      <trkpt lat="48.36702" lon="2.52231">
        <ele>80</ele>
        <time>2026-04-17T09:52:09.968Z</time>
      </trkpt>
      <trkpt lat="48.36699" lon="2.52238">
        <ele>81</ele>
        <time>2026-04-17T09:52:14.430Z</time>
      </trkpt>
      <trkpt lat="48.36695" lon="2.52245">
        <ele>81</ele>
        <time>2026-04-17T09:52:18.765Z</time>
      </trkpt>
      <trkpt lat="48.36692" lon="2.52251">
        <ele>81</ele>
        <time>2026-04-17T09:52:22.768Z</time>
      </trkpt>
      <trkpt lat="48.36687" lon="2.52256">
        <ele>81</ele>
        <time>2026-04-17T09:52:26.768Z</time>
      </trkpt>
      <trkpt lat="48.36678" lon="2.52267">
        <ele>85</ele>
        <time>2026-04-17T09:52:31.350Z</time>
      </trkpt>
      <trkpt lat="48.36676" lon="2.52268">
        <ele>85</ele>
        <time>2026-04-17T09:52:35.770Z</time>
      </trkpt>
      <trkpt lat="48.36671" lon="2.52272">
        <ele>85</ele>
        <time>2026-04-17T09:52:40.250Z</time>
      </trkpt>
      <trkpt lat="48.36667" lon="2.52275">
        <ele>85</ele>
        <time>2026-04-17T09:52:44.592Z</time>
      </trkpt>
      <trkpt lat="48.36665" lon="2.52277">
        <ele>85</ele>
        <time>2026-04-17T09:54:34.768Z</time>
      </trkpt>
      <trkpt lat="48.36661" lon="2.52283">
        <ele>85</ele>
        <time>2026-04-17T09:54:39.309Z</time>
      </trkpt>
      <trkpt lat="48.36663" lon="2.52287">
        <ele>85</ele>
        <time>2026-04-17T09:54:43.768Z</time>
      </trkpt>
      <trkpt lat="48.36665" lon="2.52289">
        <ele>85</ele>
        <time>2026-04-17T09:54:48.287Z</time>
      </trkpt>
      <trkpt lat="48.36665" lon="2.52293">
        <ele>88</ele>
        <time>2026-04-17T09:54:52.612Z</time>
      </trkpt>
      <trkpt lat="48.36666" lon="2.52298">
        <ele>88</ele>
        <time>2026-04-17T09:55:01.725Z</time>
      </trkpt>
      <trkpt lat="48.36663" lon="2.52305">
        <ele>88</ele>
        <time>2026-04-17T09:55:06.768Z</time>
      </trkpt>
      <trkpt lat="48.36662" lon="2.52308">
        <ele>88</ele>
        <time>2026-04-17T09:55:10.966Z</time>
      </trkpt>
      <trkpt lat="48.36664" lon="2.5231">
        <ele>88</ele>
        <time>2026-04-17T09:55:15.768Z</time>
      </trkpt>
      <trkpt lat="48.36666" lon="2.52312">
        <ele>88</ele>
        <time>2026-04-17T09:55:20.249Z</time>
      </trkpt>
      <trkpt lat="48.36667" lon="2.52316">
        <ele>88</ele>
        <time>2026-04-17T09:55:29.711Z</time>
      </trkpt>
      <trkpt lat="48.36669" lon="2.52321">
        <ele>92</ele>
        <time>2026-04-17T09:55:33.768Z</time>
      </trkpt>
      <trkpt lat="48.36666" lon="2.52323">
        <ele>92</ele>
        <time>2026-04-17T09:55:38.768Z</time>
      </trkpt>
      <trkpt lat="48.36666" lon="2.52327">
        <ele>92</ele>
        <time>2026-04-17T09:55:43.312Z</time>
      </trkpt>
      <trkpt lat="48.36667" lon="2.5233">
        <ele>92</ele>
        <time>2026-04-17T09:55:47.768Z</time>
      </trkpt>
      <trkpt lat="48.36667" lon="2.52334">
        <ele>92</ele>
        <time>2026-04-17T09:55:52.365Z</time>
      </trkpt>
      <trkpt lat="48.36668" lon="2.52338">
        <ele>92</ele>
        <time>2026-04-17T09:55:56.409Z</time>
      </trkpt>
      <trkpt lat="48.36668" lon="2.52341">
        <ele>92</ele>
        <time>2026-04-17T09:56:01.768Z</time>
      </trkpt>
      <trkpt lat="48.36665" lon="2.52343">
        <ele>92</ele>
        <time>2026-04-17T09:56:06.230Z</time>
      </trkpt>
      <trkpt lat="48.36662" lon="2.52344">
        <ele>92</ele>
        <time>2026-04-17T09:56:10.352Z</time>
      </trkpt>
      <trkpt lat="48.36659" lon="2.52344">
        <ele>92</ele>
        <time>2026-04-17T09:56:47.768Z</time>
      </trkpt>
      <trkpt lat="48.36656" lon="2.52344">
        <ele>92</ele>
        <time>2026-04-17T09:56:51.768Z</time>
      </trkpt>
      <trkpt lat="48.36653" lon="2.52341">
        <ele>92</ele>
        <time>2026-04-17T09:56:56.024Z</time>
      </trkpt>
      <trkpt lat="48.3665" lon="2.5234">
        <ele>96</ele>
        <time>2026-04-17T09:57:00.428Z</time>
      </trkpt>
      <trkpt lat="48.36646" lon="2.52338">
        <ele>96</ele>
        <time>2026-04-17T09:57:04.608Z</time>
      </trkpt>
      <trkpt lat="48.36642" lon="2.5234">
        <ele>96</ele>
        <time>2026-04-17T09:57:09.353Z</time>
      </trkpt>
      <trkpt lat="48.36639" lon="2.5234">
        <ele>96</ele>
        <time>2026-04-17T09:57:13.551Z</time>
      </trkpt>
      <trkpt lat="48.36634" lon="2.52342">
        <ele>96</ele>
        <time>2026-04-17T09:57:18.106Z</time>
      </trkpt>
      <trkpt lat="48.36629" lon="2.52343">
        <ele>96</ele>
        <time>2026-04-17T09:57:22.768Z</time>
      </trkpt>
      <trkpt lat="48.36628" lon="2.52346">
        <ele>96</ele>
        <time>2026-04-17T09:57:27.629Z</time>
      </trkpt>
      <trkpt lat="48.36628" lon="2.52353">
        <ele>100</ele>
        <time>2026-04-17T09:57:31.768Z</time>
      </trkpt>
      <trkpt lat="48.36629" lon="2.52359">
        <ele>100</ele>
        <time>2026-04-17T09:57:36.631Z</time>
      </trkpt>
      <trkpt lat="48.3663" lon="2.5236">
        <ele>100</ele>
        <time>2026-04-17T09:57:41.212Z</time>
      </trkpt>
      <trkpt lat="48.36632" lon="2.52361">
        <ele>100</ele>
        <time>2026-04-17T09:57:45.649Z</time>
      </trkpt>
      <trkpt lat="48.36632" lon="2.52365">
        <ele>100</ele>
        <time>2026-04-17T09:57:50.231Z</time>
      </trkpt>
      <trkpt lat="48.36635" lon="2.52368">
        <ele>100</ele>
        <time>2026-04-17T09:57:54.768Z</time>
      </trkpt>
      <trkpt lat="48.36635" lon="2.5237">
        <ele>100</ele>
        <time>2026-04-17T09:57:59.768Z</time>
      </trkpt>
      <trkpt lat="48.36635" lon="2.52374">
        <ele>100</ele>
        <time>2026-04-17T09:59:30.231Z</time>
      </trkpt>
      <trkpt lat="48.36634" lon="2.52367">
        <ele>100</ele>
        <time>2026-04-17T09:59:34.650Z</time>
      </trkpt>
      <trkpt lat="48.36638" lon="2.52368">
        <ele>100</ele>
        <time>2026-04-17T09:59:38.768Z</time>
      </trkpt>
      <trkpt lat="48.3664" lon="2.52368">
        <ele>100</ele>
        <time>2026-04-17T09:59:43.216Z</time>
      </trkpt>
      <trkpt lat="48.36641" lon="2.52372">
        <ele>100</ele>
        <time>2026-04-17T09:59:47.768Z</time>
      </trkpt>
      <trkpt lat="48.36644" lon="2.52375">
        <ele>100</ele>
        <time>2026-04-17T09:59:51.893Z</time>
      </trkpt>
      <trkpt lat="48.36648" lon="2.52374">
        <ele>100</ele>
        <time>2026-04-17T09:59:56.314Z</time>
      </trkpt>
      <trkpt lat="48.36651" lon="2.52378">
        <ele>99</ele>
        <time>2026-04-17T10:00:00.286Z</time>
      </trkpt>
      <trkpt lat="48.36654" lon="2.52379">
        <ele>98</ele>
        <time>2026-04-17T10:00:04.768Z</time>
      </trkpt>
      <trkpt lat="48.36656" lon="2.52383">
        <ele>98</ele>
        <time>2026-04-17T10:00:09.495Z</time>
      </trkpt>
      <trkpt lat="48.36661" lon="2.52388">
        <ele>98</ele>
        <time>2026-04-17T10:00:13.768Z</time>
      </trkpt>
      <trkpt lat="48.3666" lon="2.52393">
        <ele>98</ele>
        <time>2026-04-17T10:00:18.498Z</time>
      </trkpt>
      <trkpt lat="48.36659" lon="2.52397">
        <ele>98</ele>
        <time>2026-04-17T10:00:22.695Z</time>
      </trkpt>
      <trkpt lat="48.36662" lon="2.52397">
        <ele>98</ele>
        <time>2026-04-17T10:00:27.031Z</time>
      </trkpt>
      <trkpt lat="48.36666" lon="2.52399">
        <ele>98</ele>
        <time>2026-04-17T10:00:36.595Z</time>
      </trkpt>
      <trkpt lat="48.3667" lon="2.52401">
        <ele>98</ele>
        <time>2026-04-17T10:00:41.433Z</time>
      </trkpt>
      <trkpt lat="48.3667" lon="2.52402">
        <ele>98</ele>
        <time>2026-04-17T10:00:45.768Z</time>
      </trkpt>
      <trkpt lat="48.36673" lon="2.52406">
        <ele>96</ele>
        <time>2026-04-17T10:00:50.997Z</time>
      </trkpt>
      <trkpt lat="48.36672" lon="2.5241">
        <ele>96</ele>
        <time>2026-04-17T10:00:55.212Z</time>
      </trkpt>
      <trkpt lat="48.36674" lon="2.52411">
        <ele>96</ele>
        <time>2026-04-17T10:01:12.768Z</time>
      </trkpt>
      <trkpt lat="48.36675" lon="2.52414">
        <ele>96</ele>
        <time>2026-04-17T10:01:17.310Z</time>
      </trkpt>
      <trkpt lat="48.36673" lon="2.52419">
        <ele>96</ele>
        <time>2026-04-17T10:01:21.767Z</time>
      </trkpt>
      <trkpt lat="48.36671" lon="2.52424">
        <ele>96</ele>
        <time>2026-04-17T10:01:25.768Z</time>
      </trkpt>
      <trkpt lat="48.36671" lon="2.52427">
        <ele>96</ele>
        <time>2026-04-17T10:01:29.991Z</time>
      </trkpt>
      <trkpt lat="48.36673" lon="2.52429">
        <ele>96</ele>
        <time>2026-04-17T10:01:34.172Z</time>
      </trkpt>
      <trkpt lat="48.36674" lon="2.52431">
        <ele>96</ele>
        <time>2026-04-17T10:01:38.531Z</time>
      </trkpt>
      <trkpt lat="48.36673" lon="2.52435">
        <ele>92</ele>
        <time>2026-04-17T10:01:43.095Z</time>
      </trkpt>
      <trkpt lat="48.36676" lon="2.5244">
        <ele>92</ele>
        <time>2026-04-17T10:01:47.192Z</time>
      </trkpt>
      <trkpt lat="48.36677" lon="2.52444">
        <ele>92</ele>
        <time>2026-04-17T10:01:51.577Z</time>
      </trkpt>
      <trkpt lat="48.36672" lon="2.52453">
        <ele>92</ele>
        <time>2026-04-17T10:01:56.237Z</time>
      </trkpt>
      <trkpt lat="48.36673" lon="2.52456">
        <ele>92</ele>
        <time>2026-04-17T10:02:00.656Z</time>
      </trkpt>
      <trkpt lat="48.36673" lon="2.5246">
        <ele>89</ele>
        <time>2026-04-17T10:02:05.178Z</time>
      </trkpt>
      <trkpt lat="48.36672" lon="2.52462">
        <ele>89</ele>
        <time>2026-04-17T10:02:09.768Z</time>
      </trkpt>
      <trkpt lat="48.36674" lon="2.52464">
        <ele>89</ele>
        <time>2026-04-17T10:02:23.276Z</time>
      </trkpt>
      <trkpt lat="48.36677" lon="2.52463">
        <ele>89</ele>
        <time>2026-04-17T10:02:27.413Z</time>
      </trkpt>
      <trkpt lat="48.36681" lon="2.52463">
        <ele>86</ele>
        <time>2026-04-17T10:02:31.768Z</time>
      </trkpt>
      <trkpt lat="48.36684" lon="2.52465">
        <ele>86</ele>
        <time>2026-04-17T10:02:36.057Z</time>
      </trkpt>
      <trkpt lat="48.36688" lon="2.52466">
        <ele>86</ele>
        <time>2026-04-17T10:02:40.768Z</time>
      </trkpt>
      <trkpt lat="48.36692" lon="2.52465">
        <ele>86</ele>
        <time>2026-04-17T10:02:45.494Z</time>
      </trkpt>
      <trkpt lat="48.36695" lon="2.52466">
        <ele>86</ele>
        <time>2026-04-17T10:02:49.572Z</time>
      </trkpt>
      <trkpt lat="48.36699" lon="2.5247">
        <ele>86</ele>
        <time>2026-04-17T10:02:53.768Z</time>
      </trkpt>
      <trkpt lat="48.36702" lon="2.52472">
        <ele>86</ele>
        <time>2026-04-17T10:02:58.053Z</time>
      </trkpt>
      <trkpt lat="48.36705" lon="2.52473">
        <ele>86</ele>
        <time>2026-04-17T10:03:02.575Z</time>
      </trkpt>
      <trkpt lat="48.36709" lon="2.52474">
        <ele>83</ele>
        <time>2026-04-17T10:03:06.758Z</time>
      </trkpt>
      <trkpt lat="48.36713" lon="2.52472">
        <ele>83</ele>
        <time>2026-04-17T10:03:11.193Z</time>
      </trkpt>
      <trkpt lat="48.36718" lon="2.5247">
        <ele>83</ele>
        <time>2026-04-17T10:03:15.451Z</time>
      </trkpt>
      <trkpt lat="48.36721" lon="2.52468">
        <ele>83</ele>
        <time>2026-04-17T10:03:19.478Z</time>
      </trkpt>
      <trkpt lat="48.36725" lon="2.52467">
        <ele>83</ele>
        <time>2026-04-17T10:03:24.016Z</time>
      </trkpt>
      <trkpt lat="48.36728" lon="2.52473">
        <ele>83</ele>
        <time>2026-04-17T10:03:28.275Z</time>
      </trkpt>
      <trkpt lat="48.36733" lon="2.52476">
        <ele>83</ele>
        <time>2026-04-17T10:03:32.635Z</time>
      </trkpt>
      <trkpt lat="48.36737" lon="2.52479">
        <ele>81</ele>
        <time>2026-04-17T10:03:36.756Z</time>
      </trkpt>
      <trkpt lat="48.36741" lon="2.52484">
        <ele>81</ele>
        <time>2026-04-17T10:03:40.768Z</time>
      </trkpt>
      <trkpt lat="48.36742" lon="2.52491">
        <ele>79</ele>
        <time>2026-04-17T10:03:45.434Z</time>
      </trkpt>
      <trkpt lat="48.36745" lon="2.52499">
        <ele>79</ele>
        <time>2026-04-17T10:03:49.913Z</time>
      </trkpt>
      <trkpt lat="48.36748" lon="2.52505">
        <ele>79</ele>
        <time>2026-04-17T10:03:53.936Z</time>
      </trkpt>
      <trkpt lat="48.36752" lon="2.52508">
        <ele>79</ele>
        <time>2026-04-17T10:03:58.591Z</time>
      </trkpt>
      <trkpt lat="48.36756" lon="2.52511">
        <ele>79</ele>
        <time>2026-04-17T10:04:02.678Z</time>
      </trkpt>
      <trkpt lat="48.36759" lon="2.52516">
        <ele>77</ele>
        <time>2026-04-17T10:04:07.250Z</time>
      </trkpt>
      <trkpt lat="48.36762" lon="2.5252">
        <ele>77</ele>
        <time>2026-04-17T10:04:11.768Z</time>
      </trkpt>
      <trkpt lat="48.36765" lon="2.52525">
        <ele>76</ele>
        <time>2026-04-17T10:04:16.337Z</time>
      </trkpt>
      <trkpt lat="48.36769" lon="2.5253">
        <ele>76</ele>
        <time>2026-04-17T10:04:20.655Z</time>
      </trkpt>
      <trkpt lat="48.36781" lon="2.5253">
        <ele>76</ele>
        <time>2026-04-17T10:04:24.782Z</time>
      </trkpt>
      <trkpt lat="48.36782" lon="2.5253">
        <ele>76</ele>
        <time>2026-04-17T10:04:37.071Z</time>
      </trkpt>
      <trkpt lat="48.36785" lon="2.52536">
        <ele>76</ele>
        <time>2026-04-17T10:04:54.768Z</time>
      </trkpt>
      <trkpt lat="48.36787" lon="2.52539">
        <ele>76</ele>
        <time>2026-04-17T10:04:59.362Z</time>
      </trkpt>
      <trkpt lat="48.36791" lon="2.52541">
        <ele>76</ele>
        <time>2026-04-17T10:05:03.768Z</time>
      </trkpt>
      <trkpt lat="48.36794" lon="2.52545">
        <ele>78</ele>
        <time>2026-04-17T10:05:08.035Z</time>
      </trkpt>
      <trkpt lat="48.36796" lon="2.5255">
        <ele>78</ele>
        <time>2026-04-17T10:05:12.754Z</time>
      </trkpt>
      <trkpt lat="48.36802" lon="2.52564">
        <ele>78</ele>
        <time>2026-04-17T10:05:17.276Z</time>
      </trkpt>
      <trkpt lat="48.36802" lon="2.52564">
        <ele>78</ele>
        <time>2026-04-17T10:05:21.768Z</time>
      </trkpt>
      <trkpt lat="48.36802" lon="2.52564">
        <ele>78</ele>
        <time>2026-04-17T10:05:26.031Z</time>
      </trkpt>
      <trkpt lat="48.36802" lon="2.52565">
        <ele>78</ele>
        <time>2026-04-17T10:05:30.210Z</time>
      </trkpt>
      <trkpt lat="48.368" lon="2.52571">
        <ele>79</ele>
        <time>2026-04-17T10:05:44.768Z</time>
      </trkpt>
      <trkpt lat="48.36799" lon="2.52582">
        <ele>79</ele>
        <time>2026-04-17T10:05:50.250Z</time>
      </trkpt>
      <trkpt lat="48.36795" lon="2.52585">
        <ele>79</ele>
        <time>2026-04-17T10:05:54.768Z</time>
      </trkpt>
      <trkpt lat="48.36791" lon="2.5259">
        <ele>76</ele>
        <time>2026-04-17T10:05:59.255Z</time>
      </trkpt>
      <trkpt lat="48.36787" lon="2.52594">
        <ele>76</ele>
        <time>2026-04-17T10:06:03.573Z</time>
      </trkpt>
      <trkpt lat="48.36782" lon="2.52599">
        <ele>77</ele>
        <time>2026-04-17T10:06:49.768Z</time>
      </trkpt>
      <trkpt lat="48.36778" lon="2.52604">
        <ele>77</ele>
        <time>2026-04-17T10:06:54.238Z</time>
      </trkpt>
      <trkpt lat="48.36774" lon="2.52609">
        <ele>77</ele>
        <time>2026-04-17T10:06:58.615Z</time>
      </trkpt>
      <trkpt lat="48.36771" lon="2.52614">
        <ele>77</ele>
        <time>2026-04-17T10:07:02.953Z</time>
      </trkpt>
      <trkpt lat="48.36767" lon="2.52618">
        <ele>77</ele>
        <time>2026-04-17T10:07:07.318Z</time>
      </trkpt>
      <trkpt lat="48.36763" lon="2.52623">
        <ele>76</ele>
        <time>2026-04-17T10:07:11.609Z</time>
      </trkpt>
      <trkpt lat="48.36759" lon="2.52628">
        <ele>77</ele>
        <time>2026-04-17T10:07:16.012Z</time>
      </trkpt>
      <trkpt lat="48.36755" lon="2.52634">
        <ele>77</ele>
        <time>2026-04-17T10:07:20.032Z</time>
      </trkpt>
      <trkpt lat="48.36752" lon="2.5264">
        <ele>77</ele>
        <time>2026-04-17T10:07:24.093Z</time>
      </trkpt>
      <trkpt lat="48.36747" lon="2.52645">
        <ele>77</ele>
        <time>2026-04-17T10:07:28.555Z</time>
      </trkpt>
      <trkpt lat="48.36741" lon="2.52649">
        <ele>77</ele>
        <time>2026-04-17T10:07:33.077Z</time>
      </trkpt>
      <trkpt lat="48.36736" lon="2.52651">
        <ele>77</ele>
        <time>2026-04-17T10:07:37.616Z</time>
      </trkpt>
      <trkpt lat="48.3673" lon="2.52654">
        <ele>77</ele>
        <time>2026-04-17T10:07:42.053Z</time>
      </trkpt>
      <trkpt lat="48.36724" lon="2.52657">
        <ele>77</ele>
        <time>2026-04-17T10:07:46.459Z</time>
      </trkpt>
      <trkpt lat="48.36718" lon="2.52657">
        <ele>77</ele>
        <time>2026-04-17T10:07:50.996Z</time>
      </trkpt>
      <trkpt lat="48.36713" lon="2.52657">
        <ele>77</ele>
        <time>2026-04-17T10:07:55.517Z</time>
      </trkpt>
      <trkpt lat="48.36709" lon="2.52658">
        <ele>77</ele>
        <time>2026-04-17T10:08:00.056Z</time>
      </trkpt>
      <trkpt lat="48.36705" lon="2.52659">
        <ele>77</ele>
        <time>2026-04-17T10:08:04.451Z</time>
      </trkpt>
      <trkpt lat="48.36705" lon="2.52659">
        <ele>77</ele>
        <time>2026-04-17T10:08:09.015Z</time>
      </trkpt>
      <trkpt lat="48.36703" lon="2.52659">
        <ele>77</ele>
        <time>2026-04-17T10:08:13.136Z</time>
      </trkpt>
      <trkpt lat="48.36698" lon="2.52659">
        <ele>77</ele>
        <time>2026-04-17T10:08:17.411Z</time>
      </trkpt>
      <trkpt lat="48.36693" lon="2.52656">
        <ele>77</ele>
        <time>2026-04-17T10:08:31.768Z</time>
      </trkpt>
      <trkpt lat="48.36683" lon="2.52653">
        <ele>77</ele>
        <time>2026-04-17T10:08:40.768Z</time>
      </trkpt>
      <trkpt lat="48.36682" lon="2.52652">
        <ele>77</ele>
        <time>2026-04-17T10:08:45.192Z</time>
      </trkpt>
      <trkpt lat="48.36679" lon="2.52651">
        <ele>77</ele>
        <time>2026-04-17T10:08:49.631Z</time>
      </trkpt>
      <trkpt lat="48.36673" lon="2.5265">
        <ele>77</ele>
        <time>2026-04-17T10:08:54.177Z</time>
      </trkpt>
      <trkpt lat="48.36668" lon="2.52649">
        <ele>77</ele>
        <time>2026-04-17T10:09:13.768Z</time>
      </trkpt>
      <trkpt lat="48.36663" lon="2.52649">
        <ele>77</ele>
        <time>2026-04-17T10:09:18.077Z</time>
      </trkpt>
      <trkpt lat="48.36657" lon="2.52647">
        <ele>77</ele>
        <time>2026-04-17T10:09:22.496Z</time>
      </trkpt>
      <trkpt lat="48.36652" lon="2.52647">
        <ele>76</ele>
        <time>2026-04-17T10:09:26.574Z</time>
      </trkpt>
      <trkpt lat="48.36646" lon="2.52646">
        <ele>76</ele>
        <time>2026-04-17T10:09:30.768Z</time>
      </trkpt>
      <trkpt lat="48.36641" lon="2.52648">
        <ele>76</ele>
        <time>2026-04-17T10:09:35.014Z</time>
      </trkpt>
      <trkpt lat="48.36635" lon="2.52649">
        <ele>76</ele>
        <time>2026-04-17T10:09:39.570Z</time>
      </trkpt>
      <trkpt lat="48.36629" lon="2.52649">
        <ele>76</ele>
        <time>2026-04-17T10:09:44.059Z</time>
      </trkpt>
      <trkpt lat="48.36623" lon="2.5265">
        <ele>75</ele>
        <time>2026-04-17T10:09:48.452Z</time>
      </trkpt>
      <trkpt lat="48.36618" lon="2.52652">
        <ele>75</ele>
        <time>2026-04-17T10:09:52.768Z</time>
      </trkpt>
      <trkpt lat="48.36612" lon="2.52654">
        <ele>76</ele>
        <time>2026-04-17T10:09:57.275Z</time>
      </trkpt>
      <trkpt lat="48.36606" lon="2.52657">
        <ele>76</ele>
        <time>2026-04-17T10:10:01.558Z</time>
      </trkpt>
      <trkpt lat="48.36602" lon="2.52661">
        <ele>76</ele>
        <time>2026-04-17T10:10:05.918Z</time>
      </trkpt>
      <trkpt lat="48.36597" lon="2.52665">
        <ele>75</ele>
        <time>2026-04-17T10:10:10.235Z</time>
      </trkpt>
      <trkpt lat="48.36593" lon="2.52669">
        <ele>75</ele>
        <time>2026-04-17T10:10:14.595Z</time>
      </trkpt>
      <trkpt lat="48.36589" lon="2.52672">
        <ele>75</ele>
        <time>2026-04-17T10:10:19.152Z</time>
      </trkpt>
      <trkpt lat="48.36589" lon="2.52676">
        <ele>75</ele>
        <time>2026-04-17T10:10:23.536Z</time>
      </trkpt>
      <trkpt lat="48.36587" lon="2.52681">
        <ele>77</ele>
        <time>2026-04-17T10:10:28.016Z</time>
      </trkpt>
      <trkpt lat="48.36585" lon="2.52688">
        <ele>77</ele>
        <time>2026-04-17T10:10:32.214Z</time>
      </trkpt>
      <trkpt lat="48.36582" lon="2.52698">
        <ele>77</ele>
        <time>2026-04-17T10:10:36.677Z</time>
      </trkpt>
      <trkpt lat="48.3658" lon="2.52717">
        <ele>78</ele>
        <time>2026-04-17T10:10:41.033Z</time>
      </trkpt>
      <trkpt lat="48.36579" lon="2.52728">
        <ele>78</ele>
        <time>2026-04-17T10:10:45.432Z</time>
      </trkpt>
      <trkpt lat="48.36577" lon="2.52751">
        <ele>79</ele>
        <time>2026-04-17T10:10:49.971Z</time>
      </trkpt>
      <trkpt lat="48.3657" lon="2.52771">
        <ele>79</ele>
        <time>2026-04-17T10:10:54.389Z</time>
      </trkpt>
      <trkpt lat="48.36575" lon="2.52789">
        <ele>79</ele>
        <time>2026-04-17T10:10:58.781Z</time>
      </trkpt>
      <trkpt lat="48.36576" lon="2.52807">
        <ele>78</ele>
        <time>2026-04-17T10:11:03.135Z</time>
      </trkpt>
      <trkpt lat="48.36569" lon="2.52825">
        <ele>77</ele>
        <time>2026-04-17T10:11:07.573Z</time>
      </trkpt>
      <trkpt lat="48.36565" lon="2.52839">
        <ele>77</ele>
        <time>2026-04-17T10:11:11.915Z</time>
      </trkpt>
      <trkpt lat="48.36555" lon="2.5286">
        <ele>77</ele>
        <time>2026-04-17T10:11:16.309Z</time>
      </trkpt>
      <trkpt lat="48.36561" lon="2.52863">
        <ele>77</ele>
        <time>2026-04-17T10:11:20.768Z</time>
      </trkpt>
      <trkpt lat="48.36565" lon="2.52867">
        <ele>77</ele>
        <time>2026-04-17T10:11:25.235Z</time>
      </trkpt>
      <trkpt lat="48.3657" lon="2.52871">
        <ele>76</ele>
        <time>2026-04-17T10:11:29.654Z</time>
      </trkpt>
      <trkpt lat="48.36575" lon="2.52875">
        <ele>76</ele>
        <time>2026-04-17T10:11:34.032Z</time>
      </trkpt>
      <trkpt lat="48.36579" lon="2.5288">
        <ele>76</ele>
        <time>2026-04-17T10:11:38.374Z</time>
      </trkpt>
      <trkpt lat="48.36584" lon="2.52885">
        <ele>76</ele>
        <time>2026-04-17T10:11:42.675Z</time>
      </trkpt>
      <trkpt lat="48.36589" lon="2.52889">
        <ele>76</ele>
        <time>2026-04-17T10:11:47.197Z</time>
      </trkpt>
      <trkpt lat="48.36594" lon="2.52893">
        <ele>76</ele>
        <time>2026-04-17T10:11:51.514Z</time>
      </trkpt>
      <trkpt lat="48.36599" lon="2.52898">
        <ele>75</ele>
        <time>2026-04-17T10:11:55.917Z</time>
      </trkpt>
      <trkpt lat="48.36604" lon="2.52902">
        <ele>75</ele>
        <time>2026-04-17T10:12:00.397Z</time>
      </trkpt>
      <trkpt lat="48.36609" lon="2.52907">
        <ele>76</ele>
        <time>2026-04-17T10:12:04.965Z</time>
      </trkpt>
      <trkpt lat="48.36614" lon="2.52912">
        <ele>76</ele>
        <time>2026-04-17T10:12:09.313Z</time>
      </trkpt>
      <trkpt lat="48.36619" lon="2.52916">
        <ele>76</ele>
        <time>2026-04-17T10:12:13.775Z</time>
      </trkpt>
      <trkpt lat="48.36624" lon="2.52921">
        <ele>76</ele>
        <time>2026-04-17T10:12:18.357Z</time>
      </trkpt>
      <trkpt lat="48.36629" lon="2.52926">
        <ele>77</ele>
        <time>2026-04-17T10:12:22.768Z</time>
      </trkpt>
      <trkpt lat="48.36634" lon="2.52929">
        <ele>77</ele>
        <time>2026-04-17T10:12:27.436Z</time>
      </trkpt>
      <trkpt lat="48.3664" lon="2.52933">
        <ele>78</ele>
        <time>2026-04-17T10:12:31.616Z</time>
      </trkpt>
      <trkpt lat="48.36645" lon="2.52937">
        <ele>78</ele>
        <time>2026-04-17T10:12:35.737Z</time>
      </trkpt>
      <trkpt lat="48.36649" lon="2.52943">
        <ele>78</ele>
        <time>2026-04-17T10:12:40.335Z</time>
      </trkpt>
      <trkpt lat="48.36654" lon="2.52948">
        <ele>78</ele>
        <time>2026-04-17T10:12:44.734Z</time>
      </trkpt>
      <trkpt lat="48.36659" lon="2.52953">
        <ele>78</ele>
        <time>2026-04-17T10:12:49.252Z</time>
      </trkpt>
      <trkpt lat="48.36664" lon="2.52957">
        <ele>78</ele>
        <time>2026-04-17T10:12:53.778Z</time>
      </trkpt>
      <trkpt lat="48.36669" lon="2.52962">
        <ele>79</ele>
        <time>2026-04-17T10:12:58.152Z</time>
      </trkpt>
      <trkpt lat="48.36673" lon="2.52966">
        <ele>79</ele>
        <time>2026-04-17T10:13:02.350Z</time>
      </trkpt>
      <trkpt lat="48.36677" lon="2.52971">
        <ele>79</ele>
        <time>2026-04-17T10:13:06.592Z</time>
      </trkpt>
      <trkpt lat="48.36677" lon="2.52971">
        <ele>79</ele>
        <time>2026-04-17T10:13:10.730Z</time>
      </trkpt>
      <trkpt lat="48.36674" lon="2.52972">
        <ele>79</ele>
        <time>2026-04-17T10:13:14.893Z</time>
      </trkpt>
      <trkpt lat="48.3668" lon="2.52976">
        <ele>79</ele>
        <time>2026-04-17T10:13:19.193Z</time>
      </trkpt>
      <trkpt lat="48.36686" lon="2.5298">
        <ele>78</ele>
        <time>2026-04-17T10:13:23.451Z</time>
      </trkpt>
      <trkpt lat="48.36691" lon="2.52983">
        <ele>78</ele>
        <time>2026-04-17T10:13:27.768Z</time>
      </trkpt>
      <trkpt lat="48.36695" lon="2.52987">
        <ele>78</ele>
        <time>2026-04-17T10:13:32.205Z</time>
      </trkpt>
      <trkpt lat="48.36699" lon="2.5299">
        <ele>78</ele>
        <time>2026-04-17T10:13:36.471Z</time>
      </trkpt>
      <trkpt lat="48.36702" lon="2.52994">
        <ele>78</ele>
        <time>2026-04-17T10:13:40.768Z</time>
      </trkpt>
      <trkpt lat="48.36706" lon="2.52998">
        <ele>78</ele>
        <time>2026-04-17T10:13:45.106Z</time>
      </trkpt>
      <trkpt lat="48.36711" lon="2.53002">
        <ele>77</ele>
        <time>2026-04-17T10:13:49.346Z</time>
      </trkpt>
      <trkpt lat="48.36715" lon="2.53007">
        <ele>77</ele>
        <time>2026-04-17T10:13:53.612Z</time>
      </trkpt>
      <trkpt lat="48.3672" lon="2.53012">
        <ele>77</ele>
        <time>2026-04-17T10:13:57.845Z</time>
      </trkpt>
      <trkpt lat="48.36724" lon="2.53017">
        <ele>77</ele>
        <time>2026-04-17T10:14:02.068Z</time>
      </trkpt>
      <trkpt lat="48.36727" lon="2.53022">
        <ele>77</ele>
        <time>2026-04-17T10:14:06.293Z</time>
      </trkpt>
      <trkpt lat="48.36733" lon="2.53032">
        <ele>77</ele>
        <time>2026-04-17T10:14:10.568Z</time>
      </trkpt>
      <trkpt lat="48.36735" lon="2.53037">
        <ele>77</ele>
        <time>2026-04-17T10:14:14.768Z</time>
      </trkpt>
      <trkpt lat="48.36737" lon="2.53046">
        <ele>76</ele>
        <time>2026-04-17T10:14:19.125Z</time>
      </trkpt>
      <trkpt lat="48.36735" lon="2.53057">
        <ele>76</ele>
        <time>2026-04-17T10:14:23.451Z</time>
      </trkpt>
      <trkpt lat="48.36732" lon="2.53065">
        <ele>76</ele>
        <time>2026-04-17T10:14:27.768Z</time>
      </trkpt>
      <trkpt lat="48.3673" lon="2.53073">
        <ele>75</ele>
        <time>2026-04-17T10:14:31.991Z</time>
      </trkpt>
      <trkpt lat="48.36728" lon="2.5308">
        <ele>75</ele>
        <time>2026-04-17T10:14:36.309Z</time>
      </trkpt>
      <trkpt lat="48.36726" lon="2.53088">
        <ele>75</ele>
        <time>2026-04-17T10:14:40.686Z</time>
      </trkpt>
      <trkpt lat="48.36724" lon="2.53095">
        <ele>75</ele>
        <time>2026-04-17T10:14:44.927Z</time>
      </trkpt>
      <trkpt lat="48.36722" lon="2.53104">
        <ele>75</ele>
        <time>2026-04-17T10:14:49.210Z</time>
      </trkpt>
      <trkpt lat="48.36721" lon="2.53111">
        <ele>75</ele>
        <time>2026-04-17T10:14:53.509Z</time>
      </trkpt>
      <trkpt lat="48.3672" lon="2.53119">
        <ele>75</ele>
        <time>2026-04-17T10:14:57.768Z</time>
      </trkpt>
      <trkpt lat="48.36719" lon="2.53126">
        <ele>75</ele>
        <time>2026-04-17T10:15:02.273Z</time>
      </trkpt>
      <trkpt lat="48.36713" lon="2.53137">
        <ele>75</ele>
        <time>2026-04-17T10:15:06.548Z</time>
      </trkpt>
      <trkpt lat="48.36712" lon="2.53139">
        <ele>75</ele>
        <time>2026-04-17T10:15:10.768Z</time>
      </trkpt>
      <trkpt lat="48.36706" lon="2.53142">
        <ele>76</ele>
        <time>2026-04-17T10:15:15.448Z</time>
      </trkpt>
      <trkpt lat="48.36703" lon="2.53146">
        <ele>76</ele>
        <time>2026-04-17T10:15:19.909Z</time>
      </trkpt>
      <trkpt lat="48.367" lon="2.53151">
        <ele>76</ele>
        <time>2026-04-17T10:15:24.312Z</time>
      </trkpt>
      <trkpt lat="48.36697" lon="2.53157">
        <ele>76</ele>
        <time>2026-04-17T10:15:28.647Z</time>
      </trkpt>
      <trkpt lat="48.36693" lon="2.53164">
        <ele>76</ele>
        <time>2026-04-17T10:15:32.950Z</time>
      </trkpt>
      <trkpt lat="48.3669" lon="2.5317">
        <ele>76</ele>
        <time>2026-04-17T10:15:37.231Z</time>
      </trkpt>
      <trkpt lat="48.36687" lon="2.53176">
        <ele>76</ele>
        <time>2026-04-17T10:15:41.532Z</time>
      </trkpt>
      <trkpt lat="48.36684" lon="2.53183">
        <ele>76</ele>
        <time>2026-04-17T10:15:45.777Z</time>
      </trkpt>
      <trkpt lat="48.36681" lon="2.53189">
        <ele>76</ele>
        <time>2026-04-17T10:15:50.105Z</time>
      </trkpt>
      <trkpt lat="48.3668" lon="2.53197">
        <ele>76</ele>
        <time>2026-04-17T10:15:54.406Z</time>
      </trkpt>
      <trkpt lat="48.36679" lon="2.53207">
        <ele>76</ele>
        <time>2026-04-17T10:15:58.749Z</time>
      </trkpt>
      <trkpt lat="48.3668" lon="2.53216">
        <ele>77</ele>
        <time>2026-04-17T10:16:03.109Z</time>
      </trkpt>
      <trkpt lat="48.3668" lon="2.53224">
        <ele>77</ele>
        <time>2026-04-17T10:16:07.768Z</time>
      </trkpt>
      <trkpt lat="48.36679" lon="2.53231">
        <ele>77</ele>
        <time>2026-04-17T10:16:12.187Z</time>
      </trkpt>
      <trkpt lat="48.3668" lon="2.53239">
        <ele>79</ele>
        <time>2026-04-17T10:16:16.548Z</time>
      </trkpt>
      <trkpt lat="48.3668" lon="2.53246">
        <ele>79</ele>
        <time>2026-04-17T10:16:20.938Z</time>
      </trkpt>
      <trkpt lat="48.3668" lon="2.53254">
        <ele>79</ele>
        <time>2026-04-17T10:16:25.251Z</time>
      </trkpt>
      <trkpt lat="48.36681" lon="2.53262">
        <ele>79</ele>
        <time>2026-04-17T10:16:29.568Z</time>
      </trkpt>
      <trkpt lat="48.3668" lon="2.53269">
        <ele>79</ele>
        <time>2026-04-17T10:16:33.970Z</time>
      </trkpt>
      <trkpt lat="48.36677" lon="2.53275">
        <ele>79</ele>
        <time>2026-04-17T10:16:38.247Z</time>
      </trkpt>
      <trkpt lat="48.36673" lon="2.53281">
        <ele>79</ele>
        <time>2026-04-17T10:16:42.648Z</time>
      </trkpt>
      <trkpt lat="48.36669" lon="2.53288">
        <ele>79</ele>
        <time>2026-04-17T10:16:47.085Z</time>
      </trkpt>
      <trkpt lat="48.36665" lon="2.53295">
        <ele>79</ele>
        <time>2026-04-17T10:16:51.505Z</time>
      </trkpt>
      <trkpt lat="48.36662" lon="2.53301">
        <ele>79</ele>
        <time>2026-04-17T10:16:55.686Z</time>
      </trkpt>
      <trkpt lat="48.36659" lon="2.53308">
        <ele>79</ele>
        <time>2026-04-17T10:17:00.690Z</time>
      </trkpt>
      <trkpt lat="48.36656" lon="2.53315">
        <ele>79</ele>
        <time>2026-04-17T10:17:04.768Z</time>
      </trkpt>
      <trkpt lat="48.36654" lon="2.53322">
        <ele>79</ele>
        <time>2026-04-17T10:17:43.390Z</time>
      </trkpt>
      <trkpt lat="48.36652" lon="2.5333">
        <ele>80</ele>
        <time>2026-04-17T10:17:47.767Z</time>
      </trkpt>
      <trkpt lat="48.3665" lon="2.53338">
        <ele>80</ele>
        <time>2026-04-17T10:17:51.990Z</time>
      </trkpt>
      <trkpt lat="48.36649" lon="2.53347">
        <ele>80</ele>
        <time>2026-04-17T10:17:56.264Z</time>
      </trkpt>
      <trkpt lat="48.36649" lon="2.53354">
        <ele>81</ele>
        <time>2026-04-17T10:18:00.326Z</time>
      </trkpt>
      <trkpt lat="48.36648" lon="2.53362">
        <ele>81</ele>
        <time>2026-04-17T10:18:04.652Z</time>
      </trkpt>
      <trkpt lat="48.36646" lon="2.53369">
        <ele>81</ele>
        <time>2026-04-17T10:18:08.768Z</time>
      </trkpt>
      <trkpt lat="48.36646" lon="2.53376">
        <ele>82</ele>
        <time>2026-04-17T10:18:13.283Z</time>
      </trkpt>
      <trkpt lat="48.36647" lon="2.53383">
        <ele>82</ele>
        <time>2026-04-17T10:18:17.392Z</time>
      </trkpt>
      <trkpt lat="48.36648" lon="2.53387">
        <ele>82</ele>
        <time>2026-04-17T10:18:21.937Z</time>
      </trkpt>
      <trkpt lat="48.3665" lon="2.53392">
        <ele>82</ele>
        <time>2026-04-17T10:18:26.367Z</time>
      </trkpt>
      <trkpt lat="48.36651" lon="2.53397">
        <ele>82</ele>
        <time>2026-04-17T10:18:30.411Z</time>
      </trkpt>
      <trkpt lat="48.36651" lon="2.53404">
        <ele>84</ele>
        <time>2026-04-17T10:18:34.687Z</time>
      </trkpt>
      <trkpt lat="48.36655" lon="2.53406">
        <ele>81</ele>
        <time>2026-04-17T10:18:47.768Z</time>
      </trkpt>
      <trkpt lat="48.36653" lon="2.53413">
        <ele>81</ele>
        <time>2026-04-17T10:18:51.960Z</time>
      </trkpt>
      <trkpt lat="48.36654" lon="2.53426">
        <ele>81</ele>
        <time>2026-04-17T10:18:56.024Z</time>
      </trkpt>
      <trkpt lat="48.36654" lon="2.53435">
        <ele>82</ele>
        <time>2026-04-17T10:19:00.531Z</time>
      </trkpt>
      <trkpt lat="48.36655" lon="2.53442">
        <ele>82</ele>
        <time>2026-04-17T10:19:04.768Z</time>
      </trkpt>
      <trkpt lat="48.36657" lon="2.53449">
        <ele>82</ele>
        <time>2026-04-17T10:19:09.011Z</time>
      </trkpt>
      <trkpt lat="48.3666" lon="2.53454">
        <ele>82</ele>
        <time>2026-04-17T10:19:13.210Z</time>
      </trkpt>
      <trkpt lat="48.36661" lon="2.53461">
        <ele>85</ele>
        <time>2026-04-17T10:19:17.672Z</time>
      </trkpt>
      <trkpt lat="48.36663" lon="2.53466">
        <ele>85</ele>
        <time>2026-04-17T10:19:21.870Z</time>
      </trkpt>
      <trkpt lat="48.3667" lon="2.53475">
        <ele>85</ele>
        <time>2026-04-17T10:19:26.289Z</time>
      </trkpt>
      <trkpt lat="48.36671" lon="2.53472">
        <ele>85</ele>
        <time>2026-04-17T10:19:30.754Z</time>
      </trkpt>
      <trkpt lat="48.36674" lon="2.53466">
        <ele>85</ele>
        <time>2026-04-17T10:19:35.129Z</time>
      </trkpt>
      <trkpt lat="48.36676" lon="2.53459">
        <ele>85</ele>
        <time>2026-04-17T10:19:39.310Z</time>
      </trkpt>
      <trkpt lat="48.3668" lon="2.53453">
        <ele>82</ele>
        <time>2026-04-17T10:21:07.768Z</time>
      </trkpt>
      <trkpt lat="48.36682" lon="2.53446">
        <ele>84</ele>
        <time>2026-04-17T10:21:12.151Z</time>
      </trkpt>
      <trkpt lat="48.36684" lon="2.53439">
        <ele>84</ele>
        <time>2026-04-17T10:21:16.212Z</time>
      </trkpt>
      <trkpt lat="48.36686" lon="2.53432">
        <ele>84</ele>
        <time>2026-04-17T10:21:20.291Z</time>
      </trkpt>
      <trkpt lat="48.3669" lon="2.53427">
        <ele>82</ele>
        <time>2026-04-17T10:21:24.778Z</time>
      </trkpt>
      <trkpt lat="48.36694" lon="2.53426">
        <ele>82</ele>
        <time>2026-04-17T10:21:28.967Z</time>
      </trkpt>
      <trkpt lat="48.36699" lon="2.53426">
        <ele>82</ele>
        <time>2026-04-17T10:21:33.370Z</time>
      </trkpt>
      <trkpt lat="48.367" lon="2.53427">
        <ele>82</ele>
        <time>2026-04-17T10:21:37.552Z</time>
      </trkpt>
      <trkpt lat="48.36703" lon="2.53426">
        <ele>82</ele>
        <time>2026-04-17T10:21:41.647Z</time>
      </trkpt>
      <trkpt lat="48.36705" lon="2.53421">
        <ele>82</ele>
        <time>2026-04-17T10:21:46.049Z</time>
      </trkpt>
      <trkpt lat="48.36706" lon="2.53415">
        <ele>82</ele>
        <time>2026-04-17T10:21:50.068Z</time>
      </trkpt>
      <trkpt lat="48.36708" lon="2.53416">
        <ele>82</ele>
        <time>2026-04-17T10:22:12.064Z</time>
      </trkpt>
      <trkpt lat="48.36712" lon="2.53422">
        <ele>85</ele>
        <time>2026-04-17T10:22:16.168Z</time>
      </trkpt>
      <trkpt lat="48.36712" lon="2.5343">
        <ele>85</ele>
        <time>2026-04-17T10:22:20.665Z</time>
      </trkpt>
      <trkpt lat="48.36714" lon="2.53436">
        <ele>87</ele>
        <time>2026-04-17T10:22:24.768Z</time>
      </trkpt>
      <trkpt lat="48.36716" lon="2.53441">
        <ele>87</ele>
        <time>2026-04-17T10:22:28.967Z</time>
      </trkpt>
      <trkpt lat="48.36719" lon="2.53449">
        <ele>87</ele>
        <time>2026-04-17T10:22:33.047Z</time>
      </trkpt>
      <trkpt lat="48.36723" lon="2.53452">
        <ele>87</ele>
        <time>2026-04-17T10:22:37.286Z</time>
      </trkpt>
      <trkpt lat="48.36726" lon="2.53456">
        <ele>87</ele>
        <time>2026-04-17T10:22:41.732Z</time>
      </trkpt>
      <trkpt lat="48.36727" lon="2.53462">
        <ele>89</ele>
        <time>2026-04-17T10:22:46.210Z</time>
      </trkpt>
      <trkpt lat="48.36727" lon="2.53468">
        <ele>89</ele>
        <time>2026-04-17T10:22:50.750Z</time>
      </trkpt>
      <trkpt lat="48.36731" lon="2.53473">
        <ele>89</ele>
        <time>2026-04-17T10:22:55.230Z</time>
      </trkpt>
      <trkpt lat="48.36734" lon="2.53477">
        <ele>89</ele>
        <time>2026-04-17T10:22:59.691Z</time>
      </trkpt>
      <trkpt lat="48.36734" lon="2.53484">
        <ele>89</ele>
        <time>2026-04-17T10:23:04.111Z</time>
      </trkpt>
      <trkpt lat="48.36735" lon="2.53491">
        <ele>90</ele>
        <time>2026-04-17T10:23:08.147Z</time>
      </trkpt>
      <trkpt lat="48.36738" lon="2.53497">
        <ele>94</ele>
        <time>2026-04-17T10:23:12.652Z</time>
      </trkpt>
      <trkpt lat="48.3674" lon="2.53503">
        <ele>94</ele>
        <time>2026-04-17T10:23:17.030Z</time>
      </trkpt>
      <trkpt lat="48.3674" lon="2.53509">
        <ele>94</ele>
        <time>2026-04-17T10:23:21.586Z</time>
      </trkpt>
      <trkpt lat="48.3674" lon="2.53513">
        <ele>94</ele>
        <time>2026-04-17T10:23:25.631Z</time>
      </trkpt>
      <trkpt lat="48.36739" lon="2.53513">
        <ele>94</ele>
        <time>2026-04-17T10:23:30.109Z</time>
      </trkpt>
      <trkpt lat="48.3674" lon="2.53517">
        <ele>95</ele>
        <time>2026-04-17T10:23:34.572Z</time>
      </trkpt>
      <trkpt lat="48.36743" lon="2.53515">
        <ele>95</ele>
        <time>2026-04-17T10:23:38.992Z</time>
      </trkpt>
      <trkpt lat="48.36745" lon="2.5351">
        <ele>94</ele>
        <time>2026-04-17T10:23:43.471Z</time>
      </trkpt>
      <trkpt lat="48.36748" lon="2.53507">
        <ele>94</ele>
        <time>2026-04-17T10:23:47.768Z</time>
      </trkpt>
      <trkpt lat="48.3675" lon="2.53503">
        <ele>94</ele>
        <time>2026-04-17T10:23:52.148Z</time>
      </trkpt>
      <trkpt lat="48.36754" lon="2.53501">
        <ele>94</ele>
        <time>2026-04-17T10:23:56.389Z</time>
      </trkpt>
      <trkpt lat="48.36755" lon="2.53508">
        <ele>94</ele>
        <time>2026-04-17T10:24:00.630Z</time>
      </trkpt>
      <trkpt lat="48.36756" lon="2.53516">
        <ele>95</ele>
        <time>2026-04-17T10:24:13.768Z</time>
      </trkpt>
      <trkpt lat="48.3676" lon="2.53516">
        <ele>95</ele>
        <time>2026-04-17T10:24:18.249Z</time>
      </trkpt>
      <trkpt lat="48.36763" lon="2.53512">
        <ele>94</ele>
        <time>2026-04-17T10:24:22.430Z</time>
      </trkpt>
      <trkpt lat="48.36767" lon="2.53515">
        <ele>100</ele>
        <time>2026-04-17T10:24:26.610Z</time>
      </trkpt>
      <trkpt lat="48.36771" lon="2.53519">
        <ele>100</ele>
        <time>2026-04-17T10:24:30.768Z</time>
      </trkpt>
      <trkpt lat="48.36775" lon="2.53519">
        <ele>100</ele>
        <time>2026-04-17T10:24:35.271Z</time>
      </trkpt>
      <trkpt lat="48.36779" lon="2.53515">
        <ele>100</ele>
        <time>2026-04-17T10:24:39.349Z</time>
      </trkpt>
      <trkpt lat="48.36784" lon="2.53517">
        <ele>100</ele>
        <time>2026-04-17T10:24:43.751Z</time>
      </trkpt>
      <trkpt lat="48.36789" lon="2.53517">
        <ele>100</ele>
        <time>2026-04-17T10:24:48.410Z</time>
      </trkpt>
      <trkpt lat="48.36793" lon="2.53512">
        <ele>99</ele>
        <time>2026-04-17T10:26:26.768Z</time>
      </trkpt>
      <trkpt lat="48.36798" lon="2.53511">
        <ele>99</ele>
        <time>2026-04-17T10:26:30.768Z</time>
      </trkpt>
      <trkpt lat="48.36802" lon="2.53514">
        <ele>101</ele>
        <time>2026-04-17T10:26:35.768Z</time>
      </trkpt>
      <trkpt lat="48.36807" lon="2.53516">
        <ele>101</ele>
        <time>2026-04-17T10:26:39.950Z</time>
      </trkpt>
      <trkpt lat="48.36812" lon="2.53518">
        <ele>101</ele>
        <time>2026-04-17T10:26:44.408Z</time>
      </trkpt>
      <trkpt lat="48.36817" lon="2.53518">
        <ele>101</ele>
        <time>2026-04-17T10:26:48.752Z</time>
      </trkpt>
      <trkpt lat="48.36823" lon="2.53516">
        <ele>98</ele>
        <time>2026-04-17T10:26:53.385Z</time>
      </trkpt>
      <trkpt lat="48.36826" lon="2.53511">
        <ele>95</ele>
        <time>2026-04-17T10:26:57.668Z</time>
      </trkpt>
      <trkpt lat="48.36831" lon="2.53509">
        <ele>95</ele>
        <time>2026-04-17T10:27:02.105Z</time>
      </trkpt>
      <trkpt lat="48.36835" lon="2.53508">
        <ele>95</ele>
        <time>2026-04-17T10:27:06.312Z</time>
      </trkpt>
      <trkpt lat="48.36838" lon="2.53503">
        <ele>95</ele>
        <time>2026-04-17T10:27:10.689Z</time>
      </trkpt>
      <trkpt lat="48.36842" lon="2.53504">
        <ele>95</ele>
        <time>2026-04-17T10:27:14.768Z</time>
      </trkpt>
      <trkpt lat="48.36846" lon="2.53506">
        <ele>95</ele>
        <time>2026-04-17T10:27:19.392Z</time>
      </trkpt>
      <trkpt lat="48.36857" lon="2.53493">
        <ele>90</ele>
        <time>2026-04-17T10:27:23.770Z</time>
      </trkpt>
      <trkpt lat="48.36857" lon="2.53493">
        <ele>90</ele>
        <time>2026-04-17T10:27:27.768Z</time>
      </trkpt>
      <trkpt lat="48.3686" lon="2.53493">
        <ele>90</ele>
        <time>2026-04-17T10:27:32.225Z</time>
      </trkpt>
      <trkpt lat="48.36862" lon="2.53486">
        <ele>88</ele>
        <time>2026-04-17T10:27:36.389Z</time>
      </trkpt>
      <trkpt lat="48.36866" lon="2.53485">
        <ele>88</ele>
        <time>2026-04-17T10:27:40.768Z</time>
      </trkpt>
      <trkpt lat="48.36869" lon="2.53491">
        <ele>90</ele>
        <time>2026-04-17T10:27:44.828Z</time>
      </trkpt>
      <trkpt lat="48.36872" lon="2.53492">
        <ele>90</ele>
        <time>2026-04-17T10:27:49.247Z</time>
      </trkpt>
      <trkpt lat="48.36874" lon="2.53496">
        <ele>90</ele>
        <time>2026-04-17T10:27:53.723Z</time>
      </trkpt>
      <trkpt lat="48.36878" lon="2.53492">
        <ele>85</ele>
        <time>2026-04-17T10:27:58.232Z</time>
      </trkpt>
      <trkpt lat="48.3688" lon="2.53489">
        <ele>85</ele>
        <time>2026-04-17T10:28:02.431Z</time>
      </trkpt>
      <trkpt lat="48.3689" lon="2.53487">
        <ele>85</ele>
        <time>2026-04-17T10:28:06.628Z</time>
      </trkpt>
      <trkpt lat="48.3689" lon="2.53487">
        <ele>85</ele>
        <time>2026-04-17T10:28:11.185Z</time>
      </trkpt>
      <trkpt lat="48.3689" lon="2.53488">
        <ele>85</ele>
        <time>2026-04-17T10:28:15.616Z</time>
      </trkpt>
      <trkpt lat="48.3689" lon="2.53488">
        <ele>85</ele>
        <time>2026-04-17T10:28:19.768Z</time>
      </trkpt>
      <trkpt lat="48.36892" lon="2.53488">
        <ele>85</ele>
        <time>2026-04-17T10:28:23.768Z</time>
      </trkpt>
      <trkpt lat="48.36892" lon="2.53488">
        <ele>85</ele>
        <time>2026-04-17T10:28:28.292Z</time>
      </trkpt>
      <trkpt lat="48.36892" lon="2.53488">
        <ele>85</ele>
        <time>2026-04-17T10:28:32.712Z</time>
      </trkpt>
      <trkpt lat="48.36893" lon="2.53488">
        <ele>85</ele>
        <time>2026-04-17T10:28:37.090Z</time>
      </trkpt>
      <trkpt lat="48.36899" lon="2.53493">
        <ele>85</ele>
        <time>2026-04-17T10:28:41.245Z</time>
      </trkpt>
      <trkpt lat="48.369" lon="2.53498">
        <ele>85</ele>
        <time>2026-04-17T10:28:45.392Z</time>
      </trkpt>
      <trkpt lat="48.36903" lon="2.53501">
        <ele>83</ele>
        <time>2026-04-17T10:28:49.768Z</time>
      </trkpt>
      <trkpt lat="48.36908" lon="2.53502">
        <ele>83</ele>
        <time>2026-04-17T10:28:54.188Z</time>
      </trkpt>
      <trkpt lat="48.36911" lon="2.53502">
        <ele>83</ele>
        <time>2026-04-17T10:28:58.711Z</time>
      </trkpt>
      <trkpt lat="48.36916" lon="2.53505">
        <ele>83</ele>
        <time>2026-04-17T10:29:02.768Z</time>
      </trkpt>
      <trkpt lat="48.3692" lon="2.53506">
        <ele>83</ele>
        <time>2026-04-17T10:29:07.767Z</time>
      </trkpt>
      <trkpt lat="48.36924" lon="2.53502">
        <ele>83</ele>
        <time>2026-04-17T10:29:12.466Z</time>
      </trkpt>
      <trkpt lat="48.36928" lon="2.53502">
        <ele>83</ele>
        <time>2026-04-17T10:29:16.768Z</time>
      </trkpt>
      <trkpt lat="48.36929" lon="2.53503">
        <ele>83</ele>
        <time>2026-04-17T10:29:21.348Z</time>
      </trkpt>
      <trkpt lat="48.36929" lon="2.53502">
        <ele>83</ele>
        <time>2026-04-17T10:29:25.768Z</time>
      </trkpt>
      <trkpt lat="48.3693" lon="2.53501">
        <ele>83</ele>
        <time>2026-04-17T10:29:30.392Z</time>
      </trkpt>
      <trkpt lat="48.36931" lon="2.53495">
        <ele>79</ele>
        <time>2026-04-17T10:29:34.770Z</time>
      </trkpt>
      <trkpt lat="48.36934" lon="2.5349">
        <ele>79</ele>
        <time>2026-04-17T10:29:39.189Z</time>
      </trkpt>
      <trkpt lat="48.36937" lon="2.53491">
        <ele>79</ele>
        <time>2026-04-17T10:29:43.778Z</time>
      </trkpt>
      <trkpt lat="48.36938" lon="2.53494">
        <ele>79</ele>
        <time>2026-04-17T10:29:48.072Z</time>
      </trkpt>
      <trkpt lat="48.36942" lon="2.53492">
        <ele>79</ele>
        <time>2026-04-17T10:29:52.210Z</time>
      </trkpt>
      <trkpt lat="48.36945" lon="2.53489">
        <ele>79</ele>
        <time>2026-04-17T10:29:56.570Z</time>
      </trkpt>
      <trkpt lat="48.36947" lon="2.5349">
        <ele>79</ele>
        <time>2026-04-17T10:30:00.871Z</time>
      </trkpt>
      <trkpt lat="48.36952" lon="2.53487">
        <ele>79</ele>
        <time>2026-04-17T10:30:04.992Z</time>
      </trkpt>
      <trkpt lat="48.36955" lon="2.53483">
        <ele>77</ele>
        <time>2026-04-17T10:30:09.045Z</time>
      </trkpt>
      <trkpt lat="48.36959" lon="2.53483">
        <ele>75</ele>
        <time>2026-04-17T10:30:13.447Z</time>
      </trkpt>
      <trkpt lat="48.36962" lon="2.53483">
        <ele>75</ele>
        <time>2026-04-17T10:30:17.492Z</time>
      </trkpt>
      <trkpt lat="48.36966" lon="2.53482">
        <ele>75</ele>
        <time>2026-04-17T10:30:21.588Z</time>
      </trkpt>
      <trkpt lat="48.36971" lon="2.53482">
        <ele>75</ele>
        <time>2026-04-17T10:30:26.023Z</time>
      </trkpt>
      <trkpt lat="48.36976" lon="2.53484">
        <ele>75</ele>
        <time>2026-04-17T10:30:30.119Z</time>
      </trkpt>
      <trkpt lat="48.36981" lon="2.53487">
        <ele>76</ele>
        <time>2026-04-17T10:30:34.310Z</time>
      </trkpt>
      <trkpt lat="48.36985" lon="2.53491">
        <ele>76</ele>
        <time>2026-04-17T10:30:38.464Z</time>
      </trkpt>
      <trkpt lat="48.3699" lon="2.53495">
        <ele>74</ele>
        <time>2026-04-17T10:30:42.944Z</time>
      </trkpt>
      <trkpt lat="48.36995" lon="2.53498">
        <ele>74</ele>
        <time>2026-04-17T10:30:47.553Z</time>
      </trkpt>
      <trkpt lat="48.36999" lon="2.53502">
        <ele>74</ele>
        <time>2026-04-17T10:30:51.937Z</time>
      </trkpt>
      <trkpt lat="48.37003" lon="2.53507">
        <ele>74</ele>
        <time>2026-04-17T10:30:56.391Z</time>
      </trkpt>
      <trkpt lat="48.37008" lon="2.53511">
        <ele>74</ele>
        <time>2026-04-17T10:31:00.489Z</time>
      </trkpt>
      <trkpt lat="48.37012" lon="2.53514">
        <ele>77</ele>
        <time>2026-04-17T10:31:04.652Z</time>
      </trkpt>
      <trkpt lat="48.37016" lon="2.53519">
        <ele>76</ele>
        <time>2026-04-17T10:31:08.766Z</time>
      </trkpt>
      <trkpt lat="48.3702" lon="2.53523">
        <ele>76</ele>
        <time>2026-04-17T10:31:12.768Z</time>
      </trkpt>
      <trkpt lat="48.37026" lon="2.53525">
        <ele>76</ele>
        <time>2026-04-17T10:32:27.767Z</time>
      </trkpt>
      <trkpt lat="48.37031" lon="2.53525">
        <ele>76</ele>
        <time>2026-04-17T10:32:36.232Z</time>
      </trkpt>
      <trkpt lat="48.37037" lon="2.53526">
        <ele>76</ele>
        <time>2026-04-17T10:32:40.430Z</time>
      </trkpt>
      <trkpt lat="48.37042" lon="2.53525">
        <ele>76</ele>
        <time>2026-04-17T10:32:44.552Z</time>
      </trkpt>
      <trkpt lat="48.37046" lon="2.53523">
        <ele>75</ele>
        <time>2026-04-17T10:32:48.955Z</time>
      </trkpt>
      <trkpt lat="48.37051" lon="2.53524">
        <ele>75</ele>
        <time>2026-04-17T10:32:53.529Z</time>
      </trkpt>
      <trkpt lat="48.37056" lon="2.53526">
        <ele>75</ele>
        <time>2026-04-17T10:32:58.008Z</time>
      </trkpt>
      <trkpt lat="48.3706" lon="2.53527">
        <ele>75</ele>
        <time>2026-04-17T10:33:02.410Z</time>
      </trkpt>
      <trkpt lat="48.37066" lon="2.53528">
        <ele>75</ele>
        <time>2026-04-17T10:33:06.685Z</time>
      </trkpt>
      <trkpt lat="48.37071" lon="2.53529">
        <ele>75</ele>
        <time>2026-04-17T10:33:11.768Z</time>
      </trkpt>
      <trkpt lat="48.37077" lon="2.53529">
        <ele>75</ele>
        <time>2026-04-17T10:34:28.768Z</time>
      </trkpt>
      <trkpt lat="48.37082" lon="2.53528">
        <ele>75</ele>
        <time>2026-04-17T10:34:34.764Z</time>
      </trkpt>
      <trkpt lat="48.37087" lon="2.53528">
        <ele>75</ele>
        <time>2026-04-17T10:34:38.768Z</time>
      </trkpt>
      <trkpt lat="48.37092" lon="2.53528">
        <ele>75</ele>
        <time>2026-04-17T10:34:43.768Z</time>
      </trkpt>
      <trkpt lat="48.37097" lon="2.53525">
        <ele>75</ele>
        <time>2026-04-17T10:34:48.768Z</time>
      </trkpt>
      <trkpt lat="48.37101" lon="2.53521">
        <ele>75</ele>
        <time>2026-04-17T10:34:52.768Z</time>
      </trkpt>
      <trkpt lat="48.37106" lon="2.53518">
        <ele>75</ele>
        <time>2026-04-17T10:34:56.768Z</time>
      </trkpt>
      <trkpt lat="48.37111" lon="2.53514">
        <ele>75</ele>
        <time>2026-04-17T10:35:01.092Z</time>
      </trkpt>
      <trkpt lat="48.37116" lon="2.53511">
        <ele>75</ele>
        <time>2026-04-17T10:35:05.750Z</time>
      </trkpt>
      <trkpt lat="48.37119" lon="2.53511">
        <ele>75</ele>
        <time>2026-04-17T10:35:10.367Z</time>
      </trkpt>
      <trkpt lat="48.37119" lon="2.53511">
        <ele>75</ele>
        <time>2026-04-17T10:35:15.273Z</time>
      </trkpt>
      <trkpt lat="48.37119" lon="2.53511">
        <ele>75</ele>
        <time>2026-04-17T10:35:19.531Z</time>
      </trkpt>
      <trkpt lat="48.37121" lon="2.53523">
        <ele>75</ele>
        <time>2026-04-17T10:35:23.768Z</time>
      </trkpt>
      <trkpt lat="48.37123" lon="2.5353">
        <ele>75</ele>
        <time>2026-04-17T10:35:28.729Z</time>
      </trkpt>
      <trkpt lat="48.37124" lon="2.53536">
        <ele>75</ele>
        <time>2026-04-17T10:35:32.768Z</time>
      </trkpt>
      <trkpt lat="48.37127" lon="2.53542">
        <ele>75</ele>
        <time>2026-04-17T10:35:37.449Z</time>
      </trkpt>
      <trkpt lat="48.37131" lon="2.53546">
        <ele>75</ele>
        <time>2026-04-17T10:35:42.125Z</time>
      </trkpt>
      <trkpt lat="48.37136" lon="2.53548">
        <ele>75</ele>
        <time>2026-04-17T10:35:47.768Z</time>
      </trkpt>
      <trkpt lat="48.37141" lon="2.53552">
        <ele>75</ele>
        <time>2026-04-17T10:35:52.407Z</time>
      </trkpt>
      <trkpt lat="48.37145" lon="2.53557">
        <ele>75</ele>
        <time>2026-04-17T10:35:56.768Z</time>
      </trkpt>
      <trkpt lat="48.37148" lon="2.5356">
        <ele>75</ele>
        <time>2026-04-17T10:36:00.768Z</time>
      </trkpt>
      <trkpt lat="48.37152" lon="2.53566">
        <ele>75</ele>
        <time>2026-04-17T10:36:05.112Z</time>
      </trkpt>
      <trkpt lat="48.37155" lon="2.53572">
        <ele>76</ele>
        <time>2026-04-17T10:36:09.447Z</time>
      </trkpt>
      <trkpt lat="48.37159" lon="2.53578">
        <ele>76</ele>
        <time>2026-04-17T10:36:13.508Z</time>
      </trkpt>
      <trkpt lat="48.37163" lon="2.53584">
        <ele>76</ele>
        <time>2026-04-17T10:36:17.749Z</time>
      </trkpt>
      <trkpt lat="48.37166" lon="2.53591">
        <ele>76</ele>
        <time>2026-04-17T10:36:21.766Z</time>
      </trkpt>
      <trkpt lat="48.37169" lon="2.53599">
        <ele>76</ele>
        <time>2026-04-17T10:36:26.708Z</time>
      </trkpt>
      <trkpt lat="48.37174" lon="2.53602">
        <ele>76</ele>
        <time>2026-04-17T10:36:31.148Z</time>
      </trkpt>
      <trkpt lat="48.37179" lon="2.53605">
        <ele>76</ele>
        <time>2026-04-17T10:36:35.768Z</time>
      </trkpt>
      <trkpt lat="48.37182" lon="2.53607">
        <ele>76</ele>
        <time>2026-04-17T10:36:40.309Z</time>
      </trkpt>
      <trkpt lat="48.37185" lon="2.53613">
        <ele>76</ele>
        <time>2026-04-17T10:36:44.388Z</time>
      </trkpt>
      <trkpt lat="48.37188" lon="2.53619">
        <ele>76</ele>
        <time>2026-04-17T10:36:48.509Z</time>
      </trkpt>
      <trkpt lat="48.37191" lon="2.53624">
        <ele>76</ele>
        <time>2026-04-17T10:36:52.571Z</time>
      </trkpt>
      <trkpt lat="48.37194" lon="2.53628">
        <ele>77</ele>
        <time>2026-04-17T10:36:57.170Z</time>
      </trkpt>
      <trkpt lat="48.37195" lon="2.53634">
        <ele>77</ele>
        <time>2026-04-17T10:37:01.249Z</time>
      </trkpt>
      <trkpt lat="48.37195" lon="2.53635">
        <ele>77</ele>
        <time>2026-04-17T10:37:05.310Z</time>
      </trkpt>
      <trkpt lat="48.37197" lon="2.53639">
        <ele>77</ele>
        <time>2026-04-17T10:37:09.765Z</time>
      </trkpt>
      <trkpt lat="48.372" lon="2.53643">
        <ele>77</ele>
        <time>2026-04-17T10:37:13.885Z</time>
      </trkpt>
      <trkpt lat="48.37202" lon="2.5365">
        <ele>77</ele>
        <time>2026-04-17T10:37:17.960Z</time>
      </trkpt>
      <trkpt lat="48.37203" lon="2.53655">
        <ele>78</ele>
        <time>2026-04-17T10:37:22.508Z</time>
      </trkpt>
      <trkpt lat="48.37202" lon="2.53659">
        <ele>78</ele>
        <time>2026-04-17T10:37:26.727Z</time>
      </trkpt>
      <trkpt lat="48.37205" lon="2.53664">
        <ele>78</ele>
        <time>2026-04-17T10:37:30.768Z</time>
      </trkpt>
      <trkpt lat="48.3721" lon="2.53668">
        <ele>78</ele>
        <time>2026-04-17T10:37:34.970Z</time>
      </trkpt>
      <trkpt lat="48.37214" lon="2.53668">
        <ele>78</ele>
        <time>2026-04-17T10:37:39.109Z</time>
      </trkpt>
      <trkpt lat="48.3722" lon="2.53672">
        <ele>78</ele>
        <time>2026-04-17T10:37:43.631Z</time>
      </trkpt>
      <trkpt lat="48.37225" lon="2.53678">
        <ele>78</ele>
        <time>2026-04-17T10:37:48.008Z</time>
      </trkpt>
      <trkpt lat="48.37228" lon="2.53685">
        <ele>78</ele>
        <time>2026-04-17T10:37:52.410Z</time>
      </trkpt>
      <trkpt lat="48.37231" lon="2.53693">
        <ele>78</ele>
        <time>2026-04-17T10:37:56.490Z</time>
      </trkpt>
      <trkpt lat="48.37237" lon="2.53703">
        <ele>78</ele>
        <time>2026-04-17T10:38:00.767Z</time>
      </trkpt>
      <trkpt lat="48.37238" lon="2.53704">
        <ele>78</ele>
        <time>2026-04-17T10:38:05.286Z</time>
      </trkpt>
      <trkpt lat="48.37244" lon="2.53711">
        <ele>78</ele>
        <time>2026-04-17T10:38:09.408Z</time>
      </trkpt>
      <trkpt lat="48.37247" lon="2.53718">
        <ele>78</ele>
        <time>2026-04-17T10:38:13.500Z</time>
      </trkpt>
      <trkpt lat="48.37249" lon="2.53726">
        <ele>78</ele>
        <time>2026-04-17T10:38:17.992Z</time>
      </trkpt>
      <trkpt lat="48.37253" lon="2.53733">
        <ele>78</ele>
        <time>2026-04-17T10:38:22.327Z</time>
      </trkpt>
      <trkpt lat="48.37256" lon="2.53739">
        <ele>78</ele>
        <time>2026-04-17T10:38:26.777Z</time>
      </trkpt>
      <trkpt lat="48.3726" lon="2.53745">
        <ele>78</ele>
        <time>2026-04-17T10:38:31.432Z</time>
      </trkpt>
      <trkpt lat="48.37264" lon="2.53752">
        <ele>78</ele>
        <time>2026-04-17T10:38:35.509Z</time>
      </trkpt>
      <trkpt lat="48.37268" lon="2.53758">
        <ele>78</ele>
        <time>2026-04-17T10:38:39.887Z</time>
      </trkpt>
      <trkpt lat="48.37272" lon="2.53763">
        <ele>78</ele>
        <time>2026-04-17T10:38:44.451Z</time>
      </trkpt>
      <trkpt lat="48.37275" lon="2.5377">
        <ele>78</ele>
        <time>2026-04-17T10:38:48.547Z</time>
      </trkpt>
      <trkpt lat="48.37279" lon="2.53776">
        <ele>78</ele>
        <time>2026-04-17T10:38:53.147Z</time>
      </trkpt>
      <trkpt lat="48.37282" lon="2.53783">
        <ele>78</ele>
        <time>2026-04-17T10:38:57.774Z</time>
      </trkpt>
      <trkpt lat="48.37286" lon="2.53789">
        <ele>78</ele>
        <time>2026-04-17T10:39:02.329Z</time>
      </trkpt>
      <trkpt lat="48.37289" lon="2.53796">
        <ele>77</ele>
        <time>2026-04-17T10:41:46.768Z</time>
      </trkpt>
      <trkpt lat="48.37294" lon="2.53802">
        <ele>78</ele>
        <time>2026-04-17T10:41:54.768Z</time>
      </trkpt>
      <trkpt lat="48.37297" lon="2.53809">
        <ele>78</ele>
        <time>2026-04-17T10:41:59.732Z</time>
      </trkpt>
      <trkpt lat="48.373" lon="2.53816">
        <ele>78</ele>
        <time>2026-04-17T10:42:04.186Z</time>
      </trkpt>
      <trkpt lat="48.37304" lon="2.53823">
        <ele>78</ele>
        <time>2026-04-17T10:42:08.291Z</time>
      </trkpt>
      <trkpt lat="48.37308" lon="2.53829">
        <ele>78</ele>
        <time>2026-04-17T10:42:12.352Z</time>
      </trkpt>
      <trkpt lat="48.37312" lon="2.53835">
        <ele>78</ele>
        <time>2026-04-17T10:42:16.389Z</time>
      </trkpt>
      <trkpt lat="48.37316" lon="2.5384">
        <ele>78</ele>
        <time>2026-04-17T10:42:20.768Z</time>
      </trkpt>
      <trkpt lat="48.3732" lon="2.53846">
        <ele>78</ele>
        <time>2026-04-17T10:42:25.408Z</time>
      </trkpt>
      <trkpt lat="48.37324" lon="2.53853">
        <ele>79</ele>
        <time>2026-04-17T10:42:29.511Z</time>
      </trkpt>
      <trkpt lat="48.37328" lon="2.5386">
        <ele>79</ele>
        <time>2026-04-17T10:42:33.768Z</time>
      </trkpt>
      <trkpt lat="48.37332" lon="2.53868">
        <ele>79</ele>
        <time>2026-04-17T10:42:37.908Z</time>
      </trkpt>
      <trkpt lat="48.37336" lon="2.53874">
        <ele>79</ele>
        <time>2026-04-17T10:42:42.268Z</time>
      </trkpt>
      <trkpt lat="48.37341" lon="2.53879">
        <ele>80</ele>
        <time>2026-04-17T10:42:46.708Z</time>
      </trkpt>
      <trkpt lat="48.37345" lon="2.53885">
        <ele>80</ele>
        <time>2026-04-17T10:42:51.090Z</time>
      </trkpt>
      <trkpt lat="48.37349" lon="2.53892">
        <ele>79</ele>
        <time>2026-04-17T10:42:55.451Z</time>
      </trkpt>
      <trkpt lat="48.37353" lon="2.53898">
        <ele>79</ele>
        <time>2026-04-17T10:42:59.768Z</time>
      </trkpt>
      <trkpt lat="48.37357" lon="2.53904">
        <ele>80</ele>
        <time>2026-04-17T10:43:04.343Z</time>
      </trkpt>
      <trkpt lat="48.37361" lon="2.53909">
        <ele>80</ele>
        <time>2026-04-17T10:43:08.481Z</time>
      </trkpt>
      <trkpt lat="48.37365" lon="2.53916">
        <ele>80</ele>
        <time>2026-04-17T10:43:12.768Z</time>
      </trkpt>
      <trkpt lat="48.37369" lon="2.53921">
        <ele>80</ele>
        <time>2026-04-17T10:43:17.278Z</time>
      </trkpt>
      <trkpt lat="48.37373" lon="2.53926">
        <ele>80</ele>
        <time>2026-04-17T10:43:21.767Z</time>
      </trkpt>
      <trkpt lat="48.37377" lon="2.53934">
        <ele>79</ele>
        <time>2026-04-17T10:43:26.477Z</time>
      </trkpt>
      <trkpt lat="48.37381" lon="2.5394">
        <ele>79</ele>
        <time>2026-04-17T10:43:30.699Z</time>
      </trkpt>
      <trkpt lat="48.37384" lon="2.53948">
        <ele>79</ele>
        <time>2026-04-17T10:43:34.958Z</time>
      </trkpt>
      <trkpt lat="48.37387" lon="2.53956">
        <ele>79</ele>
        <time>2026-04-17T10:43:39.768Z</time>
      </trkpt>
      <trkpt lat="48.37391" lon="2.53964">
        <ele>80</ele>
        <time>2026-04-17T10:43:44.768Z</time>
      </trkpt>
      <trkpt lat="48.37393" lon="2.53972">
        <ele>80</ele>
        <time>2026-04-17T10:43:49.767Z</time>
      </trkpt>
      <trkpt lat="48.37396" lon="2.5398">
        <ele>80</ele>
        <time>2026-04-17T10:43:53.903Z</time>
      </trkpt>
      <trkpt lat="48.37399" lon="2.53989">
        <ele>81</ele>
        <time>2026-04-17T10:43:58.102Z</time>
      </trkpt>
      <trkpt lat="48.37402" lon="2.53997">
        <ele>81</ele>
        <time>2026-04-17T10:44:02.195Z</time>
      </trkpt>
      <trkpt lat="48.37404" lon="2.54006">
        <ele>80</ele>
        <time>2026-04-17T10:44:06.317Z</time>
      </trkpt>
      <trkpt lat="48.37406" lon="2.54015">
        <ele>81</ele>
        <time>2026-04-17T10:44:10.438Z</time>
      </trkpt>
      <trkpt lat="48.37408" lon="2.54024">
        <ele>81</ele>
        <time>2026-04-17T10:44:14.604Z</time>
      </trkpt>
      <trkpt lat="48.3741" lon="2.54032">
        <ele>81</ele>
        <time>2026-04-17T10:44:33.767Z</time>
      </trkpt>
      <trkpt lat="48.37413" lon="2.5404">
        <ele>81</ele>
        <time>2026-04-17T10:44:38.255Z</time>
      </trkpt>
      <trkpt lat="48.37415" lon="2.54046">
        <ele>81</ele>
        <time>2026-04-17T10:44:42.556Z</time>
      </trkpt>
      <trkpt lat="48.37415" lon="2.54046">
        <ele>81</ele>
        <time>2026-04-17T10:44:47.094Z</time>
      </trkpt>
      <trkpt lat="48.37417" lon="2.5405">
        <ele>81</ele>
        <time>2026-04-17T10:44:51.635Z</time>
      </trkpt>
      <trkpt lat="48.37421" lon="2.54057">
        <ele>81</ele>
        <time>2026-04-17T10:45:04.768Z</time>
      </trkpt>
      <trkpt lat="48.37424" lon="2.54065">
        <ele>81</ele>
        <time>2026-04-17T10:45:09.217Z</time>
      </trkpt>
      <trkpt lat="48.37427" lon="2.54072">
        <ele>81</ele>
        <time>2026-04-17T10:45:13.557Z</time>
      </trkpt>
      <trkpt lat="48.3743" lon="2.54079">
        <ele>81</ele>
        <time>2026-04-17T10:45:17.764Z</time>
      </trkpt>
      <trkpt lat="48.37432" lon="2.54087">
        <ele>81</ele>
        <time>2026-04-17T10:45:22.080Z</time>
      </trkpt>
      <trkpt lat="48.37435" lon="2.54095">
        <ele>81</ele>
        <time>2026-04-17T10:45:26.337Z</time>
      </trkpt>
      <trkpt lat="48.37438" lon="2.54102">
        <ele>80</ele>
        <time>2026-04-17T10:45:30.768Z</time>
      </trkpt>
      <trkpt lat="48.37441" lon="2.54109">
        <ele>80</ele>
        <time>2026-04-17T10:45:35.160Z</time>
      </trkpt>
      <trkpt lat="48.37444" lon="2.54117">
        <ele>80</ele>
        <time>2026-04-17T10:45:39.657Z</time>
      </trkpt>
      <trkpt lat="48.37446" lon="2.54125">
        <ele>80</ele>
        <time>2026-04-17T10:45:44.179Z</time>
      </trkpt>
      <trkpt lat="48.37449" lon="2.54133">
        <ele>80</ele>
        <time>2026-04-17T10:45:48.199Z</time>
      </trkpt>
      <trkpt lat="48.37452" lon="2.5414">
        <ele>80</ele>
        <time>2026-04-17T10:45:52.603Z</time>
      </trkpt>
      <trkpt lat="48.37456" lon="2.54148">
        <ele>80</ele>
        <time>2026-04-17T10:45:57.022Z</time>
      </trkpt>
      <trkpt lat="48.37458" lon="2.54155">
        <ele>83</ele>
        <time>2026-04-17T10:46:01.415Z</time>
      </trkpt>
      <trkpt lat="48.3746" lon="2.54163">
        <ele>83</ele>
        <time>2026-04-17T10:46:05.699Z</time>
      </trkpt>
      <trkpt lat="48.37462" lon="2.54172">
        <ele>83</ele>
        <time>2026-04-17T10:46:10.059Z</time>
      </trkpt>
      <trkpt lat="48.37464" lon="2.5418">
        <ele>83</ele>
        <time>2026-04-17T10:46:14.419Z</time>
      </trkpt>
      <trkpt lat="48.37466" lon="2.54188">
        <ele>85</ele>
        <time>2026-04-17T10:46:18.768Z</time>
      </trkpt>
      <trkpt lat="48.37467" lon="2.54196">
        <ele>85</ele>
        <time>2026-04-17T10:46:23.174Z</time>
      </trkpt>
      <trkpt lat="48.37468" lon="2.54205">
        <ele>85</ele>
        <time>2026-04-17T10:46:27.441Z</time>
      </trkpt>
      <trkpt lat="48.37468" lon="2.54212">
        <ele>85</ele>
        <time>2026-04-17T10:46:31.878Z</time>
      </trkpt>
      <trkpt lat="48.37469" lon="2.5422">
        <ele>85</ele>
        <time>2026-04-17T10:46:36.224Z</time>
      </trkpt>
      <trkpt lat="48.3747" lon="2.54228">
        <ele>85</ele>
        <time>2026-04-17T10:46:40.496Z</time>
      </trkpt>
      <trkpt lat="48.3747" lon="2.54236">
        <ele>85</ele>
        <time>2026-04-17T10:46:44.754Z</time>
      </trkpt>
      <trkpt lat="48.37471" lon="2.54244">
        <ele>85</ele>
        <time>2026-04-17T10:46:49.021Z</time>
      </trkpt>
      <trkpt lat="48.37472" lon="2.5425">
        <ele>85</ele>
        <time>2026-04-17T10:46:53.295Z</time>
      </trkpt>
      <trkpt lat="48.37472" lon="2.5425">
        <ele>85</ele>
        <time>2026-04-17T10:46:57.639Z</time>
      </trkpt>
      <trkpt lat="48.37472" lon="2.5425">
        <ele>85</ele>
        <time>2026-04-17T10:47:01.767Z</time>
      </trkpt>
      <trkpt lat="48.37471" lon="2.54252">
        <ele>85</ele>
        <time>2026-04-17T10:47:06.095Z</time>
      </trkpt>
      <trkpt lat="48.37469" lon="2.5426">
        <ele>85</ele>
        <time>2026-04-17T10:47:10.335Z</time>
      </trkpt>
      <trkpt lat="48.37468" lon="2.54265">
        <ele>85</ele>
        <time>2026-04-17T10:47:14.559Z</time>
      </trkpt>
      <trkpt lat="48.37468" lon="2.54269">
        <ele>85</ele>
        <time>2026-04-17T10:47:18.768Z</time>
      </trkpt>
      <trkpt lat="48.37468" lon="2.54275">
        <ele>85</ele>
        <time>2026-04-17T10:47:23.015Z</time>
      </trkpt>
      <trkpt lat="48.37467" lon="2.54282">
        <ele>85</ele>
        <time>2026-04-17T10:47:27.316Z</time>
      </trkpt>
      <trkpt lat="48.37466" lon="2.54286">
        <ele>85</ele>
        <time>2026-04-17T10:47:31.659Z</time>
      </trkpt>
      <trkpt lat="48.37464" lon="2.54293">
        <ele>85</ele>
        <time>2026-04-17T10:48:22.335Z</time>
      </trkpt>
      <trkpt lat="48.37464" lon="2.543">
        <ele>85</ele>
        <time>2026-04-17T10:48:26.620Z</time>
      </trkpt>
      <trkpt lat="48.37463" lon="2.54309">
        <ele>85</ele>
        <time>2026-04-17T10:48:30.920Z</time>
      </trkpt>
      <trkpt lat="48.37461" lon="2.54317">
        <ele>85</ele>
        <time>2026-04-17T10:48:35.220Z</time>
      </trkpt>
      <trkpt lat="48.37459" lon="2.54325">
        <ele>85</ele>
        <time>2026-04-17T10:48:39.761Z</time>
      </trkpt>
      <trkpt lat="48.37458" lon="2.54333">
        <ele>86</ele>
        <time>2026-04-17T10:48:43.942Z</time>
      </trkpt>
      <trkpt lat="48.37456" lon="2.54341">
        <ele>86</ele>
        <time>2026-04-17T10:48:48.768Z</time>
      </trkpt>
      <trkpt lat="48.37454" lon="2.54349">
        <ele>85</ele>
        <time>2026-04-17T10:48:52.960Z</time>
      </trkpt>
      <trkpt lat="48.37456" lon="2.54357">
        <ele>85</ele>
        <time>2026-04-17T10:48:57.235Z</time>
      </trkpt>
      <trkpt lat="48.37457" lon="2.54365">
        <ele>85</ele>
        <time>2026-04-17T10:49:01.595Z</time>
      </trkpt>
      <trkpt lat="48.37459" lon="2.54373">
        <ele>84</ele>
        <time>2026-04-17T10:49:05.880Z</time>
      </trkpt>
      <trkpt lat="48.3746" lon="2.5438">
        <ele>84</ele>
        <time>2026-04-17T10:49:10.256Z</time>
      </trkpt>
      <trkpt lat="48.37461" lon="2.54388">
        <ele>84</ele>
        <time>2026-04-17T10:49:14.704Z</time>
      </trkpt>
      <trkpt lat="48.37462" lon="2.54396">
        <ele>84</ele>
        <time>2026-04-17T10:49:19.199Z</time>
      </trkpt>
      <trkpt lat="48.37464" lon="2.54404">
        <ele>84</ele>
        <time>2026-04-17T10:49:23.560Z</time>
      </trkpt>
      <trkpt lat="48.37469" lon="2.54422">
        <ele>84</ele>
        <time>2026-04-17T10:49:27.715Z</time>
      </trkpt>
      <trkpt lat="48.37468" lon="2.5443">
        <ele>84</ele>
        <time>2026-04-17T10:49:31.998Z</time>
      </trkpt>
      <trkpt lat="48.37468" lon="2.54438">
        <ele>84</ele>
        <time>2026-04-17T10:49:36.580Z</time>
      </trkpt>
      <trkpt lat="48.37468" lon="2.54447">
        <ele>84</ele>
        <time>2026-04-17T10:49:41.137Z</time>
      </trkpt>
      <trkpt lat="48.37469" lon="2.54455">
        <ele>84</ele>
        <time>2026-04-17T10:49:45.540Z</time>
      </trkpt>
      <trkpt lat="48.37469" lon="2.54464">
        <ele>85</ele>
        <time>2026-04-17T10:49:50.063Z</time>
      </trkpt>
      <trkpt lat="48.3747" lon="2.54472">
        <ele>85</ele>
        <time>2026-04-17T10:49:54.380Z</time>
      </trkpt>
      <trkpt lat="48.37471" lon="2.54482">
        <ele>85</ele>
        <time>2026-04-17T10:49:58.740Z</time>
      </trkpt>
      <trkpt lat="48.37472" lon="2.5449">
        <ele>86</ele>
        <time>2026-04-17T10:50:03.220Z</time>
      </trkpt>
      <trkpt lat="48.37473" lon="2.54499">
        <ele>86</ele>
        <time>2026-04-17T10:50:07.418Z</time>
      </trkpt>
      <trkpt lat="48.37474" lon="2.54508">
        <ele>86</ele>
        <time>2026-04-17T10:50:11.676Z</time>
      </trkpt>
      <trkpt lat="48.37475" lon="2.54517">
        <ele>87</ele>
        <time>2026-04-17T10:50:16.064Z</time>
      </trkpt>
      <trkpt lat="48.37475" lon="2.54525">
        <ele>87</ele>
        <time>2026-04-17T10:50:20.364Z</time>
      </trkpt>
      <trkpt lat="48.37476" lon="2.54534">
        <ele>87</ele>
        <time>2026-04-17T10:50:24.474Z</time>
      </trkpt>
      <trkpt lat="48.37477" lon="2.54542">
        <ele>87</ele>
        <time>2026-04-17T10:50:28.563Z</time>
      </trkpt>
      <trkpt lat="48.37477" lon="2.54551">
        <ele>87</ele>
        <time>2026-04-17T10:50:32.999Z</time>
      </trkpt>
      <trkpt lat="48.37477" lon="2.5456">
        <ele>87</ele>
        <time>2026-04-17T10:50:37.300Z</time>
      </trkpt>
      <trkpt lat="48.37477" lon="2.54569">
        <ele>87</ele>
        <time>2026-04-17T10:50:41.755Z</time>
      </trkpt>
      <trkpt lat="48.37478" lon="2.54578">
        <ele>86</ele>
        <time>2026-04-17T10:50:46.140Z</time>
      </trkpt>
      <trkpt lat="48.37478" lon="2.54586">
        <ele>86</ele>
        <time>2026-04-17T10:50:50.394Z</time>
      </trkpt>
      <trkpt lat="48.37478" lon="2.54595">
        <ele>86</ele>
        <time>2026-04-17T10:50:56.765Z</time>
      </trkpt>
      <trkpt lat="48.37478" lon="2.54604">
        <ele>85</ele>
        <time>2026-04-17T10:51:01.261Z</time>
      </trkpt>
      <trkpt lat="48.37479" lon="2.54613">
        <ele>85</ele>
        <time>2026-04-17T10:51:05.620Z</time>
      </trkpt>
      <trkpt lat="48.3748" lon="2.54621">
        <ele>85</ele>
        <time>2026-04-17T10:51:10.741Z</time>
      </trkpt>
      <trkpt lat="48.37481" lon="2.5463">
        <ele>85</ele>
        <time>2026-04-17T10:51:14.765Z</time>
      </trkpt>
      <trkpt lat="48.37482" lon="2.54639">
        <ele>85</ele>
        <time>2026-04-17T10:51:19.560Z</time>
      </trkpt>
      <trkpt lat="48.37483" lon="2.54647">
        <ele>85</ele>
        <time>2026-04-17T10:51:23.735Z</time>
      </trkpt>
      <trkpt lat="48.37484" lon="2.54655">
        <ele>84</ele>
        <time>2026-04-17T10:51:27.768Z</time>
      </trkpt>
      <trkpt lat="48.37485" lon="2.54664">
        <ele>84</ele>
        <time>2026-04-17T10:51:47.764Z</time>
      </trkpt>
      <trkpt lat="48.37484" lon="2.54671">
        <ele>84</ele>
        <time>2026-04-17T10:51:51.768Z</time>
      </trkpt>
      <trkpt lat="48.37484" lon="2.54679">
        <ele>84</ele>
        <time>2026-04-17T10:51:56.519Z</time>
      </trkpt>
      <trkpt lat="48.37483" lon="2.54688">
        <ele>84</ele>
        <time>2026-04-17T10:52:00.640Z</time>
      </trkpt>
      <trkpt lat="48.37484" lon="2.54695">
        <ele>84</ele>
        <time>2026-04-17T10:52:04.764Z</time>
      </trkpt>
      <trkpt lat="48.37486" lon="2.54704">
        <ele>84</ele>
        <time>2026-04-17T11:14:14.759Z</time>
      </trkpt>
      <trkpt lat="48.37487" lon="2.54712">
        <ele>86</ele>
        <time>2026-04-17T11:14:19.477Z</time>
      </trkpt>
      <trkpt lat="48.37489" lon="2.5472">
        <ele>86</ele>
        <time>2026-04-17T11:14:23.677Z</time>
      </trkpt>
      <trkpt lat="48.37489" lon="2.54728">
        <ele>86</ele>
        <time>2026-04-17T11:14:28.198Z</time>
      </trkpt>
      <trkpt lat="48.3749" lon="2.54736">
        <ele>86</ele>
        <time>2026-04-17T11:14:32.369Z</time>
      </trkpt>
      <trkpt lat="48.3749" lon="2.54743">
        <ele>85</ele>
        <time>2026-04-17T11:14:36.758Z</time>
      </trkpt>
      <trkpt lat="48.37489" lon="2.54751">
        <ele>85</ele>
        <time>2026-04-17T11:14:42.768Z</time>
      </trkpt>
      <trkpt lat="48.3749" lon="2.54759">
        <ele>85</ele>
        <time>2026-04-17T11:14:47.297Z</time>
      </trkpt>
      <trkpt lat="48.37491" lon="2.54767">
        <ele>84</ele>
        <time>2026-04-17T11:14:51.537Z</time>
      </trkpt>
      <trkpt lat="48.37492" lon="2.54776">
        <ele>84</ele>
        <time>2026-04-17T11:14:55.768Z</time>
      </trkpt>
      <trkpt lat="48.37492" lon="2.54784">
        <ele>84</ele>
        <time>2026-04-17T11:15:00.171Z</time>
      </trkpt>
      <trkpt lat="48.37493" lon="2.54792">
        <ele>84</ele>
        <time>2026-04-17T11:15:04.694Z</time>
      </trkpt>
      <trkpt lat="48.37494" lon="2.548">
        <ele>84</ele>
        <time>2026-04-17T11:15:09.252Z</time>
      </trkpt>
      <trkpt lat="48.37495" lon="2.54807">
        <ele>84</ele>
        <time>2026-04-17T11:15:13.733Z</time>
      </trkpt>
      <trkpt lat="48.37495" lon="2.54815">
        <ele>84</ele>
        <time>2026-04-17T11:15:18.092Z</time>
      </trkpt>
      <trkpt lat="48.37496" lon="2.54823">
        <ele>85</ele>
        <time>2026-04-17T11:15:22.529Z</time>
      </trkpt>
      <trkpt lat="48.37497" lon="2.54829">
        <ele>85</ele>
        <time>2026-04-17T11:15:27.112Z</time>
      </trkpt>
      <trkpt lat="48.37497" lon="2.54838">
        <ele>85</ele>
        <time>2026-04-17T11:15:31.370Z</time>
      </trkpt>
      <trkpt lat="48.37498" lon="2.54846">
        <ele>85</ele>
        <time>2026-04-17T11:15:35.876Z</time>
      </trkpt>
      <trkpt lat="48.37498" lon="2.54854">
        <ele>85</ele>
        <time>2026-04-17T11:15:40.134Z</time>
      </trkpt>
      <trkpt lat="48.37498" lon="2.54862">
        <ele>85</ele>
        <time>2026-04-17T11:15:44.393Z</time>
      </trkpt>
      <trkpt lat="48.37499" lon="2.5487">
        <ele>85</ele>
        <time>2026-04-17T11:16:02.075Z</time>
      </trkpt>
      <trkpt lat="48.37498" lon="2.54879">
        <ele>86</ele>
        <time>2026-04-17T11:16:06.135Z</time>
      </trkpt>
      <trkpt lat="48.37497" lon="2.54886">
        <ele>86</ele>
        <time>2026-04-17T11:16:10.158Z</time>
      </trkpt>
      <trkpt lat="48.37496" lon="2.54894">
        <ele>86</ele>
        <time>2026-04-17T11:16:14.761Z</time>
      </trkpt>
      <trkpt lat="48.37495" lon="2.54901">
        <ele>86</ele>
        <time>2026-04-17T11:16:18.958Z</time>
      </trkpt>
      <trkpt lat="48.37494" lon="2.54908">
        <ele>86</ele>
        <time>2026-04-17T11:16:23.288Z</time>
      </trkpt>
      <trkpt lat="48.37492" lon="2.54916">
        <ele>86</ele>
        <time>2026-04-17T11:16:27.692Z</time>
      </trkpt>
      <trkpt lat="48.37491" lon="2.54924">
        <ele>86</ele>
        <time>2026-04-17T11:16:31.945Z</time>
      </trkpt>
      <trkpt lat="48.37491" lon="2.54932">
        <ele>86</ele>
        <time>2026-04-17T11:16:36.173Z</time>
      </trkpt>
      <trkpt lat="48.37491" lon="2.5494">
        <ele>86</ele>
        <time>2026-04-17T11:16:40.416Z</time>
      </trkpt>
      <trkpt lat="48.37492" lon="2.54949">
        <ele>86</ele>
        <time>2026-04-17T11:16:44.673Z</time>
      </trkpt>
      <trkpt lat="48.37492" lon="2.54957">
        <ele>86</ele>
        <time>2026-04-17T11:16:48.974Z</time>
      </trkpt>
      <trkpt lat="48.37491" lon="2.54964">
        <ele>86</ele>
        <time>2026-04-17T11:16:53.234Z</time>
      </trkpt>
      <trkpt lat="48.37491" lon="2.54973">
        <ele>86</ele>
        <time>2026-04-17T11:16:57.457Z</time>
      </trkpt>
      <trkpt lat="48.3749" lon="2.54981">
        <ele>86</ele>
        <time>2026-04-17T11:17:01.715Z</time>
      </trkpt>
      <trkpt lat="48.3749" lon="2.5499">
        <ele>88</ele>
        <time>2026-04-17T11:17:05.940Z</time>
      </trkpt>
      <trkpt lat="48.37489" lon="2.54998">
        <ele>88</ele>
        <time>2026-04-17T11:17:10.155Z</time>
      </trkpt>
      <trkpt lat="48.37487" lon="2.55006">
        <ele>88</ele>
        <time>2026-04-17T11:17:14.430Z</time>
      </trkpt>
      <trkpt lat="48.37485" lon="2.55013">
        <ele>88</ele>
        <time>2026-04-17T11:17:18.594Z</time>
      </trkpt>
      <trkpt lat="48.37483" lon="2.55019">
        <ele>89</ele>
        <time>2026-04-17T11:17:22.768Z</time>
      </trkpt>
      <trkpt lat="48.37479" lon="2.55023">
        <ele>89</ele>
        <time>2026-04-17T11:17:27.033Z</time>
      </trkpt>
      <trkpt lat="48.37474" lon="2.55026">
        <ele>89</ele>
        <time>2026-04-17T11:17:31.279Z</time>
      </trkpt>
      <trkpt lat="48.37469" lon="2.55029">
        <ele>89</ele>
        <time>2026-04-17T11:17:35.490Z</time>
      </trkpt>
      <trkpt lat="48.37465" lon="2.55033">
        <ele>89</ele>
        <time>2026-04-17T11:17:39.910Z</time>
      </trkpt>
      <trkpt lat="48.37459" lon="2.55036">
        <ele>89</ele>
        <time>2026-04-17T11:17:44.271Z</time>
      </trkpt>
      <trkpt lat="48.37455" lon="2.5504">
        <ele>91</ele>
        <time>2026-04-17T11:17:48.691Z</time>
      </trkpt>
      <trkpt lat="48.3745" lon="2.55043">
        <ele>90</ele>
        <time>2026-04-17T11:17:53.110Z</time>
      </trkpt>
      <trkpt lat="48.37445" lon="2.55047">
        <ele>90</ele>
        <time>2026-04-17T11:17:57.455Z</time>
      </trkpt>
      <trkpt lat="48.37441" lon="2.55051">
        <ele>90</ele>
        <time>2026-04-17T11:18:01.951Z</time>
      </trkpt>
      <trkpt lat="48.37436" lon="2.55057">
        <ele>90</ele>
        <time>2026-04-17T11:18:05.970Z</time>
      </trkpt>
      <trkpt lat="48.37432" lon="2.55062">
        <ele>90</ele>
        <time>2026-04-17T11:18:10.511Z</time>
      </trkpt>
      <trkpt lat="48.37428" lon="2.55068">
        <ele>94</ele>
        <time>2026-04-17T11:18:14.753Z</time>
      </trkpt>
      <trkpt lat="48.37425" lon="2.55074">
        <ele>93</ele>
        <time>2026-04-17T11:18:18.830Z</time>
      </trkpt>
      <trkpt lat="48.37421" lon="2.55081">
        <ele>93</ele>
        <time>2026-04-17T11:18:23.296Z</time>
      </trkpt>
      <trkpt lat="48.37417" lon="2.55087">
        <ele>93</ele>
        <time>2026-04-17T11:18:27.637Z</time>
      </trkpt>
      <trkpt lat="48.37413" lon="2.55093">
        <ele>93</ele>
        <time>2026-04-17T11:18:32.057Z</time>
      </trkpt>
      <trkpt lat="48.37409" lon="2.55099">
        <ele>93</ele>
        <time>2026-04-17T11:18:36.554Z</time>
      </trkpt>
      <trkpt lat="48.37405" lon="2.55105">
        <ele>93</ele>
        <time>2026-04-17T11:18:40.975Z</time>
      </trkpt>
      <trkpt lat="48.37401" lon="2.55112">
        <ele>96</ele>
        <time>2026-04-17T11:18:45.497Z</time>
      </trkpt>
      <trkpt lat="48.37398" lon="2.55118">
        <ele>96</ele>
        <time>2026-04-17T11:18:50.011Z</time>
      </trkpt>
      <trkpt lat="48.37394" lon="2.55124">
        <ele>96</ele>
        <time>2026-04-17T11:18:54.294Z</time>
      </trkpt>
      <trkpt lat="48.37391" lon="2.5513">
        <ele>96</ele>
        <time>2026-04-17T11:18:58.673Z</time>
      </trkpt>
      <trkpt lat="48.37389" lon="2.55137">
        <ele>96</ele>
        <time>2026-04-17T11:19:03.092Z</time>
      </trkpt>
      <trkpt lat="48.37386" lon="2.55144">
        <ele>96</ele>
        <time>2026-04-17T11:19:07.275Z</time>
      </trkpt>
      <trkpt lat="48.37384" lon="2.55151">
        <ele>96</ele>
        <time>2026-04-17T11:19:11.669Z</time>
      </trkpt>
      <trkpt lat="48.37381" lon="2.55158">
        <ele>97</ele>
        <time>2026-04-17T11:19:15.763Z</time>
      </trkpt>
      <trkpt lat="48.3738" lon="2.55166">
        <ele>97</ele>
        <time>2026-04-17T11:19:19.853Z</time>
      </trkpt>
      <trkpt lat="48.37379" lon="2.55174">
        <ele>97</ele>
        <time>2026-04-17T11:19:24.375Z</time>
      </trkpt>
      <trkpt lat="48.37378" lon="2.55183">
        <ele>97</ele>
        <time>2026-04-17T11:19:28.950Z</time>
      </trkpt>
      <trkpt lat="48.37379" lon="2.5519">
        <ele>97</ele>
        <time>2026-04-17T11:19:32.994Z</time>
      </trkpt>
      <trkpt lat="48.37381" lon="2.55198">
        <ele>97</ele>
        <time>2026-04-17T11:19:37.457Z</time>
      </trkpt>
      <trkpt lat="48.37383" lon="2.55206">
        <ele>97</ele>
        <time>2026-04-17T11:19:42.031Z</time>
      </trkpt>
      <trkpt lat="48.37385" lon="2.55213">
        <ele>97</ele>
        <time>2026-04-17T11:19:46.554Z</time>
      </trkpt>
      <trkpt lat="48.37387" lon="2.55219">
        <ele>97</ele>
        <time>2026-04-17T11:19:51.016Z</time>
      </trkpt>
      <trkpt lat="48.37389" lon="2.55225">
        <ele>97</ele>
        <time>2026-04-17T11:19:55.456Z</time>
      </trkpt>
      <trkpt lat="48.37392" lon="2.55231">
        <ele>97</ele>
        <time>2026-04-17T11:19:59.768Z</time>
      </trkpt>
      <trkpt lat="48.37394" lon="2.55237">
        <ele>98</ele>
        <time>2026-04-17T11:20:04.073Z</time>
      </trkpt>
      <trkpt lat="48.37394" lon="2.55245">
        <ele>98</ele>
        <time>2026-04-17T11:20:08.331Z</time>
      </trkpt>
      <trkpt lat="48.37392" lon="2.55253">
        <ele>98</ele>
        <time>2026-04-17T11:20:12.454Z</time>
      </trkpt>
      <trkpt lat="48.3739" lon="2.5526">
        <ele>98</ele>
        <time>2026-04-17T11:20:16.874Z</time>
      </trkpt>
      <trkpt lat="48.37389" lon="2.55267">
        <ele>98</ele>
        <time>2026-04-17T11:20:21.335Z</time>
      </trkpt>
      <trkpt lat="48.37387" lon="2.55273">
        <ele>98</ele>
        <time>2026-04-17T11:20:25.763Z</time>
      </trkpt>
      <trkpt lat="48.37384" lon="2.55279">
        <ele>98</ele>
        <time>2026-04-17T11:20:30.273Z</time>
      </trkpt>
      <trkpt lat="48.3738" lon="2.55285">
        <ele>98</ele>
        <time>2026-04-17T11:20:34.657Z</time>
      </trkpt>
      <trkpt lat="48.37375" lon="2.55289">
        <ele>100</ele>
        <time>2026-04-17T11:20:39.136Z</time>
      </trkpt>
      <trkpt lat="48.3737" lon="2.55292">
        <ele>101</ele>
        <time>2026-04-17T11:20:43.573Z</time>
      </trkpt>
      <trkpt lat="48.37364" lon="2.55295">
        <ele>101</ele>
        <time>2026-04-17T11:20:47.594Z</time>
      </trkpt>
      <trkpt lat="48.37359" lon="2.553">
        <ele>101</ele>
        <time>2026-04-17T11:20:52.703Z</time>
      </trkpt>
      <trkpt lat="48.37359" lon="2.553">
        <ele>101</ele>
        <time>2026-04-17T11:20:57.151Z</time>
      </trkpt>
      <trkpt lat="48.37359" lon="2.553">
        <ele>101</ele>
        <time>2026-04-17T11:21:01.673Z</time>
      </trkpt>
      <trkpt lat="48.37356" lon="2.55305">
        <ele>101</ele>
        <time>2026-04-17T11:21:06.135Z</time>
      </trkpt>
      <trkpt lat="48.37352" lon="2.55309">
        <ele>101</ele>
        <time>2026-04-17T11:21:10.676Z</time>
      </trkpt>
      <trkpt lat="48.37348" lon="2.55314">
        <ele>101</ele>
        <time>2026-04-17T11:21:14.712Z</time>
      </trkpt>
      <trkpt lat="48.37347" lon="2.55315">
        <ele>101</ele>
        <time>2026-04-17T11:21:18.762Z</time>
      </trkpt>
      <trkpt lat="48.37342" lon="2.55319">
        <ele>102</ele>
        <time>2026-04-17T11:21:22.781Z</time>
      </trkpt>
      <trkpt lat="48.37336" lon="2.5532">
        <ele>102</ele>
        <time>2026-04-17T11:21:27.555Z</time>
      </trkpt>
      <trkpt lat="48.37331" lon="2.55322">
        <ele>102</ele>
        <time>2026-04-17T11:21:31.950Z</time>
      </trkpt>
      <trkpt lat="48.37326" lon="2.55325">
        <ele>102</ele>
        <time>2026-04-17T11:21:36.429Z</time>
      </trkpt>
      <trkpt lat="48.37322" lon="2.55328">
        <ele>102</ele>
        <time>2026-04-17T11:21:40.951Z</time>
      </trkpt>
      <trkpt lat="48.37318" lon="2.55334">
        <ele>101</ele>
        <time>2026-04-17T11:21:45.535Z</time>
      </trkpt>
      <trkpt lat="48.37314" lon="2.55341">
        <ele>101</ele>
        <time>2026-04-17T11:21:49.760Z</time>
      </trkpt>
      <trkpt lat="48.37311" lon="2.55347">
        <ele>101</ele>
        <time>2026-04-17T11:21:54.289Z</time>
      </trkpt>
      <trkpt lat="48.3731" lon="2.55355">
        <ele>101</ele>
        <time>2026-04-17T11:21:58.632Z</time>
      </trkpt>
      <trkpt lat="48.37309" lon="2.55364">
        <ele>101</ele>
        <time>2026-04-17T11:22:03.095Z</time>
      </trkpt>
      <trkpt lat="48.37308" lon="2.55372">
        <ele>101</ele>
        <time>2026-04-17T11:22:07.456Z</time>
      </trkpt>
      <trkpt lat="48.37306" lon="2.55379">
        <ele>101</ele>
        <time>2026-04-17T11:22:11.691Z</time>
      </trkpt>
      <trkpt lat="48.37303" lon="2.55386">
        <ele>101</ele>
        <time>2026-04-17T11:22:16.134Z</time>
      </trkpt>
      <trkpt lat="48.373" lon="2.55393">
        <ele>101</ele>
        <time>2026-04-17T11:22:20.590Z</time>
      </trkpt>
      <trkpt lat="48.37296" lon="2.55399">
        <ele>101</ele>
        <time>2026-04-17T11:22:25.035Z</time>
      </trkpt>
      <trkpt lat="48.37292" lon="2.55405">
        <ele>102</ele>
        <time>2026-04-17T11:22:29.431Z</time>
      </trkpt>
      <trkpt lat="48.37288" lon="2.55411">
        <ele>103</ele>
        <time>2026-04-17T11:22:33.757Z</time>
      </trkpt>
      <trkpt lat="48.37285" lon="2.55418">
        <ele>103</ele>
        <time>2026-04-17T11:22:38.152Z</time>
      </trkpt>
      <trkpt lat="48.37281" lon="2.55424">
        <ele>103</ele>
        <time>2026-04-17T11:22:42.537Z</time>
      </trkpt>
      <trkpt lat="48.37278" lon="2.55431">
        <ele>103</ele>
        <time>2026-04-17T11:22:46.811Z</time>
      </trkpt>
      <trkpt lat="48.37275" lon="2.55437">
        <ele>103</ele>
        <time>2026-04-17T11:22:51.249Z</time>
      </trkpt>
      <trkpt lat="48.37271" lon="2.55444">
        <ele>103</ele>
        <time>2026-04-17T11:22:55.491Z</time>
      </trkpt>
      <trkpt lat="48.37268" lon="2.55451">
        <ele>103</ele>
        <time>2026-04-17T11:22:59.762Z</time>
      </trkpt>
      <trkpt lat="48.37265" lon="2.55457">
        <ele>103</ele>
        <time>2026-04-17T11:23:04.049Z</time>
      </trkpt>
      <trkpt lat="48.37261" lon="2.55464">
        <ele>104</ele>
        <time>2026-04-17T11:23:08.497Z</time>
      </trkpt>
      <trkpt lat="48.37258" lon="2.55471">
        <ele>104</ele>
        <time>2026-04-17T11:23:12.890Z</time>
      </trkpt>
      <trkpt lat="48.37255" lon="2.55478">
        <ele>104</ele>
        <time>2026-04-17T11:23:17.277Z</time>
      </trkpt>
      <trkpt lat="48.37253" lon="2.55487">
        <ele>103</ele>
        <time>2026-04-17T11:23:21.637Z</time>
      </trkpt>
      <trkpt lat="48.37251" lon="2.55495">
        <ele>103</ele>
        <time>2026-04-17T11:23:26.133Z</time>
      </trkpt>
      <trkpt lat="48.3725" lon="2.55503">
        <ele>103</ele>
        <time>2026-04-17T11:23:30.290Z</time>
      </trkpt>
      <trkpt lat="48.3725" lon="2.55512">
        <ele>103</ele>
        <time>2026-04-17T11:23:34.530Z</time>
      </trkpt>
      <trkpt lat="48.37248" lon="2.5552">
        <ele>103</ele>
        <time>2026-04-17T11:23:39.057Z</time>
      </trkpt>
      <trkpt lat="48.37246" lon="2.55529">
        <ele>103</ele>
        <time>2026-04-17T11:23:43.150Z</time>
      </trkpt>
      <trkpt lat="48.37244" lon="2.55538">
        <ele>103</ele>
        <time>2026-04-17T11:23:47.275Z</time>
      </trkpt>
      <trkpt lat="48.37243" lon="2.55545">
        <ele>104</ele>
        <time>2026-04-17T11:23:51.355Z</time>
      </trkpt>
      <trkpt lat="48.37243" lon="2.55552">
        <ele>104</ele>
        <time>2026-04-17T11:23:55.536Z</time>
      </trkpt>
      <trkpt lat="48.37243" lon="2.5556">
        <ele>104</ele>
        <time>2026-04-17T11:23:59.583Z</time>
      </trkpt>
      <trkpt lat="48.37242" lon="2.55569">
        <ele>104</ele>
        <time>2026-04-17T11:24:03.600Z</time>
      </trkpt>
      <trkpt lat="48.37242" lon="2.5557">
        <ele>105</ele>
        <time>2026-04-17T11:24:08.140Z</time>
      </trkpt>
      <trkpt lat="48.37243" lon="2.5557">
        <ele>105</ele>
        <time>2026-04-17T11:24:12.620Z</time>
      </trkpt>
      <trkpt lat="48.37243" lon="2.55573">
        <ele>105</ele>
        <time>2026-04-17T11:24:16.758Z</time>
      </trkpt>
      <trkpt lat="48.37241" lon="2.5558">
        <ele>105</ele>
        <time>2026-04-17T11:24:20.748Z</time>
      </trkpt>
      <trkpt lat="48.37239" lon="2.55586">
        <ele>105</ele>
        <time>2026-04-17T11:24:24.874Z</time>
      </trkpt>
      <trkpt lat="48.37237" lon="2.55594">
        <ele>105</ele>
        <time>2026-04-17T11:24:29.200Z</time>
      </trkpt>
      <trkpt lat="48.37235" lon="2.55602">
        <ele>107</ele>
        <time>2026-04-17T11:24:33.698Z</time>
      </trkpt>
      <trkpt lat="48.37234" lon="2.55611">
        <ele>107</ele>
        <time>2026-04-17T11:24:38.016Z</time>
      </trkpt>
      <trkpt lat="48.37232" lon="2.5562">
        <ele>107</ele>
        <time>2026-04-17T11:24:42.716Z</time>
      </trkpt>
      <trkpt lat="48.37229" lon="2.55627">
        <ele>107</ele>
        <time>2026-04-17T11:24:55.738Z</time>
      </trkpt>
      <trkpt lat="48.37226" lon="2.55635">
        <ele>107</ele>
        <time>2026-04-17T11:24:59.756Z</time>
      </trkpt>
      <trkpt lat="48.37222" lon="2.55642">
        <ele>107</ele>
        <time>2026-04-17T11:25:04.198Z</time>
      </trkpt>
      <trkpt lat="48.37218" lon="2.55649">
        <ele>107</ele>
        <time>2026-04-17T11:25:08.599Z</time>
      </trkpt>
      <trkpt lat="48.37215" lon="2.55656">
        <ele>106</ele>
        <time>2026-04-17T11:25:13.241Z</time>
      </trkpt>
      <trkpt lat="48.37211" lon="2.55663">
        <ele>106</ele>
        <time>2026-04-17T11:25:34.745Z</time>
      </trkpt>
      <trkpt lat="48.37207" lon="2.55669">
        <ele>107</ele>
        <time>2026-04-17T11:25:39.080Z</time>
      </trkpt>
      <trkpt lat="48.37202" lon="2.55674">
        <ele>107</ele>
        <time>2026-04-17T11:25:43.159Z</time>
      </trkpt>
      <trkpt lat="48.37198" lon="2.55679">
        <ele>107</ele>
        <time>2026-04-17T11:25:47.416Z</time>
      </trkpt>
      <trkpt lat="48.37193" lon="2.55685">
        <ele>108</ele>
        <time>2026-04-17T11:25:51.752Z</time>
      </trkpt>
      <trkpt lat="48.37188" lon="2.5569">
        <ele>108</ele>
        <time>2026-04-17T11:25:56.240Z</time>
      </trkpt>
      <trkpt lat="48.37184" lon="2.55696">
        <ele>108</ele>
        <time>2026-04-17T11:26:00.259Z</time>
      </trkpt>
      <trkpt lat="48.37179" lon="2.55701">
        <ele>111</ele>
        <time>2026-04-17T11:26:04.755Z</time>
      </trkpt>
      <trkpt lat="48.37174" lon="2.55707">
        <ele>111</ele>
        <time>2026-04-17T11:26:09.040Z</time>
      </trkpt>
      <trkpt lat="48.3717" lon="2.55714">
        <ele>112</ele>
        <time>2026-04-17T11:26:13.340Z</time>
      </trkpt>
      <trkpt lat="48.37166" lon="2.5572">
        <ele>112</ele>
        <time>2026-04-17T11:26:17.720Z</time>
      </trkpt>
      <trkpt lat="48.37161" lon="2.55726">
        <ele>112</ele>
        <time>2026-04-17T11:26:22.036Z</time>
      </trkpt>
      <trkpt lat="48.37157" lon="2.55733">
        <ele>112</ele>
        <time>2026-04-17T11:26:26.412Z</time>
      </trkpt>
      <trkpt lat="48.37153" lon="2.55738">
        <ele>117</ele>
        <time>2026-04-17T11:26:30.421Z</time>
      </trkpt>
      <trkpt lat="48.37149" lon="2.55744">
        <ele>117</ele>
        <time>2026-04-17T11:26:34.803Z</time>
      </trkpt>
      <trkpt lat="48.37144" lon="2.5575">
        <ele>117</ele>
        <time>2026-04-17T11:26:39.359Z</time>
      </trkpt>
      <trkpt lat="48.37139" lon="2.55756">
        <ele>117</ele>
        <time>2026-04-17T11:26:43.719Z</time>
      </trkpt>
      <trkpt lat="48.37136" lon="2.55763">
        <ele>117</ele>
        <time>2026-04-17T11:26:48.075Z</time>
      </trkpt>
      <trkpt lat="48.37131" lon="2.5577">
        <ele>117</ele>
        <time>2026-04-17T11:26:52.469Z</time>
      </trkpt>
      <trkpt lat="48.37127" lon="2.55776">
        <ele>117</ele>
        <time>2026-04-17T11:26:56.752Z</time>
      </trkpt>
      <trkpt lat="48.37122" lon="2.55781">
        <ele>122</ele>
        <time>2026-04-17T11:27:01.054Z</time>
      </trkpt>
      <trkpt lat="48.37116" lon="2.55785">
        <ele>122</ele>
        <time>2026-04-17T11:27:05.491Z</time>
      </trkpt>
      <trkpt lat="48.37111" lon="2.55789">
        <ele>122</ele>
        <time>2026-04-17T11:27:09.894Z</time>
      </trkpt>
      <trkpt lat="48.37105" lon="2.55794">
        <ele>121</ele>
        <time>2026-04-17T11:27:14.255Z</time>
      </trkpt>
      <trkpt lat="48.37101" lon="2.558">
        <ele>121</ele>
        <time>2026-04-17T11:27:18.693Z</time>
      </trkpt>
      <trkpt lat="48.37096" lon="2.55805">
        <ele>123</ele>
        <time>2026-04-17T11:27:22.977Z</time>
      </trkpt>
      <trkpt lat="48.37091" lon="2.55809">
        <ele>123</ele>
        <time>2026-04-17T11:27:27.353Z</time>
      </trkpt>
      <trkpt lat="48.37085" lon="2.55814">
        <ele>123</ele>
        <time>2026-04-17T11:27:31.757Z</time>
      </trkpt>
      <trkpt lat="48.3708" lon="2.55819">
        <ele>123</ele>
        <time>2026-04-17T11:27:36.151Z</time>
      </trkpt>
      <trkpt lat="48.37075" lon="2.55824">
        <ele>122</ele>
        <time>2026-04-17T11:27:40.597Z</time>
      </trkpt>
      <trkpt lat="48.37071" lon="2.55831">
        <ele>122</ele>
        <time>2026-04-17T11:27:44.953Z</time>
      </trkpt>
      <trkpt lat="48.37067" lon="2.55839">
        <ele>123</ele>
        <time>2026-04-17T11:27:49.279Z</time>
      </trkpt>
      <trkpt lat="48.37063" lon="2.55847">
        <ele>123</ele>
        <time>2026-04-17T11:27:53.538Z</time>
      </trkpt>
      <trkpt lat="48.37059" lon="2.55854">
        <ele>122</ele>
        <time>2026-04-17T11:27:57.936Z</time>
      </trkpt>
      <trkpt lat="48.37056" lon="2.55861">
        <ele>122</ele>
        <time>2026-04-17T11:28:02.437Z</time>
      </trkpt>
      <trkpt lat="48.37053" lon="2.55868">
        <ele>122</ele>
        <time>2026-04-17T11:28:06.959Z</time>
      </trkpt>
      <trkpt lat="48.37049" lon="2.55875">
        <ele>122</ele>
        <time>2026-04-17T11:28:11.218Z</time>
      </trkpt>
      <trkpt lat="48.37045" lon="2.55882">
        <ele>121</ele>
        <time>2026-04-17T11:28:15.340Z</time>
      </trkpt>
      <trkpt lat="48.37042" lon="2.55889">
        <ele>122</ele>
        <time>2026-04-17T11:28:19.717Z</time>
      </trkpt>
      <trkpt lat="48.37037" lon="2.55895">
        <ele>122</ele>
        <time>2026-04-17T11:28:24.094Z</time>
      </trkpt>
      <trkpt lat="48.37033" lon="2.55902">
        <ele>122</ele>
        <time>2026-04-17T11:28:28.746Z</time>
      </trkpt>
      <trkpt lat="48.37029" lon="2.55909">
        <ele>121</ele>
        <time>2026-04-17T11:28:33.740Z</time>
      </trkpt>
      <trkpt lat="48.37025" lon="2.55915">
        <ele>121</ele>
        <time>2026-04-17T11:28:38.364Z</time>
      </trkpt>
      <trkpt lat="48.37021" lon="2.55922">
        <ele>121</ele>
        <time>2026-04-17T11:28:42.604Z</time>
      </trkpt>
      <trkpt lat="48.37018" lon="2.55929">
        <ele>121</ele>
        <time>2026-04-17T11:28:46.740Z</time>
      </trkpt>
      <trkpt lat="48.37014" lon="2.55935">
        <ele>122</ele>
        <time>2026-04-17T11:28:51.255Z</time>
      </trkpt>
      <trkpt lat="48.37011" lon="2.55943">
        <ele>123</ele>
        <time>2026-04-17T11:28:55.590Z</time>
      </trkpt>
      <trkpt lat="48.37007" lon="2.5595">
        <ele>123</ele>
        <time>2026-04-17T11:28:59.857Z</time>
      </trkpt>
      <trkpt lat="48.37004" lon="2.55958">
        <ele>123</ele>
        <time>2026-04-17T11:29:04.072Z</time>
      </trkpt>
      <trkpt lat="48.37001" lon="2.55966">
        <ele>122</ele>
        <time>2026-04-17T11:29:08.253Z</time>
      </trkpt>
      <trkpt lat="48.36999" lon="2.55974">
        <ele>122</ele>
        <time>2026-04-17T11:29:12.656Z</time>
      </trkpt>
      <trkpt lat="48.36997" lon="2.55982">
        <ele>122</ele>
        <time>2026-04-17T11:29:16.897Z</time>
      </trkpt>
      <trkpt lat="48.36995" lon="2.5599">
        <ele>122</ele>
        <time>2026-04-17T11:29:21.053Z</time>
      </trkpt>
      <trkpt lat="48.36992" lon="2.55998">
        <ele>122</ele>
        <time>2026-04-17T11:29:25.431Z</time>
      </trkpt>
      <trkpt lat="48.3699" lon="2.56007">
        <ele>122</ele>
        <time>2026-04-17T11:29:29.717Z</time>
      </trkpt>
      <trkpt lat="48.36989" lon="2.56015">
        <ele>122</ele>
        <time>2026-04-17T11:29:34.074Z</time>
      </trkpt>
      <trkpt lat="48.36987" lon="2.56023">
        <ele>122</ele>
        <time>2026-04-17T11:29:38.453Z</time>
      </trkpt>
      <trkpt lat="48.36985" lon="2.56031">
        <ele>123</ele>
        <time>2026-04-17T11:29:42.694Z</time>
      </trkpt>
      <trkpt lat="48.36984" lon="2.5604">
        <ele>123</ele>
        <time>2026-04-17T11:29:47.096Z</time>
      </trkpt>
      <trkpt lat="48.36983" lon="2.56047">
        <ele>124</ele>
        <time>2026-04-17T11:29:51.298Z</time>
      </trkpt>
      <trkpt lat="48.36981" lon="2.56056">
        <ele>124</ele>
        <time>2026-04-17T11:29:55.583Z</time>
      </trkpt>
      <trkpt lat="48.3698" lon="2.56064">
        <ele>124</ele>
        <time>2026-04-17T11:29:59.858Z</time>
      </trkpt>
      <trkpt lat="48.36978" lon="2.56073">
        <ele>123</ele>
        <time>2026-04-17T11:30:04.337Z</time>
      </trkpt>
      <trkpt lat="48.36977" lon="2.5608">
        <ele>123</ele>
        <time>2026-04-17T11:30:08.638Z</time>
      </trkpt>
      <trkpt lat="48.36975" lon="2.56088">
        <ele>123</ele>
        <time>2026-04-17T11:30:12.955Z</time>
      </trkpt>
      <trkpt lat="48.36975" lon="2.56096">
        <ele>123</ele>
        <time>2026-04-17T11:30:17.256Z</time>
      </trkpt>
      <trkpt lat="48.36975" lon="2.56101">
        <ele>123</ele>
        <time>2026-04-17T11:30:21.719Z</time>
      </trkpt>
      <trkpt lat="48.36973" lon="2.56105">
        <ele>123</ele>
        <time>2026-04-17T11:30:26.079Z</time>
      </trkpt>
      <trkpt lat="48.36976" lon="2.56112">
        <ele>123</ele>
        <time>2026-04-17T11:30:30.618Z</time>
      </trkpt>
      <trkpt lat="48.36979" lon="2.56115">
        <ele>123</ele>
        <time>2026-04-17T11:30:35.099Z</time>
      </trkpt>
      <trkpt lat="48.36983" lon="2.56118">
        <ele>123</ele>
        <time>2026-04-17T11:30:39.740Z</time>
      </trkpt>
      <trkpt lat="48.36987" lon="2.56121">
        <ele>121</ele>
        <time>2026-04-17T11:30:44.254Z</time>
      </trkpt>
      <trkpt lat="48.36991" lon="2.56126">
        <ele>121</ele>
        <time>2026-04-17T11:30:48.414Z</time>
      </trkpt>
      <trkpt lat="48.36995" lon="2.56131">
        <ele>121</ele>
        <time>2026-04-17T11:30:52.673Z</time>
      </trkpt>
      <trkpt lat="48.36998" lon="2.56136">
        <ele>121</ele>
        <time>2026-04-17T11:30:56.912Z</time>
      </trkpt>
      <trkpt lat="48.37002" lon="2.56139">
        <ele>121</ele>
        <time>2026-04-17T11:31:01.231Z</time>
      </trkpt>
      <trkpt lat="48.37006" lon="2.56143">
        <ele>121</ele>
        <time>2026-04-17T11:31:05.412Z</time>
      </trkpt>
      <trkpt lat="48.37009" lon="2.56148">
        <ele>121</ele>
        <time>2026-04-17T11:31:09.740Z</time>
      </trkpt>
      <trkpt lat="48.37013" lon="2.56148">
        <ele>121</ele>
        <time>2026-04-17T11:31:14.133Z</time>
      </trkpt>
      <trkpt lat="48.37017" lon="2.5615">
        <ele>121</ele>
        <time>2026-04-17T11:31:18.477Z</time>
      </trkpt>
      <trkpt lat="48.37021" lon="2.56153">
        <ele>121</ele>
        <time>2026-04-17T11:31:22.717Z</time>
      </trkpt>
      <trkpt lat="48.37025" lon="2.56154">
        <ele>121</ele>
        <time>2026-04-17T11:31:26.914Z</time>
      </trkpt>
      <trkpt lat="48.3703" lon="2.56154">
        <ele>121</ele>
        <time>2026-04-17T11:31:31.096Z</time>
      </trkpt>
      <trkpt lat="48.37034" lon="2.56153">
        <ele>121</ele>
        <time>2026-04-17T11:31:35.192Z</time>
      </trkpt>
      <trkpt lat="48.37039" lon="2.56151">
        <ele>121</ele>
        <time>2026-04-17T11:31:39.357Z</time>
      </trkpt>
      <trkpt lat="48.37043" lon="2.56151">
        <ele>121</ele>
        <time>2026-04-17T11:31:43.393Z</time>
      </trkpt>
      <trkpt lat="48.37048" lon="2.5615">
        <ele>121</ele>
        <time>2026-04-17T11:31:47.455Z</time>
      </trkpt>
      <trkpt lat="48.37055" lon="2.56152">
        <ele>121</ele>
        <time>2026-04-17T11:31:51.643Z</time>
      </trkpt>
      <trkpt lat="48.37055" lon="2.56152">
        <ele>121</ele>
        <time>2026-04-17T11:31:55.822Z</time>
      </trkpt>
      <trkpt lat="48.37055" lon="2.56153">
        <ele>121</ele>
        <time>2026-04-17T11:31:59.959Z</time>
      </trkpt>
      <trkpt lat="48.3706" lon="2.56156">
        <ele>121</ele>
        <time>2026-04-17T11:32:04.098Z</time>
      </trkpt>
      <trkpt lat="48.37064" lon="2.56164">
        <ele>121</ele>
        <time>2026-04-17T11:32:08.264Z</time>
      </trkpt>
      <trkpt lat="48.37067" lon="2.56172">
        <ele>121</ele>
        <time>2026-04-17T11:32:12.477Z</time>
      </trkpt>
      <trkpt lat="48.37071" lon="2.56178">
        <ele>121</ele>
        <time>2026-04-17T11:32:16.740Z</time>
      </trkpt>
      <trkpt lat="48.37074" lon="2.56184">
        <ele>122</ele>
        <time>2026-04-17T11:32:21.018Z</time>
      </trkpt>
      <trkpt lat="48.37079" lon="2.56189">
        <ele>122</ele>
        <time>2026-04-17T11:32:25.217Z</time>
      </trkpt>
      <trkpt lat="48.37082" lon="2.56195">
        <ele>122</ele>
        <time>2026-04-17T11:32:29.500Z</time>
      </trkpt>
      <trkpt lat="48.37086" lon="2.56201">
        <ele>122</ele>
        <time>2026-04-17T11:32:33.861Z</time>
      </trkpt>
      <trkpt lat="48.3709" lon="2.56207">
        <ele>122</ele>
        <time>2026-04-17T11:32:38.076Z</time>
      </trkpt>
      <trkpt lat="48.37094" lon="2.56214">
        <ele>123</ele>
        <time>2026-04-17T11:32:42.227Z</time>
      </trkpt>
      <trkpt lat="48.37097" lon="2.5622">
        <ele>124</ele>
        <time>2026-04-17T11:32:46.515Z</time>
      </trkpt>
      <trkpt lat="48.37101" lon="2.56226">
        <ele>124</ele>
        <time>2026-04-17T11:32:50.740Z</time>
      </trkpt>
      <trkpt lat="48.37105" lon="2.56233">
        <ele>124</ele>
        <time>2026-04-17T11:32:54.997Z</time>
      </trkpt>
      <trkpt lat="48.37109" lon="2.56239">
        <ele>124</ele>
        <time>2026-04-17T11:32:59.223Z</time>
      </trkpt>
      <trkpt lat="48.37113" lon="2.56245">
        <ele>124</ele>
        <time>2026-04-17T11:33:03.495Z</time>
      </trkpt>
      <trkpt lat="48.37117" lon="2.56251">
        <ele>124</ele>
        <time>2026-04-17T11:33:07.736Z</time>
      </trkpt>
      <trkpt lat="48.37121" lon="2.56257">
        <ele>124</ele>
        <time>2026-04-17T11:33:11.963Z</time>
      </trkpt>
      <trkpt lat="48.37124" lon="2.56263">
        <ele>124</ele>
        <time>2026-04-17T11:33:16.326Z</time>
      </trkpt>
      <trkpt lat="48.37128" lon="2.5627">
        <ele>124</ele>
        <time>2026-04-17T11:33:20.535Z</time>
      </trkpt>
      <trkpt lat="48.37132" lon="2.56276">
        <ele>124</ele>
        <time>2026-04-17T11:33:24.860Z</time>
      </trkpt>
      <trkpt lat="48.37136" lon="2.56282">
        <ele>124</ele>
        <time>2026-04-17T11:33:29.104Z</time>
      </trkpt>
      <trkpt lat="48.3714" lon="2.56287">
        <ele>124</ele>
        <time>2026-04-17T11:33:33.377Z</time>
      </trkpt>
      <trkpt lat="48.37144" lon="2.56292">
        <ele>123</ele>
        <time>2026-04-17T11:33:37.726Z</time>
      </trkpt>
      <trkpt lat="48.37149" lon="2.56296">
        <ele>123</ele>
        <time>2026-04-17T11:33:41.905Z</time>
      </trkpt>
      <trkpt lat="48.37154" lon="2.56302">
        <ele>123</ele>
        <time>2026-04-17T11:33:46.144Z</time>
      </trkpt>
      <trkpt lat="48.37157" lon="2.5631">
        <ele>123</ele>
        <time>2026-04-17T11:33:50.519Z</time>
      </trkpt>
      <trkpt lat="48.3716" lon="2.56319">
        <ele>123</ele>
        <time>2026-04-17T11:33:54.935Z</time>
      </trkpt>
      <trkpt lat="48.37163" lon="2.56327">
        <ele>123</ele>
        <time>2026-04-17T11:33:59.193Z</time>
      </trkpt>
      <trkpt lat="48.37167" lon="2.56333">
        <ele>123</ele>
        <time>2026-04-17T11:34:03.332Z</time>
      </trkpt>
      <trkpt lat="48.3717" lon="2.5634">
        <ele>123</ele>
        <time>2026-04-17T11:34:07.496Z</time>
      </trkpt>
      <trkpt lat="48.37175" lon="2.56346">
        <ele>123</ele>
        <time>2026-04-17T11:34:11.740Z</time>
      </trkpt>
      <trkpt lat="48.37179" lon="2.56351">
        <ele>123</ele>
        <time>2026-04-17T11:34:16.740Z</time>
      </trkpt>
      <trkpt lat="48.37184" lon="2.56356">
        <ele>122</ele>
        <time>2026-04-17T11:34:21.456Z</time>
      </trkpt>
      <trkpt lat="48.37189" lon="2.5636">
        <ele>122</ele>
        <time>2026-04-17T11:34:25.517Z</time>
      </trkpt>
      <trkpt lat="48.37194" lon="2.56364">
        <ele>122</ele>
        <time>2026-04-17T11:34:30.058Z</time>
      </trkpt>
      <trkpt lat="48.37199" lon="2.56368">
        <ele>122</ele>
        <time>2026-04-17T11:34:34.493Z</time>
      </trkpt>
      <trkpt lat="48.37204" lon="2.56373">
        <ele>122</ele>
        <time>2026-04-17T11:34:38.740Z</time>
      </trkpt>
      <trkpt lat="48.37209" lon="2.56376">
        <ele>122</ele>
        <time>2026-04-17T11:34:43.197Z</time>
      </trkpt>
      <trkpt lat="48.37214" lon="2.56381">
        <ele>122</ele>
        <time>2026-04-17T11:34:47.698Z</time>
      </trkpt>
      <trkpt lat="48.3722" lon="2.56384">
        <ele>122</ele>
        <time>2026-04-17T11:34:52.029Z</time>
      </trkpt>
      <trkpt lat="48.37225" lon="2.56388">
        <ele>122</ele>
        <time>2026-04-17T11:34:56.496Z</time>
      </trkpt>
      <trkpt lat="48.3723" lon="2.56392">
        <ele>122</ele>
        <time>2026-04-17T11:35:00.765Z</time>
      </trkpt>
      <trkpt lat="48.37235" lon="2.56396">
        <ele>122</ele>
        <time>2026-04-17T11:35:05.004Z</time>
      </trkpt>
      <trkpt lat="48.3724" lon="2.564">
        <ele>119</ele>
        <time>2026-04-17T11:35:09.142Z</time>
      </trkpt>
      <trkpt lat="48.37245" lon="2.56403">
        <ele>119</ele>
        <time>2026-04-17T11:35:13.398Z</time>
      </trkpt>
      <trkpt lat="48.3725" lon="2.56407">
        <ele>120</ele>
        <time>2026-04-17T11:35:17.559Z</time>
      </trkpt>
      <trkpt lat="48.37255" lon="2.56411">
        <ele>120</ele>
        <time>2026-04-17T11:35:21.616Z</time>
      </trkpt>
      <trkpt lat="48.3726" lon="2.56414">
        <ele>120</ele>
        <time>2026-04-17T11:35:25.661Z</time>
      </trkpt>
      <trkpt lat="48.37265" lon="2.56418">
        <ele>117</ele>
        <time>2026-04-17T11:35:29.728Z</time>
      </trkpt>
      <trkpt lat="48.3727" lon="2.56422">
        <ele>117</ele>
        <time>2026-04-17T11:35:34.116Z</time>
      </trkpt>
      <trkpt lat="48.37275" lon="2.56427">
        <ele>117</ele>
        <time>2026-04-17T11:35:38.342Z</time>
      </trkpt>
      <trkpt lat="48.37281" lon="2.5643">
        <ele>117</ele>
        <time>2026-04-17T11:35:51.740Z</time>
      </trkpt>
      <trkpt lat="48.37286" lon="2.56435">
        <ele>118</ele>
        <time>2026-04-17T11:35:56.740Z</time>
      </trkpt>
      <trkpt lat="48.37291" lon="2.56439">
        <ele>118</ele>
        <time>2026-04-17T11:36:00.740Z</time>
      </trkpt>
      <trkpt lat="48.37296" lon="2.56443">
        <ele>116</ele>
        <time>2026-04-17T11:36:05.295Z</time>
      </trkpt>
      <trkpt lat="48.373" lon="2.56448">
        <ele>116</ele>
        <time>2026-04-17T11:36:09.740Z</time>
      </trkpt>
      <trkpt lat="48.37305" lon="2.56452">
        <ele>116</ele>
        <time>2026-04-17T11:36:14.222Z</time>
      </trkpt>
      <trkpt lat="48.37309" lon="2.56457">
        <ele>116</ele>
        <time>2026-04-17T11:36:18.718Z</time>
      </trkpt>
      <trkpt lat="48.37313" lon="2.56463">
        <ele>117</ele>
        <time>2026-04-17T11:36:23.224Z</time>
      </trkpt>
      <trkpt lat="48.37318" lon="2.56469">
        <ele>117</ele>
        <time>2026-04-17T11:36:27.600Z</time>
      </trkpt>
      <trkpt lat="48.37321" lon="2.56475">
        <ele>115</ele>
        <time>2026-04-17T11:36:31.840Z</time>
      </trkpt>
      <trkpt lat="48.37325" lon="2.56482">
        <ele>115</ele>
        <time>2026-04-17T11:36:36.218Z</time>
      </trkpt>
      <trkpt lat="48.37328" lon="2.5649">
        <ele>116</ele>
        <time>2026-04-17T11:36:40.621Z</time>
      </trkpt>
      <trkpt lat="48.37331" lon="2.56498">
        <ele>116</ele>
        <time>2026-04-17T11:36:44.953Z</time>
      </trkpt>
      <trkpt lat="48.37333" lon="2.56505">
        <ele>116</ele>
        <time>2026-04-17T11:36:49.311Z</time>
      </trkpt>
      <trkpt lat="48.37336" lon="2.56512">
        <ele>116</ele>
        <time>2026-04-17T11:36:53.672Z</time>
      </trkpt>
      <trkpt lat="48.37339" lon="2.5652">
        <ele>117</ele>
        <time>2026-04-17T11:36:57.972Z</time>
      </trkpt>
      <trkpt lat="48.37342" lon="2.56527">
        <ele>117</ele>
        <time>2026-04-17T11:37:02.316Z</time>
      </trkpt>
      <trkpt lat="48.37345" lon="2.56535">
        <ele>117</ele>
        <time>2026-04-17T11:37:06.616Z</time>
      </trkpt>
      <trkpt lat="48.37347" lon="2.56542">
        <ele>114</ele>
        <time>2026-04-17T11:37:10.953Z</time>
      </trkpt>
      <trkpt lat="48.3735" lon="2.56549">
        <ele>115</ele>
        <time>2026-04-17T11:37:15.337Z</time>
      </trkpt>
      <trkpt lat="48.37352" lon="2.56557">
        <ele>115</ele>
        <time>2026-04-17T11:37:19.697Z</time>
      </trkpt>
      <trkpt lat="48.37355" lon="2.56565">
        <ele>115</ele>
        <time>2026-04-17T11:37:24.014Z</time>
      </trkpt>
      <trkpt lat="48.37358" lon="2.56572">
        <ele>116</ele>
        <time>2026-04-17T11:37:28.314Z</time>
      </trkpt>
      <trkpt lat="48.3736" lon="2.56577">
        <ele>116</ele>
        <time>2026-04-17T11:37:32.632Z</time>
      </trkpt>
      <trkpt lat="48.37364" lon="2.56583">
        <ele>116</ele>
        <time>2026-04-17T11:37:37.018Z</time>
      </trkpt>
      <trkpt lat="48.37365" lon="2.56592">
        <ele>116</ele>
        <time>2026-04-17T11:37:41.379Z</time>
      </trkpt>
      <trkpt lat="48.37366" lon="2.56601">
        <ele>118</ele>
        <time>2026-04-17T11:37:45.731Z</time>
      </trkpt>
      <trkpt lat="48.37366" lon="2.56608">
        <ele>118</ele>
        <time>2026-04-17T11:37:50.094Z</time>
      </trkpt>
      <trkpt lat="48.37369" lon="2.56616">
        <ele>118</ele>
        <time>2026-04-17T11:37:54.438Z</time>
      </trkpt>
      <trkpt lat="48.3737" lon="2.56624">
        <ele>118</ele>
        <time>2026-04-17T11:37:58.740Z</time>
      </trkpt>
      <trkpt lat="48.37371" lon="2.56632">
        <ele>119</ele>
        <time>2026-04-17T11:38:03.083Z</time>
      </trkpt>
      <trkpt lat="48.37373" lon="2.5664">
        <ele>119</ele>
        <time>2026-04-17T11:38:07.399Z</time>
      </trkpt>
      <trkpt lat="48.37374" lon="2.56648">
        <ele>119</ele>
        <time>2026-04-17T11:38:11.684Z</time>
      </trkpt>
      <trkpt lat="48.37375" lon="2.56656">
        <ele>119</ele>
        <time>2026-04-17T11:38:15.958Z</time>
      </trkpt>
      <trkpt lat="48.37378" lon="2.56664">
        <ele>119</ele>
        <time>2026-04-17T11:38:20.181Z</time>
      </trkpt>
      <trkpt lat="48.37378" lon="2.56673">
        <ele>119</ele>
        <time>2026-04-17T11:38:24.396Z</time>
      </trkpt>
      <trkpt lat="48.3738" lon="2.56681">
        <ele>120</ele>
        <time>2026-04-17T11:38:28.680Z</time>
      </trkpt>
      <trkpt lat="48.37382" lon="2.56689">
        <ele>120</ele>
        <time>2026-04-17T11:38:32.980Z</time>
      </trkpt>
      <trkpt lat="48.37383" lon="2.56698">
        <ele>120</ele>
        <time>2026-04-17T11:38:37.238Z</time>
      </trkpt>
      <trkpt lat="48.37385" lon="2.56706">
        <ele>120</ele>
        <time>2026-04-17T11:38:41.376Z</time>
      </trkpt>
      <trkpt lat="48.37386" lon="2.56714">
        <ele>121</ele>
        <time>2026-04-17T11:38:45.721Z</time>
      </trkpt>
      <trkpt lat="48.37388" lon="2.56722">
        <ele>121</ele>
        <time>2026-04-17T11:38:50.023Z</time>
      </trkpt>
      <trkpt lat="48.37389" lon="2.56732">
        <ele>121</ele>
        <time>2026-04-17T11:38:54.322Z</time>
      </trkpt>
      <trkpt lat="48.3739" lon="2.56741">
        <ele>122</ele>
        <time>2026-04-17T11:38:58.563Z</time>
      </trkpt>
      <trkpt lat="48.37391" lon="2.56749">
        <ele>122</ele>
        <time>2026-04-17T11:39:02.897Z</time>
      </trkpt>
      <trkpt lat="48.37392" lon="2.56758">
        <ele>122</ele>
        <time>2026-04-17T11:39:07.180Z</time>
      </trkpt>
      <trkpt lat="48.37394" lon="2.56767">
        <ele>122</ele>
        <time>2026-04-17T11:39:11.438Z</time>
      </trkpt>
      <trkpt lat="48.37396" lon="2.56777">
        <ele>122</ele>
        <time>2026-04-17T11:39:15.726Z</time>
      </trkpt>
      <trkpt lat="48.37398" lon="2.56785">
        <ele>122</ele>
        <time>2026-04-17T11:39:20.081Z</time>
      </trkpt>
      <trkpt lat="48.37398" lon="2.56794">
        <ele>123</ele>
        <time>2026-04-17T11:39:24.399Z</time>
      </trkpt>
      <trkpt lat="48.37399" lon="2.56802">
        <ele>123</ele>
        <time>2026-04-17T11:39:28.699Z</time>
      </trkpt>
      <trkpt lat="48.37401" lon="2.56812">
        <ele>123</ele>
        <time>2026-04-17T11:39:33.044Z</time>
      </trkpt>
      <trkpt lat="48.37402" lon="2.56821">
        <ele>123</ele>
        <time>2026-04-17T11:39:37.317Z</time>
      </trkpt>
      <trkpt lat="48.37403" lon="2.5683">
        <ele>123</ele>
        <time>2026-04-17T11:39:41.720Z</time>
      </trkpt>
      <trkpt lat="48.37404" lon="2.56839">
        <ele>123</ele>
        <time>2026-04-17T11:39:46.098Z</time>
      </trkpt>
      <trkpt lat="48.37405" lon="2.56847">
        <ele>123</ele>
        <time>2026-04-17T11:39:50.394Z</time>
      </trkpt>
      <trkpt lat="48.37407" lon="2.56855">
        <ele>123</ele>
        <time>2026-04-17T11:39:54.634Z</time>
      </trkpt>
      <trkpt lat="48.37408" lon="2.56864">
        <ele>123</ele>
        <time>2026-04-17T11:39:58.918Z</time>
      </trkpt>
      <trkpt lat="48.37408" lon="2.56872">
        <ele>123</ele>
        <time>2026-04-17T11:40:03.253Z</time>
      </trkpt>
      <trkpt lat="48.37409" lon="2.5688">
        <ele>124</ele>
        <time>2026-04-17T11:40:07.570Z</time>
      </trkpt>
      <trkpt lat="48.37409" lon="2.56888">
        <ele>124</ele>
        <time>2026-04-17T11:40:11.872Z</time>
      </trkpt>
      <trkpt lat="48.37409" lon="2.56896">
        <ele>124</ele>
        <time>2026-04-17T11:40:16.317Z</time>
      </trkpt>
      <trkpt lat="48.37408" lon="2.56904">
        <ele>125</ele>
        <time>2026-04-17T11:40:20.677Z</time>
      </trkpt>
      <trkpt lat="48.37407" lon="2.56912">
        <ele>125</ele>
        <time>2026-04-17T11:40:24.993Z</time>
      </trkpt>
      <trkpt lat="48.37405" lon="2.56921">
        <ele>125</ele>
        <time>2026-04-17T11:40:29.339Z</time>
      </trkpt>
      <trkpt lat="48.37404" lon="2.56929">
        <ele>125</ele>
        <time>2026-04-17T11:40:33.639Z</time>
      </trkpt>
      <trkpt lat="48.37403" lon="2.56938">
        <ele>126</ele>
        <time>2026-04-17T11:40:38.058Z</time>
      </trkpt>
      <trkpt lat="48.37401" lon="2.56946">
        <ele>126</ele>
        <time>2026-04-17T11:40:42.333Z</time>
      </trkpt>
      <trkpt lat="48.374" lon="2.56954">
        <ele>126</ele>
        <time>2026-04-17T11:40:46.633Z</time>
      </trkpt>
      <trkpt lat="48.37398" lon="2.56964">
        <ele>126</ele>
        <time>2026-04-17T11:40:50.977Z</time>
      </trkpt>
      <trkpt lat="48.37397" lon="2.56973">
        <ele>126</ele>
        <time>2026-04-17T11:40:55.312Z</time>
      </trkpt>
      <trkpt lat="48.37396" lon="2.56982">
        <ele>126</ele>
        <time>2026-04-17T11:40:59.698Z</time>
      </trkpt>
      <trkpt lat="48.37395" lon="2.56991">
        <ele>126</ele>
        <time>2026-04-17T11:41:04.031Z</time>
      </trkpt>
      <trkpt lat="48.37393" lon="2.56999">
        <ele>126</ele>
        <time>2026-04-17T11:41:08.454Z</time>
      </trkpt>
      <trkpt lat="48.37392" lon="2.57007">
        <ele>126</ele>
        <time>2026-04-17T11:41:12.740Z</time>
      </trkpt>
      <trkpt lat="48.3739" lon="2.57016">
        <ele>127</ele>
        <time>2026-04-17T11:41:17.198Z</time>
      </trkpt>
      <trkpt lat="48.37388" lon="2.57024">
        <ele>127</ele>
        <time>2026-04-17T11:41:21.618Z</time>
      </trkpt>
      <trkpt lat="48.37387" lon="2.57033">
        <ele>127</ele>
        <time>2026-04-17T11:41:26.012Z</time>
      </trkpt>
      <trkpt lat="48.37386" lon="2.57042">
        <ele>126</ele>
        <time>2026-04-17T11:41:30.398Z</time>
      </trkpt>
      <trkpt lat="48.37385" lon="2.5705">
        <ele>126</ele>
        <time>2026-04-17T11:41:34.433Z</time>
      </trkpt>
      <trkpt lat="48.37384" lon="2.57059">
        <ele>126</ele>
        <time>2026-04-17T11:41:38.539Z</time>
      </trkpt>
      <trkpt lat="48.37383" lon="2.57068">
        <ele>126</ele>
        <time>2026-04-17T11:41:42.992Z</time>
      </trkpt>
      <trkpt lat="48.37384" lon="2.57077">
        <ele>126</ele>
        <time>2026-04-17T11:41:47.444Z</time>
      </trkpt>
      <trkpt lat="48.37386" lon="2.57085">
        <ele>126</ele>
        <time>2026-04-17T11:41:51.896Z</time>
      </trkpt>
      <trkpt lat="48.37389" lon="2.57092">
        <ele>126</ele>
        <time>2026-04-17T11:41:56.344Z</time>
      </trkpt>
      <trkpt lat="48.37392" lon="2.571">
        <ele>126</ele>
        <time>2026-04-17T11:42:00.740Z</time>
      </trkpt>
      <trkpt lat="48.37394" lon="2.57106">
        <ele>126</ele>
        <time>2026-04-17T11:42:05.242Z</time>
      </trkpt>
      <trkpt lat="48.374" lon="2.57117">
        <ele>126</ele>
        <time>2026-04-17T11:42:09.543Z</time>
      </trkpt>
      <trkpt lat="48.374" lon="2.57117">
        <ele>126</ele>
        <time>2026-04-17T11:42:13.877Z</time>
      </trkpt>
      <trkpt lat="48.37403" lon="2.57113">
        <ele>126</ele>
        <time>2026-04-17T11:42:18.177Z</time>
      </trkpt>
      <trkpt lat="48.37403" lon="2.57104">
        <ele>126</ele>
        <time>2026-04-17T11:42:22.495Z</time>
      </trkpt>
      <trkpt lat="48.37404" lon="2.57097">
        <ele>126</ele>
        <time>2026-04-17T11:42:26.740Z</time>
      </trkpt>
      <trkpt lat="48.37409" lon="2.57097">
        <ele>126</ele>
        <time>2026-04-17T11:42:31.181Z</time>
      </trkpt>
      <trkpt lat="48.37414" lon="2.57099">
        <ele>126</ele>
        <time>2026-04-17T11:42:35.635Z</time>
      </trkpt>
      <trkpt lat="48.37419" lon="2.57097">
        <ele>126</ele>
        <time>2026-04-17T11:42:39.724Z</time>
      </trkpt>
      <trkpt lat="48.37423" lon="2.57092">
        <ele>126</ele>
        <time>2026-04-17T11:42:43.953Z</time>
      </trkpt>
      <trkpt lat="48.37424" lon="2.57092">
        <ele>126</ele>
        <time>2026-04-17T11:42:48.298Z</time>
      </trkpt>
      <trkpt lat="48.37428" lon="2.57088">
        <ele>126</ele>
        <time>2026-04-17T11:42:52.658Z</time>
      </trkpt>
      <trkpt lat="48.37433" lon="2.57084">
        <ele>126</ele>
        <time>2026-04-17T11:42:57.061Z</time>
      </trkpt>
      <trkpt lat="48.37439" lon="2.57081">
        <ele>126</ele>
        <time>2026-04-17T11:43:01.455Z</time>
      </trkpt>
      <trkpt lat="48.37444" lon="2.57083">
        <ele>126</ele>
        <time>2026-04-17T11:43:05.909Z</time>
      </trkpt>
      <trkpt lat="48.37449" lon="2.57086">
        <ele>126</ele>
        <time>2026-04-17T11:43:10.628Z</time>
      </trkpt>
      <trkpt lat="48.37454" lon="2.57089">
        <ele>126</ele>
        <time>2026-04-17T11:43:14.673Z</time>
      </trkpt>
      <trkpt lat="48.37459" lon="2.57091">
        <ele>125</ele>
        <time>2026-04-17T11:43:19.066Z</time>
      </trkpt>
      <trkpt lat="48.37464" lon="2.57091">
        <ele>125</ele>
        <time>2026-04-17T11:43:23.486Z</time>
      </trkpt>
      <trkpt lat="48.37469" lon="2.57093">
        <ele>125</ele>
        <time>2026-04-17T11:43:28.367Z</time>
      </trkpt>
      <trkpt lat="48.37474" lon="2.57095">
        <ele>125</ele>
        <time>2026-04-17T11:43:32.729Z</time>
      </trkpt>
      <trkpt lat="48.3748" lon="2.57094">
        <ele>125</ele>
        <time>2026-04-17T11:43:37.044Z</time>
      </trkpt>
      <trkpt lat="48.37485" lon="2.57093">
        <ele>125</ele>
        <time>2026-04-17T11:43:41.448Z</time>
      </trkpt>
      <trkpt lat="48.37491" lon="2.57093">
        <ele>125</ele>
        <time>2026-04-17T11:43:45.740Z</time>
      </trkpt>
      <trkpt lat="48.37496" lon="2.57092">
        <ele>125</ele>
        <time>2026-04-17T11:43:50.121Z</time>
      </trkpt>
      <trkpt lat="48.37501" lon="2.57089">
        <ele>125</ele>
        <time>2026-04-17T11:43:54.227Z</time>
      </trkpt>
      <trkpt lat="48.37506" lon="2.57088">
        <ele>125</ele>
        <time>2026-04-17T11:43:58.630Z</time>
      </trkpt>
      <trkpt lat="48.37511" lon="2.57088">
        <ele>125</ele>
        <time>2026-04-17T11:44:02.740Z</time>
      </trkpt>
      <trkpt lat="48.37516" lon="2.5709">
        <ele>126</ele>
        <time>2026-04-17T11:44:07.281Z</time>
      </trkpt>
      <trkpt lat="48.37521" lon="2.57092">
        <ele>126</ele>
        <time>2026-04-17T11:44:11.606Z</time>
      </trkpt>
      <trkpt lat="48.37526" lon="2.57094">
        <ele>126</ele>
        <time>2026-04-17T11:44:16.001Z</time>
      </trkpt>
      <trkpt lat="48.37531" lon="2.57097">
        <ele>125</ele>
        <time>2026-04-17T11:44:20.325Z</time>
      </trkpt>
      <trkpt lat="48.37536" lon="2.57099">
        <ele>125</ele>
        <time>2026-04-17T11:44:24.626Z</time>
      </trkpt>
      <trkpt lat="48.37542" lon="2.571">
        <ele>125</ele>
        <time>2026-04-17T11:44:28.958Z</time>
      </trkpt>
      <trkpt lat="48.37546" lon="2.57105">
        <ele>126</ele>
        <time>2026-04-17T11:44:33.246Z</time>
      </trkpt>
      <trkpt lat="48.37552" lon="2.57109">
        <ele>126</ele>
        <time>2026-04-17T11:44:37.607Z</time>
      </trkpt>
      <trkpt lat="48.37558" lon="2.57109">
        <ele>126</ele>
        <time>2026-04-17T11:44:41.961Z</time>
      </trkpt>
      <trkpt lat="48.37563" lon="2.5711">
        <ele>126</ele>
        <time>2026-04-17T11:44:46.684Z</time>
      </trkpt>
      <trkpt lat="48.37569" lon="2.57107">
        <ele>126</ele>
        <time>2026-04-17T11:44:51.122Z</time>
      </trkpt>
      <trkpt lat="48.37575" lon="2.57107">
        <ele>127</ele>
        <time>2026-04-17T11:44:55.740Z</time>
      </trkpt>
      <trkpt lat="48.3758" lon="2.57105">
        <ele>127</ele>
        <time>2026-04-17T11:45:00.225Z</time>
      </trkpt>
      <trkpt lat="48.37585" lon="2.57104">
        <ele>127</ele>
        <time>2026-04-17T11:45:04.406Z</time>
      </trkpt>
      <trkpt lat="48.3759" lon="2.57104">
        <ele>127</ele>
        <time>2026-04-17T11:45:08.666Z</time>
      </trkpt>
      <trkpt lat="48.37595" lon="2.571">
        <ele>127</ele>
        <time>2026-04-17T11:45:12.887Z</time>
      </trkpt>
      <trkpt lat="48.376" lon="2.57096">
        <ele>127</ele>
        <time>2026-04-17T11:45:17.128Z</time>
      </trkpt>
      <trkpt lat="48.37605" lon="2.57097">
        <ele>127</ele>
        <time>2026-04-17T11:45:21.301Z</time>
      </trkpt>
      <trkpt lat="48.3761" lon="2.57097">
        <ele>127</ele>
        <time>2026-04-17T11:45:25.524Z</time>
      </trkpt>
      <trkpt lat="48.37615" lon="2.57096">
        <ele>127</ele>
        <time>2026-04-17T11:45:29.765Z</time>
      </trkpt>
      <trkpt lat="48.3762" lon="2.57094">
        <ele>127</ele>
        <time>2026-04-17T11:45:33.904Z</time>
      </trkpt>
      <trkpt lat="48.37625" lon="2.57092">
        <ele>127</ele>
        <time>2026-04-17T11:45:38.544Z</time>
      </trkpt>
      <trkpt lat="48.3763" lon="2.57091">
        <ele>126</ele>
        <time>2026-04-17T11:45:42.606Z</time>
      </trkpt>
      <trkpt lat="48.37636" lon="2.57088">
        <ele>126</ele>
        <time>2026-04-17T11:45:46.870Z</time>
      </trkpt>
      <trkpt lat="48.3764" lon="2.57086">
        <ele>126</ele>
        <time>2026-04-17T11:45:51.223Z</time>
      </trkpt>
      <trkpt lat="48.37644" lon="2.57079">
        <ele>126</ele>
        <time>2026-04-17T11:45:55.644Z</time>
      </trkpt>
      <trkpt lat="48.37648" lon="2.57073">
        <ele>126</ele>
        <time>2026-04-17T11:46:00.005Z</time>
      </trkpt>
      <trkpt lat="48.37652" lon="2.57068">
        <ele>125</ele>
        <time>2026-04-17T11:46:08.740Z</time>
      </trkpt>
      <trkpt lat="48.37657" lon="2.57064">
        <ele>125</ele>
        <time>2026-04-17T11:46:16.740Z</time>
      </trkpt>
      <trkpt lat="48.37662" lon="2.5706">
        <ele>125</ele>
        <time>2026-04-17T11:46:21.328Z</time>
      </trkpt>
      <trkpt lat="48.37667" lon="2.57057">
        <ele>125</ele>
        <time>2026-04-17T11:46:25.605Z</time>
      </trkpt>
      <trkpt lat="48.37671" lon="2.57054">
        <ele>125</ele>
        <time>2026-04-17T11:46:29.681Z</time>
      </trkpt>
      <trkpt lat="48.37676" lon="2.57051">
        <ele>125</ele>
        <time>2026-04-17T11:46:33.740Z</time>
      </trkpt>
      <trkpt lat="48.37681" lon="2.57051">
        <ele>121</ele>
        <time>2026-04-17T11:46:37.882Z</time>
      </trkpt>
      <trkpt lat="48.37685" lon="2.57053">
        <ele>121</ele>
        <time>2026-04-17T11:46:41.907Z</time>
      </trkpt>
      <trkpt lat="48.37687" lon="2.57061">
        <ele>121</ele>
        <time>2026-04-17T11:46:46.464Z</time>
      </trkpt>
      <trkpt lat="48.37692" lon="2.57061">
        <ele>121</ele>
        <time>2026-04-17T11:46:50.740Z</time>
      </trkpt>
      <trkpt lat="48.37696" lon="2.57058">
        <ele>121</ele>
        <time>2026-04-17T11:46:54.830Z</time>
      </trkpt>
      <trkpt lat="48.37698" lon="2.57061">
        <ele>121</ele>
        <time>2026-04-17T11:46:59.166Z</time>
      </trkpt>
      <trkpt lat="48.37698" lon="2.57063">
        <ele>121</ele>
        <time>2026-04-17T11:47:03.703Z</time>
      </trkpt>
      <trkpt lat="48.37698" lon="2.57068">
        <ele>121</ele>
        <time>2026-04-17T11:47:08.210Z</time>
      </trkpt>
      <trkpt lat="48.37699" lon="2.57077">
        <ele>121</ele>
        <time>2026-04-17T11:47:12.629Z</time>
      </trkpt>
      <trkpt lat="48.377" lon="2.57084">
        <ele>121</ele>
        <time>2026-04-17T11:47:16.648Z</time>
      </trkpt>
      <trkpt lat="48.37701" lon="2.5709">
        <ele>121</ele>
        <time>2026-04-17T11:47:20.666Z</time>
      </trkpt>
      <trkpt lat="48.37703" lon="2.57097">
        <ele>121</ele>
        <time>2026-04-17T11:47:24.745Z</time>
      </trkpt>
      <trkpt lat="48.37704" lon="2.57103">
        <ele>122</ele>
        <time>2026-04-17T11:47:28.740Z</time>
      </trkpt>
      <trkpt lat="48.37703" lon="2.57108">
        <ele>122</ele>
        <time>2026-04-17T11:47:33.209Z</time>
      </trkpt>
      <trkpt lat="48.37704" lon="2.57116">
        <ele>122</ele>
        <time>2026-04-17T11:47:37.366Z</time>
      </trkpt>
      <trkpt lat="48.37706" lon="2.57125">
        <ele>123</ele>
        <time>2026-04-17T11:47:41.740Z</time>
      </trkpt>
      <trkpt lat="48.37707" lon="2.57133">
        <ele>123</ele>
        <time>2026-04-17T11:47:45.958Z</time>
      </trkpt>
      <trkpt lat="48.37708" lon="2.57142">
        <ele>123</ele>
        <time>2026-04-17T11:47:50.207Z</time>
      </trkpt>
      <trkpt lat="48.37709" lon="2.57151">
        <ele>121</ele>
        <time>2026-04-17T11:47:54.740Z</time>
      </trkpt>
      <trkpt lat="48.3771" lon="2.57159">
        <ele>121</ele>
        <time>2026-04-17T11:47:58.963Z</time>
      </trkpt>
      <trkpt lat="48.37712" lon="2.57167">
        <ele>121</ele>
        <time>2026-04-17T11:48:03.433Z</time>
      </trkpt>
      <trkpt lat="48.37713" lon="2.57176">
        <ele>121</ele>
        <time>2026-04-17T11:48:07.528Z</time>
      </trkpt>
      <trkpt lat="48.37714" lon="2.57185">
        <ele>120</ele>
        <time>2026-04-17T11:48:11.667Z</time>
      </trkpt>
      <trkpt lat="48.37716" lon="2.57192">
        <ele>120</ele>
        <time>2026-04-17T11:48:15.727Z</time>
      </trkpt>
      <trkpt lat="48.37717" lon="2.572">
        <ele>120</ele>
        <time>2026-04-17T11:48:20.250Z</time>
      </trkpt>
      <trkpt lat="48.37718" lon="2.57208">
        <ele>120</ele>
        <time>2026-04-17T11:48:24.713Z</time>
      </trkpt>
      <trkpt lat="48.3772" lon="2.57215">
        <ele>120</ele>
        <time>2026-04-17T11:48:29.191Z</time>
      </trkpt>
      <trkpt lat="48.37721" lon="2.57224">
        <ele>120</ele>
        <time>2026-04-17T11:48:33.740Z</time>
      </trkpt>
      <trkpt lat="48.37722" lon="2.57233">
        <ele>120</ele>
        <time>2026-04-17T11:48:38.364Z</time>
      </trkpt>
      <trkpt lat="48.37723" lon="2.5724">
        <ele>121</ele>
        <time>2026-04-17T11:48:42.991Z</time>
      </trkpt>
      <trkpt lat="48.37726" lon="2.57248">
        <ele>121</ele>
        <time>2026-04-17T11:48:47.452Z</time>
      </trkpt>
      <trkpt lat="48.37727" lon="2.57257">
        <ele>121</ele>
        <time>2026-04-17T11:48:52.110Z</time>
      </trkpt>
      <trkpt lat="48.37727" lon="2.57264">
        <ele>121</ele>
        <time>2026-04-17T11:48:56.206Z</time>
      </trkpt>
      <trkpt lat="48.37728" lon="2.57271">
        <ele>121</ele>
        <time>2026-04-17T11:49:00.669Z</time>
      </trkpt>
      <trkpt lat="48.37729" lon="2.57278">
        <ele>121</ele>
        <time>2026-04-17T11:49:04.730Z</time>
      </trkpt>
      <trkpt lat="48.3773" lon="2.57286">
        <ele>121</ele>
        <time>2026-04-17T11:49:08.966Z</time>
      </trkpt>
      <trkpt lat="48.37732" lon="2.57294">
        <ele>121</ele>
        <time>2026-04-17T11:49:13.365Z</time>
      </trkpt>
      <trkpt lat="48.37733" lon="2.57302">
        <ele>121</ele>
        <time>2026-04-17T11:49:17.546Z</time>
      </trkpt>
      <trkpt lat="48.37734" lon="2.5731">
        <ele>121</ele>
        <time>2026-04-17T11:49:21.564Z</time>
      </trkpt>
      <trkpt lat="48.37736" lon="2.57318">
        <ele>121</ele>
        <time>2026-04-17T11:49:25.712Z</time>
      </trkpt>
      <trkpt lat="48.37737" lon="2.57327">
        <ele>119</ele>
        <time>2026-04-17T11:49:29.740Z</time>
      </trkpt>
      <trkpt lat="48.37738" lon="2.57335">
        <ele>119</ele>
        <time>2026-04-17T11:49:34.465Z</time>
      </trkpt>
      <trkpt lat="48.3774" lon="2.57344">
        <ele>119</ele>
        <time>2026-04-17T11:49:38.543Z</time>
      </trkpt>
      <trkpt lat="48.3774" lon="2.57352">
        <ele>120</ele>
        <time>2026-04-17T11:49:42.649Z</time>
      </trkpt>
      <trkpt lat="48.37741" lon="2.5736">
        <ele>120</ele>
        <time>2026-04-17T11:49:47.308Z</time>
      </trkpt>
      <trkpt lat="48.37743" lon="2.57369">
        <ele>120</ele>
        <time>2026-04-17T11:49:51.744Z</time>
      </trkpt>
      <trkpt lat="48.37745" lon="2.57378">
        <ele>120</ele>
        <time>2026-04-17T11:49:56.147Z</time>
      </trkpt>
      <trkpt lat="48.37747" lon="2.57383">
        <ele>120</ele>
        <time>2026-04-17T11:50:00.626Z</time>
      </trkpt>
      <trkpt lat="48.37748" lon="2.57391">
        <ele>120</ele>
        <time>2026-04-17T11:50:04.740Z</time>
      </trkpt>
      <trkpt lat="48.37748" lon="2.57398">
        <ele>120</ele>
        <time>2026-04-17T11:50:09.347Z</time>
      </trkpt>
      <trkpt lat="48.37749" lon="2.57406">
        <ele>121</ele>
        <time>2026-04-17T11:50:13.740Z</time>
      </trkpt>
      <trkpt lat="48.37749" lon="2.57413">
        <ele>121</ele>
        <time>2026-04-17T11:50:18.306Z</time>
      </trkpt>
      <trkpt lat="48.3775" lon="2.57419">
        <ele>121</ele>
        <time>2026-04-17T11:50:22.385Z</time>
      </trkpt>
      <trkpt lat="48.37752" lon="2.57427">
        <ele>121</ele>
        <time>2026-04-17T11:50:26.565Z</time>
      </trkpt>
      <trkpt lat="48.37753" lon="2.57434">
        <ele>122</ele>
        <time>2026-04-17T11:50:30.610Z</time>
      </trkpt>
      <trkpt lat="48.37754" lon="2.57442">
        <ele>122</ele>
        <time>2026-04-17T11:50:35.074Z</time>
      </trkpt>
      <trkpt lat="48.37755" lon="2.5745">
        <ele>122</ele>
        <time>2026-04-17T11:50:39.552Z</time>
      </trkpt>
      <trkpt lat="48.37756" lon="2.57459">
        <ele>123</ele>
        <time>2026-04-17T11:50:43.690Z</time>
      </trkpt>
      <trkpt lat="48.37757" lon="2.57467">
        <ele>123</ele>
        <time>2026-04-17T11:50:47.740Z</time>
      </trkpt>
      <trkpt lat="48.37758" lon="2.57475">
        <ele>123</ele>
        <time>2026-04-17T11:50:51.740Z</time>
      </trkpt>
      <trkpt lat="48.3776" lon="2.57484">
        <ele>123</ele>
        <time>2026-04-17T11:50:56.740Z</time>
      </trkpt>
      <trkpt lat="48.37762" lon="2.57492">
        <ele>124</ele>
        <time>2026-04-17T11:51:00.740Z</time>
      </trkpt>
      <trkpt lat="48.37763" lon="2.575">
        <ele>124</ele>
        <time>2026-04-17T11:51:05.491Z</time>
      </trkpt>
      <trkpt lat="48.37765" lon="2.57507">
        <ele>125</ele>
        <time>2026-04-17T11:51:09.586Z</time>
      </trkpt>
      <trkpt lat="48.37767" lon="2.57516">
        <ele>127</ele>
        <time>2026-04-17T11:51:14.125Z</time>
      </trkpt>
      <trkpt lat="48.37768" lon="2.57524">
        <ele>127</ele>
        <time>2026-04-17T11:51:18.571Z</time>
      </trkpt>
      <trkpt lat="48.3777" lon="2.57532">
        <ele>127</ele>
        <time>2026-04-17T11:51:23.213Z</time>
      </trkpt>
      <trkpt lat="48.37772" lon="2.57541">
        <ele>127</ele>
        <time>2026-04-17T11:51:27.232Z</time>
      </trkpt>
      <trkpt lat="48.37773" lon="2.57549">
        <ele>128</ele>
        <time>2026-04-17T11:51:31.746Z</time>
      </trkpt>
      <trkpt lat="48.37774" lon="2.57558">
        <ele>128</ele>
        <time>2026-04-17T11:51:36.268Z</time>
      </trkpt>
      <trkpt lat="48.37775" lon="2.57565">
        <ele>128</ele>
        <time>2026-04-17T11:51:40.688Z</time>
      </trkpt>
      <trkpt lat="48.37776" lon="2.57572">
        <ele>129</ele>
        <time>2026-04-17T11:51:45.047Z</time>
      </trkpt>
      <trkpt lat="48.37778" lon="2.5758">
        <ele>129</ele>
        <time>2026-04-17T11:51:49.404Z</time>
      </trkpt>
      <trkpt lat="48.37778" lon="2.57588">
        <ele>129</ele>
        <time>2026-04-17T11:51:53.740Z</time>
      </trkpt>
      <trkpt lat="48.37779" lon="2.57596">
        <ele>129</ele>
        <time>2026-04-17T11:51:58.209Z</time>
      </trkpt>
      <trkpt lat="48.3778" lon="2.57603">
        <ele>129</ele>
        <time>2026-04-17T11:52:02.689Z</time>
      </trkpt>
      <trkpt lat="48.37781" lon="2.5761">
        <ele>129</ele>
        <time>2026-04-17T11:52:06.707Z</time>
      </trkpt>
      <trkpt lat="48.37783" lon="2.57616">
        <ele>129</ele>
        <time>2026-04-17T11:52:10.726Z</time>
      </trkpt>
      <trkpt lat="48.37787" lon="2.57622">
        <ele>129</ele>
        <time>2026-04-17T11:52:15.129Z</time>
      </trkpt>
      <trkpt lat="48.37791" lon="2.57628">
        <ele>129</ele>
        <time>2026-04-17T11:52:19.646Z</time>
      </trkpt>
      <trkpt lat="48.37796" lon="2.57634">
        <ele>130</ele>
        <time>2026-04-17T11:52:23.664Z</time>
      </trkpt>
      <trkpt lat="48.37801" lon="2.57639">
        <ele>130</ele>
        <time>2026-04-17T11:52:28.108Z</time>
      </trkpt>
      <trkpt lat="48.37806" lon="2.57645">
        <ele>130</ele>
        <time>2026-04-17T11:52:32.485Z</time>
      </trkpt>
      <trkpt lat="48.37811" lon="2.5765">
        <ele>130</ele>
        <time>2026-04-17T11:52:36.740Z</time>
      </trkpt>
      <trkpt lat="48.37816" lon="2.57656">
        <ele>129</ele>
        <time>2026-04-17T11:52:41.164Z</time>
      </trkpt>
      <trkpt lat="48.3782" lon="2.57663">
        <ele>129</ele>
        <time>2026-04-17T11:52:45.566Z</time>
      </trkpt>
      <trkpt lat="48.37825" lon="2.57669">
        <ele>129</ele>
        <time>2026-04-17T11:52:49.686Z</time>
      </trkpt>
      <trkpt lat="48.37829" lon="2.57675">
        <ele>129</ele>
        <time>2026-04-17T11:52:53.747Z</time>
      </trkpt>
      <trkpt lat="48.37834" lon="2.5768">
        <ele>129</ele>
        <time>2026-04-17T11:52:57.740Z</time>
      </trkpt>
      <trkpt lat="48.37839" lon="2.57685">
        <ele>129</ele>
        <time>2026-04-17T11:53:02.324Z</time>
      </trkpt>
      <trkpt lat="48.37844" lon="2.57691">
        <ele>129</ele>
        <time>2026-04-17T11:53:06.864Z</time>
      </trkpt>
      <trkpt lat="48.37848" lon="2.57695">
        <ele>129</ele>
        <time>2026-04-17T11:53:10.890Z</time>
      </trkpt>
      <trkpt lat="48.37853" lon="2.577">
        <ele>129</ele>
        <time>2026-04-17T11:53:15.489Z</time>
      </trkpt>
      <trkpt lat="48.37857" lon="2.57706">
        <ele>129</ele>
        <time>2026-04-17T11:53:19.946Z</time>
      </trkpt>
      <trkpt lat="48.37862" lon="2.57713">
        <ele>129</ele>
        <time>2026-04-17T11:53:24.328Z</time>
      </trkpt>
      <trkpt lat="48.37867" lon="2.5772">
        <ele>129</ele>
        <time>2026-04-17T11:53:28.748Z</time>
      </trkpt>
      <trkpt lat="48.37872" lon="2.57726">
        <ele>129</ele>
        <time>2026-04-17T11:53:33.266Z</time>
      </trkpt>
      <trkpt lat="48.37877" lon="2.57732">
        <ele>128</ele>
        <time>2026-04-17T11:53:37.707Z</time>
      </trkpt>
      <trkpt lat="48.37882" lon="2.57737">
        <ele>128</ele>
        <time>2026-04-17T11:53:42.143Z</time>
      </trkpt>
      <trkpt lat="48.37886" lon="2.57743">
        <ele>128</ele>
        <time>2026-04-17T11:53:46.386Z</time>
      </trkpt>
      <trkpt lat="48.37891" lon="2.57749">
        <ele>128</ele>
        <time>2026-04-17T11:53:50.523Z</time>
      </trkpt>
      <trkpt lat="48.37895" lon="2.57754">
        <ele>128</ele>
        <time>2026-04-17T11:53:54.870Z</time>
      </trkpt>
      <trkpt lat="48.37899" lon="2.57759">
        <ele>128</ele>
        <time>2026-04-17T11:53:59.331Z</time>
      </trkpt>
      <trkpt lat="48.37904" lon="2.57765">
        <ele>127</ele>
        <time>2026-04-17T11:54:03.543Z</time>
      </trkpt>
      <trkpt lat="48.37908" lon="2.57771">
        <ele>127</ele>
        <time>2026-04-17T11:54:07.647Z</time>
      </trkpt>
      <trkpt lat="48.37913" lon="2.57777">
        <ele>127</ele>
        <time>2026-04-17T11:54:11.727Z</time>
      </trkpt>
      <trkpt lat="48.37918" lon="2.57783">
        <ele>127</ele>
        <time>2026-04-17T11:54:15.745Z</time>
      </trkpt>
      <trkpt lat="48.37922" lon="2.57788">
        <ele>127</ele>
        <time>2026-04-17T11:54:19.740Z</time>
      </trkpt>
      <trkpt lat="48.37927" lon="2.57793">
        <ele>127</ele>
        <time>2026-04-17T11:54:23.960Z</time>
      </trkpt>
      <trkpt lat="48.37931" lon="2.57799">
        <ele>126</ele>
        <time>2026-04-17T11:54:28.740Z</time>
      </trkpt>
      <trkpt lat="48.37935" lon="2.57805">
        <ele>126</ele>
        <time>2026-04-17T11:54:33.066Z</time>
      </trkpt>
      <trkpt lat="48.3794" lon="2.57811">
        <ele>126</ele>
        <time>2026-04-17T11:54:37.623Z</time>
      </trkpt>
      <trkpt lat="48.37944" lon="2.57816">
        <ele>126</ele>
        <time>2026-04-17T11:54:42.188Z</time>
      </trkpt>
      <trkpt lat="48.37949" lon="2.57821">
        <ele>127</ele>
        <time>2026-04-17T11:54:46.506Z</time>
      </trkpt>
      <trkpt lat="48.37953" lon="2.57827">
        <ele>127</ele>
        <time>2026-04-17T11:54:51.003Z</time>
      </trkpt>
      <trkpt lat="48.37958" lon="2.57833">
        <ele>127</ele>
        <time>2026-04-17T11:54:55.507Z</time>
      </trkpt>
      <trkpt lat="48.37962" lon="2.57838">
        <ele>126</ele>
        <time>2026-04-17T11:54:59.930Z</time>
      </trkpt>
      <trkpt lat="48.37972" lon="2.57843">
        <ele>126</ele>
        <time>2026-04-17T11:55:03.960Z</time>
      </trkpt>
      <trkpt lat="48.37975" lon="2.57852">
        <ele>127</ele>
        <time>2026-04-17T11:55:08.740Z</time>
      </trkpt>
      <trkpt lat="48.37981" lon="2.57859">
        <ele>127</ele>
        <time>2026-04-17T11:55:13.008Z</time>
      </trkpt>
      <trkpt lat="48.37986" lon="2.57867">
        <ele>127</ele>
        <time>2026-04-17T11:55:17.427Z</time>
      </trkpt>
      <trkpt lat="48.37992" lon="2.57875">
        <ele>127</ele>
        <time>2026-04-17T11:55:21.847Z</time>
      </trkpt>
      <trkpt lat="48.37998" lon="2.57882">
        <ele>127</ele>
        <time>2026-04-17T11:55:26.243Z</time>
      </trkpt>
      <trkpt lat="48.38004" lon="2.57889">
        <ele>127</ele>
        <time>2026-04-17T11:55:30.704Z</time>
      </trkpt>
      <trkpt lat="48.3801" lon="2.57895">
        <ele>127</ele>
        <time>2026-04-17T11:55:34.740Z</time>
      </trkpt>
      <trkpt lat="48.38016" lon="2.57902">
        <ele>127</ele>
        <time>2026-04-17T11:55:39.185Z</time>
      </trkpt>
      <trkpt lat="48.38021" lon="2.57908">
        <ele>127</ele>
        <time>2026-04-17T11:55:43.684Z</time>
      </trkpt>
      <trkpt lat="48.38027" lon="2.57915">
        <ele>127</ele>
        <time>2026-04-17T11:55:47.743Z</time>
      </trkpt>
      <trkpt lat="48.38033" lon="2.57922">
        <ele>127</ele>
        <time>2026-04-17T11:55:52.249Z</time>
      </trkpt>
      <trkpt lat="48.38039" lon="2.5793">
        <ele>127</ele>
        <time>2026-04-17T11:55:56.305Z</time>
      </trkpt>
      <trkpt lat="48.38044" lon="2.57936">
        <ele>127</ele>
        <time>2026-04-17T11:56:00.347Z</time>
      </trkpt>
      <trkpt lat="48.3805" lon="2.57945">
        <ele>127</ele>
        <time>2026-04-17T11:56:04.467Z</time>
      </trkpt>
      <trkpt lat="48.38056" lon="2.57952">
        <ele>127</ele>
        <time>2026-04-17T11:56:08.888Z</time>
      </trkpt>
      <trkpt lat="48.38063" lon="2.5796">
        <ele>126</ele>
        <time>2026-04-17T11:56:13.402Z</time>
      </trkpt>
      <trkpt lat="48.3807" lon="2.57968">
        <ele>126</ele>
        <time>2026-04-17T11:56:17.846Z</time>
      </trkpt>
      <trkpt lat="48.38075" lon="2.57975">
        <ele>126</ele>
        <time>2026-04-17T11:56:22.208Z</time>
      </trkpt>
      <trkpt lat="48.38081" lon="2.57982">
        <ele>126</ele>
        <time>2026-04-17T11:56:26.601Z</time>
      </trkpt>
      <trkpt lat="48.38087" lon="2.57989">
        <ele>125</ele>
        <time>2026-04-17T11:56:30.944Z</time>
      </trkpt>
      <trkpt lat="48.38093" lon="2.57995">
        <ele>125</ele>
        <time>2026-04-17T11:56:35.167Z</time>
      </trkpt>
      <trkpt lat="48.38099" lon="2.58003">
        <ele>124</ele>
        <time>2026-04-17T11:56:39.467Z</time>
      </trkpt>
      <trkpt lat="48.38103" lon="2.5801">
        <ele>124</ele>
        <time>2026-04-17T11:56:43.740Z</time>
      </trkpt>
      <trkpt lat="48.38109" lon="2.58017">
        <ele>123</ele>
        <time>2026-04-17T11:56:48.133Z</time>
      </trkpt>
      <trkpt lat="48.38114" lon="2.58022">
        <ele>123</ele>
        <time>2026-04-17T11:56:52.433Z</time>
      </trkpt>
      <trkpt lat="48.38118" lon="2.58028">
        <ele>123</ele>
        <time>2026-04-17T11:56:56.725Z</time>
      </trkpt>
      <trkpt lat="48.38122" lon="2.58032">
        <ele>123</ele>
        <time>2026-04-17T11:57:01.170Z</time>
      </trkpt>
      <trkpt lat="48.38124" lon="2.58035">
        <ele>123</ele>
        <time>2026-04-17T11:57:05.206Z</time>
      </trkpt>
      <trkpt lat="48.38126" lon="2.58036">
        <ele>122</ele>
        <time>2026-04-17T11:57:09.567Z</time>
      </trkpt>
      <trkpt lat="48.38128" lon="2.58037">
        <ele>122</ele>
        <time>2026-04-17T11:57:13.867Z</time>
      </trkpt>
      <trkpt lat="48.38128" lon="2.5804">
        <ele>122</ele>
        <time>2026-04-17T11:57:18.133Z</time>
      </trkpt>
      <trkpt lat="48.38128" lon="2.58047">
        <ele>123</ele>
        <time>2026-04-17T11:57:22.305Z</time>
      </trkpt>
      <trkpt lat="48.38128" lon="2.58055">
        <ele>123</ele>
        <time>2026-04-17T11:57:26.751Z</time>
      </trkpt>
      <trkpt lat="48.38128" lon="2.58063">
        <ele>123</ele>
        <time>2026-04-17T11:57:31.068Z</time>
      </trkpt>
      <trkpt lat="48.38127" lon="2.58071">
        <ele>123</ele>
        <time>2026-04-17T11:57:35.506Z</time>
      </trkpt>
      <trkpt lat="48.38126" lon="2.58079">
        <ele>123</ele>
        <time>2026-04-17T11:57:39.892Z</time>
      </trkpt>
      <trkpt lat="48.38125" lon="2.58087">
        <ele>123</ele>
        <time>2026-04-17T11:57:44.227Z</time>
      </trkpt>
      <trkpt lat="48.38123" lon="2.58095">
        <ele>123</ele>
        <time>2026-04-17T11:57:48.568Z</time>
      </trkpt>
      <trkpt lat="48.38122" lon="2.58103">
        <ele>123</ele>
        <time>2026-04-17T11:57:52.962Z</time>
      </trkpt>
      <trkpt lat="48.3812" lon="2.5811">
        <ele>123</ele>
        <time>2026-04-17T11:57:57.349Z</time>
      </trkpt>
      <trkpt lat="48.38119" lon="2.58117">
        <ele>123</ele>
        <time>2026-04-17T11:58:01.726Z</time>
      </trkpt>
      <trkpt lat="48.38118" lon="2.58125">
        <ele>123</ele>
        <time>2026-04-17T11:58:06.145Z</time>
      </trkpt>
      <trkpt lat="48.38116" lon="2.58133">
        <ele>123</ele>
        <time>2026-04-17T11:58:10.565Z</time>
      </trkpt>
      <trkpt lat="48.38115" lon="2.58141">
        <ele>123</ele>
        <time>2026-04-17T11:58:14.909Z</time>
      </trkpt>
      <trkpt lat="48.38114" lon="2.5815">
        <ele>123</ele>
        <time>2026-04-17T11:58:18.962Z</time>
      </trkpt>
      <trkpt lat="48.38113" lon="2.58157">
        <ele>124</ele>
        <time>2026-04-17T11:58:23.324Z</time>
      </trkpt>
      <trkpt lat="48.38112" lon="2.58165">
        <ele>124</ele>
        <time>2026-04-17T11:58:27.665Z</time>
      </trkpt>
      <trkpt lat="48.38111" lon="2.58174">
        <ele>124</ele>
        <time>2026-04-17T11:58:32.103Z</time>
      </trkpt>
      <trkpt lat="48.38109" lon="2.58182">
        <ele>124</ele>
        <time>2026-04-17T11:58:36.606Z</time>
      </trkpt>
      <trkpt lat="48.38108" lon="2.5819">
        <ele>124</ele>
        <time>2026-04-17T11:58:41.001Z</time>
      </trkpt>
      <trkpt lat="48.38106" lon="2.58199">
        <ele>124</ele>
        <time>2026-04-17T11:58:45.387Z</time>
      </trkpt>
      <trkpt lat="48.38105" lon="2.58207">
        <ele>124</ele>
        <time>2026-04-17T11:58:49.866Z</time>
      </trkpt>
      <trkpt lat="48.38104" lon="2.58215">
        <ele>125</ele>
        <time>2026-04-17T11:58:54.388Z</time>
      </trkpt>
      <trkpt lat="48.38104" lon="2.58224">
        <ele>125</ele>
        <time>2026-04-17T12:00:15.740Z</time>
      </trkpt>
      <trkpt lat="48.38103" lon="2.58233">
        <ele>125</ele>
        <time>2026-04-17T12:00:20.404Z</time>
      </trkpt>
      <trkpt lat="48.38102" lon="2.5824">
        <ele>124</ele>
        <time>2026-04-17T12:00:24.526Z</time>
      </trkpt>
      <trkpt lat="48.38101" lon="2.58245">
        <ele>124</ele>
        <time>2026-04-17T12:00:28.624Z</time>
      </trkpt>
      <trkpt lat="48.381" lon="2.58254">
        <ele>124</ele>
        <time>2026-04-17T12:00:33.349Z</time>
      </trkpt>
      <trkpt lat="48.381" lon="2.58263">
        <ele>124</ele>
        <time>2026-04-17T12:00:37.462Z</time>
      </trkpt>
      <trkpt lat="48.381" lon="2.58271">
        <ele>124</ele>
        <time>2026-04-17T12:00:41.548Z</time>
      </trkpt>
      <trkpt lat="48.38099" lon="2.5828">
        <ele>124</ele>
        <time>2026-04-17T12:00:45.764Z</time>
      </trkpt>
      <trkpt lat="48.38096" lon="2.58288">
        <ele>125</ele>
        <time>2026-04-17T12:00:50.004Z</time>
      </trkpt>
      <trkpt lat="48.38095" lon="2.58296">
        <ele>125</ele>
        <time>2026-04-17T12:00:54.245Z</time>
      </trkpt>
      <trkpt lat="48.38094" lon="2.58305">
        <ele>125</ele>
        <time>2026-04-17T12:00:58.544Z</time>
      </trkpt>
      <trkpt lat="48.38092" lon="2.58313">
        <ele>125</ele>
        <time>2026-04-17T12:01:02.803Z</time>
      </trkpt>
      <trkpt lat="48.38091" lon="2.58322">
        <ele>125</ele>
        <time>2026-04-17T12:01:07.445Z</time>
      </trkpt>
      <trkpt lat="48.38089" lon="2.5833">
        <ele>125</ele>
        <time>2026-04-17T12:01:11.544Z</time>
      </trkpt>
      <trkpt lat="48.38088" lon="2.58338">
        <ele>125</ele>
        <time>2026-04-17T12:01:16.361Z</time>
      </trkpt>
      <trkpt lat="48.38086" lon="2.58346">
        <ele>125</ele>
        <time>2026-04-17T12:01:20.740Z</time>
      </trkpt>
      <trkpt lat="48.38085" lon="2.58355">
        <ele>125</ele>
        <time>2026-04-17T12:01:25.645Z</time>
      </trkpt>
      <trkpt lat="48.38083" lon="2.58363">
        <ele>125</ele>
        <time>2026-04-17T12:01:30.303Z</time>
      </trkpt>
      <trkpt lat="48.38082" lon="2.58372">
        <ele>125</ele>
        <time>2026-04-17T12:01:34.443Z</time>
      </trkpt>
      <trkpt lat="48.3808" lon="2.5838">
        <ele>124</ele>
        <time>2026-04-17T12:01:38.648Z</time>
      </trkpt>
      <trkpt lat="48.38078" lon="2.58388">
        <ele>124</ele>
        <time>2026-04-17T12:01:42.889Z</time>
      </trkpt>
      <trkpt lat="48.38076" lon="2.58396">
        <ele>124</ele>
        <time>2026-04-17T12:01:47.564Z</time>
      </trkpt>
      <trkpt lat="48.38074" lon="2.58404">
        <ele>124</ele>
        <time>2026-04-17T12:01:51.984Z</time>
      </trkpt>
      <trkpt lat="48.38073" lon="2.58413">
        <ele>124</ele>
        <time>2026-04-17T12:01:56.387Z</time>
      </trkpt>
      <trkpt lat="48.38071" lon="2.58421">
        <ele>124</ele>
        <time>2026-04-17T12:02:00.747Z</time>
      </trkpt>
      <trkpt lat="48.3807" lon="2.5843">
        <ele>124</ele>
        <time>2026-04-17T12:02:05.108Z</time>
      </trkpt>
      <trkpt lat="48.38069" lon="2.58439">
        <ele>124</ele>
        <time>2026-04-17T12:02:09.545Z</time>
      </trkpt>
      <trkpt lat="48.38068" lon="2.58448">
        <ele>124</ele>
        <time>2026-04-17T12:02:13.740Z</time>
      </trkpt>
      <trkpt lat="48.38067" lon="2.58457">
        <ele>124</ele>
        <time>2026-04-17T12:02:18.303Z</time>
      </trkpt>
      <trkpt lat="48.38065" lon="2.58465">
        <ele>124</ele>
        <time>2026-04-17T12:03:00.740Z</time>
      </trkpt>
      <trkpt lat="48.38064" lon="2.58474">
        <ele>124</ele>
        <time>2026-04-17T12:03:05.256Z</time>
      </trkpt>
      <trkpt lat="48.38063" lon="2.58484">
        <ele>124</ele>
        <time>2026-04-17T12:03:09.740Z</time>
      </trkpt>
      <trkpt lat="48.38062" lon="2.58493">
        <ele>123</ele>
        <time>2026-04-17T12:03:13.740Z</time>
      </trkpt>
      <trkpt lat="48.3806" lon="2.58502">
        <ele>123</ele>
        <time>2026-04-17T12:03:18.261Z</time>
      </trkpt>
      <trkpt lat="48.38059" lon="2.58511">
        <ele>123</ele>
        <time>2026-04-17T12:03:22.544Z</time>
      </trkpt>
      <trkpt lat="48.38058" lon="2.5852">
        <ele>124</ele>
        <time>2026-04-17T12:03:26.740Z</time>
      </trkpt>
      <trkpt lat="48.38056" lon="2.58528">
        <ele>124</ele>
        <time>2026-04-17T12:03:31.299Z</time>
      </trkpt>
      <trkpt lat="48.38055" lon="2.58537">
        <ele>124</ele>
        <time>2026-04-17T12:03:35.879Z</time>
      </trkpt>
      <trkpt lat="48.38054" lon="2.58546">
        <ele>123</ele>
        <time>2026-04-17T12:03:40.463Z</time>
      </trkpt>
      <trkpt lat="48.38049" lon="2.58548">
        <ele>123</ele>
        <time>2026-04-17T12:03:44.740Z</time>
      </trkpt>
      <trkpt lat="48.38047" lon="2.58558">
        <ele>123</ele>
        <time>2026-04-17T12:03:48.866Z</time>
      </trkpt>
      <trkpt lat="48.38047" lon="2.58569">
        <ele>123</ele>
        <time>2026-04-17T12:03:53.405Z</time>
      </trkpt>
      <trkpt lat="48.38047" lon="2.58578">
        <ele>123</ele>
        <time>2026-04-17T12:03:57.740Z</time>
      </trkpt>
      <trkpt lat="48.38046" lon="2.58587">
        <ele>123</ele>
        <time>2026-04-17T12:04:02.324Z</time>
      </trkpt>
      <trkpt lat="48.38045" lon="2.58596">
        <ele>123</ele>
        <time>2026-04-17T12:04:06.770Z</time>
      </trkpt>
      <trkpt lat="48.38044" lon="2.58604">
        <ele>124</ele>
        <time>2026-04-17T12:04:11.187Z</time>
      </trkpt>
      <trkpt lat="48.38043" lon="2.58613">
        <ele>124</ele>
        <time>2026-04-17T12:04:15.248Z</time>
      </trkpt>
      <trkpt lat="48.38042" lon="2.58622">
        <ele>124</ele>
        <time>2026-04-17T12:04:19.608Z</time>
      </trkpt>
      <trkpt lat="48.3804" lon="2.5863">
        <ele>125</ele>
        <time>2026-04-17T12:04:24.088Z</time>
      </trkpt>
      <trkpt lat="48.38039" lon="2.58639">
        <ele>125</ele>
        <time>2026-04-17T12:04:28.483Z</time>
      </trkpt>
      <trkpt lat="48.38038" lon="2.58647">
        <ele>125</ele>
        <time>2026-04-17T12:04:32.867Z</time>
      </trkpt>
      <trkpt lat="48.38037" lon="2.58656">
        <ele>125</ele>
        <time>2026-04-17T12:04:37.244Z</time>
      </trkpt>
      <trkpt lat="48.38036" lon="2.58664">
        <ele>125</ele>
        <time>2026-04-17T12:04:41.740Z</time>
      </trkpt>
      <trkpt lat="48.38034" lon="2.58673">
        <ele>125</ele>
        <time>2026-04-17T12:04:46.307Z</time>
      </trkpt>
      <trkpt lat="48.38032" lon="2.58681">
        <ele>125</ele>
        <time>2026-04-17T12:04:50.740Z</time>
      </trkpt>
      <trkpt lat="48.38031" lon="2.58688">
        <ele>125</ele>
        <time>2026-04-17T12:04:55.164Z</time>
      </trkpt>
      <trkpt lat="48.3803" lon="2.58696">
        <ele>125</ele>
        <time>2026-04-17T12:04:59.258Z</time>
      </trkpt>
      <trkpt lat="48.3803" lon="2.58704">
        <ele>125</ele>
        <time>2026-04-17T12:05:03.766Z</time>
      </trkpt>
      <trkpt lat="48.3803" lon="2.58712">
        <ele>125</ele>
        <time>2026-04-17T12:05:08.321Z</time>
      </trkpt>
      <trkpt lat="48.38029" lon="2.58721">
        <ele>125</ele>
        <time>2026-04-17T12:05:12.740Z</time>
      </trkpt>
      <trkpt lat="48.38029" lon="2.58729">
        <ele>125</ele>
        <time>2026-04-17T12:05:17.279Z</time>
      </trkpt>
      <trkpt lat="48.38029" lon="2.58738">
        <ele>125</ele>
        <time>2026-04-17T12:05:21.743Z</time>
      </trkpt>
      <trkpt lat="48.38028" lon="2.58747">
        <ele>125</ele>
        <time>2026-04-17T12:05:26.179Z</time>
      </trkpt>
      <trkpt lat="48.38028" lon="2.58756">
        <ele>125</ele>
        <time>2026-04-17T12:05:30.598Z</time>
      </trkpt>
      <trkpt lat="48.38028" lon="2.58765">
        <ele>124</ele>
        <time>2026-04-17T12:05:34.941Z</time>
      </trkpt>
      <trkpt lat="48.38028" lon="2.58773">
        <ele>124</ele>
        <time>2026-04-17T12:05:39.344Z</time>
      </trkpt>
      <trkpt lat="48.38029" lon="2.58782">
        <ele>124</ele>
        <time>2026-04-17T12:05:43.644Z</time>
      </trkpt>
      <trkpt lat="48.38028" lon="2.58791">
        <ele>124</ele>
        <time>2026-04-17T12:05:48.004Z</time>
      </trkpt>
      <trkpt lat="48.38028" lon="2.58799">
        <ele>123</ele>
        <time>2026-04-17T12:05:52.383Z</time>
      </trkpt>
      <trkpt lat="48.38027" lon="2.58808">
        <ele>123</ele>
        <time>2026-04-17T12:05:56.708Z</time>
      </trkpt>
      <trkpt lat="48.38027" lon="2.58817">
        <ele>123</ele>
        <time>2026-04-17T12:06:01.008Z</time>
      </trkpt>
      <trkpt lat="48.38031" lon="2.58823">
        <ele>122</ele>
        <time>2026-04-17T12:06:05.368Z</time>
      </trkpt>
      <trkpt lat="48.38037" lon="2.58823">
        <ele>122</ele>
        <time>2026-04-17T12:06:09.685Z</time>
      </trkpt>
      <trkpt lat="48.38042" lon="2.58822">
        <ele>123</ele>
        <time>2026-04-17T12:06:13.951Z</time>
      </trkpt>
      <trkpt lat="48.38047" lon="2.58818">
        <ele>124</ele>
        <time>2026-04-17T12:06:18.246Z</time>
      </trkpt>
      <trkpt lat="48.38052" lon="2.58815">
        <ele>124</ele>
        <time>2026-04-17T12:06:22.586Z</time>
      </trkpt>
      <trkpt lat="48.38058" lon="2.58812">
        <ele>124</ele>
        <time>2026-04-17T12:06:26.846Z</time>
      </trkpt>
      <trkpt lat="48.38063" lon="2.58809">
        <ele>124</ele>
        <time>2026-04-17T12:06:31.128Z</time>
      </trkpt>
      <trkpt lat="48.38069" lon="2.58807">
        <ele>124</ele>
        <time>2026-04-17T12:06:35.446Z</time>
      </trkpt>
      <trkpt lat="48.38075" lon="2.58804">
        <ele>123</ele>
        <time>2026-04-17T12:06:39.740Z</time>
      </trkpt>
      <trkpt lat="48.3808" lon="2.58799">
        <ele>123</ele>
        <time>2026-04-17T12:06:44.123Z</time>
      </trkpt>
      <trkpt lat="48.38085" lon="2.58795">
        <ele>123</ele>
        <time>2026-04-17T12:06:48.423Z</time>
      </trkpt>
      <trkpt lat="48.3809" lon="2.58791">
        <ele>124</ele>
        <time>2026-04-17T12:06:52.664Z</time>
      </trkpt>
      <trkpt lat="48.38095" lon="2.58787">
        <ele>124</ele>
        <time>2026-04-17T12:06:56.964Z</time>
      </trkpt>
      <trkpt lat="48.381" lon="2.58783">
        <ele>123</ele>
        <time>2026-04-17T12:07:01.217Z</time>
      </trkpt>
      <trkpt lat="48.38105" lon="2.58778">
        <ele>123</ele>
        <time>2026-04-17T12:07:05.606Z</time>
      </trkpt>
      <trkpt lat="48.3811" lon="2.58773">
        <ele>123</ele>
        <time>2026-04-17T12:07:09.884Z</time>
      </trkpt>
      <trkpt lat="48.38114" lon="2.58768">
        <ele>123</ele>
        <time>2026-04-17T12:07:14.302Z</time>
      </trkpt>
      <trkpt lat="48.38119" lon="2.58764">
        <ele>123</ele>
        <time>2026-04-17T12:07:18.729Z</time>
      </trkpt>
      <trkpt lat="48.38123" lon="2.58759">
        <ele>125</ele>
        <time>2026-04-17T12:07:23.046Z</time>
      </trkpt>
      <trkpt lat="48.38126" lon="2.58752">
        <ele>123</ele>
        <time>2026-04-17T12:07:27.227Z</time>
      </trkpt>
      <trkpt lat="48.3813" lon="2.58745">
        <ele>123</ele>
        <time>2026-04-17T12:07:31.504Z</time>
      </trkpt>
      <trkpt lat="48.38134" lon="2.5874">
        <ele>123</ele>
        <time>2026-04-17T12:07:35.803Z</time>
      </trkpt>
      <trkpt lat="48.38139" lon="2.58736">
        <ele>123</ele>
        <time>2026-04-17T12:07:40.265Z</time>
      </trkpt>
      <trkpt lat="48.38144" lon="2.58734">
        <ele>124</ele>
        <time>2026-04-17T12:07:44.667Z</time>
      </trkpt>
      <trkpt lat="48.38149" lon="2.58731">
        <ele>124</ele>
        <time>2026-04-17T12:07:49.644Z</time>
      </trkpt>
      <trkpt lat="48.38154" lon="2.58728">
        <ele>121</ele>
        <time>2026-04-17T12:07:54.065Z</time>
      </trkpt>
      <trkpt lat="48.38159" lon="2.58726">
        <ele>121</ele>
        <time>2026-04-17T12:07:58.388Z</time>
      </trkpt>
      <trkpt lat="48.38165" lon="2.58724">
        <ele>121</ele>
        <time>2026-04-17T12:08:02.740Z</time>
      </trkpt>
      <trkpt lat="48.3817" lon="2.58725">
        <ele>121</ele>
        <time>2026-04-17T12:08:07.227Z</time>
      </trkpt>
      <trkpt lat="48.38175" lon="2.5873">
        <ele>121</ele>
        <time>2026-04-17T12:08:11.469Z</time>
      </trkpt>
      <trkpt lat="48.3818" lon="2.58731">
        <ele>121</ele>
        <time>2026-04-17T12:08:15.828Z</time>
      </trkpt>
      <trkpt lat="48.38185" lon="2.58729">
        <ele>118</ele>
        <time>2026-04-17T12:08:20.325Z</time>
      </trkpt>
      <trkpt lat="48.3819" lon="2.58728">
        <ele>118</ele>
        <time>2026-04-17T12:08:24.740Z</time>
      </trkpt>
      <trkpt lat="48.38195" lon="2.58728">
        <ele>118</ele>
        <time>2026-04-17T12:08:29.283Z</time>
      </trkpt>
      <trkpt lat="48.382" lon="2.58725">
        <ele>118</ele>
        <time>2026-04-17T12:08:33.643Z</time>
      </trkpt>
      <trkpt lat="48.38205" lon="2.58723">
        <ele>118</ele>
        <time>2026-04-17T12:08:38.124Z</time>
      </trkpt>
      <trkpt lat="48.3821" lon="2.58721">
        <ele>114</ele>
        <time>2026-04-17T12:08:42.587Z</time>
      </trkpt>
      <trkpt lat="48.38215" lon="2.58719">
        <ele>114</ele>
        <time>2026-04-17T12:08:47.079Z</time>
      </trkpt>
      <trkpt lat="48.3822" lon="2.58716">
        <ele>114</ele>
        <time>2026-04-17T12:08:51.204Z</time>
      </trkpt>
      <trkpt lat="48.38224" lon="2.58714">
        <ele>114</ele>
        <time>2026-04-17T12:08:55.726Z</time>
      </trkpt>
      <trkpt lat="48.38228" lon="2.58714">
        <ele>114</ele>
        <time>2026-04-17T12:09:00.193Z</time>
      </trkpt>
      <trkpt lat="48.38232" lon="2.58711">
        <ele>114</ele>
        <time>2026-04-17T12:09:04.446Z</time>
      </trkpt>
      <trkpt lat="48.38238" lon="2.58712">
        <ele>110</ele>
        <time>2026-04-17T12:09:08.849Z</time>
      </trkpt>
      <trkpt lat="48.38241" lon="2.5871">
        <ele>110</ele>
        <time>2026-04-17T12:09:13.244Z</time>
      </trkpt>
      <trkpt lat="48.38244" lon="2.58711">
        <ele>110</ele>
        <time>2026-04-17T12:09:17.527Z</time>
      </trkpt>
      <trkpt lat="48.38248" lon="2.5871">
        <ele>110</ele>
        <time>2026-04-17T12:09:21.963Z</time>
      </trkpt>
      <trkpt lat="48.38249" lon="2.58704">
        <ele>112</ele>
        <time>2026-04-17T12:09:26.289Z</time>
      </trkpt>
      <trkpt lat="48.38253" lon="2.58701">
        <ele>112</ele>
        <time>2026-04-17T12:09:30.726Z</time>
      </trkpt>
      <trkpt lat="48.38258" lon="2.58702">
        <ele>112</ele>
        <time>2026-04-17T12:09:35.145Z</time>
      </trkpt>
      <trkpt lat="48.38262" lon="2.587">
        <ele>112</ele>
        <time>2026-04-17T12:09:39.549Z</time>
      </trkpt>
      <trkpt lat="48.38266" lon="2.58697">
        <ele>108</ele>
        <time>2026-04-17T12:09:43.959Z</time>
      </trkpt>
      <trkpt lat="48.3827" lon="2.58701">
        <ele>108</ele>
        <time>2026-04-17T12:09:48.347Z</time>
      </trkpt>
      <trkpt lat="48.38275" lon="2.58699">
        <ele>108</ele>
        <time>2026-04-17T12:09:52.740Z</time>
      </trkpt>
      <trkpt lat="48.38279" lon="2.58702">
        <ele>108</ele>
        <time>2026-04-17T12:09:57.323Z</time>
      </trkpt>
      <trkpt lat="48.38283" lon="2.58702">
        <ele>108</ele>
        <time>2026-04-17T12:10:01.740Z</time>
      </trkpt>
      <trkpt lat="48.38287" lon="2.58706">
        <ele>108</ele>
        <time>2026-04-17T12:10:06.305Z</time>
      </trkpt>
      <trkpt lat="48.38285" lon="2.58711">
        <ele>107</ele>
        <time>2026-04-17T12:10:10.740Z</time>
      </trkpt>
      <trkpt lat="48.38288" lon="2.5872">
        <ele>107</ele>
        <time>2026-04-17T12:10:15.026Z</time>
      </trkpt>
      <trkpt lat="48.38292" lon="2.58724">
        <ele>104</ele>
        <time>2026-04-17T12:10:19.343Z</time>
      </trkpt>
      <trkpt lat="48.38297" lon="2.58726">
        <ele>104</ele>
        <time>2026-04-17T12:10:23.643Z</time>
      </trkpt>
      <trkpt lat="48.38301" lon="2.58729">
        <ele>104</ele>
        <time>2026-04-17T12:10:28.064Z</time>
      </trkpt>
      <trkpt lat="48.38305" lon="2.58732">
        <ele>104</ele>
        <time>2026-04-17T12:10:32.381Z</time>
      </trkpt>
      <trkpt lat="48.3831" lon="2.58737">
        <ele>105</ele>
        <time>2026-04-17T12:10:36.740Z</time>
      </trkpt>
      <trkpt lat="48.38315" lon="2.5874">
        <ele>105</ele>
        <time>2026-04-17T12:10:41.162Z</time>
      </trkpt>
      <trkpt lat="48.3832" lon="2.58744">
        <ele>104</ele>
        <time>2026-04-17T12:10:45.709Z</time>
      </trkpt>
      <trkpt lat="48.38325" lon="2.58747">
        <ele>104</ele>
        <time>2026-04-17T12:10:50.146Z</time>
      </trkpt>
      <trkpt lat="48.3833" lon="2.5875">
        <ele>104</ele>
        <time>2026-04-17T12:10:54.463Z</time>
      </trkpt>
      <trkpt lat="48.38335" lon="2.58753">
        <ele>104</ele>
        <time>2026-04-17T12:10:58.908Z</time>
      </trkpt>
      <trkpt lat="48.38341" lon="2.58754">
        <ele>104</ele>
        <time>2026-04-17T12:11:03.268Z</time>
      </trkpt>
      <trkpt lat="48.38347" lon="2.58757">
        <ele>104</ele>
        <time>2026-04-17T12:11:07.689Z</time>
      </trkpt>
      <trkpt lat="48.38352" lon="2.5876">
        <ele>102</ele>
        <time>2026-04-17T12:11:12.050Z</time>
      </trkpt>
      <trkpt lat="48.38357" lon="2.58763">
        <ele>102</ele>
        <time>2026-04-17T12:11:16.425Z</time>
      </trkpt>
      <trkpt lat="48.38361" lon="2.58763">
        <ele>102</ele>
        <time>2026-04-17T12:11:20.740Z</time>
      </trkpt>
      <trkpt lat="48.38365" lon="2.58765">
        <ele>104</ele>
        <time>2026-04-17T12:11:25.740Z</time>
      </trkpt>
      <trkpt lat="48.3837" lon="2.58768">
        <ele>104</ele>
        <time>2026-04-17T12:11:29.962Z</time>
      </trkpt>
      <trkpt lat="48.38375" lon="2.58772">
        <ele>101</ele>
        <time>2026-04-17T12:11:34.327Z</time>
      </trkpt>
      <trkpt lat="48.38381" lon="2.58774">
        <ele>101</ele>
        <time>2026-04-17T12:11:38.346Z</time>
      </trkpt>
      <trkpt lat="48.38386" lon="2.58777">
        <ele>101</ele>
        <time>2026-04-17T12:11:42.740Z</time>
      </trkpt>
      <trkpt lat="48.38392" lon="2.5878">
        <ele>101</ele>
        <time>2026-04-17T12:11:47.264Z</time>
      </trkpt>
      <trkpt lat="48.38397" lon="2.58783">
        <ele>101</ele>
        <time>2026-04-17T12:11:51.727Z</time>
      </trkpt>
      <trkpt lat="48.38403" lon="2.58785">
        <ele>101</ele>
        <time>2026-04-17T12:11:56.247Z</time>
      </trkpt>
      <trkpt lat="48.38408" lon="2.58786">
        <ele>101</ele>
        <time>2026-04-17T12:12:00.666Z</time>
      </trkpt>
      <trkpt lat="48.38414" lon="2.58785">
        <ele>101</ele>
        <time>2026-04-17T12:12:05.006Z</time>
      </trkpt>
      <trkpt lat="48.38419" lon="2.58783">
        <ele>101</ele>
        <time>2026-04-17T12:12:09.148Z</time>
      </trkpt>
      <trkpt lat="48.38424" lon="2.58782">
        <ele>101</ele>
        <time>2026-04-17T12:12:13.166Z</time>
      </trkpt>
      <trkpt lat="48.3843" lon="2.58782">
        <ele>101</ele>
        <time>2026-04-17T12:12:17.544Z</time>
      </trkpt>
      <trkpt lat="48.38436" lon="2.58782">
        <ele>102</ele>
        <time>2026-04-17T12:12:21.771Z</time>
      </trkpt>
      <trkpt lat="48.38441" lon="2.58783">
        <ele>102</ele>
        <time>2026-04-17T12:12:26.224Z</time>
      </trkpt>
      <trkpt lat="48.38446" lon="2.58786">
        <ele>102</ele>
        <time>2026-04-17T12:12:30.684Z</time>
      </trkpt>
      <trkpt lat="48.38451" lon="2.58789">
        <ele>102</ele>
        <time>2026-04-17T12:12:35.104Z</time>
      </trkpt>
      <trkpt lat="48.38455" lon="2.58791">
        <ele>102</ele>
        <time>2026-04-17T12:12:39.447Z</time>
      </trkpt>
      <trkpt lat="48.3846" lon="2.58794">
        <ele>103</ele>
        <time>2026-04-17T12:12:43.466Z</time>
      </trkpt>
      <trkpt lat="48.38465" lon="2.58798">
        <ele>103</ele>
        <time>2026-04-17T12:12:47.904Z</time>
      </trkpt>
      <trkpt lat="48.3847" lon="2.58803">
        <ele>103</ele>
        <time>2026-04-17T12:12:52.007Z</time>
      </trkpt>
      <trkpt lat="48.38475" lon="2.58806">
        <ele>103</ele>
        <time>2026-04-17T12:12:56.740Z</time>
      </trkpt>
      <trkpt lat="48.38481" lon="2.58807">
        <ele>103</ele>
        <time>2026-04-17T12:13:01.248Z</time>
      </trkpt>
      <trkpt lat="48.38486" lon="2.58807">
        <ele>103</ele>
        <time>2026-04-17T12:13:05.693Z</time>
      </trkpt>
      <trkpt lat="48.38491" lon="2.58806">
        <ele>103</ele>
        <time>2026-04-17T12:13:09.740Z</time>
      </trkpt>
      <trkpt lat="48.38495" lon="2.58803">
        <ele>103</ele>
        <time>2026-04-17T12:13:14.293Z</time>
      </trkpt>
      <trkpt lat="48.38499" lon="2.58798">
        <ele>103</ele>
        <time>2026-04-17T12:13:18.329Z</time>
      </trkpt>
      <trkpt lat="48.38501" lon="2.58792">
        <ele>103</ele>
        <time>2026-04-17T12:13:22.740Z</time>
      </trkpt>
      <trkpt lat="48.38503" lon="2.58784">
        <ele>101</ele>
        <time>2026-04-17T12:13:27.391Z</time>
      </trkpt>
      <trkpt lat="48.38505" lon="2.58775">
        <ele>101</ele>
        <time>2026-04-17T12:13:31.528Z</time>
      </trkpt>
      <trkpt lat="48.38507" lon="2.58767">
        <ele>101</ele>
        <time>2026-04-17T12:13:35.960Z</time>
      </trkpt>
      <trkpt lat="48.38508" lon="2.58758">
        <ele>100</ele>
        <time>2026-04-17T12:13:39.971Z</time>
      </trkpt>
      <trkpt lat="48.3851" lon="2.58749">
        <ele>100</ele>
        <time>2026-04-17T12:13:44.012Z</time>
      </trkpt>
      <trkpt lat="48.38511" lon="2.5874">
        <ele>100</ele>
        <time>2026-04-17T12:13:48.628Z</time>
      </trkpt>
      <trkpt lat="48.38512" lon="2.58732">
        <ele>100</ele>
        <time>2026-04-17T12:13:52.655Z</time>
      </trkpt>
      <trkpt lat="48.38513" lon="2.58724">
        <ele>100</ele>
        <time>2026-04-17T12:13:56.853Z</time>
      </trkpt>
      <trkpt lat="48.38514" lon="2.58716">
        <ele>100</ele>
        <time>2026-04-17T12:14:00.975Z</time>
      </trkpt>
      <trkpt lat="48.38515" lon="2.58707">
        <ele>100</ele>
        <time>2026-04-17T12:14:05.668Z</time>
      </trkpt>
      <trkpt lat="48.38516" lon="2.58699">
        <ele>100</ele>
        <time>2026-04-17T12:14:10.215Z</time>
      </trkpt>
      <trkpt lat="48.38517" lon="2.58691">
        <ele>100</ele>
        <time>2026-04-17T12:14:14.253Z</time>
      </trkpt>
      <trkpt lat="48.38517" lon="2.58681">
        <ele>100</ele>
        <time>2026-04-17T12:14:18.415Z</time>
      </trkpt>
      <trkpt lat="48.38518" lon="2.58672">
        <ele>101</ele>
        <time>2026-04-17T12:14:22.494Z</time>
      </trkpt>
      <trkpt lat="48.38518" lon="2.58664">
        <ele>101</ele>
        <time>2026-04-17T12:14:26.614Z</time>
      </trkpt>
      <trkpt lat="48.38518" lon="2.58655">
        <ele>101</ele>
        <time>2026-04-17T12:14:31.154Z</time>
      </trkpt>
      <trkpt lat="48.38519" lon="2.58647">
        <ele>102</ele>
        <time>2026-04-17T12:14:35.608Z</time>
      </trkpt>
      <trkpt lat="48.38521" lon="2.58638">
        <ele>102</ele>
        <time>2026-04-17T12:14:40.070Z</time>
      </trkpt>
      <trkpt lat="48.38522" lon="2.5863">
        <ele>102</ele>
        <time>2026-04-17T12:14:44.473Z</time>
      </trkpt>
      <trkpt lat="48.38523" lon="2.58622">
        <ele>102</ele>
        <time>2026-04-17T12:14:48.970Z</time>
      </trkpt>
      <trkpt lat="48.38523" lon="2.58613">
        <ele>102</ele>
        <time>2026-04-17T12:14:53.449Z</time>
      </trkpt>
      <trkpt lat="48.38524" lon="2.58605">
        <ele>102</ele>
        <time>2026-04-17T12:14:57.988Z</time>
      </trkpt>
      <trkpt lat="48.38525" lon="2.58597">
        <ele>102</ele>
        <time>2026-04-17T12:15:02.493Z</time>
      </trkpt>
      <trkpt lat="48.38526" lon="2.58588">
        <ele>102</ele>
        <time>2026-04-17T12:15:07.033Z</time>
      </trkpt>
      <trkpt lat="48.38527" lon="2.58579">
        <ele>102</ele>
        <time>2026-04-17T12:15:11.231Z</time>
      </trkpt>
      <trkpt lat="48.38528" lon="2.5857">
        <ele>102</ele>
        <time>2026-04-17T12:15:15.740Z</time>
      </trkpt>
      <trkpt lat="48.38528" lon="2.58561">
        <ele>103</ele>
        <time>2026-04-17T12:15:19.740Z</time>
      </trkpt>
      <trkpt lat="48.3853" lon="2.58552">
        <ele>103</ele>
        <time>2026-04-17T12:15:24.413Z</time>
      </trkpt>
      <trkpt lat="48.38531" lon="2.58544">
        <ele>103</ele>
        <time>2026-04-17T12:15:28.849Z</time>
      </trkpt>
      <trkpt lat="48.38533" lon="2.58535">
        <ele>104</ele>
        <time>2026-04-17T12:15:33.330Z</time>
      </trkpt>
      <trkpt lat="48.38533" lon="2.58527">
        <ele>104</ele>
        <time>2026-04-17T12:15:37.740Z</time>
      </trkpt>
      <trkpt lat="48.38535" lon="2.58518">
        <ele>104</ele>
        <time>2026-04-17T12:15:42.229Z</time>
      </trkpt>
      <trkpt lat="48.38536" lon="2.5851">
        <ele>106</ele>
        <time>2026-04-17T12:15:46.675Z</time>
      </trkpt>
      <trkpt lat="48.38537" lon="2.58501">
        <ele>106</ele>
        <time>2026-04-17T12:15:51.113Z</time>
      </trkpt>
      <trkpt lat="48.38538" lon="2.58492">
        <ele>106</ele>
        <time>2026-04-17T12:15:55.667Z</time>
      </trkpt>
      <trkpt lat="48.38538" lon="2.58483">
        <ele>108</ele>
        <time>2026-04-17T12:16:00.070Z</time>
      </trkpt>
      <trkpt lat="48.3854" lon="2.58475">
        <ele>108</ele>
        <time>2026-04-17T12:16:04.447Z</time>
      </trkpt>
      <trkpt lat="48.38541" lon="2.58467">
        <ele>108</ele>
        <time>2026-04-17T12:16:08.491Z</time>
      </trkpt>
      <trkpt lat="48.3854" lon="2.58458">
        <ele>109</ele>
        <time>2026-04-17T12:16:13.013Z</time>
      </trkpt>
      <trkpt lat="48.38541" lon="2.58449">
        <ele>109</ele>
        <time>2026-04-17T12:16:17.373Z</time>
      </trkpt>
      <trkpt lat="48.38542" lon="2.58441">
        <ele>108</ele>
        <time>2026-04-17T12:16:21.494Z</time>
      </trkpt>
      <trkpt lat="48.38543" lon="2.58433">
        <ele>108</ele>
        <time>2026-04-17T12:16:26.034Z</time>
      </trkpt>
      <trkpt lat="48.38544" lon="2.58424">
        <ele>110</ele>
        <time>2026-04-17T12:16:30.574Z</time>
      </trkpt>
      <trkpt lat="48.38545" lon="2.58416">
        <ele>110</ele>
        <time>2026-04-17T12:16:34.591Z</time>
      </trkpt>
      <trkpt lat="48.38546" lon="2.58407">
        <ele>110</ele>
        <time>2026-04-17T12:16:39.114Z</time>
      </trkpt>
      <trkpt lat="48.38547" lon="2.58398">
        <ele>111</ele>
        <time>2026-04-17T12:16:43.747Z</time>
      </trkpt>
      <trkpt lat="48.38548" lon="2.5839">
        <ele>111</ele>
        <time>2026-04-17T12:16:48.073Z</time>
      </trkpt>
      <trkpt lat="48.38549" lon="2.58382">
        <ele>111</ele>
        <time>2026-04-17T12:16:52.552Z</time>
      </trkpt>
      <trkpt lat="48.3855" lon="2.58373">
        <ele>111</ele>
        <time>2026-04-17T12:16:56.969Z</time>
      </trkpt>
      <trkpt lat="48.38551" lon="2.58365">
        <ele>111</ele>
        <time>2026-04-17T12:17:00.975Z</time>
      </trkpt>
      <trkpt lat="48.38553" lon="2.58356">
        <ele>111</ele>
        <time>2026-04-17T12:17:05.573Z</time>
      </trkpt>
      <trkpt lat="48.38553" lon="2.58348">
        <ele>111</ele>
        <time>2026-04-17T12:17:09.740Z</time>
      </trkpt>
      <trkpt lat="48.38555" lon="2.5834">
        <ele>109</ele>
        <time>2026-04-17T12:17:14.012Z</time>
      </trkpt>
      <trkpt lat="48.38556" lon="2.58332">
        <ele>109</ele>
        <time>2026-04-17T12:17:18.074Z</time>
      </trkpt>
      <trkpt lat="48.38556" lon="2.58323">
        <ele>109</ele>
        <time>2026-04-17T12:17:22.493Z</time>
      </trkpt>
      <trkpt lat="48.38557" lon="2.58314">
        <ele>109</ele>
        <time>2026-04-17T12:17:26.740Z</time>
      </trkpt>
      <trkpt lat="48.38558" lon="2.58305">
        <ele>109</ele>
        <time>2026-04-17T12:17:31.128Z</time>
      </trkpt>
      <trkpt lat="48.38558" lon="2.58297">
        <ele>109</ele>
        <time>2026-04-17T12:17:35.513Z</time>
      </trkpt>
      <trkpt lat="48.38559" lon="2.5829">
        <ele>110</ele>
        <time>2026-04-17T12:17:39.851Z</time>
      </trkpt>
      <trkpt lat="48.38559" lon="2.58282">
        <ele>110</ele>
        <time>2026-04-17T12:17:44.208Z</time>
      </trkpt>
      <trkpt lat="48.38559" lon="2.58275">
        <ele>110</ele>
        <time>2026-04-17T12:17:48.569Z</time>
      </trkpt>
      <trkpt lat="48.3856" lon="2.58268">
        <ele>110</ele>
        <time>2026-04-17T12:17:53.013Z</time>
      </trkpt>
      <trkpt lat="48.38561" lon="2.5826">
        <ele>111</ele>
        <time>2026-04-17T12:17:57.408Z</time>
      </trkpt>
      <trkpt lat="48.38562" lon="2.58252">
        <ele>111</ele>
        <time>2026-04-17T12:18:01.740Z</time>
      </trkpt>
      <trkpt lat="48.38564" lon="2.58244">
        <ele>111</ele>
        <time>2026-04-17T12:18:06.369Z</time>
      </trkpt>
      <trkpt lat="48.38565" lon="2.58236">
        <ele>111</ele>
        <time>2026-04-17T12:18:10.650Z</time>
      </trkpt>
      <trkpt lat="48.38566" lon="2.58228">
        <ele>112</ele>
        <time>2026-04-17T12:18:14.994Z</time>
      </trkpt>
      <trkpt lat="48.38567" lon="2.58219">
        <ele>112</ele>
        <time>2026-04-17T12:18:19.388Z</time>
      </trkpt>
      <trkpt lat="48.38569" lon="2.58211">
        <ele>112</ele>
        <time>2026-04-17T12:18:23.740Z</time>
      </trkpt>
      <trkpt lat="48.38569" lon="2.58203">
        <ele>112</ele>
        <time>2026-04-17T12:18:28.108Z</time>
      </trkpt>
      <trkpt lat="48.38569" lon="2.58193">
        <ele>112</ele>
        <time>2026-04-17T12:18:32.528Z</time>
      </trkpt>
      <trkpt lat="48.3857" lon="2.58184">
        <ele>113</ele>
        <time>2026-04-17T12:18:37.007Z</time>
      </trkpt>
      <trkpt lat="48.38571" lon="2.58176">
        <ele>114</ele>
        <time>2026-04-17T12:18:41.351Z</time>
      </trkpt>
      <trkpt lat="48.38571" lon="2.58168">
        <ele>114</ele>
        <time>2026-04-17T12:18:45.740Z</time>
      </trkpt>
      <trkpt lat="48.38572" lon="2.58161">
        <ele>114</ele>
        <time>2026-04-17T12:18:50.294Z</time>
      </trkpt>
      <trkpt lat="48.38572" lon="2.58153">
        <ele>114</ele>
        <time>2026-04-17T12:18:54.593Z</time>
      </trkpt>
      <trkpt lat="48.38573" lon="2.58146">
        <ele>114</ele>
        <time>2026-04-17T12:18:58.898Z</time>
      </trkpt>
      <trkpt lat="48.38573" lon="2.58139">
        <ele>114</ele>
        <time>2026-04-17T12:19:03.228Z</time>
      </trkpt>
      <trkpt lat="48.38574" lon="2.58133">
        <ele>114</ele>
        <time>2026-04-17T12:19:07.673Z</time>
      </trkpt>
      <trkpt lat="48.38575" lon="2.58126">
        <ele>114</ele>
        <time>2026-04-17T12:19:11.991Z</time>
      </trkpt>
      <trkpt lat="48.38575" lon="2.58117">
        <ele>114</ele>
        <time>2026-04-17T12:19:16.231Z</time>
      </trkpt>
      <trkpt lat="48.38576" lon="2.5811">
        <ele>114</ele>
        <time>2026-04-17T12:19:20.514Z</time>
      </trkpt>
      <trkpt lat="48.38577" lon="2.58102">
        <ele>114</ele>
        <time>2026-04-17T12:19:24.788Z</time>
      </trkpt>
      <trkpt lat="48.38578" lon="2.58094">
        <ele>113</ele>
        <time>2026-04-17T12:19:29.192Z</time>
      </trkpt>
      <trkpt lat="48.38579" lon="2.58086">
        <ele>113</ele>
        <time>2026-04-17T12:19:33.535Z</time>
      </trkpt>
      <trkpt lat="48.3858" lon="2.58078">
        <ele>113</ele>
        <time>2026-04-17T12:19:37.740Z</time>
      </trkpt>
      <trkpt lat="48.38582" lon="2.5807">
        <ele>113</ele>
        <time>2026-04-17T12:19:42.169Z</time>
      </trkpt>
      <trkpt lat="48.38584" lon="2.58061">
        <ele>112</ele>
        <time>2026-04-17T12:19:46.555Z</time>
      </trkpt>
      <trkpt lat="48.38585" lon="2.58053">
        <ele>112</ele>
        <time>2026-04-17T12:19:50.935Z</time>
      </trkpt>
      <trkpt lat="48.38588" lon="2.58046">
        <ele>112</ele>
        <time>2026-04-17T12:19:55.293Z</time>
      </trkpt>
      <trkpt lat="48.38591" lon="2.58039">
        <ele>111</ele>
        <time>2026-04-17T12:19:59.652Z</time>
      </trkpt>
      <trkpt lat="48.38594" lon="2.58033">
        <ele>111</ele>
        <time>2026-04-17T12:20:03.970Z</time>
      </trkpt>
      <trkpt lat="48.38597" lon="2.58027">
        <ele>111</ele>
        <time>2026-04-17T12:20:08.407Z</time>
      </trkpt>
      <trkpt lat="48.386" lon="2.58021">
        <ele>113</ele>
        <time>2026-04-17T12:20:12.707Z</time>
      </trkpt>
      <trkpt lat="48.38602" lon="2.58015">
        <ele>113</ele>
        <time>2026-04-17T12:20:17.195Z</time>
      </trkpt>
      <trkpt lat="48.38603" lon="2.58008">
        <ele>113</ele>
        <time>2026-04-17T12:20:21.530Z</time>
      </trkpt>
      <trkpt lat="48.38602" lon="2.58003">
        <ele>113</ele>
        <time>2026-04-17T12:20:25.907Z</time>
      </trkpt>
      <trkpt lat="48.38598" lon="2.58002">
        <ele>113</ele>
        <time>2026-04-17T12:20:30.395Z</time>
      </trkpt>
      <trkpt lat="48.38593" lon="2.58003">
        <ele>111</ele>
        <time>2026-04-17T12:20:34.740Z</time>
      </trkpt>
      <trkpt lat="48.38588" lon="2.58002">
        <ele>111</ele>
        <time>2026-04-17T12:20:39.115Z</time>
      </trkpt>
      <trkpt lat="48.38583" lon="2.58003">
        <ele>111</ele>
        <time>2026-04-17T12:20:43.493Z</time>
      </trkpt>
      <trkpt lat="48.38577" lon="2.58003">
        <ele>111</ele>
        <time>2026-04-17T12:20:47.912Z</time>
      </trkpt>
      <trkpt lat="48.38572" lon="2.58004">
        <ele>111</ele>
        <time>2026-04-17T12:20:52.212Z</time>
      </trkpt>
      <trkpt lat="48.38567" lon="2.58006">
        <ele>110</ele>
        <time>2026-04-17T12:20:56.692Z</time>
      </trkpt>
      <trkpt lat="48.38561" lon="2.58007">
        <ele>110</ele>
        <time>2026-04-17T12:21:01.035Z</time>
      </trkpt>
      <trkpt lat="48.38555" lon="2.58007">
        <ele>110</ele>
        <time>2026-04-17T12:21:05.430Z</time>
      </trkpt>
      <trkpt lat="48.3855" lon="2.58007">
        <ele>110</ele>
        <time>2026-04-17T12:21:10.012Z</time>
      </trkpt>
      <trkpt lat="48.38545" lon="2.58007">
        <ele>110</ele>
        <time>2026-04-17T12:21:14.550Z</time>
      </trkpt>
      <trkpt lat="48.38539" lon="2.58006">
        <ele>108</ele>
        <time>2026-04-17T12:21:19.047Z</time>
      </trkpt>
      <trkpt lat="48.38535" lon="2.58003">
        <ele>108</ele>
        <time>2026-04-17T12:21:23.450Z</time>
      </trkpt>
      <trkpt lat="48.3853" lon="2.58004">
        <ele>108</ele>
        <time>2026-04-17T12:21:28.015Z</time>
      </trkpt>
      <trkpt lat="48.38527" lon="2.58008">
        <ele>108</ele>
        <time>2026-04-17T12:21:32.512Z</time>
      </trkpt>
      <trkpt lat="48.38525" lon="2.58008">
        <ele>108</ele>
        <time>2026-04-17T12:21:36.633Z</time>
      </trkpt>
      <trkpt lat="48.38522" lon="2.58011">
        <ele>108</ele>
        <time>2026-04-17T12:21:40.652Z</time>
      </trkpt>
      <trkpt lat="48.38518" lon="2.58011">
        <ele>108</ele>
        <time>2026-04-17T12:21:44.687Z</time>
      </trkpt>
      <trkpt lat="48.38514" lon="2.58013">
        <ele>108</ele>
        <time>2026-04-17T12:21:48.740Z</time>
      </trkpt>
      <trkpt lat="48.38511" lon="2.58012">
        <ele>103</ele>
        <time>2026-04-17T12:21:52.912Z</time>
      </trkpt>
      <trkpt lat="48.38508" lon="2.58015">
        <ele>104</ele>
        <time>2026-04-17T12:21:57.393Z</time>
      </trkpt>
      <trkpt lat="48.38506" lon="2.58015">
        <ele>104</ele>
        <time>2026-04-17T12:22:01.854Z</time>
      </trkpt>
      <trkpt lat="48.38503" lon="2.58014">
        <ele>104</ele>
        <time>2026-04-17T12:22:06.335Z</time>
      </trkpt>
      <trkpt lat="48.38499" lon="2.58011">
        <ele>103</ele>
        <time>2026-04-17T12:22:10.654Z</time>
      </trkpt>
      <trkpt lat="48.38491" lon="2.58012">
        <ele>103</ele>
        <time>2026-04-17T12:22:15.012Z</time>
      </trkpt>
      <trkpt lat="48.38488" lon="2.58012">
        <ele>103</ele>
        <time>2026-04-17T12:22:19.272Z</time>
      </trkpt>
      <trkpt lat="48.38484" lon="2.5801">
        <ele>99</ele>
        <time>2026-04-17T12:22:23.675Z</time>
      </trkpt>
      <trkpt lat="48.38479" lon="2.58014">
        <ele>100</ele>
        <time>2026-04-17T12:22:28.110Z</time>
      </trkpt>
      <trkpt lat="48.38477" lon="2.58019">
        <ele>100</ele>
        <time>2026-04-17T12:22:32.649Z</time>
      </trkpt>
      <trkpt lat="48.38475" lon="2.58023">
        <ele>100</ele>
        <time>2026-04-17T12:22:36.950Z</time>
      </trkpt>
      <trkpt lat="48.38475" lon="2.58023">
        <ele>100</ele>
        <time>2026-04-17T12:22:41.293Z</time>
      </trkpt>
      <trkpt lat="48.38473" lon="2.5803">
        <ele>100</ele>
        <time>2026-04-17T12:22:45.371Z</time>
      </trkpt>
      <trkpt lat="48.38468" lon="2.58035">
        <ele>100</ele>
        <time>2026-04-17T12:22:49.740Z</time>
      </trkpt>
      <trkpt lat="48.38462" lon="2.58038">
        <ele>100</ele>
        <time>2026-04-17T12:22:54.074Z</time>
      </trkpt>
      <trkpt lat="48.38456" lon="2.58041">
        <ele>97</ele>
        <time>2026-04-17T12:22:58.374Z</time>
      </trkpt>
      <trkpt lat="48.38451" lon="2.58047">
        <ele>98</ele>
        <time>2026-04-17T12:23:02.675Z</time>
      </trkpt>
      <trkpt lat="48.38448" lon="2.58053">
        <ele>98</ele>
        <time>2026-04-17T12:23:06.740Z</time>
      </trkpt>
      <trkpt lat="48.38442" lon="2.58057">
        <ele>98</ele>
        <time>2026-04-17T12:23:11.370Z</time>
      </trkpt>
      <trkpt lat="48.38437" lon="2.5806">
        <ele>98</ele>
        <time>2026-04-17T12:23:15.740Z</time>
      </trkpt>
      <trkpt lat="48.38433" lon="2.58066">
        <ele>98</ele>
        <time>2026-04-17T12:23:20.354Z</time>
      </trkpt>
      <trkpt lat="48.38428" lon="2.58072">
        <ele>98</ele>
        <time>2026-04-17T12:23:24.740Z</time>
      </trkpt>
      <trkpt lat="48.38424" lon="2.58075">
        <ele>98</ele>
        <time>2026-04-17T12:23:28.740Z</time>
      </trkpt>
      <trkpt lat="48.38421" lon="2.5808">
        <ele>98</ele>
        <time>2026-04-17T12:23:33.255Z</time>
      </trkpt>
      <trkpt lat="48.38416" lon="2.58085">
        <ele>98</ele>
        <time>2026-04-17T12:23:37.692Z</time>
      </trkpt>
      <trkpt lat="48.3841" lon="2.58082">
        <ele>98</ele>
        <time>2026-04-17T12:23:42.214Z</time>
      </trkpt>
      <trkpt lat="48.3841" lon="2.58073">
        <ele>98</ele>
        <time>2026-04-17T12:23:46.592Z</time>
      </trkpt>
      <trkpt lat="48.38411" lon="2.58065">
        <ele>97</ele>
        <time>2026-04-17T12:23:50.968Z</time>
      </trkpt>
      <trkpt lat="48.38412" lon="2.58055">
        <ele>97</ele>
        <time>2026-04-17T12:23:55.329Z</time>
      </trkpt>
      <trkpt lat="48.38414" lon="2.58047">
        <ele>97</ele>
        <time>2026-04-17T12:23:59.630Z</time>
      </trkpt>
      <trkpt lat="48.38415" lon="2.58038">
        <ele>97</ele>
        <time>2026-04-17T12:24:03.740Z</time>
      </trkpt>
      <trkpt lat="48.38417" lon="2.58029">
        <ele>97</ele>
        <time>2026-04-17T12:24:07.914Z</time>
      </trkpt>
      <trkpt lat="48.38419" lon="2.58021">
        <ele>97</ele>
        <time>2026-04-17T12:24:11.950Z</time>
      </trkpt>
      <trkpt lat="48.38421" lon="2.58013">
        <ele>98</ele>
        <time>2026-04-17T12:24:16.071Z</time>
      </trkpt>
      <trkpt lat="48.38423" lon="2.58004">
        <ele>98</ele>
        <time>2026-04-17T12:24:20.209Z</time>
      </trkpt>
      <trkpt lat="48.38425" lon="2.57995">
        <ele>98</ele>
        <time>2026-04-17T12:24:24.271Z</time>
      </trkpt>
      <trkpt lat="48.38427" lon="2.57987">
        <ele>98</ele>
        <time>2026-04-17T12:24:28.733Z</time>
      </trkpt>
      <trkpt lat="48.38429" lon="2.57978">
        <ele>99</ele>
        <time>2026-04-17T12:24:33.247Z</time>
      </trkpt>
      <trkpt lat="48.3843" lon="2.5797">
        <ele>99</ele>
        <time>2026-04-17T12:24:37.740Z</time>
      </trkpt>
      <trkpt lat="48.38431" lon="2.57961">
        <ele>98</ele>
        <time>2026-04-17T12:24:42.232Z</time>
      </trkpt>
      <trkpt lat="48.38431" lon="2.57952">
        <ele>97</ele>
        <time>2026-04-17T12:24:46.652Z</time>
      </trkpt>
      <trkpt lat="48.38431" lon="2.57942">
        <ele>97</ele>
        <time>2026-04-17T12:24:51.085Z</time>
      </trkpt>
      <trkpt lat="48.38431" lon="2.57933">
        <ele>97</ele>
        <time>2026-04-17T12:24:55.471Z</time>
      </trkpt>
      <trkpt lat="48.38432" lon="2.57925">
        <ele>95</ele>
        <time>2026-04-17T12:24:59.890Z</time>
      </trkpt>
      <trkpt lat="48.38433" lon="2.57915">
        <ele>95</ele>
        <time>2026-04-17T12:25:04.267Z</time>
      </trkpt>
      <trkpt lat="48.38433" lon="2.57907">
        <ele>95</ele>
        <time>2026-04-17T12:25:08.345Z</time>
      </trkpt>
      <trkpt lat="48.38433" lon="2.57898">
        <ele>95</ele>
        <time>2026-04-17T12:25:12.740Z</time>
      </trkpt>
      <trkpt lat="48.38434" lon="2.57889">
        <ele>95</ele>
        <time>2026-04-17T12:25:17.066Z</time>
      </trkpt>
      <trkpt lat="48.38435" lon="2.5788">
        <ele>95</ele>
        <time>2026-04-17T12:25:21.169Z</time>
      </trkpt>
      <trkpt lat="48.38437" lon="2.57871">
        <ele>95</ele>
        <time>2026-04-17T12:25:25.606Z</time>
      </trkpt>
      <trkpt lat="48.38439" lon="2.57862">
        <ele>95</ele>
        <time>2026-04-17T12:25:29.740Z</time>
      </trkpt>
      <trkpt lat="48.38442" lon="2.57854">
        <ele>95</ele>
        <time>2026-04-17T12:25:33.740Z</time>
      </trkpt>
      <trkpt lat="48.38444" lon="2.57845">
        <ele>94</ele>
        <time>2026-04-17T12:25:38.686Z</time>
      </trkpt>
      <trkpt lat="48.38447" lon="2.57837">
        <ele>94</ele>
        <time>2026-04-17T12:25:42.955Z</time>
      </trkpt>
      <trkpt lat="48.38449" lon="2.57829">
        <ele>94</ele>
        <time>2026-04-17T12:25:47.147Z</time>
      </trkpt>
      <trkpt lat="48.38453" lon="2.57821">
        <ele>94</ele>
        <time>2026-04-17T12:25:51.435Z</time>
      </trkpt>
      <trkpt lat="48.38455" lon="2.57813">
        <ele>94</ele>
        <time>2026-04-17T12:25:55.740Z</time>
      </trkpt>
      <trkpt lat="48.38458" lon="2.57805">
        <ele>94</ele>
        <time>2026-04-17T12:26:00.368Z</time>
      </trkpt>
      <trkpt lat="48.38461" lon="2.57797">
        <ele>94</ele>
        <time>2026-04-17T12:26:04.654Z</time>
      </trkpt>
      <trkpt lat="48.38462" lon="2.57789">
        <ele>93</ele>
        <time>2026-04-17T12:27:42.740Z</time>
      </trkpt>
      <trkpt lat="48.38464" lon="2.5778">
        <ele>93</ele>
        <time>2026-04-17T12:27:46.740Z</time>
      </trkpt>
      <trkpt lat="48.38464" lon="2.57771">
        <ele>93</ele>
        <time>2026-04-17T12:27:51.018Z</time>
      </trkpt>
      <trkpt lat="48.38465" lon="2.57763">
        <ele>93</ele>
        <time>2026-04-17T12:27:55.183Z</time>
      </trkpt>
      <trkpt lat="48.38466" lon="2.57754">
        <ele>93</ele>
        <time>2026-04-17T12:27:59.320Z</time>
      </trkpt>
      <trkpt lat="48.38468" lon="2.57744">
        <ele>93</ele>
        <time>2026-04-17T12:28:03.740Z</time>
      </trkpt>
      <trkpt lat="48.38468" lon="2.57735">
        <ele>93</ele>
        <time>2026-04-17T12:28:08.305Z</time>
      </trkpt>
      <trkpt lat="48.38468" lon="2.57726">
        <ele>93</ele>
        <time>2026-04-17T12:28:12.740Z</time>
      </trkpt>
      <trkpt lat="48.38469" lon="2.57717">
        <ele>93</ele>
        <time>2026-04-17T12:28:17.384Z</time>
      </trkpt>
      <trkpt lat="48.3847" lon="2.57708">
        <ele>93</ele>
        <time>2026-04-17T12:28:21.897Z</time>
      </trkpt>
      <trkpt lat="48.38471" lon="2.57699">
        <ele>93</ele>
        <time>2026-04-17T12:28:26.362Z</time>
      </trkpt>
      <trkpt lat="48.38472" lon="2.57689">
        <ele>93</ele>
        <time>2026-04-17T12:28:30.740Z</time>
      </trkpt>
      <trkpt lat="48.38474" lon="2.57681">
        <ele>93</ele>
        <time>2026-04-17T12:28:34.954Z</time>
      </trkpt>
      <trkpt lat="48.38475" lon="2.57672">
        <ele>92</ele>
        <time>2026-04-17T12:28:39.277Z</time>
      </trkpt>
      <trkpt lat="48.38476" lon="2.57663">
        <ele>92</ele>
        <time>2026-04-17T12:28:43.525Z</time>
      </trkpt>
      <trkpt lat="48.38477" lon="2.57654">
        <ele>92</ele>
        <time>2026-04-17T12:28:47.903Z</time>
      </trkpt>
      <trkpt lat="48.38478" lon="2.57645">
        <ele>92</ele>
        <time>2026-04-17T12:28:52.461Z</time>
      </trkpt>
      <trkpt lat="48.38478" lon="2.57636">
        <ele>92</ele>
        <time>2026-04-17T12:28:56.957Z</time>
      </trkpt>
      <trkpt lat="48.38478" lon="2.57626">
        <ele>92</ele>
        <time>2026-04-17T12:29:01.422Z</time>
      </trkpt>
      <trkpt lat="48.38478" lon="2.57617">
        <ele>91</ele>
        <time>2026-04-17T12:29:05.969Z</time>
      </trkpt>
      <trkpt lat="48.38479" lon="2.57608">
        <ele>91</ele>
        <time>2026-04-17T12:29:10.405Z</time>
      </trkpt>
      <trkpt lat="48.38479" lon="2.57599">
        <ele>91</ele>
        <time>2026-04-17T12:29:14.604Z</time>
      </trkpt>
      <trkpt lat="48.38478" lon="2.5759">
        <ele>92</ele>
        <time>2026-04-17T12:29:18.758Z</time>
      </trkpt>
      <trkpt lat="48.38476" lon="2.57581">
        <ele>92</ele>
        <time>2026-04-17T12:29:22.965Z</time>
      </trkpt>
      <trkpt lat="48.38475" lon="2.57571">
        <ele>92</ele>
        <time>2026-04-17T12:29:27.044Z</time>
      </trkpt>
      <trkpt lat="48.38474" lon="2.57563">
        <ele>93</ele>
        <time>2026-04-17T12:29:31.164Z</time>
      </trkpt>
      <trkpt lat="48.38473" lon="2.57554">
        <ele>93</ele>
        <time>2026-04-17T12:29:35.277Z</time>
      </trkpt>
      <trkpt lat="48.38474" lon="2.57546">
        <ele>93</ele>
        <time>2026-04-17T12:29:39.543Z</time>
      </trkpt>
      <trkpt lat="48.38475" lon="2.57538">
        <ele>93</ele>
        <time>2026-04-17T12:29:43.760Z</time>
      </trkpt>
      <trkpt lat="48.38477" lon="2.5753">
        <ele>93</ele>
        <time>2026-04-17T12:29:48.025Z</time>
      </trkpt>
      <trkpt lat="48.38478" lon="2.57522">
        <ele>93</ele>
        <time>2026-04-17T12:29:52.300Z</time>
      </trkpt>
      <trkpt lat="48.3848" lon="2.57513">
        <ele>92</ele>
        <time>2026-04-17T12:29:56.584Z</time>
      </trkpt>
      <trkpt lat="48.38482" lon="2.57504">
        <ele>92</ele>
        <time>2026-04-17T12:30:00.740Z</time>
      </trkpt>
      <trkpt lat="48.38484" lon="2.57496">
        <ele>92</ele>
        <time>2026-04-17T12:30:05.124Z</time>
      </trkpt>
      <trkpt lat="48.38486" lon="2.57489">
        <ele>89</ele>
        <time>2026-04-17T12:30:09.458Z</time>
      </trkpt>
      <trkpt lat="48.38489" lon="2.57481">
        <ele>88</ele>
        <time>2026-04-17T12:30:13.763Z</time>
      </trkpt>
      <trkpt lat="48.38492" lon="2.57474">
        <ele>88</ele>
        <time>2026-04-17T12:30:18.119Z</time>
      </trkpt>
      <trkpt lat="48.38495" lon="2.57466">
        <ele>88</ele>
        <time>2026-04-17T12:30:22.504Z</time>
      </trkpt>
      <trkpt lat="48.38498" lon="2.57458">
        <ele>88</ele>
        <time>2026-04-17T12:30:26.740Z</time>
      </trkpt>
      <trkpt lat="48.38502" lon="2.57451">
        <ele>89</ele>
        <time>2026-04-17T12:30:31.124Z</time>
      </trkpt>
      <trkpt lat="48.38505" lon="2.57443">
        <ele>89</ele>
        <time>2026-04-17T12:30:35.364Z</time>
      </trkpt>
      <trkpt lat="48.38509" lon="2.57435">
        <ele>89</ele>
        <time>2026-04-17T12:30:39.680Z</time>
      </trkpt>
      <trkpt lat="48.38513" lon="2.57429">
        <ele>89</ele>
        <time>2026-04-17T12:30:43.963Z</time>
      </trkpt>
      <trkpt lat="48.38516" lon="2.57422">
        <ele>90</ele>
        <time>2026-04-17T12:30:48.144Z</time>
      </trkpt>
      <trkpt lat="48.3852" lon="2.57416">
        <ele>90</ele>
        <time>2026-04-17T12:30:52.420Z</time>
      </trkpt>
      <trkpt lat="48.38522" lon="2.57408">
        <ele>90</ele>
        <time>2026-04-17T12:30:56.617Z</time>
      </trkpt>
      <trkpt lat="48.38525" lon="2.57401">
        <ele>89</ele>
        <time>2026-04-17T12:31:00.841Z</time>
      </trkpt>
      <trkpt lat="48.38528" lon="2.57393">
        <ele>89</ele>
        <time>2026-04-17T12:31:05.083Z</time>
      </trkpt>
      <trkpt lat="48.38531" lon="2.57386">
        <ele>89</ele>
        <time>2026-04-17T12:31:09.399Z</time>
      </trkpt>
      <trkpt lat="48.38533" lon="2.57378">
        <ele>89</ele>
        <time>2026-04-17T12:31:13.656Z</time>
      </trkpt>
      <trkpt lat="48.38534" lon="2.57369">
        <ele>88</ele>
        <time>2026-04-17T12:31:18.017Z</time>
      </trkpt>
      <trkpt lat="48.38536" lon="2.57361">
        <ele>88</ele>
        <time>2026-04-17T12:31:22.225Z</time>
      </trkpt>
      <trkpt lat="48.38538" lon="2.57353">
        <ele>88</ele>
        <time>2026-04-17T12:31:26.422Z</time>
      </trkpt>
      <trkpt lat="48.3854" lon="2.57344">
        <ele>88</ele>
        <time>2026-04-17T12:31:30.723Z</time>
      </trkpt>
      <trkpt lat="48.38541" lon="2.57335">
        <ele>88</ele>
        <time>2026-04-17T12:31:35.083Z</time>
      </trkpt>
      <trkpt lat="48.38543" lon="2.57326">
        <ele>90</ele>
        <time>2026-04-17T12:31:39.366Z</time>
      </trkpt>
      <trkpt lat="48.38542" lon="2.57317">
        <ele>89</ele>
        <time>2026-04-17T12:31:43.699Z</time>
      </trkpt>
      <trkpt lat="48.38542" lon="2.57307">
        <ele>89</ele>
        <time>2026-04-17T12:31:48Z</time>
      </trkpt>
      <trkpt lat="48.38542" lon="2.57298">
        <ele>88</ele>
        <time>2026-04-17T12:31:52.240Z</time>
      </trkpt>
      <trkpt lat="48.38541" lon="2.57289">
        <ele>87</ele>
        <time>2026-04-17T12:31:56.541Z</time>
      </trkpt>
      <trkpt lat="48.3854" lon="2.5728">
        <ele>87</ele>
        <time>2026-04-17T12:32:00.841Z</time>
      </trkpt>
      <trkpt lat="48.38539" lon="2.57271">
        <ele>87</ele>
        <time>2026-04-17T12:32:05.083Z</time>
      </trkpt>
      <trkpt lat="48.38538" lon="2.57263">
        <ele>86</ele>
        <time>2026-04-17T12:32:09.323Z</time>
      </trkpt>
      <trkpt lat="48.38537" lon="2.57254">
        <ele>86</ele>
        <time>2026-04-17T12:32:13.582Z</time>
      </trkpt>
      <trkpt lat="48.38535" lon="2.57245">
        <ele>86</ele>
        <time>2026-04-17T12:32:17.740Z</time>
      </trkpt>
      <trkpt lat="48.38533" lon="2.57237">
        <ele>86</ele>
        <time>2026-04-17T12:32:21.957Z</time>
      </trkpt>
      <trkpt lat="48.38531" lon="2.57228">
        <ele>86</ele>
        <time>2026-04-17T12:32:26.344Z</time>
      </trkpt>
      <trkpt lat="48.38529" lon="2.5722">
        <ele>86</ele>
        <time>2026-04-17T12:32:30.644Z</time>
      </trkpt>
      <trkpt lat="48.38527" lon="2.57212">
        <ele>86</ele>
        <time>2026-04-17T12:32:34.860Z</time>
      </trkpt>
      <trkpt lat="48.38524" lon="2.57204">
        <ele>85</ele>
        <time>2026-04-17T12:32:39.024Z</time>
      </trkpt>
      <trkpt lat="48.38522" lon="2.57196">
        <ele>85</ele>
        <time>2026-04-17T12:32:43.298Z</time>
      </trkpt>
      <trkpt lat="48.3852" lon="2.57188">
        <ele>85</ele>
        <time>2026-04-17T12:32:47.641Z</time>
      </trkpt>
      <trkpt lat="48.38518" lon="2.57179">
        <ele>85</ele>
        <time>2026-04-17T12:32:52.017Z</time>
      </trkpt>
      <trkpt lat="48.38517" lon="2.5717">
        <ele>85</ele>
        <time>2026-04-17T12:32:56.283Z</time>
      </trkpt>
      <trkpt lat="48.38517" lon="2.57161">
        <ele>85</ele>
        <time>2026-04-17T12:33:00.618Z</time>
      </trkpt>
      <trkpt lat="48.38518" lon="2.57153">
        <ele>85</ele>
        <time>2026-04-17T12:33:05.003Z</time>
      </trkpt>
      <trkpt lat="48.38519" lon="2.57145">
        <ele>85</ele>
        <time>2026-04-17T12:33:09.304Z</time>
      </trkpt>
      <trkpt lat="48.3852" lon="2.57136">
        <ele>85</ele>
        <time>2026-04-17T12:33:13.604Z</time>
      </trkpt>
      <trkpt lat="48.38522" lon="2.57128">
        <ele>85</ele>
        <time>2026-04-17T12:33:17.965Z</time>
      </trkpt>
      <trkpt lat="48.38523" lon="2.57119">
        <ele>86</ele>
        <time>2026-04-17T12:33:22.299Z</time>
      </trkpt>
      <trkpt lat="48.38524" lon="2.57111">
        <ele>86</ele>
        <time>2026-04-17T12:33:26.704Z</time>
      </trkpt>
      <trkpt lat="48.38525" lon="2.57102">
        <ele>86</ele>
        <time>2026-04-17T12:33:31.163Z</time>
      </trkpt>
      <trkpt lat="48.38526" lon="2.57094">
        <ele>87</ele>
        <time>2026-04-17T12:33:35.482Z</time>
      </trkpt>
      <trkpt lat="48.38528" lon="2.57086">
        <ele>87</ele>
        <time>2026-04-17T12:33:39.740Z</time>
      </trkpt>
      <trkpt lat="48.38529" lon="2.57077">
        <ele>87</ele>
        <time>2026-04-17T12:33:44.203Z</time>
      </trkpt>
      <trkpt lat="48.38532" lon="2.57069">
        <ele>87</ele>
        <time>2026-04-17T12:33:48.581Z</time>
      </trkpt>
      <trkpt lat="48.38534" lon="2.57061">
        <ele>87</ele>
        <time>2026-04-17T12:33:52.925Z</time>
      </trkpt>
      <trkpt lat="48.38536" lon="2.57053">
        <ele>87</ele>
        <time>2026-04-17T12:33:57.324Z</time>
      </trkpt>
      <trkpt lat="48.38539" lon="2.57045">
        <ele>87</ele>
        <time>2026-04-17T12:34:01.719Z</time>
      </trkpt>
      <trkpt lat="48.38542" lon="2.57037">
        <ele>86</ele>
        <time>2026-04-17T12:34:06.121Z</time>
      </trkpt>
      <trkpt lat="48.38545" lon="2.57029">
        <ele>84</ele>
        <time>2026-04-17T12:34:10.483Z</time>
      </trkpt>
      <trkpt lat="48.38548" lon="2.57021">
        <ele>84</ele>
        <time>2026-04-17T12:34:14.883Z</time>
      </trkpt>
      <trkpt lat="48.38551" lon="2.57014">
        <ele>84</ele>
        <time>2026-04-17T12:34:19.218Z</time>
      </trkpt>
      <trkpt lat="48.38554" lon="2.57006">
        <ele>84</ele>
        <time>2026-04-17T12:34:23.603Z</time>
      </trkpt>
      <trkpt lat="48.38559" lon="2.57">
        <ele>84</ele>
        <time>2026-04-17T12:34:28.024Z</time>
      </trkpt>
      <trkpt lat="48.38563" lon="2.56994">
        <ele>84</ele>
        <time>2026-04-17T12:34:32.405Z</time>
      </trkpt>
      <trkpt lat="48.38567" lon="2.56987">
        <ele>84</ele>
        <time>2026-04-17T12:34:36.740Z</time>
      </trkpt>
      <trkpt lat="48.38571" lon="2.5698">
        <ele>85</ele>
        <time>2026-04-17T12:34:41.257Z</time>
      </trkpt>
      <trkpt lat="48.38575" lon="2.56973">
        <ele>85</ele>
        <time>2026-04-17T12:34:45.720Z</time>
      </trkpt>
      <trkpt lat="48.38578" lon="2.56967">
        <ele>85</ele>
        <time>2026-04-17T12:34:50.080Z</time>
      </trkpt>
      <trkpt lat="48.38581" lon="2.56959">
        <ele>85</ele>
        <time>2026-04-17T12:34:54.501Z</time>
      </trkpt>
      <trkpt lat="48.38583" lon="2.56951">
        <ele>86</ele>
        <time>2026-04-17T12:34:58.876Z</time>
      </trkpt>
      <trkpt lat="48.38586" lon="2.56943">
        <ele>86</ele>
        <time>2026-04-17T12:35:03.265Z</time>
      </trkpt>
      <trkpt lat="48.38589" lon="2.56936">
        <ele>86</ele>
        <time>2026-04-17T12:35:07.623Z</time>
      </trkpt>
      <trkpt lat="48.38591" lon="2.56927">
        <ele>86</ele>
        <time>2026-04-17T12:35:11.863Z</time>
      </trkpt>
      <trkpt lat="48.38593" lon="2.56918">
        <ele>86</ele>
        <time>2026-04-17T12:35:16.163Z</time>
      </trkpt>
      <trkpt lat="48.38594" lon="2.5691">
        <ele>86</ele>
        <time>2026-04-17T12:35:20.343Z</time>
      </trkpt>
      <trkpt lat="48.38596" lon="2.56901">
        <ele>85</ele>
        <time>2026-04-17T12:35:24.543Z</time>
      </trkpt>
      <trkpt lat="48.38597" lon="2.56892">
        <ele>85</ele>
        <time>2026-04-17T12:35:28.739Z</time>
      </trkpt>
      <trkpt lat="48.38598" lon="2.56884">
        <ele>87</ele>
        <time>2026-04-17T12:35:32.920Z</time>
      </trkpt>
      <trkpt lat="48.38599" lon="2.56875">
        <ele>86</ele>
        <time>2026-04-17T12:35:37.044Z</time>
      </trkpt>
      <trkpt lat="48.38598" lon="2.56866">
        <ele>86</ele>
        <time>2026-04-17T12:35:41.325Z</time>
      </trkpt>
      <trkpt lat="48.38598" lon="2.56866">
        <ele>86</ele>
        <time>2026-04-17T12:35:45.616Z</time>
      </trkpt>
      <trkpt lat="48.38597" lon="2.56861">
        <ele>84</ele>
        <time>2026-04-17T12:35:49.958Z</time>
      </trkpt>
      <trkpt lat="48.38597" lon="2.56853">
        <ele>84</ele>
        <time>2026-04-17T12:35:54.277Z</time>
      </trkpt>
      <trkpt lat="48.38596" lon="2.56847">
        <ele>84</ele>
        <time>2026-04-17T12:35:58.603Z</time>
      </trkpt>
      <trkpt lat="48.38596" lon="2.56839">
        <ele>84</ele>
        <time>2026-04-17T12:36:02.878Z</time>
      </trkpt>
      <trkpt lat="48.38595" lon="2.56832">
        <ele>84</ele>
        <time>2026-04-17T12:36:07.220Z</time>
      </trkpt>
      <trkpt lat="48.38593" lon="2.56824">
        <ele>84</ele>
        <time>2026-04-17T12:36:11.444Z</time>
      </trkpt>
      <trkpt lat="48.38592" lon="2.56816">
        <ele>85</ele>
        <time>2026-04-17T12:36:15.701Z</time>
      </trkpt>
      <trkpt lat="48.38591" lon="2.56808">
        <ele>85</ele>
        <time>2026-04-17T12:36:19.938Z</time>
      </trkpt>
      <trkpt lat="48.3859" lon="2.56801">
        <ele>85</ele>
        <time>2026-04-17T12:36:24.080Z</time>
      </trkpt>
      <trkpt lat="48.38589" lon="2.56794">
        <ele>85</ele>
        <time>2026-04-17T12:36:28.303Z</time>
      </trkpt>
      <trkpt lat="48.38588" lon="2.56785">
        <ele>86</ele>
        <time>2026-04-17T12:36:32.543Z</time>
      </trkpt>
      <trkpt lat="48.38588" lon="2.56779">
        <ele>86</ele>
        <time>2026-04-17T12:36:36.740Z</time>
      </trkpt>
      <trkpt lat="48.38588" lon="2.56771">
        <ele>86</ele>
        <time>2026-04-17T12:36:41.119Z</time>
      </trkpt>
      <trkpt lat="48.38588" lon="2.56763">
        <ele>85</ele>
        <time>2026-04-17T12:36:45.343Z</time>
      </trkpt>
      <trkpt lat="48.38589" lon="2.56755">
        <ele>85</ele>
        <time>2026-04-17T12:36:49.524Z</time>
      </trkpt>
      <trkpt lat="48.38591" lon="2.56747">
        <ele>85</ele>
        <time>2026-04-17T12:36:53.740Z</time>
      </trkpt>
      <trkpt lat="48.38592" lon="2.56739">
        <ele>85</ele>
        <time>2026-04-17T12:36:57.978Z</time>
      </trkpt>
      <trkpt lat="48.38593" lon="2.56732">
        <ele>85</ele>
        <time>2026-04-17T12:37:02.321Z</time>
      </trkpt>
      <trkpt lat="48.38594" lon="2.56724">
        <ele>85</ele>
        <time>2026-04-17T12:37:06.623Z</time>
      </trkpt>
      <trkpt lat="48.38595" lon="2.56715">
        <ele>85</ele>
        <time>2026-04-17T12:37:11.084Z</time>
      </trkpt>
      <trkpt lat="48.38596" lon="2.56706">
        <ele>85</ele>
        <time>2026-04-17T12:37:15.564Z</time>
      </trkpt>
      <trkpt lat="48.38597" lon="2.56698">
        <ele>85</ele>
        <time>2026-04-17T12:37:19.897Z</time>
      </trkpt>
      <trkpt lat="48.38598" lon="2.5669">
        <ele>85</ele>
        <time>2026-04-17T12:37:24.197Z</time>
      </trkpt>
      <trkpt lat="48.386" lon="2.56683">
        <ele>85</ele>
        <time>2026-04-17T12:37:28.498Z</time>
      </trkpt>
      <trkpt lat="48.38602" lon="2.56675">
        <ele>85</ele>
        <time>2026-04-17T12:37:32.740Z</time>
      </trkpt>
      <trkpt lat="48.38603" lon="2.56667">
        <ele>85</ele>
        <time>2026-04-17T12:37:37.124Z</time>
      </trkpt>
      <trkpt lat="48.38605" lon="2.56659">
        <ele>85</ele>
        <time>2026-04-17T12:37:41.383Z</time>
      </trkpt>
      <trkpt lat="48.38606" lon="2.56652">
        <ele>86</ele>
        <time>2026-04-17T12:37:45.684Z</time>
      </trkpt>
      <trkpt lat="48.38608" lon="2.56644">
        <ele>86</ele>
        <time>2026-04-17T12:37:49.954Z</time>
      </trkpt>
      <trkpt lat="48.3861" lon="2.56635">
        <ele>86</ele>
        <time>2026-04-17T12:37:54.253Z</time>
      </trkpt>
      <trkpt lat="48.38611" lon="2.56627">
        <ele>86</ele>
        <time>2026-04-17T12:37:58.536Z</time>
      </trkpt>
      <trkpt lat="48.38614" lon="2.56619">
        <ele>86</ele>
        <time>2026-04-17T12:38:02.878Z</time>
      </trkpt>
      <trkpt lat="48.38616" lon="2.56611">
        <ele>86</ele>
        <time>2026-04-17T12:38:07.059Z</time>
      </trkpt>
      <trkpt lat="48.38619" lon="2.56602">
        <ele>86</ele>
        <time>2026-04-17T12:38:11.305Z</time>
      </trkpt>
      <trkpt lat="48.38621" lon="2.56595">
        <ele>85</ele>
        <time>2026-04-17T12:38:15.602Z</time>
      </trkpt>
      <trkpt lat="48.38623" lon="2.56587">
        <ele>85</ele>
        <time>2026-04-17T12:38:19.959Z</time>
      </trkpt>
      <trkpt lat="48.38625" lon="2.56579">
        <ele>85</ele>
        <time>2026-04-17T12:38:24.277Z</time>
      </trkpt>
      <trkpt lat="48.38627" lon="2.56572">
        <ele>85</ele>
        <time>2026-04-17T12:38:28.577Z</time>
      </trkpt>
      <trkpt lat="48.38629" lon="2.56563">
        <ele>84</ele>
        <time>2026-04-17T12:38:32.951Z</time>
      </trkpt>
      <trkpt lat="48.38632" lon="2.56556">
        <ele>84</ele>
        <time>2026-04-17T12:38:37.153Z</time>
      </trkpt>
      <trkpt lat="48.38635" lon="2.56547">
        <ele>84</ele>
        <time>2026-04-17T12:38:41.555Z</time>
      </trkpt>
      <trkpt lat="48.38637" lon="2.5654">
        <ele>83</ele>
        <time>2026-04-17T12:38:45.838Z</time>
      </trkpt>
      <trkpt lat="48.38639" lon="2.56532">
        <ele>83</ele>
        <time>2026-04-17T12:38:50.019Z</time>
      </trkpt>
      <trkpt lat="48.38641" lon="2.56525">
        <ele>83</ele>
        <time>2026-04-17T12:38:54.260Z</time>
      </trkpt>
      <trkpt lat="48.38643" lon="2.56516">
        <ele>83</ele>
        <time>2026-04-17T12:38:58.653Z</time>
      </trkpt>
      <trkpt lat="48.38646" lon="2.56508">
        <ele>82</ele>
        <time>2026-04-17T12:39:02.951Z</time>
      </trkpt>
      <trkpt lat="48.38649" lon="2.565">
        <ele>82</ele>
        <time>2026-04-17T12:39:07.374Z</time>
      </trkpt>
      <trkpt lat="48.38652" lon="2.56493">
        <ele>82</ele>
        <time>2026-04-17T12:39:11.716Z</time>
      </trkpt>
      <trkpt lat="48.38655" lon="2.56486">
        <ele>82</ele>
        <time>2026-04-17T12:39:16.093Z</time>
      </trkpt>
      <trkpt lat="48.38657" lon="2.56478">
        <ele>81</ele>
        <time>2026-04-17T12:39:20.376Z</time>
      </trkpt>
      <trkpt lat="48.3866" lon="2.5647">
        <ele>81</ele>
        <time>2026-04-17T12:39:24.659Z</time>
      </trkpt>
      <trkpt lat="48.38662" lon="2.56464">
        <ele>81</ele>
        <time>2026-04-17T12:39:28.899Z</time>
      </trkpt>
      <trkpt lat="48.38665" lon="2.56457">
        <ele>82</ele>
        <time>2026-04-17T12:43:28.740Z</time>
      </trkpt>
      <trkpt lat="48.38668" lon="2.5645">
        <ele>82</ele>
        <time>2026-04-17T12:43:45.740Z</time>
      </trkpt>
      <trkpt lat="48.3867" lon="2.56444">
        <ele>82</ele>
        <time>2026-04-17T12:43:49.740Z</time>
      </trkpt>
      <trkpt lat="48.38673" lon="2.56437">
        <ele>82</ele>
        <time>2026-04-17T12:43:54.740Z</time>
      </trkpt>
      <trkpt lat="48.38676" lon="2.56429">
        <ele>82</ele>
        <time>2026-04-17T12:43:58.740Z</time>
      </trkpt>
      <trkpt lat="48.38678" lon="2.56422">
        <ele>82</ele>
        <time>2026-04-17T12:44:03.169Z</time>
      </trkpt>
      <trkpt lat="48.38681" lon="2.56414">
        <ele>83</ele>
        <time>2026-04-17T12:44:07.257Z</time>
      </trkpt>
      <trkpt lat="48.38684" lon="2.56408">
        <ele>83</ele>
        <time>2026-04-17T12:44:11.709Z</time>
      </trkpt>
      <trkpt lat="48.38687" lon="2.56401">
        <ele>82</ele>
        <time>2026-04-17T12:44:16.189Z</time>
      </trkpt>
      <trkpt lat="48.3869" lon="2.56393">
        <ele>82</ele>
        <time>2026-04-17T12:44:20.695Z</time>
      </trkpt>
      <trkpt lat="48.38694" lon="2.56386">
        <ele>82</ele>
        <time>2026-04-17T12:44:24.713Z</time>
      </trkpt>
      <trkpt lat="48.38697" lon="2.5638">
        <ele>82</ele>
        <time>2026-04-17T12:44:28.751Z</time>
      </trkpt>
      <trkpt lat="48.387" lon="2.56374">
        <ele>81</ele>
        <time>2026-04-17T12:44:33.331Z</time>
      </trkpt>
      <trkpt lat="48.38703" lon="2.56368">
        <ele>81</ele>
        <time>2026-04-17T12:44:37.393Z</time>
      </trkpt>
      <trkpt lat="48.38706" lon="2.56362">
        <ele>81</ele>
        <time>2026-04-17T12:44:41.872Z</time>
      </trkpt>
      <trkpt lat="48.38711" lon="2.56358">
        <ele>81</ele>
        <time>2026-04-17T12:44:45.938Z</time>
      </trkpt>
      <trkpt lat="48.38715" lon="2.56354">
        <ele>81</ele>
        <time>2026-04-17T12:44:50.396Z</time>
      </trkpt>
      <trkpt lat="48.38718" lon="2.56349">
        <ele>81</ele>
        <time>2026-04-17T12:44:54.740Z</time>
      </trkpt>
      <trkpt lat="48.38721" lon="2.56341">
        <ele>80</ele>
        <time>2026-04-17T12:44:59.176Z</time>
      </trkpt>
      <trkpt lat="48.38724" lon="2.56334">
        <ele>80</ele>
        <time>2026-04-17T12:45:03.673Z</time>
      </trkpt>
      <trkpt lat="48.38726" lon="2.56326">
        <ele>80</ele>
        <time>2026-04-17T12:45:08.135Z</time>
      </trkpt>
      <trkpt lat="48.38728" lon="2.56319">
        <ele>80</ele>
        <time>2026-04-17T12:45:12.554Z</time>
      </trkpt>
      <trkpt lat="48.38731" lon="2.56311">
        <ele>80</ele>
        <time>2026-04-17T12:45:17.036Z</time>
      </trkpt>
      <trkpt lat="48.38733" lon="2.56305">
        <ele>80</ele>
        <time>2026-04-17T12:45:21.496Z</time>
      </trkpt>
      <trkpt lat="48.38734" lon="2.56297">
        <ele>80</ele>
        <time>2026-04-17T12:45:25.916Z</time>
      </trkpt>
      <trkpt lat="48.38736" lon="2.56288">
        <ele>80</ele>
        <time>2026-04-17T12:45:30.456Z</time>
      </trkpt>
      <trkpt lat="48.38737" lon="2.5628">
        <ele>79</ele>
        <time>2026-04-17T12:45:34.875Z</time>
      </trkpt>
      <trkpt lat="48.38739" lon="2.56272">
        <ele>79</ele>
        <time>2026-04-17T12:45:39.294Z</time>
      </trkpt>
      <trkpt lat="48.38742" lon="2.56265">
        <ele>79</ele>
        <time>2026-04-17T12:45:43.749Z</time>
      </trkpt>
      <trkpt lat="48.38745" lon="2.56259">
        <ele>78</ele>
        <time>2026-04-17T12:45:48.134Z</time>
      </trkpt>
      <trkpt lat="48.38748" lon="2.56253">
        <ele>78</ele>
        <time>2026-04-17T12:45:52.554Z</time>
      </trkpt>
    </trkseg>
  </trk>
</gpx>